<?xml version="1.0" encoding="UTF-8" standalone="no" ?>
<gpx xmlns="http://www.topografix.com/GPX/1/1" xmlns:xsi="http://www.w3.org/2001/XMLSchema-instance" xsi:schemaLocation="http://www.topografix.com/GPX/1/1 http://www.topografix.com/GPX/1/1/gpx.xsd" version="1.1" creator="VisuGPX - https://www.visugpx.com">
  <metadata>
    <name>Mirebel,Crançot</name>
  </metadata>
  <trk>
    <name><![CDATA[Mirebel,Crançot_1]]></name>
    <trkseg>
      <trkpt lat="46.6896" lon="5.68028">
        <ele>511.4</ele>
        <time>2020-03-03T08:01:36Z</time>
      </trkpt>
      <trkpt lat="46.68965" lon="5.68034">
        <ele>513.3</ele>
        <time>2020-03-03T08:01:49Z</time>
      </trkpt>
      <trkpt lat="46.68969" lon="5.68041">
        <ele>517.3</ele>
        <time>2020-03-03T08:02:02Z</time>
      </trkpt>
      <trkpt lat="46.68973" lon="5.68045">
        <ele>519</ele>
        <time>2020-03-03T08:02:15Z</time>
      </trkpt>
      <trkpt lat="46.68978" lon="5.68046">
        <ele>518.6</ele>
        <time>2020-03-03T08:02:23Z</time>
      </trkpt>
      <trkpt lat="46.68983" lon="5.68044">
        <ele>518.2</ele>
        <time>2020-03-03T08:02:29Z</time>
      </trkpt>
      <trkpt lat="46.68987" lon="5.6804">
        <ele>518</ele>
        <time>2020-03-03T08:02:33Z</time>
      </trkpt>
      <trkpt lat="46.68992" lon="5.68037">
        <ele>517.8</ele>
        <time>2020-03-03T08:02:38Z</time>
      </trkpt>
      <trkpt lat="46.68997" lon="5.68036">
        <ele>517.5</ele>
        <time>2020-03-03T08:02:43Z</time>
      </trkpt>
      <trkpt lat="46.69002" lon="5.68033">
        <ele>517.2</ele>
        <time>2020-03-03T08:02:48Z</time>
      </trkpt>
      <trkpt lat="46.69006" lon="5.6803">
        <ele>516.7</ele>
        <time>2020-03-03T08:02:55Z</time>
      </trkpt>
      <trkpt lat="46.69011" lon="5.68026">
        <ele>516.4</ele>
        <time>2020-03-03T08:02:59Z</time>
      </trkpt>
      <trkpt lat="46.69016" lon="5.68023">
        <ele>516.1</ele>
        <time>2020-03-03T08:03:03Z</time>
      </trkpt>
      <trkpt lat="46.6902" lon="5.6802">
        <ele>515.7</ele>
        <time>2020-03-03T08:03:08Z</time>
      </trkpt>
      <trkpt lat="46.69025" lon="5.68018">
        <ele>515.5</ele>
        <time>2020-03-03T08:03:13Z</time>
      </trkpt>
      <trkpt lat="46.69029" lon="5.68015">
        <ele>515.2</ele>
        <time>2020-03-03T08:03:18Z</time>
      </trkpt>
      <trkpt lat="46.69032" lon="5.68011">
        <ele>514.7</ele>
        <time>2020-03-03T08:03:23Z</time>
      </trkpt>
      <trkpt lat="46.69036" lon="5.68005">
        <ele>513.7</ele>
        <time>2020-03-03T08:03:31Z</time>
      </trkpt>
      <trkpt lat="46.6904" lon="5.68001">
        <ele>513.2</ele>
        <time>2020-03-03T08:03:35Z</time>
      </trkpt>
      <trkpt lat="46.69045" lon="5.67998">
        <ele>512.6</ele>
        <time>2020-03-03T08:03:40Z</time>
      </trkpt>
      <trkpt lat="46.69049" lon="5.67995">
        <ele>512.1</ele>
        <time>2020-03-03T08:03:44Z</time>
      </trkpt>
      <trkpt lat="46.69053" lon="5.67992">
        <ele>511.2</ele>
        <time>2020-03-03T08:03:51Z</time>
      </trkpt>
      <trkpt lat="46.69058" lon="5.67988">
        <ele>509.3</ele>
        <time>2020-03-03T08:04:01Z</time>
      </trkpt>
      <trkpt lat="46.69062" lon="5.67986">
        <ele>508.5</ele>
        <time>2020-03-03T08:04:05Z</time>
      </trkpt>
      <trkpt lat="46.69067" lon="5.67983">
        <ele>507.7</ele>
        <time>2020-03-03T08:04:09Z</time>
      </trkpt>
      <trkpt lat="46.69072" lon="5.6798">
        <ele>507.1</ele>
        <time>2020-03-03T08:04:13Z</time>
      </trkpt>
      <trkpt lat="46.69077" lon="5.67978">
        <ele>506.6</ele>
        <time>2020-03-03T08:04:17Z</time>
      </trkpt>
      <trkpt lat="46.69082" lon="5.67976">
        <ele>506.2</ele>
        <time>2020-03-03T08:04:22Z</time>
      </trkpt>
      <trkpt lat="46.69087" lon="5.67975">
        <ele>506.1</ele>
        <time>2020-03-03T08:04:26Z</time>
      </trkpt>
      <trkpt lat="46.69092" lon="5.67976">
        <ele>506</ele>
        <time>2020-03-03T08:04:30Z</time>
      </trkpt>
      <trkpt lat="46.69098" lon="5.67977">
        <ele>505.9</ele>
        <time>2020-03-03T08:04:34Z</time>
      </trkpt>
      <trkpt lat="46.69103" lon="5.67978">
        <ele>505.8</ele>
        <time>2020-03-03T08:04:38Z</time>
      </trkpt>
      <trkpt lat="46.69108" lon="5.67979">
        <ele>505.7</ele>
        <time>2020-03-03T08:04:42Z</time>
      </trkpt>
      <trkpt lat="46.69113" lon="5.67981">
        <ele>505.5</ele>
        <time>2020-03-03T08:04:46Z</time>
      </trkpt>
      <trkpt lat="46.69119" lon="5.67981">
        <ele>505.2</ele>
        <time>2020-03-03T08:04:52Z</time>
      </trkpt>
      <trkpt lat="46.69124" lon="5.67984">
        <ele>505.1</ele>
        <time>2020-03-03T08:04:56Z</time>
      </trkpt>
      <trkpt lat="46.69129" lon="5.67986">
        <ele>504.9</ele>
        <time>2020-03-03T08:05:00Z</time>
      </trkpt>
      <trkpt lat="46.69133" lon="5.67988">
        <ele>504.7</ele>
        <time>2020-03-03T08:05:04Z</time>
      </trkpt>
      <trkpt lat="46.69138" lon="5.67991">
        <ele>504.5</ele>
        <time>2020-03-03T08:05:09Z</time>
      </trkpt>
      <trkpt lat="46.69143" lon="5.67994">
        <ele>504.5</ele>
        <time>2020-03-03T08:05:13Z</time>
      </trkpt>
      <trkpt lat="46.69147" lon="5.67996">
        <ele>504.3</ele>
        <time>2020-03-03T08:05:19Z</time>
      </trkpt>
      <trkpt lat="46.69152" lon="5.67998">
        <ele>503.5</ele>
        <time>2020-03-03T08:05:26Z</time>
      </trkpt>
      <trkpt lat="46.69157" lon="5.67999">
        <ele>502.9</ele>
        <time>2020-03-03T08:05:32Z</time>
      </trkpt>
      <trkpt lat="46.69163" lon="5.67999">
        <ele>502.7</ele>
        <time>2020-03-03T08:05:37Z</time>
      </trkpt>
      <trkpt lat="46.69168" lon="5.67998">
        <ele>502.7</ele>
        <time>2020-03-03T08:05:41Z</time>
      </trkpt>
      <trkpt lat="46.69173" lon="5.67998">
        <ele>502.7</ele>
        <time>2020-03-03T08:05:45Z</time>
      </trkpt>
      <trkpt lat="46.69178" lon="5.67999">
        <ele>502.5</ele>
        <time>2020-03-03T08:05:49Z</time>
      </trkpt>
      <trkpt lat="46.69184" lon="5.67999">
        <ele>502.3</ele>
        <time>2020-03-03T08:05:53Z</time>
      </trkpt>
      <trkpt lat="46.69189" lon="5.68">
        <ele>502.1</ele>
        <time>2020-03-03T08:05:57Z</time>
      </trkpt>
      <trkpt lat="46.69194" lon="5.68001">
        <ele>502</ele>
        <time>2020-03-03T08:06:03Z</time>
      </trkpt>
      <trkpt lat="46.69199" lon="5.68001">
        <ele>502</ele>
        <time>2020-03-03T08:06:07Z</time>
      </trkpt>
      <trkpt lat="46.69205" lon="5.68003">
        <ele>502</ele>
        <time>2020-03-03T08:06:11Z</time>
      </trkpt>
      <trkpt lat="46.69209" lon="5.68005">
        <ele>502</ele>
        <time>2020-03-03T08:06:16Z</time>
      </trkpt>
      <trkpt lat="46.69214" lon="5.68006">
        <ele>502.3</ele>
        <time>2020-03-03T08:06:20Z</time>
      </trkpt>
      <trkpt lat="46.6922" lon="5.68008">
        <ele>502.5</ele>
        <time>2020-03-03T08:06:24Z</time>
      </trkpt>
      <trkpt lat="46.69225" lon="5.6801">
        <ele>502.7</ele>
        <time>2020-03-03T08:06:28Z</time>
      </trkpt>
      <trkpt lat="46.69229" lon="5.68011">
        <ele>502.9</ele>
        <time>2020-03-03T08:06:32Z</time>
      </trkpt>
      <trkpt lat="46.69234" lon="5.68013">
        <ele>503.2</ele>
        <time>2020-03-03T08:06:36Z</time>
      </trkpt>
      <trkpt lat="46.69239" lon="5.68014">
        <ele>503.8</ele>
        <time>2020-03-03T08:06:41Z</time>
      </trkpt>
      <trkpt lat="46.69244" lon="5.68015">
        <ele>504.1</ele>
        <time>2020-03-03T08:06:45Z</time>
      </trkpt>
      <trkpt lat="46.69248" lon="5.68017">
        <ele>504.6</ele>
        <time>2020-03-03T08:06:50Z</time>
      </trkpt>
      <trkpt lat="46.69253" lon="5.68019">
        <ele>504.8</ele>
        <time>2020-03-03T08:06:55Z</time>
      </trkpt>
      <trkpt lat="46.69258" lon="5.6802">
        <ele>504.9</ele>
        <time>2020-03-03T08:07:01Z</time>
      </trkpt>
      <trkpt lat="46.69273" lon="5.68024">
        <ele>504.1</ele>
        <time>2020-03-03T08:07:15Z</time>
      </trkpt>
      <trkpt lat="46.69278" lon="5.68022">
        <ele>503.7</ele>
        <time>2020-03-03T08:07:20Z</time>
      </trkpt>
      <trkpt lat="46.69282" lon="5.68019">
        <ele>503.4</ele>
        <time>2020-03-03T08:07:25Z</time>
      </trkpt>
      <trkpt lat="46.69286" lon="5.68014">
        <ele>503.4</ele>
        <time>2020-03-03T08:07:29Z</time>
      </trkpt>
      <trkpt lat="46.69289" lon="5.6801">
        <ele>503.6</ele>
        <time>2020-03-03T08:07:32Z</time>
      </trkpt>
      <trkpt lat="46.69294" lon="5.68004">
        <ele>503.8</ele>
        <time>2020-03-03T08:07:36Z</time>
      </trkpt>
      <trkpt lat="46.69297" lon="5.67999">
        <ele>504.1</ele>
        <time>2020-03-03T08:07:39Z</time>
      </trkpt>
      <trkpt lat="46.693" lon="5.67992">
        <ele>504.6</ele>
        <time>2020-03-03T08:07:43Z</time>
      </trkpt>
      <trkpt lat="46.69303" lon="5.67986">
        <ele>505.3</ele>
        <time>2020-03-03T08:07:47Z</time>
      </trkpt>
      <trkpt lat="46.69306" lon="5.6798">
        <ele>506.1</ele>
        <time>2020-03-03T08:07:51Z</time>
      </trkpt>
      <trkpt lat="46.69309" lon="5.67974">
        <ele>507.1</ele>
        <time>2020-03-03T08:07:57Z</time>
      </trkpt>
      <trkpt lat="46.69314" lon="5.6797">
        <ele>507.8</ele>
        <time>2020-03-03T08:08:02Z</time>
      </trkpt>
      <trkpt lat="46.69318" lon="5.67967">
        <ele>508.1</ele>
        <time>2020-03-03T08:08:06Z</time>
      </trkpt>
      <trkpt lat="46.69323" lon="5.67963">
        <ele>508.4</ele>
        <time>2020-03-03T08:08:11Z</time>
      </trkpt>
      <trkpt lat="46.69328" lon="5.67964">
        <ele>508.6</ele>
        <time>2020-03-03T08:08:15Z</time>
      </trkpt>
      <trkpt lat="46.69334" lon="5.67965">
        <ele>508.4</ele>
        <time>2020-03-03T08:08:20Z</time>
      </trkpt>
      <trkpt lat="46.69339" lon="5.67969">
        <ele>508.3</ele>
        <time>2020-03-03T08:08:25Z</time>
      </trkpt>
      <trkpt lat="46.69343" lon="5.67971">
        <ele>508.1</ele>
        <time>2020-03-03T08:08:29Z</time>
      </trkpt>
      <trkpt lat="46.69348" lon="5.67973">
        <ele>508</ele>
        <time>2020-03-03T08:08:33Z</time>
      </trkpt>
      <trkpt lat="46.69353" lon="5.67976">
        <ele>507.8</ele>
        <time>2020-03-03T08:08:37Z</time>
      </trkpt>
      <trkpt lat="46.69356" lon="5.67979">
        <ele>507.7</ele>
        <time>2020-03-03T08:08:42Z</time>
      </trkpt>
      <trkpt lat="46.6936" lon="5.67985">
        <ele>507.6</ele>
        <time>2020-03-03T08:08:48Z</time>
      </trkpt>
      <trkpt lat="46.69364" lon="5.6799">
        <ele>507.5</ele>
        <time>2020-03-03T08:08:53Z</time>
      </trkpt>
      <trkpt lat="46.69368" lon="5.67993">
        <ele>507.4</ele>
        <time>2020-03-03T08:08:59Z</time>
      </trkpt>
      <trkpt lat="46.69373" lon="5.67993">
        <ele>507.4</ele>
        <time>2020-03-03T08:09:04Z</time>
      </trkpt>
      <trkpt lat="46.69378" lon="5.67993">
        <ele>507.4</ele>
        <time>2020-03-03T08:09:09Z</time>
      </trkpt>
      <trkpt lat="46.69383" lon="5.67991">
        <ele>507.6</ele>
        <time>2020-03-03T08:09:14Z</time>
      </trkpt>
      <trkpt lat="46.69388" lon="5.6799">
        <ele>507.7</ele>
        <time>2020-03-03T08:09:18Z</time>
      </trkpt>
      <trkpt lat="46.69393" lon="5.67987">
        <ele>507.8</ele>
        <time>2020-03-03T08:09:22Z</time>
      </trkpt>
      <trkpt lat="46.69398" lon="5.67986">
        <ele>507.9</ele>
        <time>2020-03-03T08:09:25Z</time>
      </trkpt>
      <trkpt lat="46.69403" lon="5.67983">
        <ele>508.1</ele>
        <time>2020-03-03T08:09:29Z</time>
      </trkpt>
      <trkpt lat="46.69409" lon="5.67982">
        <ele>508.2</ele>
        <time>2020-03-03T08:09:33Z</time>
      </trkpt>
      <trkpt lat="46.69414" lon="5.67979">
        <ele>508.2</ele>
        <time>2020-03-03T08:09:37Z</time>
      </trkpt>
      <trkpt lat="46.69419" lon="5.67976">
        <ele>508.4</ele>
        <time>2020-03-03T08:09:41Z</time>
      </trkpt>
      <trkpt lat="46.69424" lon="5.67975">
        <ele>508.7</ele>
        <time>2020-03-03T08:09:45Z</time>
      </trkpt>
      <trkpt lat="46.69429" lon="5.67975">
        <ele>508.9</ele>
        <time>2020-03-03T08:09:49Z</time>
      </trkpt>
      <trkpt lat="46.69434" lon="5.67975">
        <ele>509.2</ele>
        <time>2020-03-03T08:09:54Z</time>
      </trkpt>
      <trkpt lat="46.69439" lon="5.67976">
        <ele>509.3</ele>
        <time>2020-03-03T08:09:59Z</time>
      </trkpt>
      <trkpt lat="46.69444" lon="5.67976">
        <ele>509.2</ele>
        <time>2020-03-03T08:10:04Z</time>
      </trkpt>
      <trkpt lat="46.69449" lon="5.67976">
        <ele>509.2</ele>
        <time>2020-03-03T08:10:09Z</time>
      </trkpt>
      <trkpt lat="46.69454" lon="5.67975">
        <ele>509.1</ele>
        <time>2020-03-03T08:10:14Z</time>
      </trkpt>
      <trkpt lat="46.69459" lon="5.67973">
        <ele>509.1</ele>
        <time>2020-03-03T08:10:19Z</time>
      </trkpt>
      <trkpt lat="46.69464" lon="5.67969">
        <ele>509.2</ele>
        <time>2020-03-03T08:10:24Z</time>
      </trkpt>
      <trkpt lat="46.69469" lon="5.67965">
        <ele>509.5</ele>
        <time>2020-03-03T08:10:29Z</time>
      </trkpt>
      <trkpt lat="46.69473" lon="5.6796">
        <ele>510</ele>
        <time>2020-03-03T08:10:34Z</time>
      </trkpt>
      <trkpt lat="46.69477" lon="5.67957">
        <ele>510.6</ele>
        <time>2020-03-03T08:10:38Z</time>
      </trkpt>
      <trkpt lat="46.69481" lon="5.67953">
        <ele>511.1</ele>
        <time>2020-03-03T08:10:42Z</time>
      </trkpt>
      <trkpt lat="46.69485" lon="5.6795">
        <ele>511.6</ele>
        <time>2020-03-03T08:10:46Z</time>
      </trkpt>
      <trkpt lat="46.69489" lon="5.6795">
        <ele>512.2</ele>
        <time>2020-03-03T08:10:51Z</time>
      </trkpt>
      <trkpt lat="46.69494" lon="5.67953">
        <ele>512.4</ele>
        <time>2020-03-03T08:10:55Z</time>
      </trkpt>
      <trkpt lat="46.69497" lon="5.67957">
        <ele>512.3</ele>
        <time>2020-03-03T08:11:00Z</time>
      </trkpt>
      <trkpt lat="46.69502" lon="5.67961">
        <ele>512</ele>
        <time>2020-03-03T08:11:05Z</time>
      </trkpt>
      <trkpt lat="46.69507" lon="5.67963">
        <ele>511.8</ele>
        <time>2020-03-03T08:11:09Z</time>
      </trkpt>
      <trkpt lat="46.69512" lon="5.67967">
        <ele>511.5</ele>
        <time>2020-03-03T08:11:14Z</time>
      </trkpt>
      <trkpt lat="46.69516" lon="5.67969">
        <ele>511.1</ele>
        <time>2020-03-03T08:11:18Z</time>
      </trkpt>
      <trkpt lat="46.69521" lon="5.67971">
        <ele>510.9</ele>
        <time>2020-03-03T08:11:22Z</time>
      </trkpt>
      <trkpt lat="46.69525" lon="5.67973">
        <ele>510.7</ele>
        <time>2020-03-03T08:11:27Z</time>
      </trkpt>
      <trkpt lat="46.6953" lon="5.67975">
        <ele>510.5</ele>
        <time>2020-03-03T08:11:32Z</time>
      </trkpt>
      <trkpt lat="46.69534" lon="5.67976">
        <ele>510.4</ele>
        <time>2020-03-03T08:11:36Z</time>
      </trkpt>
      <trkpt lat="46.69539" lon="5.67978">
        <ele>510.1</ele>
        <time>2020-03-03T08:11:41Z</time>
      </trkpt>
      <trkpt lat="46.69544" lon="5.67978">
        <ele>509.7</ele>
        <time>2020-03-03T08:11:46Z</time>
      </trkpt>
      <trkpt lat="46.69549" lon="5.6798">
        <ele>509.3</ele>
        <time>2020-03-03T08:11:51Z</time>
      </trkpt>
      <trkpt lat="46.69555" lon="5.6798">
        <ele>508.6</ele>
        <time>2020-03-03T08:11:58Z</time>
      </trkpt>
      <trkpt lat="46.69559" lon="5.67981">
        <ele>507.7</ele>
        <time>2020-03-03T08:12:04Z</time>
      </trkpt>
      <trkpt lat="46.69565" lon="5.67982">
        <ele>507</ele>
        <time>2020-03-03T08:12:09Z</time>
      </trkpt>
      <trkpt lat="46.6957" lon="5.67984">
        <ele>506.6</ele>
        <time>2020-03-03T08:12:14Z</time>
      </trkpt>
      <trkpt lat="46.69574" lon="5.67984">
        <ele>506.5</ele>
        <time>2020-03-03T08:12:18Z</time>
      </trkpt>
      <trkpt lat="46.6958" lon="5.67985">
        <ele>506.4</ele>
        <time>2020-03-03T08:12:22Z</time>
      </trkpt>
      <trkpt lat="46.69585" lon="5.67987">
        <ele>506.4</ele>
        <time>2020-03-03T08:12:26Z</time>
      </trkpt>
      <trkpt lat="46.6959" lon="5.67988">
        <ele>506.5</ele>
        <time>2020-03-03T08:12:31Z</time>
      </trkpt>
      <trkpt lat="46.69602" lon="5.67995">
        <ele>506.5</ele>
        <time>2020-03-03T08:12:45Z</time>
      </trkpt>
      <trkpt lat="46.69608" lon="5.67996">
        <ele>506.4</ele>
        <time>2020-03-03T08:12:48Z</time>
      </trkpt>
      <trkpt lat="46.69613" lon="5.67997">
        <ele>506</ele>
        <time>2020-03-03T08:12:52Z</time>
      </trkpt>
      <trkpt lat="46.69618" lon="5.67999">
        <ele>505.8</ele>
        <time>2020-03-03T08:12:56Z</time>
      </trkpt>
      <trkpt lat="46.69623" lon="5.68">
        <ele>505.6</ele>
        <time>2020-03-03T08:13:00Z</time>
      </trkpt>
      <trkpt lat="46.69628" lon="5.68001">
        <ele>505.4</ele>
        <time>2020-03-03T08:13:04Z</time>
      </trkpt>
      <trkpt lat="46.69633" lon="5.68003">
        <ele>505</ele>
        <time>2020-03-03T08:13:09Z</time>
      </trkpt>
      <trkpt lat="46.69646" lon="5.68007">
        <ele>504.2</ele>
        <time>2020-03-03T08:13:19Z</time>
      </trkpt>
      <trkpt lat="46.69651" lon="5.68008">
        <ele>504.2</ele>
        <time>2020-03-03T08:13:25Z</time>
      </trkpt>
      <trkpt lat="46.69656" lon="5.6801">
        <ele>504.1</ele>
        <time>2020-03-03T08:13:29Z</time>
      </trkpt>
      <trkpt lat="46.69661" lon="5.68013">
        <ele>504</ele>
        <time>2020-03-03T08:13:33Z</time>
      </trkpt>
      <trkpt lat="46.69666" lon="5.68017">
        <ele>503.7</ele>
        <time>2020-03-03T08:13:38Z</time>
      </trkpt>
      <trkpt lat="46.6967" lon="5.6802">
        <ele>503.4</ele>
        <time>2020-03-03T08:13:43Z</time>
      </trkpt>
      <trkpt lat="46.69675" lon="5.68021">
        <ele>503.1</ele>
        <time>2020-03-03T08:13:47Z</time>
      </trkpt>
      <trkpt lat="46.6968" lon="5.68021">
        <ele>502.8</ele>
        <time>2020-03-03T08:13:52Z</time>
      </trkpt>
      <trkpt lat="46.69685" lon="5.68022">
        <ele>502.8</ele>
        <time>2020-03-03T08:13:56Z</time>
      </trkpt>
      <trkpt lat="46.6969" lon="5.68022">
        <ele>502.8</ele>
        <time>2020-03-03T08:13:59Z</time>
      </trkpt>
      <trkpt lat="46.69695" lon="5.68022">
        <ele>503.1</ele>
        <time>2020-03-03T08:14:03Z</time>
      </trkpt>
      <trkpt lat="46.697" lon="5.68021">
        <ele>503.4</ele>
        <time>2020-03-03T08:14:07Z</time>
      </trkpt>
      <trkpt lat="46.69705" lon="5.68022">
        <ele>503.9</ele>
        <time>2020-03-03T08:14:11Z</time>
      </trkpt>
      <trkpt lat="46.6971" lon="5.68023">
        <ele>504.5</ele>
        <time>2020-03-03T08:14:15Z</time>
      </trkpt>
      <trkpt lat="46.69715" lon="5.68025">
        <ele>504.9</ele>
        <time>2020-03-03T08:14:20Z</time>
      </trkpt>
      <trkpt lat="46.6972" lon="5.68027">
        <ele>505.4</ele>
        <time>2020-03-03T08:14:27Z</time>
      </trkpt>
      <trkpt lat="46.69724" lon="5.68028">
        <ele>506</ele>
        <time>2020-03-03T08:14:35Z</time>
      </trkpt>
      <trkpt lat="46.69729" lon="5.6803">
        <ele>506.6</ele>
        <time>2020-03-03T08:14:41Z</time>
      </trkpt>
      <trkpt lat="46.69735" lon="5.68032">
        <ele>506.9</ele>
        <time>2020-03-03T08:14:45Z</time>
      </trkpt>
      <trkpt lat="46.6974" lon="5.68035">
        <ele>507</ele>
        <time>2020-03-03T08:14:49Z</time>
      </trkpt>
      <trkpt lat="46.69745" lon="5.68037">
        <ele>506.9</ele>
        <time>2020-03-03T08:14:55Z</time>
      </trkpt>
      <trkpt lat="46.69749" lon="5.68036">
        <ele>506.6</ele>
        <time>2020-03-03T08:15:01Z</time>
      </trkpt>
      <trkpt lat="46.69754" lon="5.68036">
        <ele>506.2</ele>
        <time>2020-03-03T08:15:07Z</time>
      </trkpt>
      <trkpt lat="46.69759" lon="5.68037">
        <ele>506</ele>
        <time>2020-03-03T08:15:12Z</time>
      </trkpt>
      <trkpt lat="46.69765" lon="5.68039">
        <ele>506.1</ele>
        <time>2020-03-03T08:15:17Z</time>
      </trkpt>
      <trkpt lat="46.69769" lon="5.68041">
        <ele>506.2</ele>
        <time>2020-03-03T08:15:20Z</time>
      </trkpt>
      <trkpt lat="46.69774" lon="5.68043">
        <ele>506.4</ele>
        <time>2020-03-03T08:15:25Z</time>
      </trkpt>
      <trkpt lat="46.69779" lon="5.68045">
        <ele>506.5</ele>
        <time>2020-03-03T08:15:28Z</time>
      </trkpt>
      <trkpt lat="46.69783" lon="5.68046">
        <ele>506.4</ele>
        <time>2020-03-03T08:15:32Z</time>
      </trkpt>
      <trkpt lat="46.69787" lon="5.68048">
        <ele>506.3</ele>
        <time>2020-03-03T08:15:35Z</time>
      </trkpt>
      <trkpt lat="46.69792" lon="5.6805">
        <ele>506.1</ele>
        <time>2020-03-03T08:15:40Z</time>
      </trkpt>
      <trkpt lat="46.69797" lon="5.68052">
        <ele>505.9</ele>
        <time>2020-03-03T08:15:45Z</time>
      </trkpt>
      <trkpt lat="46.69801" lon="5.68054">
        <ele>505.6</ele>
        <time>2020-03-03T08:15:50Z</time>
      </trkpt>
      <trkpt lat="46.69806" lon="5.68055">
        <ele>505.2</ele>
        <time>2020-03-03T08:15:55Z</time>
      </trkpt>
      <trkpt lat="46.69811" lon="5.68057">
        <ele>504.8</ele>
        <time>2020-03-03T08:16:00Z</time>
      </trkpt>
      <trkpt lat="46.69816" lon="5.68059">
        <ele>504.1</ele>
        <time>2020-03-03T08:16:06Z</time>
      </trkpt>
      <trkpt lat="46.6982" lon="5.68061">
        <ele>503.7</ele>
        <time>2020-03-03T08:16:12Z</time>
      </trkpt>
      <trkpt lat="46.69825" lon="5.68064">
        <ele>503.6</ele>
        <time>2020-03-03T08:16:16Z</time>
      </trkpt>
      <trkpt lat="46.69831" lon="5.68065">
        <ele>503.3</ele>
        <time>2020-03-03T08:16:21Z</time>
      </trkpt>
      <trkpt lat="46.69835" lon="5.68068">
        <ele>503.1</ele>
        <time>2020-03-03T08:16:25Z</time>
      </trkpt>
      <trkpt lat="46.6984" lon="5.6807">
        <ele>502.9</ele>
        <time>2020-03-03T08:16:29Z</time>
      </trkpt>
      <trkpt lat="46.69846" lon="5.68071">
        <ele>502.4</ele>
        <time>2020-03-03T08:16:34Z</time>
      </trkpt>
      <trkpt lat="46.69851" lon="5.68074">
        <ele>501.7</ele>
        <time>2020-03-03T08:16:39Z</time>
      </trkpt>
      <trkpt lat="46.69855" lon="5.68076">
        <ele>501.1</ele>
        <time>2020-03-03T08:16:44Z</time>
      </trkpt>
      <trkpt lat="46.6986" lon="5.68077">
        <ele>500.9</ele>
        <time>2020-03-03T08:16:51Z</time>
      </trkpt>
      <trkpt lat="46.69865" lon="5.6808">
        <ele>501.3</ele>
        <time>2020-03-03T08:17:00Z</time>
      </trkpt>
      <trkpt lat="46.69871" lon="5.68078">
        <ele>501.6</ele>
        <time>2020-03-03T08:17:03Z</time>
      </trkpt>
      <trkpt lat="46.69876" lon="5.68079">
        <ele>502.1</ele>
        <time>2020-03-03T08:17:07Z</time>
      </trkpt>
      <trkpt lat="46.69881" lon="5.68081">
        <ele>502.4</ele>
        <time>2020-03-03T08:17:09Z</time>
      </trkpt>
      <trkpt lat="46.69887" lon="5.68081">
        <ele>502.7</ele>
        <time>2020-03-03T08:17:11Z</time>
      </trkpt>
      <trkpt lat="46.69891" lon="5.68082">
        <ele>503.2</ele>
        <time>2020-03-03T08:17:14Z</time>
      </trkpt>
      <trkpt lat="46.69897" lon="5.68083">
        <ele>503.8</ele>
        <time>2020-03-03T08:17:18Z</time>
      </trkpt>
      <trkpt lat="46.69901" lon="5.68084">
        <ele>504.3</ele>
        <time>2020-03-03T08:17:21Z</time>
      </trkpt>
      <trkpt lat="46.69907" lon="5.68085">
        <ele>505</ele>
        <time>2020-03-03T08:17:25Z</time>
      </trkpt>
      <trkpt lat="46.69911" lon="5.68086">
        <ele>505.4</ele>
        <time>2020-03-03T08:17:29Z</time>
      </trkpt>
      <trkpt lat="46.69915" lon="5.68089">
        <ele>505.7</ele>
        <time>2020-03-03T08:17:33Z</time>
      </trkpt>
      <trkpt lat="46.6992" lon="5.68091">
        <ele>506</ele>
        <time>2020-03-03T08:17:38Z</time>
      </trkpt>
      <trkpt lat="46.69924" lon="5.68093">
        <ele>506.2</ele>
        <time>2020-03-03T08:17:42Z</time>
      </trkpt>
      <trkpt lat="46.69928" lon="5.68095">
        <ele>506.5</ele>
        <time>2020-03-03T08:17:48Z</time>
      </trkpt>
      <trkpt lat="46.69934" lon="5.68097">
        <ele>507.1</ele>
        <time>2020-03-03T08:17:54Z</time>
      </trkpt>
      <trkpt lat="46.6994" lon="5.68099">
        <ele>507.6</ele>
        <time>2020-03-03T08:17:58Z</time>
      </trkpt>
      <trkpt lat="46.69945" lon="5.68099">
        <ele>507.8</ele>
        <time>2020-03-03T08:18:00Z</time>
      </trkpt>
      <trkpt lat="46.6995" lon="5.68101">
        <ele>508.1</ele>
        <time>2020-03-03T08:18:03Z</time>
      </trkpt>
      <trkpt lat="46.69955" lon="5.68101">
        <ele>508.3</ele>
        <time>2020-03-03T08:18:09Z</time>
      </trkpt>
      <trkpt lat="46.6996" lon="5.68101">
        <ele>508.4</ele>
        <time>2020-03-03T08:18:15Z</time>
      </trkpt>
      <trkpt lat="46.69965" lon="5.68102">
        <ele>508.5</ele>
        <time>2020-03-03T08:18:20Z</time>
      </trkpt>
      <trkpt lat="46.69969" lon="5.68106">
        <ele>509</ele>
        <time>2020-03-03T08:18:27Z</time>
      </trkpt>
      <trkpt lat="46.69974" lon="5.6811">
        <ele>509.5</ele>
        <time>2020-03-03T08:18:32Z</time>
      </trkpt>
      <trkpt lat="46.69979" lon="5.68111">
        <ele>510.2</ele>
        <time>2020-03-03T08:18:40Z</time>
      </trkpt>
      <trkpt lat="46.69983" lon="5.68114">
        <ele>510.3</ele>
        <time>2020-03-03T08:18:44Z</time>
      </trkpt>
      <trkpt lat="46.69989" lon="5.68118">
        <ele>510.1</ele>
        <time>2020-03-03T08:18:48Z</time>
      </trkpt>
      <trkpt lat="46.69993" lon="5.6812">
        <ele>510</ele>
        <time>2020-03-03T08:18:53Z</time>
      </trkpt>
      <trkpt lat="46.69998" lon="5.68121">
        <ele>509.6</ele>
        <time>2020-03-03T08:18:59Z</time>
      </trkpt>
      <trkpt lat="46.70004" lon="5.6812">
        <ele>509.4</ele>
        <time>2020-03-03T08:19:04Z</time>
      </trkpt>
      <trkpt lat="46.70008" lon="5.68122">
        <ele>509.5</ele>
        <time>2020-03-03T08:19:08Z</time>
      </trkpt>
      <trkpt lat="46.70014" lon="5.68124">
        <ele>509.6</ele>
        <time>2020-03-03T08:19:12Z</time>
      </trkpt>
      <trkpt lat="46.70019" lon="5.68124">
        <ele>509.7</ele>
        <time>2020-03-03T08:19:16Z</time>
      </trkpt>
      <trkpt lat="46.70024" lon="5.68124">
        <ele>509.7</ele>
        <time>2020-03-03T08:19:20Z</time>
      </trkpt>
      <trkpt lat="46.7003" lon="5.68126">
        <ele>509.8</ele>
        <time>2020-03-03T08:19:25Z</time>
      </trkpt>
      <trkpt lat="46.70034" lon="5.68127">
        <ele>510</ele>
        <time>2020-03-03T08:19:31Z</time>
      </trkpt>
      <trkpt lat="46.7004" lon="5.68128">
        <ele>510</ele>
        <time>2020-03-03T08:19:36Z</time>
      </trkpt>
      <trkpt lat="46.70045" lon="5.68128">
        <ele>509.8</ele>
        <time>2020-03-03T08:19:41Z</time>
      </trkpt>
      <trkpt lat="46.70049" lon="5.68127">
        <ele>509.6</ele>
        <time>2020-03-03T08:19:45Z</time>
      </trkpt>
      <trkpt lat="46.70054" lon="5.68126">
        <ele>509.5</ele>
        <time>2020-03-03T08:19:50Z</time>
      </trkpt>
      <trkpt lat="46.7006" lon="5.68126">
        <ele>509.3</ele>
        <time>2020-03-03T08:19:56Z</time>
      </trkpt>
      <trkpt lat="46.70064" lon="5.68122">
        <ele>509.1</ele>
        <time>2020-03-03T08:20:00Z</time>
      </trkpt>
      <trkpt lat="46.70067" lon="5.68118">
        <ele>509</ele>
        <time>2020-03-03T08:20:03Z</time>
      </trkpt>
      <trkpt lat="46.70071" lon="5.68114">
        <ele>508.9</ele>
        <time>2020-03-03T08:20:07Z</time>
      </trkpt>
      <trkpt lat="46.70076" lon="5.68111">
        <ele>509.2</ele>
        <time>2020-03-03T08:20:12Z</time>
      </trkpt>
      <trkpt lat="46.7008" lon="5.68107">
        <ele>509.6</ele>
        <time>2020-03-03T08:20:17Z</time>
      </trkpt>
      <trkpt lat="46.70084" lon="5.68105">
        <ele>509.8</ele>
        <time>2020-03-03T08:20:20Z</time>
      </trkpt>
      <trkpt lat="46.70089" lon="5.68102">
        <ele>510.1</ele>
        <time>2020-03-03T08:20:24Z</time>
      </trkpt>
      <trkpt lat="46.70092" lon="5.68097">
        <ele>510.3</ele>
        <time>2020-03-03T08:20:33Z</time>
      </trkpt>
      <trkpt lat="46.70097" lon="5.68093">
        <ele>510.5</ele>
        <time>2020-03-03T08:20:39Z</time>
      </trkpt>
      <trkpt lat="46.70101" lon="5.68089">
        <ele>510.8</ele>
        <time>2020-03-03T08:20:43Z</time>
      </trkpt>
      <trkpt lat="46.70106" lon="5.68085">
        <ele>511.5</ele>
        <time>2020-03-03T08:20:49Z</time>
      </trkpt>
      <trkpt lat="46.7011" lon="5.6808">
        <ele>512.1</ele>
        <time>2020-03-03T08:20:56Z</time>
      </trkpt>
      <trkpt lat="46.70114" lon="5.68077">
        <ele>512.1</ele>
        <time>2020-03-03T08:21:01Z</time>
      </trkpt>
      <trkpt lat="46.70119" lon="5.68074">
        <ele>511.9</ele>
        <time>2020-03-03T08:21:05Z</time>
      </trkpt>
      <trkpt lat="46.70124" lon="5.68073">
        <ele>511.7</ele>
        <time>2020-03-03T08:21:09Z</time>
      </trkpt>
      <trkpt lat="46.70129" lon="5.68074">
        <ele>511.5</ele>
        <time>2020-03-03T08:21:14Z</time>
      </trkpt>
      <trkpt lat="46.70134" lon="5.68076">
        <ele>511.4</ele>
        <time>2020-03-03T08:21:18Z</time>
      </trkpt>
      <trkpt lat="46.70139" lon="5.68078">
        <ele>511.3</ele>
        <time>2020-03-03T08:21:21Z</time>
      </trkpt>
      <trkpt lat="46.70144" lon="5.6808">
        <ele>511.3</ele>
        <time>2020-03-03T08:21:25Z</time>
      </trkpt>
      <trkpt lat="46.70149" lon="5.68082">
        <ele>511.4</ele>
        <time>2020-03-03T08:21:31Z</time>
      </trkpt>
      <trkpt lat="46.70155" lon="5.68082">
        <ele>511.5</ele>
        <time>2020-03-03T08:21:36Z</time>
      </trkpt>
      <trkpt lat="46.70159" lon="5.68082">
        <ele>511.6</ele>
        <time>2020-03-03T08:21:40Z</time>
      </trkpt>
      <trkpt lat="46.70164" lon="5.68082">
        <ele>511.9</ele>
        <time>2020-03-03T08:21:44Z</time>
      </trkpt>
      <trkpt lat="46.70169" lon="5.68082">
        <ele>512.2</ele>
        <time>2020-03-03T08:21:48Z</time>
      </trkpt>
      <trkpt lat="46.70174" lon="5.68082">
        <ele>512.8</ele>
        <time>2020-03-03T08:21:54Z</time>
      </trkpt>
      <trkpt lat="46.70179" lon="5.68083">
        <ele>513.1</ele>
        <time>2020-03-03T08:21:59Z</time>
      </trkpt>
      <trkpt lat="46.70183" lon="5.68087">
        <ele>513.3</ele>
        <time>2020-03-03T08:22:04Z</time>
      </trkpt>
      <trkpt lat="46.70187" lon="5.6809">
        <ele>513.4</ele>
        <time>2020-03-03T08:22:08Z</time>
      </trkpt>
      <trkpt lat="46.70191" lon="5.68094">
        <ele>513.5</ele>
        <time>2020-03-03T08:22:11Z</time>
      </trkpt>
      <trkpt lat="46.70195" lon="5.68099">
        <ele>513.4</ele>
        <time>2020-03-03T08:22:15Z</time>
      </trkpt>
      <trkpt lat="46.70199" lon="5.68101">
        <ele>513.4</ele>
        <time>2020-03-03T08:22:21Z</time>
      </trkpt>
      <trkpt lat="46.70204" lon="5.68102">
        <ele>513.3</ele>
        <time>2020-03-03T08:22:27Z</time>
      </trkpt>
      <trkpt lat="46.70213" lon="5.68115">
        <ele>513</ele>
        <time>2020-03-03T08:22:37Z</time>
      </trkpt>
      <trkpt lat="46.70216" lon="5.68121">
        <ele>513</ele>
        <time>2020-03-03T08:22:42Z</time>
      </trkpt>
      <trkpt lat="46.70219" lon="5.68127">
        <ele>512.9</ele>
        <time>2020-03-03T08:22:46Z</time>
      </trkpt>
      <trkpt lat="46.70222" lon="5.68132">
        <ele>512.6</ele>
        <time>2020-03-03T08:22:52Z</time>
      </trkpt>
      <trkpt lat="46.70226" lon="5.68137">
        <ele>511.7</ele>
        <time>2020-03-03T08:22:59Z</time>
      </trkpt>
      <trkpt lat="46.7023" lon="5.68142">
        <ele>511</ele>
        <time>2020-03-03T08:23:05Z</time>
      </trkpt>
      <trkpt lat="46.70235" lon="5.68142">
        <ele>510.3</ele>
        <time>2020-03-03T08:23:12Z</time>
      </trkpt>
      <trkpt lat="46.70239" lon="5.68141">
        <ele>510</ele>
        <time>2020-03-03T08:23:19Z</time>
      </trkpt>
      <trkpt lat="46.70245" lon="5.68141">
        <ele>509.9</ele>
        <time>2020-03-03T08:23:29Z</time>
      </trkpt>
      <trkpt lat="46.70249" lon="5.68142">
        <ele>509.8</ele>
        <time>2020-03-03T08:23:34Z</time>
      </trkpt>
      <trkpt lat="46.70255" lon="5.68143">
        <ele>509.3</ele>
        <time>2020-03-03T08:23:41Z</time>
      </trkpt>
      <trkpt lat="46.70268" lon="5.68143">
        <ele>509.1</ele>
        <time>2020-03-03T08:24:05Z</time>
      </trkpt>
      <trkpt lat="46.70273" lon="5.68144">
        <ele>510</ele>
        <time>2020-03-03T08:24:11Z</time>
      </trkpt>
      <trkpt lat="46.70277" lon="5.68144">
        <ele>511.1</ele>
        <time>2020-03-03T08:24:20Z</time>
      </trkpt>
      <trkpt lat="46.70289" lon="5.68148">
        <ele>512.7</ele>
        <time>2020-03-03T08:24:30Z</time>
      </trkpt>
      <trkpt lat="46.70294" lon="5.68148">
        <ele>513.2</ele>
        <time>2020-03-03T08:24:33Z</time>
      </trkpt>
      <trkpt lat="46.703" lon="5.68149">
        <ele>513.5</ele>
        <time>2020-03-03T08:24:35Z</time>
      </trkpt>
      <trkpt lat="46.70306" lon="5.68148">
        <ele>513.8</ele>
        <time>2020-03-03T08:24:37Z</time>
      </trkpt>
      <trkpt lat="46.70314" lon="5.68145">
        <ele>514.2</ele>
        <time>2020-03-03T08:24:39Z</time>
      </trkpt>
      <trkpt lat="46.70321" lon="5.68142">
        <ele>514.7</ele>
        <time>2020-03-03T08:24:41Z</time>
      </trkpt>
      <trkpt lat="46.70327" lon="5.6814">
        <ele>515.2</ele>
        <time>2020-03-03T08:24:43Z</time>
      </trkpt>
      <trkpt lat="46.70331" lon="5.68137">
        <ele>515.7</ele>
        <time>2020-03-03T08:24:46Z</time>
      </trkpt>
      <trkpt lat="46.70333" lon="5.6813">
        <ele>516.4</ele>
        <time>2020-03-03T08:24:52Z</time>
      </trkpt>
      <trkpt lat="46.70334" lon="5.68123">
        <ele>516.6</ele>
        <time>2020-03-03T08:24:57Z</time>
      </trkpt>
      <trkpt lat="46.70336" lon="5.68117">
        <ele>516.9</ele>
        <time>2020-03-03T08:25:03Z</time>
      </trkpt>
      <trkpt lat="46.70339" lon="5.6811">
        <ele>517.3</ele>
        <time>2020-03-03T08:25:07Z</time>
      </trkpt>
      <trkpt lat="46.70343" lon="5.68104">
        <ele>517.9</ele>
        <time>2020-03-03T08:25:12Z</time>
      </trkpt>
      <trkpt lat="46.70347" lon="5.681">
        <ele>518.5</ele>
        <time>2020-03-03T08:25:20Z</time>
      </trkpt>
      <trkpt lat="46.70351" lon="5.68096">
        <ele>518.8</ele>
        <time>2020-03-03T08:25:26Z</time>
      </trkpt>
      <trkpt lat="46.70355" lon="5.68093">
        <ele>518.7</ele>
        <time>2020-03-03T08:25:31Z</time>
      </trkpt>
      <trkpt lat="46.70358" lon="5.68088">
        <ele>518.6</ele>
        <time>2020-03-03T08:25:34Z</time>
      </trkpt>
      <trkpt lat="46.70361" lon="5.68082">
        <ele>518.4</ele>
        <time>2020-03-03T08:25:39Z</time>
      </trkpt>
      <trkpt lat="46.70363" lon="5.68076">
        <ele>518.4</ele>
        <time>2020-03-03T08:25:43Z</time>
      </trkpt>
      <trkpt lat="46.70364" lon="5.68069">
        <ele>518.5</ele>
        <time>2020-03-03T08:25:48Z</time>
      </trkpt>
      <trkpt lat="46.70373" lon="5.68057">
        <ele>519.3</ele>
        <time>2020-03-03T08:26:02Z</time>
      </trkpt>
      <trkpt lat="46.70383" lon="5.68044">
        <ele>520</ele>
        <time>2020-03-03T08:26:18Z</time>
      </trkpt>
      <trkpt lat="46.70386" lon="5.68039">
        <ele>520.1</ele>
        <time>2020-03-03T08:26:22Z</time>
      </trkpt>
      <trkpt lat="46.7039" lon="5.68033">
        <ele>520.3</ele>
        <time>2020-03-03T08:26:26Z</time>
      </trkpt>
      <trkpt lat="46.70393" lon="5.68025">
        <ele>520.4</ele>
        <time>2020-03-03T08:26:29Z</time>
      </trkpt>
      <trkpt lat="46.70397" lon="5.6802">
        <ele>520.3</ele>
        <time>2020-03-03T08:26:33Z</time>
      </trkpt>
      <trkpt lat="46.704" lon="5.68015">
        <ele>519.9</ele>
        <time>2020-03-03T08:26:38Z</time>
      </trkpt>
      <trkpt lat="46.70404" lon="5.6801">
        <ele>518.8</ele>
        <time>2020-03-03T08:26:47Z</time>
      </trkpt>
      <trkpt lat="46.70408" lon="5.68007">
        <ele>518.2</ele>
        <time>2020-03-03T08:26:54Z</time>
      </trkpt>
      <trkpt lat="46.70429" lon="5.67998">
        <ele>519.5</ele>
        <time>2020-03-03T08:27:08Z</time>
      </trkpt>
      <trkpt lat="46.70433" lon="5.67997">
        <ele>519.9</ele>
        <time>2020-03-03T08:27:11Z</time>
      </trkpt>
      <trkpt lat="46.70438" lon="5.67996">
        <ele>520.6</ele>
        <time>2020-03-03T08:27:16Z</time>
      </trkpt>
      <trkpt lat="46.70443" lon="5.67995">
        <ele>521.5</ele>
        <time>2020-03-03T08:27:22Z</time>
      </trkpt>
      <trkpt lat="46.70449" lon="5.67995">
        <ele>521.7</ele>
        <time>2020-03-03T08:27:26Z</time>
      </trkpt>
      <trkpt lat="46.70453" lon="5.67994">
        <ele>521.7</ele>
        <time>2020-03-03T08:27:30Z</time>
      </trkpt>
      <trkpt lat="46.70457" lon="5.67991">
        <ele>521.8</ele>
        <time>2020-03-03T08:27:34Z</time>
      </trkpt>
      <trkpt lat="46.70461" lon="5.67986">
        <ele>521.9</ele>
        <time>2020-03-03T08:27:38Z</time>
      </trkpt>
      <trkpt lat="46.70466" lon="5.67981">
        <ele>522.3</ele>
        <time>2020-03-03T08:27:42Z</time>
      </trkpt>
      <trkpt lat="46.7047" lon="5.67977">
        <ele>522.9</ele>
        <time>2020-03-03T08:27:46Z</time>
      </trkpt>
      <trkpt lat="46.70473" lon="5.67972">
        <ele>523.4</ele>
        <time>2020-03-03T08:27:51Z</time>
      </trkpt>
      <trkpt lat="46.70477" lon="5.67966">
        <ele>523.6</ele>
        <time>2020-03-03T08:27:57Z</time>
      </trkpt>
      <trkpt lat="46.7048" lon="5.67961">
        <ele>523.4</ele>
        <time>2020-03-03T08:28:03Z</time>
      </trkpt>
      <trkpt lat="46.70484" lon="5.67955">
        <ele>522.9</ele>
        <time>2020-03-03T08:28:09Z</time>
      </trkpt>
      <trkpt lat="46.70488" lon="5.67949">
        <ele>522.2</ele>
        <time>2020-03-03T08:28:15Z</time>
      </trkpt>
      <trkpt lat="46.70492" lon="5.67944">
        <ele>521.9</ele>
        <time>2020-03-03T08:28:20Z</time>
      </trkpt>
      <trkpt lat="46.70495" lon="5.67938">
        <ele>521.7</ele>
        <time>2020-03-03T08:28:24Z</time>
      </trkpt>
      <trkpt lat="46.70497" lon="5.6793">
        <ele>521.7</ele>
        <time>2020-03-03T08:28:29Z</time>
      </trkpt>
      <trkpt lat="46.70499" lon="5.67924">
        <ele>522</ele>
        <time>2020-03-03T08:28:33Z</time>
      </trkpt>
      <trkpt lat="46.70501" lon="5.67916">
        <ele>522.6</ele>
        <time>2020-03-03T08:28:37Z</time>
      </trkpt>
      <trkpt lat="46.70502" lon="5.67909">
        <ele>523.9</ele>
        <time>2020-03-03T08:28:43Z</time>
      </trkpt>
      <trkpt lat="46.70504" lon="5.67902">
        <ele>525</ele>
        <time>2020-03-03T08:28:48Z</time>
      </trkpt>
      <trkpt lat="46.70508" lon="5.67897">
        <ele>526</ele>
        <time>2020-03-03T08:28:53Z</time>
      </trkpt>
      <trkpt lat="46.70511" lon="5.67892">
        <ele>527</ele>
        <time>2020-03-03T08:28:58Z</time>
      </trkpt>
      <trkpt lat="46.70515" lon="5.67886">
        <ele>528.1</ele>
        <time>2020-03-03T08:29:03Z</time>
      </trkpt>
      <trkpt lat="46.70517" lon="5.6788">
        <ele>528.8</ele>
        <time>2020-03-03T08:29:06Z</time>
      </trkpt>
      <trkpt lat="46.70521" lon="5.67875">
        <ele>529.9</ele>
        <time>2020-03-03T08:29:11Z</time>
      </trkpt>
      <trkpt lat="46.70524" lon="5.6787">
        <ele>530.3</ele>
        <time>2020-03-03T08:29:15Z</time>
      </trkpt>
      <trkpt lat="46.70527" lon="5.67865">
        <ele>530.5</ele>
        <time>2020-03-03T08:29:19Z</time>
      </trkpt>
      <trkpt lat="46.70532" lon="5.67859">
        <ele>530.3</ele>
        <time>2020-03-03T08:29:23Z</time>
      </trkpt>
      <trkpt lat="46.70535" lon="5.67853">
        <ele>530.2</ele>
        <time>2020-03-03T08:29:27Z</time>
      </trkpt>
      <trkpt lat="46.70538" lon="5.67847">
        <ele>530</ele>
        <time>2020-03-03T08:29:33Z</time>
      </trkpt>
      <trkpt lat="46.7054" lon="5.6784">
        <ele>529.6</ele>
        <time>2020-03-03T08:29:39Z</time>
      </trkpt>
      <trkpt lat="46.70543" lon="5.67835">
        <ele>529.3</ele>
        <time>2020-03-03T08:29:44Z</time>
      </trkpt>
      <trkpt lat="46.70546" lon="5.67817">
        <ele>527.8</ele>
        <time>2020-03-03T08:30:00Z</time>
      </trkpt>
      <trkpt lat="46.70547" lon="5.6781">
        <ele>527.6</ele>
        <time>2020-03-03T08:30:03Z</time>
      </trkpt>
      <trkpt lat="46.70548" lon="5.67802">
        <ele>527.5</ele>
        <time>2020-03-03T08:30:07Z</time>
      </trkpt>
      <trkpt lat="46.70549" lon="5.67795">
        <ele>527.4</ele>
        <time>2020-03-03T08:30:11Z</time>
      </trkpt>
      <trkpt lat="46.7055" lon="5.67787">
        <ele>527.4</ele>
        <time>2020-03-03T08:30:16Z</time>
      </trkpt>
      <trkpt lat="46.70552" lon="5.6778">
        <ele>527.6</ele>
        <time>2020-03-03T08:30:19Z</time>
      </trkpt>
      <trkpt lat="46.70555" lon="5.67775">
        <ele>527.8</ele>
        <time>2020-03-03T08:30:22Z</time>
      </trkpt>
      <trkpt lat="46.70557" lon="5.67768">
        <ele>528.2</ele>
        <time>2020-03-03T08:30:27Z</time>
      </trkpt>
      <trkpt lat="46.70556" lon="5.67761">
        <ele>528.6</ele>
        <time>2020-03-03T08:30:33Z</time>
      </trkpt>
      <trkpt lat="46.70556" lon="5.67749">
        <ele>528.7</ele>
        <time>2020-03-03T08:30:44Z</time>
      </trkpt>
      <trkpt lat="46.70558" lon="5.67741">
        <ele>528.6</ele>
        <time>2020-03-03T08:30:47Z</time>
      </trkpt>
      <trkpt lat="46.70558" lon="5.67734">
        <ele>528.6</ele>
        <time>2020-03-03T08:30:50Z</time>
      </trkpt>
      <trkpt lat="46.7056" lon="5.67728">
        <ele>528.4</ele>
        <time>2020-03-03T08:30:55Z</time>
      </trkpt>
      <trkpt lat="46.70561" lon="5.67721">
        <ele>528.2</ele>
        <time>2020-03-03T08:31:01Z</time>
      </trkpt>
      <trkpt lat="46.70562" lon="5.67714">
        <ele>528.4</ele>
        <time>2020-03-03T08:31:10Z</time>
      </trkpt>
      <trkpt lat="46.7056" lon="5.67707">
        <ele>529.5</ele>
        <time>2020-03-03T08:31:18Z</time>
      </trkpt>
      <trkpt lat="46.70557" lon="5.677">
        <ele>530.1</ele>
        <time>2020-03-03T08:31:21Z</time>
      </trkpt>
      <trkpt lat="46.70555" lon="5.67693">
        <ele>530.7</ele>
        <time>2020-03-03T08:31:24Z</time>
      </trkpt>
      <trkpt lat="46.70552" lon="5.67679">
        <ele>532.7</ele>
        <time>2020-03-03T08:31:32Z</time>
      </trkpt>
      <trkpt lat="46.7055" lon="5.67672">
        <ele>533</ele>
        <time>2020-03-03T08:31:37Z</time>
      </trkpt>
      <trkpt lat="46.70547" lon="5.67667">
        <ele>533.1</ele>
        <time>2020-03-03T08:31:43Z</time>
      </trkpt>
      <trkpt lat="46.70545" lon="5.6766">
        <ele>532.2</ele>
        <time>2020-03-03T08:31:49Z</time>
      </trkpt>
      <trkpt lat="46.70544" lon="5.67652">
        <ele>531.2</ele>
        <time>2020-03-03T08:31:53Z</time>
      </trkpt>
      <trkpt lat="46.70542" lon="5.67646">
        <ele>529.8</ele>
        <time>2020-03-03T08:31:58Z</time>
      </trkpt>
      <trkpt lat="46.70539" lon="5.67639">
        <ele>529</ele>
        <time>2020-03-03T08:32:01Z</time>
      </trkpt>
      <trkpt lat="46.70536" lon="5.67632">
        <ele>528.2</ele>
        <time>2020-03-03T08:32:04Z</time>
      </trkpt>
      <trkpt lat="46.70533" lon="5.67627">
        <ele>527.3</ele>
        <time>2020-03-03T08:32:08Z</time>
      </trkpt>
      <trkpt lat="46.7053" lon="5.67622">
        <ele>525.9</ele>
        <time>2020-03-03T08:32:14Z</time>
      </trkpt>
      <trkpt lat="46.70515" lon="5.67611">
        <ele>523.8</ele>
        <time>2020-03-03T08:32:27Z</time>
      </trkpt>
      <trkpt lat="46.7051" lon="5.67611">
        <ele>524</ele>
        <time>2020-03-03T08:32:33Z</time>
      </trkpt>
      <trkpt lat="46.70505" lon="5.6761">
        <ele>524.2</ele>
        <time>2020-03-03T08:32:35Z</time>
      </trkpt>
      <trkpt lat="46.705" lon="5.6761">
        <ele>524.6</ele>
        <time>2020-03-03T08:32:38Z</time>
      </trkpt>
      <trkpt lat="46.70494" lon="5.67607">
        <ele>524.9</ele>
        <time>2020-03-03T08:32:40Z</time>
      </trkpt>
      <trkpt lat="46.70489" lon="5.67606">
        <ele>525.6</ele>
        <time>2020-03-03T08:32:43Z</time>
      </trkpt>
      <trkpt lat="46.70485" lon="5.67603">
        <ele>526.6</ele>
        <time>2020-03-03T08:32:47Z</time>
      </trkpt>
      <trkpt lat="46.70481" lon="5.676">
        <ele>529.3</ele>
        <time>2020-03-03T08:32:56Z</time>
      </trkpt>
      <trkpt lat="46.70482" lon="5.67599">
        <ele>537.9</ele>
        <time>2020-03-03T08:40:33Z</time>
      </trkpt>
      <trkpt lat="46.70478" lon="5.67597">
        <ele>538</ele>
        <time>2020-03-03T08:40:39Z</time>
      </trkpt>
      <trkpt lat="46.70473" lon="5.67599">
        <ele>538</ele>
        <time>2020-03-03T08:40:43Z</time>
      </trkpt>
      <trkpt lat="46.70467" lon="5.67597">
        <ele>538.1</ele>
        <time>2020-03-03T08:40:47Z</time>
      </trkpt>
      <trkpt lat="46.70463" lon="5.67597">
        <ele>538.3</ele>
        <time>2020-03-03T08:40:51Z</time>
      </trkpt>
      <trkpt lat="46.70457" lon="5.67592">
        <ele>538.5</ele>
        <time>2020-03-03T08:40:55Z</time>
      </trkpt>
      <trkpt lat="46.70447" lon="5.67582">
        <ele>538.3</ele>
        <time>2020-03-03T08:41:08Z</time>
      </trkpt>
      <trkpt lat="46.70443" lon="5.67578">
        <ele>537.7</ele>
        <time>2020-03-03T08:41:13Z</time>
      </trkpt>
      <trkpt lat="46.70439" lon="5.67573">
        <ele>536.9</ele>
        <time>2020-03-03T08:41:22Z</time>
      </trkpt>
      <trkpt lat="46.70437" lon="5.67567">
        <ele>536.5</ele>
        <time>2020-03-03T08:41:30Z</time>
      </trkpt>
      <trkpt lat="46.70434" lon="5.67562">
        <ele>535.9</ele>
        <time>2020-03-03T08:41:36Z</time>
      </trkpt>
      <trkpt lat="46.70433" lon="5.67555">
        <ele>534.4</ele>
        <time>2020-03-03T08:41:41Z</time>
      </trkpt>
      <trkpt lat="46.70431" lon="5.67548">
        <ele>531.9</ele>
        <time>2020-03-03T08:41:48Z</time>
      </trkpt>
      <trkpt lat="46.70428" lon="5.67534">
        <ele>528</ele>
        <time>2020-03-03T08:42:05Z</time>
      </trkpt>
      <trkpt lat="46.70428" lon="5.67527">
        <ele>527.8</ele>
        <time>2020-03-03T08:42:08Z</time>
      </trkpt>
      <trkpt lat="46.70427" lon="5.67519">
        <ele>527.5</ele>
        <time>2020-03-03T08:42:11Z</time>
      </trkpt>
      <trkpt lat="46.70427" lon="5.67513">
        <ele>527.2</ele>
        <time>2020-03-03T08:42:14Z</time>
      </trkpt>
      <trkpt lat="46.70427" lon="5.67505">
        <ele>526.7</ele>
        <time>2020-03-03T08:42:19Z</time>
      </trkpt>
      <trkpt lat="46.70428" lon="5.67498">
        <ele>525.9</ele>
        <time>2020-03-03T08:42:26Z</time>
      </trkpt>
      <trkpt lat="46.7043" lon="5.67491">
        <ele>525.4</ele>
        <time>2020-03-03T08:42:30Z</time>
      </trkpt>
      <trkpt lat="46.70432" lon="5.67485">
        <ele>525.1</ele>
        <time>2020-03-03T08:42:33Z</time>
      </trkpt>
      <trkpt lat="46.70435" lon="5.67478">
        <ele>524.4</ele>
        <time>2020-03-03T08:42:39Z</time>
      </trkpt>
      <trkpt lat="46.70439" lon="5.67472">
        <ele>524.1</ele>
        <time>2020-03-03T08:42:43Z</time>
      </trkpt>
      <trkpt lat="46.70442" lon="5.67464">
        <ele>524</ele>
        <time>2020-03-03T08:42:46Z</time>
      </trkpt>
      <trkpt lat="46.70443" lon="5.67457">
        <ele>523.9</ele>
        <time>2020-03-03T08:42:48Z</time>
      </trkpt>
      <trkpt lat="46.70444" lon="5.6745">
        <ele>523.7</ele>
        <time>2020-03-03T08:42:51Z</time>
      </trkpt>
      <trkpt lat="46.70445" lon="5.67444">
        <ele>523.5</ele>
        <time>2020-03-03T08:42:55Z</time>
      </trkpt>
      <trkpt lat="46.70449" lon="5.67438">
        <ele>523.2</ele>
        <time>2020-03-03T08:43:02Z</time>
      </trkpt>
      <trkpt lat="46.70453" lon="5.67432">
        <ele>523.1</ele>
        <time>2020-03-03T08:43:06Z</time>
      </trkpt>
      <trkpt lat="46.70454" lon="5.67425">
        <ele>523</ele>
        <time>2020-03-03T08:43:09Z</time>
      </trkpt>
      <trkpt lat="46.70456" lon="5.67419">
        <ele>522.7</ele>
        <time>2020-03-03T08:43:13Z</time>
      </trkpt>
      <trkpt lat="46.70457" lon="5.67413">
        <ele>522.3</ele>
        <time>2020-03-03T08:43:18Z</time>
      </trkpt>
      <trkpt lat="46.70459" lon="5.67407">
        <ele>521.6</ele>
        <time>2020-03-03T08:43:23Z</time>
      </trkpt>
      <trkpt lat="46.70465" lon="5.67393">
        <ele>519.3</ele>
        <time>2020-03-03T08:43:37Z</time>
      </trkpt>
      <trkpt lat="46.70468" lon="5.67388">
        <ele>518.9</ele>
        <time>2020-03-03T08:43:42Z</time>
      </trkpt>
      <trkpt lat="46.7047" lon="5.67382">
        <ele>518.5</ele>
        <time>2020-03-03T08:43:46Z</time>
      </trkpt>
      <trkpt lat="46.70471" lon="5.67374">
        <ele>518</ele>
        <time>2020-03-03T08:43:50Z</time>
      </trkpt>
      <trkpt lat="46.70474" lon="5.67369">
        <ele>517.2</ele>
        <time>2020-03-03T08:43:55Z</time>
      </trkpt>
      <trkpt lat="46.70475" lon="5.67359">
        <ele>515.8</ele>
        <time>2020-03-03T08:44:02Z</time>
      </trkpt>
      <trkpt lat="46.70477" lon="5.67353">
        <ele>515.3</ele>
        <time>2020-03-03T08:44:06Z</time>
      </trkpt>
      <trkpt lat="46.70482" lon="5.67347">
        <ele>515</ele>
        <time>2020-03-03T08:44:11Z</time>
      </trkpt>
      <trkpt lat="46.70484" lon="5.67341">
        <ele>515</ele>
        <time>2020-03-03T08:44:15Z</time>
      </trkpt>
      <trkpt lat="46.70488" lon="5.67326">
        <ele>514.8</ele>
        <time>2020-03-03T08:44:25Z</time>
      </trkpt>
      <trkpt lat="46.7049" lon="5.67319">
        <ele>514.7</ele>
        <time>2020-03-03T08:44:29Z</time>
      </trkpt>
      <trkpt lat="46.7049" lon="5.67312">
        <ele>514.7</ele>
        <time>2020-03-03T08:44:33Z</time>
      </trkpt>
      <trkpt lat="46.70491" lon="5.67305">
        <ele>514.8</ele>
        <time>2020-03-03T08:44:40Z</time>
      </trkpt>
      <trkpt lat="46.70491" lon="5.67298">
        <ele>515.4</ele>
        <time>2020-03-03T08:44:46Z</time>
      </trkpt>
      <trkpt lat="46.70491" lon="5.6729">
        <ele>516.3</ele>
        <time>2020-03-03T08:44:52Z</time>
      </trkpt>
      <trkpt lat="46.70491" lon="5.67282">
        <ele>517.5</ele>
        <time>2020-03-03T08:44:58Z</time>
      </trkpt>
      <trkpt lat="46.70488" lon="5.67272">
        <ele>518.8</ele>
        <time>2020-03-03T08:45:03Z</time>
      </trkpt>
      <trkpt lat="46.70487" lon="5.67265">
        <ele>519.5</ele>
        <time>2020-03-03T08:45:06Z</time>
      </trkpt>
      <trkpt lat="46.70487" lon="5.67259">
        <ele>520.1</ele>
        <time>2020-03-03T08:45:10Z</time>
      </trkpt>
      <trkpt lat="46.70487" lon="5.67251">
        <ele>520.6</ele>
        <time>2020-03-03T08:45:15Z</time>
      </trkpt>
      <trkpt lat="46.70488" lon="5.67243">
        <ele>521.4</ele>
        <time>2020-03-03T08:45:22Z</time>
      </trkpt>
      <trkpt lat="46.70489" lon="5.67223">
        <ele>524.1</ele>
        <time>2020-03-03T08:45:36Z</time>
      </trkpt>
      <trkpt lat="46.7049" lon="5.67215">
        <ele>524.5</ele>
        <time>2020-03-03T08:45:40Z</time>
      </trkpt>
      <trkpt lat="46.70491" lon="5.67208">
        <ele>524.6</ele>
        <time>2020-03-03T08:45:44Z</time>
      </trkpt>
      <trkpt lat="46.70491" lon="5.67201">
        <ele>524.5</ele>
        <time>2020-03-03T08:45:48Z</time>
      </trkpt>
      <trkpt lat="46.70491" lon="5.67194">
        <ele>524.2</ele>
        <time>2020-03-03T08:45:52Z</time>
      </trkpt>
      <trkpt lat="46.70491" lon="5.67187">
        <ele>523.6</ele>
        <time>2020-03-03T08:45:57Z</time>
      </trkpt>
      <trkpt lat="46.70491" lon="5.67181">
        <ele>523.3</ele>
        <time>2020-03-03T08:46:01Z</time>
      </trkpt>
      <trkpt lat="46.70492" lon="5.67173">
        <ele>522.6</ele>
        <time>2020-03-03T08:46:08Z</time>
      </trkpt>
      <trkpt lat="46.70491" lon="5.67166">
        <ele>522.4</ele>
        <time>2020-03-03T08:46:13Z</time>
      </trkpt>
      <trkpt lat="46.70485" lon="5.6715">
        <ele>521.9</ele>
        <time>2020-03-03T08:46:22Z</time>
      </trkpt>
      <trkpt lat="46.70483" lon="5.67144">
        <ele>521.8</ele>
        <time>2020-03-03T08:46:26Z</time>
      </trkpt>
      <trkpt lat="46.70481" lon="5.67136">
        <ele>521.6</ele>
        <time>2020-03-03T08:46:31Z</time>
      </trkpt>
      <trkpt lat="46.7048" lon="5.67128">
        <ele>521.1</ele>
        <time>2020-03-03T08:46:34Z</time>
      </trkpt>
      <trkpt lat="46.70479" lon="5.67118">
        <ele>520.4</ele>
        <time>2020-03-03T08:46:39Z</time>
      </trkpt>
      <trkpt lat="46.70477" lon="5.6711">
        <ele>519.8</ele>
        <time>2020-03-03T08:46:43Z</time>
      </trkpt>
      <trkpt lat="46.70475" lon="5.67104">
        <ele>519.6</ele>
        <time>2020-03-03T08:46:48Z</time>
      </trkpt>
      <trkpt lat="46.70474" lon="5.67096">
        <ele>519.5</ele>
        <time>2020-03-03T08:46:54Z</time>
      </trkpt>
      <trkpt lat="46.70474" lon="5.67088">
        <ele>519.2</ele>
        <time>2020-03-03T08:46:59Z</time>
      </trkpt>
      <trkpt lat="46.70474" lon="5.6708">
        <ele>518.8</ele>
        <time>2020-03-03T08:47:04Z</time>
      </trkpt>
      <trkpt lat="46.70474" lon="5.67073">
        <ele>518.3</ele>
        <time>2020-03-03T08:47:08Z</time>
      </trkpt>
      <trkpt lat="46.70474" lon="5.67065">
        <ele>517.7</ele>
        <time>2020-03-03T08:47:14Z</time>
      </trkpt>
      <trkpt lat="46.70477" lon="5.67056">
        <ele>517.3</ele>
        <time>2020-03-03T08:47:18Z</time>
      </trkpt>
      <trkpt lat="46.70479" lon="5.67049">
        <ele>516.9</ele>
        <time>2020-03-03T08:47:21Z</time>
      </trkpt>
      <trkpt lat="46.7048" lon="5.67042">
        <ele>516.5</ele>
        <time>2020-03-03T08:47:25Z</time>
      </trkpt>
      <trkpt lat="46.70482" lon="5.67036">
        <ele>516.3</ele>
        <time>2020-03-03T08:47:30Z</time>
      </trkpt>
      <trkpt lat="46.70483" lon="5.67028">
        <ele>516.1</ele>
        <time>2020-03-03T08:47:34Z</time>
      </trkpt>
      <trkpt lat="46.70489" lon="5.67013">
        <ele>516.4</ele>
        <time>2020-03-03T08:47:43Z</time>
      </trkpt>
      <trkpt lat="46.70492" lon="5.67006">
        <ele>516.4</ele>
        <time>2020-03-03T08:47:48Z</time>
      </trkpt>
      <trkpt lat="46.70493" lon="5.67">
        <ele>516.4</ele>
        <time>2020-03-03T08:47:52Z</time>
      </trkpt>
      <trkpt lat="46.70496" lon="5.66994">
        <ele>516.4</ele>
        <time>2020-03-03T08:47:56Z</time>
      </trkpt>
      <trkpt lat="46.705" lon="5.66989">
        <ele>516.4</ele>
        <time>2020-03-03T08:48:01Z</time>
      </trkpt>
      <trkpt lat="46.70503" lon="5.66983">
        <ele>516.6</ele>
        <time>2020-03-03T08:48:05Z</time>
      </trkpt>
      <trkpt lat="46.70506" lon="5.66978">
        <ele>516.8</ele>
        <time>2020-03-03T08:48:09Z</time>
      </trkpt>
      <trkpt lat="46.70508" lon="5.66971">
        <ele>516.9</ele>
        <time>2020-03-03T08:48:13Z</time>
      </trkpt>
      <trkpt lat="46.7051" lon="5.66965">
        <ele>517</ele>
        <time>2020-03-03T08:48:17Z</time>
      </trkpt>
      <trkpt lat="46.70513" lon="5.6696">
        <ele>517.1</ele>
        <time>2020-03-03T08:48:21Z</time>
      </trkpt>
      <trkpt lat="46.70515" lon="5.66953">
        <ele>517.1</ele>
        <time>2020-03-03T08:48:26Z</time>
      </trkpt>
      <trkpt lat="46.70518" lon="5.66947">
        <ele>516.7</ele>
        <time>2020-03-03T08:48:31Z</time>
      </trkpt>
      <trkpt lat="46.7052" lon="5.66941">
        <ele>516.1</ele>
        <time>2020-03-03T08:48:37Z</time>
      </trkpt>
      <trkpt lat="46.70522" lon="5.66934">
        <ele>515.6</ele>
        <time>2020-03-03T08:48:41Z</time>
      </trkpt>
      <trkpt lat="46.70525" lon="5.66929">
        <ele>515</ele>
        <time>2020-03-03T08:48:45Z</time>
      </trkpt>
      <trkpt lat="46.70529" lon="5.66924">
        <ele>514.4</ele>
        <time>2020-03-03T08:48:51Z</time>
      </trkpt>
      <trkpt lat="46.70532" lon="5.66917">
        <ele>514.1</ele>
        <time>2020-03-03T08:48:56Z</time>
      </trkpt>
      <trkpt lat="46.70534" lon="5.66912">
        <ele>514</ele>
        <time>2020-03-03T08:49:00Z</time>
      </trkpt>
      <trkpt lat="46.70537" lon="5.66906">
        <ele>514</ele>
        <time>2020-03-03T08:49:04Z</time>
      </trkpt>
      <trkpt lat="46.70541" lon="5.66901">
        <ele>513.9</ele>
        <time>2020-03-03T08:49:08Z</time>
      </trkpt>
      <trkpt lat="46.70545" lon="5.66897">
        <ele>513.8</ele>
        <time>2020-03-03T08:49:13Z</time>
      </trkpt>
      <trkpt lat="46.70546" lon="5.6689">
        <ele>513.5</ele>
        <time>2020-03-03T08:49:18Z</time>
      </trkpt>
      <trkpt lat="46.70549" lon="5.66883">
        <ele>513</ele>
        <time>2020-03-03T08:49:24Z</time>
      </trkpt>
      <trkpt lat="46.70553" lon="5.66878">
        <ele>512.7</ele>
        <time>2020-03-03T08:49:27Z</time>
      </trkpt>
      <trkpt lat="46.70556" lon="5.66872">
        <ele>512.1</ele>
        <time>2020-03-03T08:49:32Z</time>
      </trkpt>
      <trkpt lat="46.70559" lon="5.66865">
        <ele>511.6</ele>
        <time>2020-03-03T08:49:37Z</time>
      </trkpt>
      <trkpt lat="46.70561" lon="5.66859">
        <ele>511.4</ele>
        <time>2020-03-03T08:49:42Z</time>
      </trkpt>
      <trkpt lat="46.70564" lon="5.66852">
        <ele>511.4</ele>
        <time>2020-03-03T08:49:47Z</time>
      </trkpt>
      <trkpt lat="46.70568" lon="5.66848">
        <ele>511.5</ele>
        <time>2020-03-03T08:49:52Z</time>
      </trkpt>
      <trkpt lat="46.70573" lon="5.66835">
        <ele>511.2</ele>
        <time>2020-03-03T08:50:02Z</time>
      </trkpt>
      <trkpt lat="46.70575" lon="5.66829">
        <ele>511.1</ele>
        <time>2020-03-03T08:50:05Z</time>
      </trkpt>
      <trkpt lat="46.70577" lon="5.66822">
        <ele>510.7</ele>
        <time>2020-03-03T08:50:10Z</time>
      </trkpt>
      <trkpt lat="46.70578" lon="5.66816">
        <ele>510.3</ele>
        <time>2020-03-03T08:50:14Z</time>
      </trkpt>
      <trkpt lat="46.70579" lon="5.66809">
        <ele>510</ele>
        <time>2020-03-03T08:50:19Z</time>
      </trkpt>
      <trkpt lat="46.7058" lon="5.66803">
        <ele>509.9</ele>
        <time>2020-03-03T08:50:25Z</time>
      </trkpt>
      <trkpt lat="46.7058" lon="5.66795">
        <ele>510.3</ele>
        <time>2020-03-03T08:50:31Z</time>
      </trkpt>
      <trkpt lat="46.7058" lon="5.66787">
        <ele>511.1</ele>
        <time>2020-03-03T08:50:37Z</time>
      </trkpt>
      <trkpt lat="46.7058" lon="5.66781">
        <ele>511.6</ele>
        <time>2020-03-03T08:50:41Z</time>
      </trkpt>
      <trkpt lat="46.70579" lon="5.66774">
        <ele>512.1</ele>
        <time>2020-03-03T08:50:46Z</time>
      </trkpt>
      <trkpt lat="46.70582" lon="5.66768">
        <ele>512.4</ele>
        <time>2020-03-03T08:50:50Z</time>
      </trkpt>
      <trkpt lat="46.70584" lon="5.66761">
        <ele>512.4</ele>
        <time>2020-03-03T08:50:54Z</time>
      </trkpt>
      <trkpt lat="46.70585" lon="5.66754">
        <ele>512.3</ele>
        <time>2020-03-03T08:50:59Z</time>
      </trkpt>
      <trkpt lat="46.70585" lon="5.66746">
        <ele>511.8</ele>
        <time>2020-03-03T08:51:04Z</time>
      </trkpt>
      <trkpt lat="46.70584" lon="5.66738">
        <ele>511</ele>
        <time>2020-03-03T08:51:10Z</time>
      </trkpt>
      <trkpt lat="46.70582" lon="5.66731">
        <ele>510.2</ele>
        <time>2020-03-03T08:51:15Z</time>
      </trkpt>
      <trkpt lat="46.7058" lon="5.66724">
        <ele>508.9</ele>
        <time>2020-03-03T08:51:21Z</time>
      </trkpt>
      <trkpt lat="46.70579" lon="5.66716">
        <ele>507.8</ele>
        <time>2020-03-03T08:51:27Z</time>
      </trkpt>
      <trkpt lat="46.70579" lon="5.66709">
        <ele>507.4</ele>
        <time>2020-03-03T08:51:32Z</time>
      </trkpt>
      <trkpt lat="46.70576" lon="5.66702">
        <ele>507.1</ele>
        <time>2020-03-03T08:51:36Z</time>
      </trkpt>
      <trkpt lat="46.70575" lon="5.66694">
        <ele>506.7</ele>
        <time>2020-03-03T08:51:40Z</time>
      </trkpt>
      <trkpt lat="46.70574" lon="5.66687">
        <ele>506.2</ele>
        <time>2020-03-03T08:51:44Z</time>
      </trkpt>
      <trkpt lat="46.70573" lon="5.6668">
        <ele>505.8</ele>
        <time>2020-03-03T08:51:48Z</time>
      </trkpt>
      <trkpt lat="46.70571" lon="5.66674">
        <ele>505.5</ele>
        <time>2020-03-03T08:51:52Z</time>
      </trkpt>
      <trkpt lat="46.7057" lon="5.66667">
        <ele>504.2</ele>
        <time>2020-03-03T08:52:01Z</time>
      </trkpt>
      <trkpt lat="46.70572" lon="5.66659">
        <ele>502.9</ele>
        <time>2020-03-03T08:52:07Z</time>
      </trkpt>
      <trkpt lat="46.70572" lon="5.66652">
        <ele>502.4</ele>
        <time>2020-03-03T08:52:10Z</time>
      </trkpt>
      <trkpt lat="46.70571" lon="5.66645">
        <ele>501.9</ele>
        <time>2020-03-03T08:52:14Z</time>
      </trkpt>
      <trkpt lat="46.70569" lon="5.66639">
        <ele>501.5</ele>
        <time>2020-03-03T08:52:19Z</time>
      </trkpt>
      <trkpt lat="46.70567" lon="5.66634">
        <ele>501.4</ele>
        <time>2020-03-03T08:52:22Z</time>
      </trkpt>
      <trkpt lat="46.70564" lon="5.66628">
        <ele>501.2</ele>
        <time>2020-03-03T08:52:26Z</time>
      </trkpt>
      <trkpt lat="46.70562" lon="5.66621">
        <ele>501</ele>
        <time>2020-03-03T08:52:31Z</time>
      </trkpt>
      <trkpt lat="46.7056" lon="5.66614">
        <ele>500.6</ele>
        <time>2020-03-03T08:52:38Z</time>
      </trkpt>
      <trkpt lat="46.70559" lon="5.66608">
        <ele>500.1</ele>
        <time>2020-03-03T08:52:44Z</time>
      </trkpt>
      <trkpt lat="46.70556" lon="5.66598">
        <ele>499.9</ele>
        <time>2020-03-03T08:52:50Z</time>
      </trkpt>
      <trkpt lat="46.70553" lon="5.66591">
        <ele>500</ele>
        <time>2020-03-03T08:52:52Z</time>
      </trkpt>
      <trkpt lat="46.70551" lon="5.66583">
        <ele>500.3</ele>
        <time>2020-03-03T08:52:55Z</time>
      </trkpt>
      <trkpt lat="46.7055" lon="5.66576">
        <ele>500.6</ele>
        <time>2020-03-03T08:52:59Z</time>
      </trkpt>
      <trkpt lat="46.7055" lon="5.66568">
        <ele>501</ele>
        <time>2020-03-03T08:53:06Z</time>
      </trkpt>
      <trkpt lat="46.7055" lon="5.66561">
        <ele>501.2</ele>
        <time>2020-03-03T08:53:13Z</time>
      </trkpt>
      <trkpt lat="46.70549" lon="5.66553">
        <ele>501.1</ele>
        <time>2020-03-03T08:53:19Z</time>
      </trkpt>
      <trkpt lat="46.70551" lon="5.66545">
        <ele>500.6</ele>
        <time>2020-03-03T08:53:25Z</time>
      </trkpt>
      <trkpt lat="46.70553" lon="5.66537">
        <ele>500.5</ele>
        <time>2020-03-03T08:53:28Z</time>
      </trkpt>
      <trkpt lat="46.70554" lon="5.66529">
        <ele>500.4</ele>
        <time>2020-03-03T08:53:32Z</time>
      </trkpt>
      <trkpt lat="46.70557" lon="5.66522">
        <ele>500.2</ele>
        <time>2020-03-03T08:53:38Z</time>
      </trkpt>
      <trkpt lat="46.7056" lon="5.66517">
        <ele>499.9</ele>
        <time>2020-03-03T08:53:42Z</time>
      </trkpt>
      <trkpt lat="46.70561" lon="5.6651">
        <ele>499.8</ele>
        <time>2020-03-03T08:53:45Z</time>
      </trkpt>
      <trkpt lat="46.70562" lon="5.66502">
        <ele>499.8</ele>
        <time>2020-03-03T08:53:49Z</time>
      </trkpt>
      <trkpt lat="46.70563" lon="5.66496">
        <ele>499.9</ele>
        <time>2020-03-03T08:53:54Z</time>
      </trkpt>
      <trkpt lat="46.70565" lon="5.66489">
        <ele>500.3</ele>
        <time>2020-03-03T08:53:58Z</time>
      </trkpt>
      <trkpt lat="46.70566" lon="5.66483">
        <ele>500.7</ele>
        <time>2020-03-03T08:54:03Z</time>
      </trkpt>
      <trkpt lat="46.70565" lon="5.66474">
        <ele>501.3</ele>
        <time>2020-03-03T08:54:07Z</time>
      </trkpt>
      <trkpt lat="46.70566" lon="5.66466">
        <ele>501.8</ele>
        <time>2020-03-03T08:54:10Z</time>
      </trkpt>
      <trkpt lat="46.70567" lon="5.66459">
        <ele>502.8</ele>
        <time>2020-03-03T08:54:16Z</time>
      </trkpt>
      <trkpt lat="46.70571" lon="5.66455">
        <ele>504.3</ele>
        <time>2020-03-03T08:54:23Z</time>
      </trkpt>
      <trkpt lat="46.70578" lon="5.66422">
        <ele>513.8</ele>
        <time>2020-03-03T08:55:30Z</time>
      </trkpt>
      <trkpt lat="46.70579" lon="5.66416">
        <ele>513.7</ele>
        <time>2020-03-03T08:55:33Z</time>
      </trkpt>
      <trkpt lat="46.70579" lon="5.66407">
        <ele>513.4</ele>
        <time>2020-03-03T08:55:36Z</time>
      </trkpt>
      <trkpt lat="46.7058" lon="5.66398">
        <ele>513.1</ele>
        <time>2020-03-03T08:55:39Z</time>
      </trkpt>
      <trkpt lat="46.70582" lon="5.66391">
        <ele>512.5</ele>
        <time>2020-03-03T08:55:43Z</time>
      </trkpt>
      <trkpt lat="46.70581" lon="5.66383">
        <ele>512</ele>
        <time>2020-03-03T08:55:47Z</time>
      </trkpt>
      <trkpt lat="46.70581" lon="5.66376">
        <ele>511.5</ele>
        <time>2020-03-03T08:55:51Z</time>
      </trkpt>
      <trkpt lat="46.70581" lon="5.66368">
        <ele>510.8</ele>
        <time>2020-03-03T08:55:57Z</time>
      </trkpt>
      <trkpt lat="46.70581" lon="5.6636">
        <ele>510.4</ele>
        <time>2020-03-03T08:56:00Z</time>
      </trkpt>
      <trkpt lat="46.7058" lon="5.66353">
        <ele>510</ele>
        <time>2020-03-03T08:56:03Z</time>
      </trkpt>
      <trkpt lat="46.70579" lon="5.66345">
        <ele>509.6</ele>
        <time>2020-03-03T08:56:06Z</time>
      </trkpt>
      <trkpt lat="46.70579" lon="5.66338">
        <ele>509.3</ele>
        <time>2020-03-03T08:56:09Z</time>
      </trkpt>
      <trkpt lat="46.7058" lon="5.6633">
        <ele>509</ele>
        <time>2020-03-03T08:56:12Z</time>
      </trkpt>
      <trkpt lat="46.70581" lon="5.66323">
        <ele>508.6</ele>
        <time>2020-03-03T08:56:15Z</time>
      </trkpt>
      <trkpt lat="46.70582" lon="5.66316">
        <ele>508.1</ele>
        <time>2020-03-03T08:56:18Z</time>
      </trkpt>
      <trkpt lat="46.70584" lon="5.66309">
        <ele>507.5</ele>
        <time>2020-03-03T08:56:22Z</time>
      </trkpt>
      <trkpt lat="46.70587" lon="5.66302">
        <ele>506.6</ele>
        <time>2020-03-03T08:56:27Z</time>
      </trkpt>
      <trkpt lat="46.70587" lon="5.66295">
        <ele>505.8</ele>
        <time>2020-03-03T08:56:32Z</time>
      </trkpt>
      <trkpt lat="46.70587" lon="5.66288">
        <ele>505.2</ele>
        <time>2020-03-03T08:56:36Z</time>
      </trkpt>
      <trkpt lat="46.70588" lon="5.66281">
        <ele>504.4</ele>
        <time>2020-03-03T08:56:41Z</time>
      </trkpt>
      <trkpt lat="46.70589" lon="5.66273">
        <ele>503.5</ele>
        <time>2020-03-03T08:56:47Z</time>
      </trkpt>
      <trkpt lat="46.7059" lon="5.66266">
        <ele>502.5</ele>
        <time>2020-03-03T08:56:54Z</time>
      </trkpt>
      <trkpt lat="46.7059" lon="5.66259">
        <ele>502</ele>
        <time>2020-03-03T08:56:58Z</time>
      </trkpt>
      <trkpt lat="46.70593" lon="5.66253">
        <ele>501.3</ele>
        <time>2020-03-03T08:57:04Z</time>
      </trkpt>
      <trkpt lat="46.70594" lon="5.66246">
        <ele>500.2</ele>
        <time>2020-03-03T08:57:15Z</time>
      </trkpt>
      <trkpt lat="46.70595" lon="5.66238">
        <ele>500.1</ele>
        <time>2020-03-03T08:57:19Z</time>
      </trkpt>
      <trkpt lat="46.70597" lon="5.66232">
        <ele>499.9</ele>
        <time>2020-03-03T08:57:24Z</time>
      </trkpt>
      <trkpt lat="46.70599" lon="5.66225">
        <ele>499.5</ele>
        <time>2020-03-03T08:57:29Z</time>
      </trkpt>
      <trkpt lat="46.70605" lon="5.66213">
        <ele>497.9</ele>
        <time>2020-03-03T08:57:40Z</time>
      </trkpt>
      <trkpt lat="46.70605" lon="5.66205">
        <ele>497.4</ele>
        <time>2020-03-03T08:57:44Z</time>
      </trkpt>
      <trkpt lat="46.70606" lon="5.66198">
        <ele>497.1</ele>
        <time>2020-03-03T08:57:46Z</time>
      </trkpt>
      <trkpt lat="46.70606" lon="5.6619">
        <ele>496.7</ele>
        <time>2020-03-03T08:57:49Z</time>
      </trkpt>
      <trkpt lat="46.70606" lon="5.66184">
        <ele>496.3</ele>
        <time>2020-03-03T08:57:53Z</time>
      </trkpt>
      <trkpt lat="46.70605" lon="5.66176">
        <ele>496.2</ele>
        <time>2020-03-03T08:57:58Z</time>
      </trkpt>
      <trkpt lat="46.70603" lon="5.66169">
        <ele>496.4</ele>
        <time>2020-03-03T08:58:03Z</time>
      </trkpt>
      <trkpt lat="46.70601" lon="5.6616">
        <ele>496.7</ele>
        <time>2020-03-03T08:58:06Z</time>
      </trkpt>
      <trkpt lat="46.70599" lon="5.66153">
        <ele>497</ele>
        <time>2020-03-03T08:58:08Z</time>
      </trkpt>
      <trkpt lat="46.70597" lon="5.66147">
        <ele>497.3</ele>
        <time>2020-03-03T08:58:10Z</time>
      </trkpt>
      <trkpt lat="46.70595" lon="5.66141">
        <ele>497.7</ele>
        <time>2020-03-03T08:58:13Z</time>
      </trkpt>
      <trkpt lat="46.70593" lon="5.66135">
        <ele>498.3</ele>
        <time>2020-03-03T08:58:19Z</time>
      </trkpt>
      <trkpt lat="46.7059" lon="5.66129">
        <ele>498.6</ele>
        <time>2020-03-03T08:58:27Z</time>
      </trkpt>
      <trkpt lat="46.70587" lon="5.66124">
        <ele>498.5</ele>
        <time>2020-03-03T08:58:33Z</time>
      </trkpt>
      <trkpt lat="46.70585" lon="5.66117">
        <ele>498.3</ele>
        <time>2020-03-03T08:58:39Z</time>
      </trkpt>
      <trkpt lat="46.70584" lon="5.6611">
        <ele>498.2</ele>
        <time>2020-03-03T08:58:44Z</time>
      </trkpt>
      <trkpt lat="46.70585" lon="5.66103">
        <ele>498.2</ele>
        <time>2020-03-03T08:58:48Z</time>
      </trkpt>
      <trkpt lat="46.70585" lon="5.66097">
        <ele>498.1</ele>
        <time>2020-03-03T08:58:52Z</time>
      </trkpt>
      <trkpt lat="46.70587" lon="5.66089">
        <ele>498</ele>
        <time>2020-03-03T08:58:56Z</time>
      </trkpt>
      <trkpt lat="46.70589" lon="5.66083">
        <ele>497.9</ele>
        <time>2020-03-03T08:59:01Z</time>
      </trkpt>
      <trkpt lat="46.70592" lon="5.66078">
        <ele>497.9</ele>
        <time>2020-03-03T08:59:09Z</time>
      </trkpt>
      <trkpt lat="46.70594" lon="5.66072">
        <ele>497.7</ele>
        <time>2020-03-03T08:59:15Z</time>
      </trkpt>
      <trkpt lat="46.70597" lon="5.66065">
        <ele>497.5</ele>
        <time>2020-03-03T08:59:19Z</time>
      </trkpt>
      <trkpt lat="46.706" lon="5.6606">
        <ele>497.3</ele>
        <time>2020-03-03T08:59:22Z</time>
      </trkpt>
      <trkpt lat="46.70602" lon="5.66053">
        <ele>497.2</ele>
        <time>2020-03-03T08:59:26Z</time>
      </trkpt>
      <trkpt lat="46.70603" lon="5.66046">
        <ele>496.8</ele>
        <time>2020-03-03T08:59:31Z</time>
      </trkpt>
      <trkpt lat="46.70604" lon="5.66039">
        <ele>496.5</ele>
        <time>2020-03-03T08:59:35Z</time>
      </trkpt>
      <trkpt lat="46.70606" lon="5.66033">
        <ele>496.3</ele>
        <time>2020-03-03T08:59:39Z</time>
      </trkpt>
      <trkpt lat="46.70607" lon="5.66025">
        <ele>496.2</ele>
        <time>2020-03-03T08:59:43Z</time>
      </trkpt>
      <trkpt lat="46.70609" lon="5.66019">
        <ele>496.3</ele>
        <time>2020-03-03T08:59:48Z</time>
      </trkpt>
      <trkpt lat="46.70611" lon="5.66013">
        <ele>496.3</ele>
        <time>2020-03-03T08:59:52Z</time>
      </trkpt>
      <trkpt lat="46.70614" lon="5.66007">
        <ele>496</ele>
        <time>2020-03-03T08:59:58Z</time>
      </trkpt>
      <trkpt lat="46.70619" lon="5.6599">
        <ele>495.3</ele>
        <time>2020-03-03T09:00:10Z</time>
      </trkpt>
      <trkpt lat="46.70621" lon="5.65984">
        <ele>495.2</ele>
        <time>2020-03-03T09:00:14Z</time>
      </trkpt>
      <trkpt lat="46.70623" lon="5.65978">
        <ele>495</ele>
        <time>2020-03-03T09:00:18Z</time>
      </trkpt>
      <trkpt lat="46.70625" lon="5.6597">
        <ele>494.9</ele>
        <time>2020-03-03T09:00:23Z</time>
      </trkpt>
      <trkpt lat="46.70627" lon="5.65963">
        <ele>494.8</ele>
        <time>2020-03-03T09:00:28Z</time>
      </trkpt>
      <trkpt lat="46.70629" lon="5.65956">
        <ele>494.7</ele>
        <time>2020-03-03T09:00:34Z</time>
      </trkpt>
      <trkpt lat="46.70628" lon="5.65949">
        <ele>494.8</ele>
        <time>2020-03-03T09:00:39Z</time>
      </trkpt>
      <trkpt lat="46.70628" lon="5.65942">
        <ele>494.8</ele>
        <time>2020-03-03T09:00:44Z</time>
      </trkpt>
      <trkpt lat="46.7063" lon="5.65935">
        <ele>494.7</ele>
        <time>2020-03-03T09:00:48Z</time>
      </trkpt>
      <trkpt lat="46.70633" lon="5.6593">
        <ele>494.5</ele>
        <time>2020-03-03T09:00:54Z</time>
      </trkpt>
      <trkpt lat="46.70637" lon="5.65924">
        <ele>494.2</ele>
        <time>2020-03-03T09:00:59Z</time>
      </trkpt>
      <trkpt lat="46.70641" lon="5.65919">
        <ele>493.9</ele>
        <time>2020-03-03T09:01:04Z</time>
      </trkpt>
      <trkpt lat="46.70643" lon="5.65913">
        <ele>493.6</ele>
        <time>2020-03-03T09:01:10Z</time>
      </trkpt>
      <trkpt lat="46.70641" lon="5.65906">
        <ele>493.5</ele>
        <time>2020-03-03T09:01:15Z</time>
      </trkpt>
      <trkpt lat="46.70638" lon="5.659">
        <ele>493.6</ele>
        <time>2020-03-03T09:01:19Z</time>
      </trkpt>
      <trkpt lat="46.70636" lon="5.65894">
        <ele>493.7</ele>
        <time>2020-03-03T09:01:24Z</time>
      </trkpt>
      <trkpt lat="46.70633" lon="5.65888">
        <ele>493.7</ele>
        <time>2020-03-03T09:01:28Z</time>
      </trkpt>
      <trkpt lat="46.7063" lon="5.65882">
        <ele>493.6</ele>
        <time>2020-03-03T09:01:34Z</time>
      </trkpt>
      <trkpt lat="46.70628" lon="5.65875">
        <ele>493.4</ele>
        <time>2020-03-03T09:01:39Z</time>
      </trkpt>
      <trkpt lat="46.70625" lon="5.65869">
        <ele>493.2</ele>
        <time>2020-03-03T09:01:43Z</time>
      </trkpt>
      <trkpt lat="46.70623" lon="5.65862">
        <ele>492.9</ele>
        <time>2020-03-03T09:01:47Z</time>
      </trkpt>
      <trkpt lat="46.70621" lon="5.65856">
        <ele>492.3</ele>
        <time>2020-03-03T09:01:52Z</time>
      </trkpt>
      <trkpt lat="46.70619" lon="5.6585">
        <ele>491.8</ele>
        <time>2020-03-03T09:01:57Z</time>
      </trkpt>
      <trkpt lat="46.70617" lon="5.65843">
        <ele>491.4</ele>
        <time>2020-03-03T09:02:03Z</time>
      </trkpt>
      <trkpt lat="46.70615" lon="5.65836">
        <ele>491.1</ele>
        <time>2020-03-03T09:02:08Z</time>
      </trkpt>
      <trkpt lat="46.70614" lon="5.6583">
        <ele>491.1</ele>
        <time>2020-03-03T09:02:12Z</time>
      </trkpt>
      <trkpt lat="46.7061" lon="5.65825">
        <ele>491</ele>
        <time>2020-03-03T09:02:17Z</time>
      </trkpt>
      <trkpt lat="46.70607" lon="5.65819">
        <ele>490.6</ele>
        <time>2020-03-03T09:02:24Z</time>
      </trkpt>
      <trkpt lat="46.70607" lon="5.65812">
        <ele>490.3</ele>
        <time>2020-03-03T09:02:30Z</time>
      </trkpt>
      <trkpt lat="46.70606" lon="5.65805">
        <ele>490.3</ele>
        <time>2020-03-03T09:02:35Z</time>
      </trkpt>
      <trkpt lat="46.70606" lon="5.65799">
        <ele>490.4</ele>
        <time>2020-03-03T09:02:42Z</time>
      </trkpt>
      <trkpt lat="46.70603" lon="5.65793">
        <ele>490.3</ele>
        <time>2020-03-03T09:02:49Z</time>
      </trkpt>
      <trkpt lat="46.70599" lon="5.6579">
        <ele>489.8</ele>
        <time>2020-03-03T09:02:56Z</time>
      </trkpt>
      <trkpt lat="46.70599" lon="5.65783">
        <ele>489.1</ele>
        <time>2020-03-03T09:03:04Z</time>
      </trkpt>
      <trkpt lat="46.706" lon="5.65777">
        <ele>487.7</ele>
        <time>2020-03-03T09:03:24Z</time>
      </trkpt>
      <trkpt lat="46.70598" lon="5.65771">
        <ele>487.6</ele>
        <time>2020-03-03T09:03:34Z</time>
      </trkpt>
      <trkpt lat="46.70593" lon="5.65767">
        <ele>487.2</ele>
        <time>2020-03-03T09:03:47Z</time>
      </trkpt>
      <trkpt lat="46.70589" lon="5.65765">
        <ele>486.7</ele>
        <time>2020-03-03T09:03:54Z</time>
      </trkpt>
      <trkpt lat="46.70586" lon="5.6576">
        <ele>486.3</ele>
        <time>2020-03-03T09:03:59Z</time>
      </trkpt>
      <trkpt lat="46.70583" lon="5.65754">
        <ele>485.6</ele>
        <time>2020-03-03T09:04:05Z</time>
      </trkpt>
      <trkpt lat="46.70579" lon="5.6575">
        <ele>485.2</ele>
        <time>2020-03-03T09:04:13Z</time>
      </trkpt>
      <trkpt lat="46.70574" lon="5.65747">
        <ele>485</ele>
        <time>2020-03-03T09:04:19Z</time>
      </trkpt>
      <trkpt lat="46.70573" lon="5.65738">
        <ele>485.1</ele>
        <time>2020-03-03T09:04:26Z</time>
      </trkpt>
      <trkpt lat="46.70574" lon="5.65731">
        <ele>485.5</ele>
        <time>2020-03-03T09:04:31Z</time>
      </trkpt>
      <trkpt lat="46.70576" lon="5.65725">
        <ele>486.5</ele>
        <time>2020-03-03T09:04:38Z</time>
      </trkpt>
      <trkpt lat="46.70578" lon="5.65718">
        <ele>487.5</ele>
        <time>2020-03-03T09:04:46Z</time>
      </trkpt>
      <trkpt lat="46.70578" lon="5.65711">
        <ele>488.5</ele>
        <time>2020-03-03T09:04:53Z</time>
      </trkpt>
      <trkpt lat="46.70581" lon="5.65705">
        <ele>494.2</ele>
        <time>2020-03-03T09:05:38Z</time>
      </trkpt>
      <trkpt lat="46.70578" lon="5.65699">
        <ele>500.5</ele>
        <time>2020-03-03T09:06:30Z</time>
      </trkpt>
      <trkpt lat="46.70578" lon="5.65697">
        <ele>499.3</ele>
        <time>2020-03-03T09:07:25Z</time>
      </trkpt>
      <trkpt lat="46.70575" lon="5.65692">
        <ele>499.3</ele>
        <time>2020-03-03T09:07:33Z</time>
      </trkpt>
      <trkpt lat="46.70572" lon="5.65688">
        <ele>498</ele>
        <time>2020-03-03T09:07:49Z</time>
      </trkpt>
      <trkpt lat="46.70569" lon="5.65682">
        <ele>497</ele>
        <time>2020-03-03T09:08:00Z</time>
      </trkpt>
      <trkpt lat="46.70566" lon="5.65677">
        <ele>495.3</ele>
        <time>2020-03-03T09:08:15Z</time>
      </trkpt>
      <trkpt lat="46.70564" lon="5.65672">
        <ele>495.3</ele>
        <time>2020-03-03T09:08:23Z</time>
      </trkpt>
      <trkpt lat="46.7056" lon="5.65668">
        <ele>495.6</ele>
        <time>2020-03-03T09:08:31Z</time>
      </trkpt>
      <trkpt lat="46.70555" lon="5.65665">
        <ele>495.8</ele>
        <time>2020-03-03T09:08:40Z</time>
      </trkpt>
      <trkpt lat="46.70551" lon="5.65664">
        <ele>495.8</ele>
        <time>2020-03-03T09:08:48Z</time>
      </trkpt>
      <trkpt lat="46.70547" lon="5.65663">
        <ele>495.5</ele>
        <time>2020-03-03T09:08:57Z</time>
      </trkpt>
      <trkpt lat="46.70542" lon="5.65659">
        <ele>495.2</ele>
        <time>2020-03-03T09:09:09Z</time>
      </trkpt>
      <trkpt lat="46.70539" lon="5.65654">
        <ele>494.9</ele>
        <time>2020-03-03T09:09:15Z</time>
      </trkpt>
      <trkpt lat="46.70535" lon="5.65652">
        <ele>495</ele>
        <time>2020-03-03T09:09:28Z</time>
      </trkpt>
      <trkpt lat="46.7053" lon="5.6565">
        <ele>495.7</ele>
        <time>2020-03-03T09:09:36Z</time>
      </trkpt>
      <trkpt lat="46.70526" lon="5.65648">
        <ele>496.5</ele>
        <time>2020-03-03T09:09:49Z</time>
      </trkpt>
      <trkpt lat="46.70526" lon="5.65641">
        <ele>495.4</ele>
        <time>2020-03-03T09:10:20Z</time>
      </trkpt>
      <trkpt lat="46.7053" lon="5.65633">
        <ele>496</ele>
        <time>2020-03-03T09:10:36Z</time>
      </trkpt>
      <trkpt lat="46.70531" lon="5.65626">
        <ele>496.7</ele>
        <time>2020-03-03T09:10:46Z</time>
      </trkpt>
      <trkpt lat="46.70531" lon="5.65618">
        <ele>497.1</ele>
        <time>2020-03-03T09:10:50Z</time>
      </trkpt>
      <trkpt lat="46.7053" lon="5.65611">
        <ele>497.5</ele>
        <time>2020-03-03T09:10:56Z</time>
      </trkpt>
      <trkpt lat="46.7053" lon="5.65603">
        <ele>497.5</ele>
        <time>2020-03-03T09:11:00Z</time>
      </trkpt>
      <trkpt lat="46.70528" lon="5.65597">
        <ele>497.5</ele>
        <time>2020-03-03T09:11:05Z</time>
      </trkpt>
      <trkpt lat="46.70526" lon="5.65592">
        <ele>496.5</ele>
        <time>2020-03-03T09:11:16Z</time>
      </trkpt>
      <trkpt lat="46.70522" lon="5.65582">
        <ele>495.4</ele>
        <time>2020-03-03T09:11:29Z</time>
      </trkpt>
      <trkpt lat="46.70519" lon="5.65576">
        <ele>494.3</ele>
        <time>2020-03-03T09:11:43Z</time>
      </trkpt>
      <trkpt lat="46.70516" lon="5.6556">
        <ele>493.6</ele>
        <time>2020-03-03T09:11:53Z</time>
      </trkpt>
      <trkpt lat="46.70515" lon="5.65554">
        <ele>493.4</ele>
        <time>2020-03-03T09:12:00Z</time>
      </trkpt>
      <trkpt lat="46.70512" lon="5.65543">
        <ele>493.1</ele>
        <time>2020-03-03T09:12:10Z</time>
      </trkpt>
      <trkpt lat="46.70509" lon="5.65535">
        <ele>492.9</ele>
        <time>2020-03-03T09:12:12Z</time>
      </trkpt>
      <trkpt lat="46.70507" lon="5.65528">
        <ele>492.6</ele>
        <time>2020-03-03T09:12:17Z</time>
      </trkpt>
      <trkpt lat="46.70509" lon="5.65522">
        <ele>492</ele>
        <time>2020-03-03T09:12:26Z</time>
      </trkpt>
      <trkpt lat="46.70509" lon="5.65515">
        <ele>491.9</ele>
        <time>2020-03-03T09:12:31Z</time>
      </trkpt>
      <trkpt lat="46.70509" lon="5.65508">
        <ele>491.9</ele>
        <time>2020-03-03T09:12:36Z</time>
      </trkpt>
      <trkpt lat="46.70506" lon="5.65502">
        <ele>492.3</ele>
        <time>2020-03-03T09:12:45Z</time>
      </trkpt>
      <trkpt lat="46.70503" lon="5.65496">
        <ele>492.1</ele>
        <time>2020-03-03T09:12:54Z</time>
      </trkpt>
      <trkpt lat="46.70501" lon="5.6549">
        <ele>491.8</ele>
        <time>2020-03-03T09:13:03Z</time>
      </trkpt>
      <trkpt lat="46.70501" lon="5.65483">
        <ele>491.3</ele>
        <time>2020-03-03T09:13:13Z</time>
      </trkpt>
      <trkpt lat="46.70502" lon="5.6546">
        <ele>489</ele>
        <time>2020-03-03T09:13:52Z</time>
      </trkpt>
      <trkpt lat="46.70503" lon="5.65453">
        <ele>488.7</ele>
        <time>2020-03-03T09:13:55Z</time>
      </trkpt>
      <trkpt lat="46.70501" lon="5.65438">
        <ele>488.3</ele>
        <time>2020-03-03T09:14:07Z</time>
      </trkpt>
      <trkpt lat="46.70501" lon="5.65431">
        <ele>488.5</ele>
        <time>2020-03-03T09:14:12Z</time>
      </trkpt>
      <trkpt lat="46.70505" lon="5.65426">
        <ele>488.9</ele>
        <time>2020-03-03T09:14:16Z</time>
      </trkpt>
      <trkpt lat="46.70507" lon="5.6542">
        <ele>489.9</ele>
        <time>2020-03-03T09:14:24Z</time>
      </trkpt>
      <trkpt lat="46.70505" lon="5.65399">
        <ele>493.5</ele>
        <time>2020-03-03T09:14:53Z</time>
      </trkpt>
      <trkpt lat="46.70502" lon="5.65389">
        <ele>494</ele>
        <time>2020-03-03T09:15:11Z</time>
      </trkpt>
      <trkpt lat="46.70499" lon="5.65363">
        <ele>494.1</ele>
        <time>2020-03-03T09:15:18Z</time>
      </trkpt>
      <trkpt lat="46.70498" lon="5.65356">
        <ele>494.1</ele>
        <time>2020-03-03T09:15:20Z</time>
      </trkpt>
      <trkpt lat="46.70496" lon="5.6535">
        <ele>495</ele>
        <time>2020-03-03T09:15:34Z</time>
      </trkpt>
      <trkpt lat="46.70495" lon="5.65343">
        <ele>495.6</ele>
        <time>2020-03-03T09:15:41Z</time>
      </trkpt>
      <trkpt lat="46.70493" lon="5.65336">
        <ele>495.8</ele>
        <time>2020-03-03T09:15:43Z</time>
      </trkpt>
      <trkpt lat="46.70492" lon="5.6533">
        <ele>496.2</ele>
        <time>2020-03-03T09:15:50Z</time>
      </trkpt>
      <trkpt lat="46.70489" lon="5.65324">
        <ele>496.4</ele>
        <time>2020-03-03T09:16:00Z</time>
      </trkpt>
      <trkpt lat="46.70485" lon="5.65322">
        <ele>496.4</ele>
        <time>2020-03-03T09:16:02Z</time>
      </trkpt>
      <trkpt lat="46.70481" lon="5.65318">
        <ele>496.6</ele>
        <time>2020-03-03T09:16:08Z</time>
      </trkpt>
      <trkpt lat="46.70477" lon="5.65314">
        <ele>493.2</ele>
        <time>2020-03-03T09:16:35Z</time>
      </trkpt>
      <trkpt lat="46.70474" lon="5.65309">
        <ele>492.4</ele>
        <time>2020-03-03T09:16:40Z</time>
      </trkpt>
      <trkpt lat="46.7047" lon="5.653">
        <ele>490.3</ele>
        <time>2020-03-03T09:16:51Z</time>
      </trkpt>
      <trkpt lat="46.70469" lon="5.65293">
        <ele>489.6</ele>
        <time>2020-03-03T09:16:56Z</time>
      </trkpt>
      <trkpt lat="46.70465" lon="5.65289">
        <ele>488.6</ele>
        <time>2020-03-03T09:17:08Z</time>
      </trkpt>
      <trkpt lat="46.70462" lon="5.65286">
        <ele>487.9</ele>
        <time>2020-03-03T09:17:13Z</time>
      </trkpt>
      <trkpt lat="46.70457" lon="5.65283">
        <ele>487</ele>
        <time>2020-03-03T09:17:24Z</time>
      </trkpt>
      <trkpt lat="46.70451" lon="5.65279">
        <ele>486.4</ele>
        <time>2020-03-03T09:17:36Z</time>
      </trkpt>
      <trkpt lat="46.70443" lon="5.65269">
        <ele>486.4</ele>
        <time>2020-03-03T09:17:58Z</time>
      </trkpt>
      <trkpt lat="46.70438" lon="5.65265">
        <ele>486.6</ele>
        <time>2020-03-03T09:18:03Z</time>
      </trkpt>
      <trkpt lat="46.70433" lon="5.65258">
        <ele>486.8</ele>
        <time>2020-03-03T09:18:06Z</time>
      </trkpt>
      <trkpt lat="46.70429" lon="5.65254">
        <ele>486.9</ele>
        <time>2020-03-03T09:18:09Z</time>
      </trkpt>
      <trkpt lat="46.70425" lon="5.65249">
        <ele>487</ele>
        <time>2020-03-03T09:18:12Z</time>
      </trkpt>
      <trkpt lat="46.70426" lon="5.65253">
        <ele>492.6</ele>
        <time>2020-03-03T09:21:57Z</time>
      </trkpt>
      <trkpt lat="46.70426" lon="5.65259">
        <ele>491.4</ele>
        <time>2020-03-03T09:22:06Z</time>
      </trkpt>
      <trkpt lat="46.70426" lon="5.65266">
        <ele>491</ele>
        <time>2020-03-03T09:22:12Z</time>
      </trkpt>
      <trkpt lat="46.7043" lon="5.65271">
        <ele>490.7</ele>
        <time>2020-03-03T09:22:15Z</time>
      </trkpt>
      <trkpt lat="46.70434" lon="5.65275">
        <ele>490.5</ele>
        <time>2020-03-03T09:22:20Z</time>
      </trkpt>
      <trkpt lat="46.70438" lon="5.6528">
        <ele>490.5</ele>
        <time>2020-03-03T09:22:29Z</time>
      </trkpt>
      <trkpt lat="46.70441" lon="5.65286">
        <ele>491.3</ele>
        <time>2020-03-03T09:22:36Z</time>
      </trkpt>
      <trkpt lat="46.70443" lon="5.65291">
        <ele>492.1</ele>
        <time>2020-03-03T09:22:42Z</time>
      </trkpt>
      <trkpt lat="46.70443" lon="5.65299">
        <ele>492.2</ele>
        <time>2020-03-03T09:22:44Z</time>
      </trkpt>
      <trkpt lat="46.70443" lon="5.65307">
        <ele>492.3</ele>
        <time>2020-03-03T09:22:46Z</time>
      </trkpt>
      <trkpt lat="46.70446" lon="5.65313">
        <ele>492.4</ele>
        <time>2020-03-03T09:22:50Z</time>
      </trkpt>
      <trkpt lat="46.70448" lon="5.6532">
        <ele>492.5</ele>
        <time>2020-03-03T09:22:55Z</time>
      </trkpt>
      <trkpt lat="46.70448" lon="5.65328">
        <ele>492.7</ele>
        <time>2020-03-03T09:22:59Z</time>
      </trkpt>
      <trkpt lat="46.70448" lon="5.65338">
        <ele>492.9</ele>
        <time>2020-03-03T09:23:01Z</time>
      </trkpt>
      <trkpt lat="46.7045" lon="5.65348">
        <ele>493.1</ele>
        <time>2020-03-03T09:23:03Z</time>
      </trkpt>
      <trkpt lat="46.70451" lon="5.65356">
        <ele>493.2</ele>
        <time>2020-03-03T09:23:05Z</time>
      </trkpt>
      <trkpt lat="46.7045" lon="5.65363">
        <ele>493.4</ele>
        <time>2020-03-03T09:23:11Z</time>
      </trkpt>
      <trkpt lat="46.7045" lon="5.6537">
        <ele>493.5</ele>
        <time>2020-03-03T09:23:18Z</time>
      </trkpt>
      <trkpt lat="46.70449" lon="5.65377">
        <ele>493.6</ele>
        <time>2020-03-03T09:23:25Z</time>
      </trkpt>
      <trkpt lat="46.70448" lon="5.65384">
        <ele>493.9</ele>
        <time>2020-03-03T09:23:32Z</time>
      </trkpt>
      <trkpt lat="46.70446" lon="5.65391">
        <ele>494.1</ele>
        <time>2020-03-03T09:23:38Z</time>
      </trkpt>
      <trkpt lat="46.70444" lon="5.654">
        <ele>494.1</ele>
        <time>2020-03-03T09:23:45Z</time>
      </trkpt>
      <trkpt lat="46.70444" lon="5.65407">
        <ele>494.1</ele>
        <time>2020-03-03T09:23:47Z</time>
      </trkpt>
      <trkpt lat="46.70444" lon="5.65414">
        <ele>494.2</ele>
        <time>2020-03-03T09:23:52Z</time>
      </trkpt>
      <trkpt lat="46.70444" lon="5.65422">
        <ele>494</ele>
        <time>2020-03-03T09:23:56Z</time>
      </trkpt>
      <trkpt lat="46.70442" lon="5.65429">
        <ele>493.9</ele>
        <time>2020-03-03T09:24:02Z</time>
      </trkpt>
      <trkpt lat="46.70441" lon="5.65435">
        <ele>494</ele>
        <time>2020-03-03T09:24:10Z</time>
      </trkpt>
      <trkpt lat="46.70442" lon="5.65451">
        <ele>494.3</ele>
        <time>2020-03-03T09:24:24Z</time>
      </trkpt>
      <trkpt lat="46.70442" lon="5.65458">
        <ele>494.4</ele>
        <time>2020-03-03T09:24:26Z</time>
      </trkpt>
      <trkpt lat="46.7044" lon="5.65466">
        <ele>494.3</ele>
        <time>2020-03-03T09:24:29Z</time>
      </trkpt>
      <trkpt lat="46.70439" lon="5.65472">
        <ele>494.3</ele>
        <time>2020-03-03T09:24:36Z</time>
      </trkpt>
      <trkpt lat="46.70442" lon="5.6548">
        <ele>494.5</ele>
        <time>2020-03-03T09:24:43Z</time>
      </trkpt>
      <trkpt lat="46.70444" lon="5.65488">
        <ele>494.4</ele>
        <time>2020-03-03T09:24:46Z</time>
      </trkpt>
      <trkpt lat="46.70446" lon="5.65495">
        <ele>494.2</ele>
        <time>2020-03-03T09:24:49Z</time>
      </trkpt>
      <trkpt lat="46.70447" lon="5.65503">
        <ele>493.9</ele>
        <time>2020-03-03T09:24:53Z</time>
      </trkpt>
      <trkpt lat="46.70448" lon="5.65509">
        <ele>493.3</ele>
        <time>2020-03-03T09:25:00Z</time>
      </trkpt>
      <trkpt lat="46.70448" lon="5.65516">
        <ele>493.1</ele>
        <time>2020-03-03T09:25:07Z</time>
      </trkpt>
      <trkpt lat="46.70449" lon="5.65523">
        <ele>493.4</ele>
        <time>2020-03-03T09:25:16Z</time>
      </trkpt>
      <trkpt lat="46.70451" lon="5.65529">
        <ele>493.6</ele>
        <time>2020-03-03T09:25:19Z</time>
      </trkpt>
      <trkpt lat="46.70452" lon="5.65535">
        <ele>493.8</ele>
        <time>2020-03-03T09:25:22Z</time>
      </trkpt>
      <trkpt lat="46.70454" lon="5.65542">
        <ele>493.9</ele>
        <time>2020-03-03T09:25:24Z</time>
      </trkpt>
      <trkpt lat="46.70456" lon="5.65549">
        <ele>494.1</ele>
        <time>2020-03-03T09:25:28Z</time>
      </trkpt>
      <trkpt lat="46.70459" lon="5.65555">
        <ele>494.3</ele>
        <time>2020-03-03T09:25:34Z</time>
      </trkpt>
      <trkpt lat="46.70463" lon="5.6556">
        <ele>494.6</ele>
        <time>2020-03-03T09:25:40Z</time>
      </trkpt>
      <trkpt lat="46.70466" lon="5.65565">
        <ele>494.9</ele>
        <time>2020-03-03T09:25:49Z</time>
      </trkpt>
      <trkpt lat="46.7047" lon="5.65568">
        <ele>495.4</ele>
        <time>2020-03-03T09:25:59Z</time>
      </trkpt>
      <trkpt lat="46.70476" lon="5.65579">
        <ele>495.7</ele>
        <time>2020-03-03T09:26:18Z</time>
      </trkpt>
      <trkpt lat="46.70488" lon="5.65599">
        <ele>496.5</ele>
        <time>2020-03-03T09:26:34Z</time>
      </trkpt>
      <trkpt lat="46.70488" lon="5.65608">
        <ele>496.4</ele>
        <time>2020-03-03T09:26:36Z</time>
      </trkpt>
      <trkpt lat="46.70487" lon="5.65617">
        <ele>496.4</ele>
        <time>2020-03-03T09:26:40Z</time>
      </trkpt>
      <trkpt lat="46.70488" lon="5.65624">
        <ele>496.2</ele>
        <time>2020-03-03T09:26:45Z</time>
      </trkpt>
      <trkpt lat="46.70492" lon="5.65628">
        <ele>496.1</ele>
        <time>2020-03-03T09:26:50Z</time>
      </trkpt>
      <trkpt lat="46.70492" lon="5.65635">
        <ele>495.7</ele>
        <time>2020-03-03T09:26:56Z</time>
      </trkpt>
      <trkpt lat="46.70493" lon="5.65642">
        <ele>495.3</ele>
        <time>2020-03-03T09:27:02Z</time>
      </trkpt>
      <trkpt lat="46.70494" lon="5.65649">
        <ele>495</ele>
        <time>2020-03-03T09:27:07Z</time>
      </trkpt>
      <trkpt lat="46.70496" lon="5.65655">
        <ele>494.8</ele>
        <time>2020-03-03T09:27:12Z</time>
      </trkpt>
      <trkpt lat="46.70498" lon="5.65663">
        <ele>494.7</ele>
        <time>2020-03-03T09:27:14Z</time>
      </trkpt>
      <trkpt lat="46.705" lon="5.65671">
        <ele>494.6</ele>
        <time>2020-03-03T09:27:18Z</time>
      </trkpt>
      <trkpt lat="46.70501" lon="5.65678">
        <ele>494.5</ele>
        <time>2020-03-03T09:27:23Z</time>
      </trkpt>
      <trkpt lat="46.70504" lon="5.65683">
        <ele>493.9</ele>
        <time>2020-03-03T09:27:30Z</time>
      </trkpt>
      <trkpt lat="46.70506" lon="5.6569">
        <ele>493.5</ele>
        <time>2020-03-03T09:27:40Z</time>
      </trkpt>
      <trkpt lat="46.7051" lon="5.65694">
        <ele>494</ele>
        <time>2020-03-03T09:27:47Z</time>
      </trkpt>
      <trkpt lat="46.70513" lon="5.657">
        <ele>494.2</ele>
        <time>2020-03-03T09:27:49Z</time>
      </trkpt>
      <trkpt lat="46.70517" lon="5.65705">
        <ele>495.2</ele>
        <time>2020-03-03T09:27:54Z</time>
      </trkpt>
      <trkpt lat="46.70519" lon="5.65711">
        <ele>496.5</ele>
        <time>2020-03-03T09:28:01Z</time>
      </trkpt>
      <trkpt lat="46.70518" lon="5.65719">
        <ele>496.5</ele>
        <time>2020-03-03T09:28:07Z</time>
      </trkpt>
      <trkpt lat="46.70515" lon="5.65724">
        <ele>495.7</ele>
        <time>2020-03-03T09:28:15Z</time>
      </trkpt>
      <trkpt lat="46.70511" lon="5.65725">
        <ele>494.8</ele>
        <time>2020-03-03T09:28:27Z</time>
      </trkpt>
      <trkpt lat="46.70506" lon="5.65727">
        <ele>494.4</ele>
        <time>2020-03-03T09:28:34Z</time>
      </trkpt>
      <trkpt lat="46.70501" lon="5.65732">
        <ele>494.1</ele>
        <time>2020-03-03T09:28:38Z</time>
      </trkpt>
      <trkpt lat="46.70497" lon="5.65735">
        <ele>493.7</ele>
        <time>2020-03-03T09:28:42Z</time>
      </trkpt>
      <trkpt lat="46.70493" lon="5.65739">
        <ele>493.3</ele>
        <time>2020-03-03T09:28:47Z</time>
      </trkpt>
      <trkpt lat="46.70489" lon="5.65745">
        <ele>492.6</ele>
        <time>2020-03-03T09:28:54Z</time>
      </trkpt>
      <trkpt lat="46.70486" lon="5.65751">
        <ele>492.4</ele>
        <time>2020-03-03T09:28:59Z</time>
      </trkpt>
      <trkpt lat="46.70483" lon="5.65757">
        <ele>492.3</ele>
        <time>2020-03-03T09:29:06Z</time>
      </trkpt>
      <trkpt lat="46.70481" lon="5.65763">
        <ele>492.5</ele>
        <time>2020-03-03T09:29:13Z</time>
      </trkpt>
      <trkpt lat="46.70477" lon="5.65769">
        <ele>492.9</ele>
        <time>2020-03-03T09:29:18Z</time>
      </trkpt>
      <trkpt lat="46.70474" lon="5.65774">
        <ele>493.4</ele>
        <time>2020-03-03T09:29:23Z</time>
      </trkpt>
      <trkpt lat="46.70471" lon="5.65781">
        <ele>494</ele>
        <time>2020-03-03T09:29:31Z</time>
      </trkpt>
      <trkpt lat="46.70468" lon="5.65786">
        <ele>494.5</ele>
        <time>2020-03-03T09:29:40Z</time>
      </trkpt>
      <trkpt lat="46.70465" lon="5.65792">
        <ele>494.7</ele>
        <time>2020-03-03T09:29:43Z</time>
      </trkpt>
      <trkpt lat="46.70461" lon="5.65797">
        <ele>495.1</ele>
        <time>2020-03-03T09:29:47Z</time>
      </trkpt>
      <trkpt lat="46.70459" lon="5.65803">
        <ele>495.6</ele>
        <time>2020-03-03T09:29:52Z</time>
      </trkpt>
      <trkpt lat="46.70455" lon="5.65808">
        <ele>496.2</ele>
        <time>2020-03-03T09:29:59Z</time>
      </trkpt>
      <trkpt lat="46.70451" lon="5.6581">
        <ele>496.9</ele>
        <time>2020-03-03T09:30:05Z</time>
      </trkpt>
      <trkpt lat="46.70446" lon="5.65814">
        <ele>497.5</ele>
        <time>2020-03-03T09:30:12Z</time>
      </trkpt>
      <trkpt lat="46.70443" lon="5.65818">
        <ele>498.1</ele>
        <time>2020-03-03T09:30:18Z</time>
      </trkpt>
      <trkpt lat="46.7044" lon="5.65823">
        <ele>498.8</ele>
        <time>2020-03-03T09:30:29Z</time>
      </trkpt>
      <trkpt lat="46.70436" lon="5.6583">
        <ele>499.2</ele>
        <time>2020-03-03T09:30:35Z</time>
      </trkpt>
      <trkpt lat="46.70435" lon="5.65837">
        <ele>499.5</ele>
        <time>2020-03-03T09:30:39Z</time>
      </trkpt>
      <trkpt lat="46.70433" lon="5.65844">
        <ele>499.9</ele>
        <time>2020-03-03T09:30:43Z</time>
      </trkpt>
      <trkpt lat="46.70432" lon="5.6585">
        <ele>500.6</ele>
        <time>2020-03-03T09:30:52Z</time>
      </trkpt>
      <trkpt lat="46.7043" lon="5.65858">
        <ele>501</ele>
        <time>2020-03-03T09:31:00Z</time>
      </trkpt>
      <trkpt lat="46.70431" lon="5.65868">
        <ele>500.8</ele>
        <time>2020-03-03T09:31:05Z</time>
      </trkpt>
      <trkpt lat="46.7043" lon="5.65875">
        <ele>500.4</ele>
        <time>2020-03-03T09:31:10Z</time>
      </trkpt>
      <trkpt lat="46.70429" lon="5.65883">
        <ele>500.3</ele>
        <time>2020-03-03T09:31:15Z</time>
      </trkpt>
      <trkpt lat="46.70427" lon="5.6589">
        <ele>500.1</ele>
        <time>2020-03-03T09:31:19Z</time>
      </trkpt>
      <trkpt lat="46.70426" lon="5.65897">
        <ele>500</ele>
        <time>2020-03-03T09:31:25Z</time>
      </trkpt>
      <trkpt lat="46.70425" lon="5.65904">
        <ele>499.9</ele>
        <time>2020-03-03T09:31:31Z</time>
      </trkpt>
      <trkpt lat="46.70424" lon="5.65912">
        <ele>499.9</ele>
        <time>2020-03-03T09:31:37Z</time>
      </trkpt>
      <trkpt lat="46.70424" lon="5.65919">
        <ele>500</ele>
        <time>2020-03-03T09:31:47Z</time>
      </trkpt>
      <trkpt lat="46.70422" lon="5.65925">
        <ele>500</ele>
        <time>2020-03-03T09:31:52Z</time>
      </trkpt>
      <trkpt lat="46.70422" lon="5.65932">
        <ele>499.9</ele>
        <time>2020-03-03T09:31:54Z</time>
      </trkpt>
      <trkpt lat="46.70422" lon="5.65942">
        <ele>499.7</ele>
        <time>2020-03-03T09:31:56Z</time>
      </trkpt>
      <trkpt lat="46.70421" lon="5.6595">
        <ele>499.3</ele>
        <time>2020-03-03T09:32:00Z</time>
      </trkpt>
      <trkpt lat="46.7042" lon="5.65956">
        <ele>498.9</ele>
        <time>2020-03-03T09:32:05Z</time>
      </trkpt>
      <trkpt lat="46.70421" lon="5.65963">
        <ele>498.6</ele>
        <time>2020-03-03T09:32:09Z</time>
      </trkpt>
      <trkpt lat="46.70423" lon="5.6597">
        <ele>498.3</ele>
        <time>2020-03-03T09:32:14Z</time>
      </trkpt>
      <trkpt lat="46.70425" lon="5.65977">
        <ele>498.3</ele>
        <time>2020-03-03T09:32:20Z</time>
      </trkpt>
      <trkpt lat="46.70427" lon="5.65983">
        <ele>498.5</ele>
        <time>2020-03-03T09:32:26Z</time>
      </trkpt>
      <trkpt lat="46.7043" lon="5.65989">
        <ele>498.8</ele>
        <time>2020-03-03T09:32:31Z</time>
      </trkpt>
      <trkpt lat="46.70432" lon="5.65996">
        <ele>498.9</ele>
        <time>2020-03-03T09:32:37Z</time>
      </trkpt>
      <trkpt lat="46.70434" lon="5.66003">
        <ele>498.6</ele>
        <time>2020-03-03T09:32:43Z</time>
      </trkpt>
      <trkpt lat="46.70436" lon="5.66009">
        <ele>498.1</ele>
        <time>2020-03-03T09:32:49Z</time>
      </trkpt>
      <trkpt lat="46.70437" lon="5.66015">
        <ele>498.1</ele>
        <time>2020-03-03T09:32:55Z</time>
      </trkpt>
      <trkpt lat="46.7044" lon="5.66023">
        <ele>498.5</ele>
        <time>2020-03-03T09:32:59Z</time>
      </trkpt>
      <trkpt lat="46.70442" lon="5.66029">
        <ele>499.8</ele>
        <time>2020-03-03T09:33:06Z</time>
      </trkpt>
      <trkpt lat="46.70444" lon="5.66035">
        <ele>500.9</ele>
        <time>2020-03-03T09:33:13Z</time>
      </trkpt>
      <trkpt lat="46.70445" lon="5.66042">
        <ele>501.2</ele>
        <time>2020-03-03T09:33:20Z</time>
      </trkpt>
      <trkpt lat="46.70446" lon="5.66049">
        <ele>500.8</ele>
        <time>2020-03-03T09:33:24Z</time>
      </trkpt>
      <trkpt lat="46.70446" lon="5.66056">
        <ele>500</ele>
        <time>2020-03-03T09:33:30Z</time>
      </trkpt>
      <trkpt lat="46.70448" lon="5.66063">
        <ele>499.5</ele>
        <time>2020-03-03T09:33:37Z</time>
      </trkpt>
      <trkpt lat="46.70452" lon="5.66068">
        <ele>499</ele>
        <time>2020-03-03T09:33:45Z</time>
      </trkpt>
      <trkpt lat="46.70454" lon="5.66075">
        <ele>498.7</ele>
        <time>2020-03-03T09:33:50Z</time>
      </trkpt>
      <trkpt lat="46.70456" lon="5.66081">
        <ele>498.3</ele>
        <time>2020-03-03T09:33:54Z</time>
      </trkpt>
      <trkpt lat="46.7046" lon="5.66087">
        <ele>498</ele>
        <time>2020-03-03T09:33:58Z</time>
      </trkpt>
      <trkpt lat="46.70468" lon="5.661">
        <ele>496.6</ele>
        <time>2020-03-03T09:34:12Z</time>
      </trkpt>
      <trkpt lat="46.70471" lon="5.66107">
        <ele>496.1</ele>
        <time>2020-03-03T09:34:17Z</time>
      </trkpt>
      <trkpt lat="46.70474" lon="5.66113">
        <ele>495.4</ele>
        <time>2020-03-03T09:34:21Z</time>
      </trkpt>
      <trkpt lat="46.70475" lon="5.66119">
        <ele>494.2</ele>
        <time>2020-03-03T09:34:28Z</time>
      </trkpt>
      <trkpt lat="46.70475" lon="5.66126">
        <ele>493.6</ele>
        <time>2020-03-03T09:34:33Z</time>
      </trkpt>
      <trkpt lat="46.70476" lon="5.66133">
        <ele>493.3</ele>
        <time>2020-03-03T09:34:39Z</time>
      </trkpt>
      <trkpt lat="46.70474" lon="5.6614">
        <ele>493</ele>
        <time>2020-03-03T09:34:53Z</time>
      </trkpt>
      <trkpt lat="46.70467" lon="5.66142">
        <ele>493.3</ele>
        <time>2020-03-03T09:36:28Z</time>
      </trkpt>
      <trkpt lat="46.70462" lon="5.66143">
        <ele>493.1</ele>
        <time>2020-03-03T09:36:31Z</time>
      </trkpt>
      <trkpt lat="46.70458" lon="5.66144">
        <ele>493.1</ele>
        <time>2020-03-03T09:36:34Z</time>
      </trkpt>
      <trkpt lat="46.70453" lon="5.66143">
        <ele>493.2</ele>
        <time>2020-03-03T09:36:38Z</time>
      </trkpt>
      <trkpt lat="46.70448" lon="5.66142">
        <ele>493.6</ele>
        <time>2020-03-03T09:36:44Z</time>
      </trkpt>
      <trkpt lat="46.70443" lon="5.66141">
        <ele>493.6</ele>
        <time>2020-03-03T09:36:48Z</time>
      </trkpt>
      <trkpt lat="46.70438" lon="5.66142">
        <ele>493.5</ele>
        <time>2020-03-03T09:36:52Z</time>
      </trkpt>
      <trkpt lat="46.70433" lon="5.66141">
        <ele>493.5</ele>
        <time>2020-03-03T09:36:57Z</time>
      </trkpt>
      <trkpt lat="46.70428" lon="5.6614">
        <ele>493.8</ele>
        <time>2020-03-03T09:37:01Z</time>
      </trkpt>
      <trkpt lat="46.70452" lon="5.66152">
        <ele>493.9</ele>
        <time>2020-03-03T09:40:28Z</time>
      </trkpt>
      <trkpt lat="46.70456" lon="5.66147">
        <ele>494.8</ele>
        <time>2020-03-03T09:40:38Z</time>
      </trkpt>
      <trkpt lat="46.70461" lon="5.66143">
        <ele>495.6</ele>
        <time>2020-03-03T09:40:45Z</time>
      </trkpt>
      <trkpt lat="46.70465" lon="5.66141">
        <ele>496.3</ele>
        <time>2020-03-03T09:40:50Z</time>
      </trkpt>
      <trkpt lat="46.7047" lon="5.6614">
        <ele>496.4</ele>
        <time>2020-03-03T09:41:07Z</time>
      </trkpt>
      <trkpt lat="46.70471" lon="5.66147">
        <ele>496.3</ele>
        <time>2020-03-03T09:41:16Z</time>
      </trkpt>
      <trkpt lat="46.70466" lon="5.6615">
        <ele>495.8</ele>
        <time>2020-03-03T09:41:26Z</time>
      </trkpt>
      <trkpt lat="46.70461" lon="5.6615">
        <ele>495.7</ele>
        <time>2020-03-03T09:41:36Z</time>
      </trkpt>
      <trkpt lat="46.70456" lon="5.6615">
        <ele>495.7</ele>
        <time>2020-03-03T09:41:38Z</time>
      </trkpt>
      <trkpt lat="46.70451" lon="5.66149">
        <ele>495.7</ele>
        <time>2020-03-03T09:41:42Z</time>
      </trkpt>
      <trkpt lat="46.70446" lon="5.6615">
        <ele>496</ele>
        <time>2020-03-03T09:41:50Z</time>
      </trkpt>
      <trkpt lat="46.70443" lon="5.66155">
        <ele>496.2</ele>
        <time>2020-03-03T09:41:54Z</time>
      </trkpt>
      <trkpt lat="46.70438" lon="5.66159">
        <ele>496.3</ele>
        <time>2020-03-03T09:41:59Z</time>
      </trkpt>
      <trkpt lat="46.70433" lon="5.6616">
        <ele>496.3</ele>
        <time>2020-03-03T09:42:03Z</time>
      </trkpt>
      <trkpt lat="46.70429" lon="5.66159">
        <ele>496.8</ele>
        <time>2020-03-03T09:42:08Z</time>
      </trkpt>
      <trkpt lat="46.70424" lon="5.66159">
        <ele>497.5</ele>
        <time>2020-03-03T09:42:15Z</time>
      </trkpt>
      <trkpt lat="46.70419" lon="5.6616">
        <ele>498.1</ele>
        <time>2020-03-03T09:42:20Z</time>
      </trkpt>
      <trkpt lat="46.70415" lon="5.66161">
        <ele>499.2</ele>
        <time>2020-03-03T09:42:27Z</time>
      </trkpt>
      <trkpt lat="46.7041" lon="5.66165">
        <ele>499.5</ele>
        <time>2020-03-03T09:42:32Z</time>
      </trkpt>
      <trkpt lat="46.70406" lon="5.66168">
        <ele>499.8</ele>
        <time>2020-03-03T09:42:36Z</time>
      </trkpt>
      <trkpt lat="46.70401" lon="5.6617">
        <ele>500.1</ele>
        <time>2020-03-03T09:42:42Z</time>
      </trkpt>
      <trkpt lat="46.70396" lon="5.66172">
        <ele>500.3</ele>
        <time>2020-03-03T09:42:48Z</time>
      </trkpt>
      <trkpt lat="46.7038" lon="5.66176">
        <ele>501.2</ele>
        <time>2020-03-03T09:43:10Z</time>
      </trkpt>
      <trkpt lat="46.70375" lon="5.66178">
        <ele>502.5</ele>
        <time>2020-03-03T09:43:17Z</time>
      </trkpt>
      <trkpt lat="46.70371" lon="5.66181">
        <ele>503.3</ele>
        <time>2020-03-03T09:43:23Z</time>
      </trkpt>
      <trkpt lat="46.70366" lon="5.66183">
        <ele>504.2</ele>
        <time>2020-03-03T09:43:30Z</time>
      </trkpt>
      <trkpt lat="46.70362" lon="5.66186">
        <ele>504.4</ele>
        <time>2020-03-03T09:43:34Z</time>
      </trkpt>
      <trkpt lat="46.70356" lon="5.66191">
        <ele>504.3</ele>
        <time>2020-03-03T09:43:39Z</time>
      </trkpt>
      <trkpt lat="46.70351" lon="5.66192">
        <ele>503.8</ele>
        <time>2020-03-03T09:43:45Z</time>
      </trkpt>
      <trkpt lat="46.70346" lon="5.66191">
        <ele>503.5</ele>
        <time>2020-03-03T09:43:49Z</time>
      </trkpt>
      <trkpt lat="46.70341" lon="5.66194">
        <ele>503.3</ele>
        <time>2020-03-03T09:43:52Z</time>
      </trkpt>
      <trkpt lat="46.70337" lon="5.66196">
        <ele>503.5</ele>
        <time>2020-03-03T09:43:57Z</time>
      </trkpt>
      <trkpt lat="46.70332" lon="5.66198">
        <ele>503.8</ele>
        <time>2020-03-03T09:44:06Z</time>
      </trkpt>
      <trkpt lat="46.70327" lon="5.662">
        <ele>503.9</ele>
        <time>2020-03-03T09:44:08Z</time>
      </trkpt>
      <trkpt lat="46.70323" lon="5.662">
        <ele>504</ele>
        <time>2020-03-03T09:44:13Z</time>
      </trkpt>
      <trkpt lat="46.70318" lon="5.662">
        <ele>504.3</ele>
        <time>2020-03-03T09:44:20Z</time>
      </trkpt>
      <trkpt lat="46.70312" lon="5.662">
        <ele>504.3</ele>
        <time>2020-03-03T09:44:26Z</time>
      </trkpt>
      <trkpt lat="46.70307" lon="5.66201">
        <ele>504.1</ele>
        <time>2020-03-03T09:44:38Z</time>
      </trkpt>
      <trkpt lat="46.70301" lon="5.662">
        <ele>504.1</ele>
        <time>2020-03-03T09:44:43Z</time>
      </trkpt>
      <trkpt lat="46.70297" lon="5.662">
        <ele>504.1</ele>
        <time>2020-03-03T09:44:46Z</time>
      </trkpt>
      <trkpt lat="46.70291" lon="5.66201">
        <ele>504</ele>
        <time>2020-03-03T09:44:50Z</time>
      </trkpt>
      <trkpt lat="46.70286" lon="5.662">
        <ele>503.9</ele>
        <time>2020-03-03T09:44:54Z</time>
      </trkpt>
      <trkpt lat="46.70281" lon="5.66198">
        <ele>503.9</ele>
        <time>2020-03-03T09:44:59Z</time>
      </trkpt>
      <trkpt lat="46.70277" lon="5.66196">
        <ele>504.1</ele>
        <time>2020-03-03T09:45:03Z</time>
      </trkpt>
      <trkpt lat="46.70272" lon="5.66194">
        <ele>504.6</ele>
        <time>2020-03-03T09:45:08Z</time>
      </trkpt>
      <trkpt lat="46.70267" lon="5.66194">
        <ele>505</ele>
        <time>2020-03-03T09:45:12Z</time>
      </trkpt>
      <trkpt lat="46.70262" lon="5.66193">
        <ele>505.4</ele>
        <time>2020-03-03T09:45:17Z</time>
      </trkpt>
      <trkpt lat="46.70258" lon="5.66193">
        <ele>505.6</ele>
        <time>2020-03-03T09:45:22Z</time>
      </trkpt>
      <trkpt lat="46.70252" lon="5.66193">
        <ele>505.7</ele>
        <time>2020-03-03T09:45:28Z</time>
      </trkpt>
      <trkpt lat="46.70248" lon="5.66194">
        <ele>505.5</ele>
        <time>2020-03-03T09:45:33Z</time>
      </trkpt>
      <trkpt lat="46.70242" lon="5.66196">
        <ele>505</ele>
        <time>2020-03-03T09:45:40Z</time>
      </trkpt>
      <trkpt lat="46.70237" lon="5.66196">
        <ele>504.8</ele>
        <time>2020-03-03T09:45:45Z</time>
      </trkpt>
      <trkpt lat="46.70232" lon="5.66197">
        <ele>504.8</ele>
        <time>2020-03-03T09:45:49Z</time>
      </trkpt>
      <trkpt lat="46.70227" lon="5.66198">
        <ele>504.7</ele>
        <time>2020-03-03T09:45:53Z</time>
      </trkpt>
      <trkpt lat="46.70224" lon="5.66191">
        <ele>504</ele>
        <time>2020-03-03T09:46:04Z</time>
      </trkpt>
      <trkpt lat="46.7022" lon="5.66187">
        <ele>503.7</ele>
        <time>2020-03-03T09:46:08Z</time>
      </trkpt>
      <trkpt lat="46.70215" lon="5.66185">
        <ele>503.4</ele>
        <time>2020-03-03T09:46:13Z</time>
      </trkpt>
      <trkpt lat="46.7021" lon="5.66182">
        <ele>503.2</ele>
        <time>2020-03-03T09:46:18Z</time>
      </trkpt>
      <trkpt lat="46.70205" lon="5.66179">
        <ele>503</ele>
        <time>2020-03-03T09:46:24Z</time>
      </trkpt>
      <trkpt lat="46.70201" lon="5.66175">
        <ele>502.6</ele>
        <time>2020-03-03T09:46:31Z</time>
      </trkpt>
      <trkpt lat="46.70196" lon="5.66173">
        <ele>502</ele>
        <time>2020-03-03T09:46:37Z</time>
      </trkpt>
      <trkpt lat="46.70191" lon="5.6617">
        <ele>501.2</ele>
        <time>2020-03-03T09:46:44Z</time>
      </trkpt>
      <trkpt lat="46.70187" lon="5.66168">
        <ele>500.4</ele>
        <time>2020-03-03T09:46:51Z</time>
      </trkpt>
      <trkpt lat="46.70175" lon="5.66164">
        <ele>499.6</ele>
        <time>2020-03-03T09:47:05Z</time>
      </trkpt>
      <trkpt lat="46.7017" lon="5.66163">
        <ele>499.6</ele>
        <time>2020-03-03T09:47:09Z</time>
      </trkpt>
      <trkpt lat="46.70165" lon="5.66161">
        <ele>499.5</ele>
        <time>2020-03-03T09:47:13Z</time>
      </trkpt>
      <trkpt lat="46.7016" lon="5.6616">
        <ele>499.4</ele>
        <time>2020-03-03T09:47:18Z</time>
      </trkpt>
      <trkpt lat="46.70155" lon="5.6616">
        <ele>499.3</ele>
        <time>2020-03-03T09:47:23Z</time>
      </trkpt>
      <trkpt lat="46.7015" lon="5.66159">
        <ele>499.3</ele>
        <time>2020-03-03T09:47:30Z</time>
      </trkpt>
      <trkpt lat="46.70145" lon="5.66157">
        <ele>499</ele>
        <time>2020-03-03T09:47:38Z</time>
      </trkpt>
      <trkpt lat="46.7014" lon="5.66156">
        <ele>498.7</ele>
        <time>2020-03-03T09:47:44Z</time>
      </trkpt>
      <trkpt lat="46.70136" lon="5.66157">
        <ele>498.5</ele>
        <time>2020-03-03T09:47:49Z</time>
      </trkpt>
      <trkpt lat="46.70131" lon="5.6616">
        <ele>498.4</ele>
        <time>2020-03-03T09:47:53Z</time>
      </trkpt>
      <trkpt lat="46.70126" lon="5.6616">
        <ele>498</ele>
        <time>2020-03-03T09:47:58Z</time>
      </trkpt>
      <trkpt lat="46.70122" lon="5.66158">
        <ele>497.9</ele>
        <time>2020-03-03T09:48:04Z</time>
      </trkpt>
      <trkpt lat="46.70117" lon="5.6616">
        <ele>498.5</ele>
        <time>2020-03-03T09:48:16Z</time>
      </trkpt>
      <trkpt lat="46.70111" lon="5.66162">
        <ele>499.1</ele>
        <time>2020-03-03T09:48:21Z</time>
      </trkpt>
      <trkpt lat="46.70106" lon="5.66162">
        <ele>499.6</ele>
        <time>2020-03-03T09:48:26Z</time>
      </trkpt>
      <trkpt lat="46.70098" lon="5.6616">
        <ele>500.3</ele>
        <time>2020-03-03T09:48:39Z</time>
      </trkpt>
      <trkpt lat="46.70094" lon="5.66157">
        <ele>500.5</ele>
        <time>2020-03-03T09:48:45Z</time>
      </trkpt>
      <trkpt lat="46.70089" lon="5.66156">
        <ele>500.5</ele>
        <time>2020-03-03T09:48:50Z</time>
      </trkpt>
      <trkpt lat="46.70085" lon="5.66154">
        <ele>500.1</ele>
        <time>2020-03-03T09:48:56Z</time>
      </trkpt>
      <trkpt lat="46.7008" lon="5.66153">
        <ele>500</ele>
        <time>2020-03-03T09:49:01Z</time>
      </trkpt>
      <trkpt lat="46.70074" lon="5.66155">
        <ele>499.9</ele>
        <time>2020-03-03T09:49:05Z</time>
      </trkpt>
      <trkpt lat="46.70064" lon="5.66153">
        <ele>500.5</ele>
        <time>2020-03-03T09:49:16Z</time>
      </trkpt>
      <trkpt lat="46.70059" lon="5.66152">
        <ele>500.9</ele>
        <time>2020-03-03T09:49:20Z</time>
      </trkpt>
      <trkpt lat="46.70054" lon="5.6615">
        <ele>501.1</ele>
        <time>2020-03-03T09:49:22Z</time>
      </trkpt>
      <trkpt lat="46.7005" lon="5.66147">
        <ele>501.4</ele>
        <time>2020-03-03T09:49:24Z</time>
      </trkpt>
      <trkpt lat="46.70045" lon="5.66143">
        <ele>501.9</ele>
        <time>2020-03-03T09:49:28Z</time>
      </trkpt>
      <trkpt lat="46.7004" lon="5.66141">
        <ele>502.7</ele>
        <time>2020-03-03T09:49:33Z</time>
      </trkpt>
      <trkpt lat="46.70035" lon="5.66141">
        <ele>503.5</ele>
        <time>2020-03-03T09:49:38Z</time>
      </trkpt>
      <trkpt lat="46.7003" lon="5.66139">
        <ele>504.1</ele>
        <time>2020-03-03T09:49:44Z</time>
      </trkpt>
      <trkpt lat="46.70025" lon="5.66137">
        <ele>504.9</ele>
        <time>2020-03-03T09:49:51Z</time>
      </trkpt>
      <trkpt lat="46.7002" lon="5.66134">
        <ele>505.1</ele>
        <time>2020-03-03T09:49:58Z</time>
      </trkpt>
      <trkpt lat="46.70016" lon="5.6613">
        <ele>505.1</ele>
        <time>2020-03-03T09:50:02Z</time>
      </trkpt>
      <trkpt lat="46.7001" lon="5.66131">
        <ele>505.1</ele>
        <time>2020-03-03T09:50:07Z</time>
      </trkpt>
      <trkpt lat="46.70005" lon="5.66132">
        <ele>505.2</ele>
        <time>2020-03-03T09:50:14Z</time>
      </trkpt>
      <trkpt lat="46.69992" lon="5.66131">
        <ele>505.6</ele>
        <time>2020-03-03T09:50:26Z</time>
      </trkpt>
      <trkpt lat="46.69987" lon="5.66128">
        <ele>505.8</ele>
        <time>2020-03-03T09:50:29Z</time>
      </trkpt>
      <trkpt lat="46.69982" lon="5.66124">
        <ele>506</ele>
        <time>2020-03-03T09:50:31Z</time>
      </trkpt>
      <trkpt lat="46.69977" lon="5.66122">
        <ele>506.3</ele>
        <time>2020-03-03T09:50:33Z</time>
      </trkpt>
      <trkpt lat="46.69972" lon="5.66121">
        <ele>506.9</ele>
        <time>2020-03-03T09:50:38Z</time>
      </trkpt>
      <trkpt lat="46.69967" lon="5.66119">
        <ele>507.3</ele>
        <time>2020-03-03T09:50:43Z</time>
      </trkpt>
      <trkpt lat="46.69962" lon="5.66117">
        <ele>507.6</ele>
        <time>2020-03-03T09:50:51Z</time>
      </trkpt>
      <trkpt lat="46.69957" lon="5.66115">
        <ele>507.5</ele>
        <time>2020-03-03T09:50:58Z</time>
      </trkpt>
      <trkpt lat="46.69953" lon="5.66116">
        <ele>507</ele>
        <time>2020-03-03T09:51:03Z</time>
      </trkpt>
      <trkpt lat="46.69939" lon="5.66114">
        <ele>504.5</ele>
        <time>2020-03-03T09:51:19Z</time>
      </trkpt>
      <trkpt lat="46.69934" lon="5.66114">
        <ele>503.8</ele>
        <time>2020-03-03T09:51:25Z</time>
      </trkpt>
      <trkpt lat="46.6993" lon="5.66111">
        <ele>503.3</ele>
        <time>2020-03-03T09:51:33Z</time>
      </trkpt>
      <trkpt lat="46.69925" lon="5.66111">
        <ele>502.8</ele>
        <time>2020-03-03T09:51:38Z</time>
      </trkpt>
      <trkpt lat="46.6991" lon="5.66112">
        <ele>500.8</ele>
        <time>2020-03-03T09:51:51Z</time>
      </trkpt>
      <trkpt lat="46.69905" lon="5.66111">
        <ele>500.4</ele>
        <time>2020-03-03T09:51:56Z</time>
      </trkpt>
      <trkpt lat="46.699" lon="5.66109">
        <ele>499.8</ele>
        <time>2020-03-03T09:52:01Z</time>
      </trkpt>
      <trkpt lat="46.69896" lon="5.66106">
        <ele>499.5</ele>
        <time>2020-03-03T09:52:07Z</time>
      </trkpt>
      <trkpt lat="46.69891" lon="5.66105">
        <ele>499.5</ele>
        <time>2020-03-03T09:52:11Z</time>
      </trkpt>
      <trkpt lat="46.69886" lon="5.66104">
        <ele>499.3</ele>
        <time>2020-03-03T09:52:16Z</time>
      </trkpt>
      <trkpt lat="46.6988" lon="5.66102">
        <ele>499.1</ele>
        <time>2020-03-03T09:52:21Z</time>
      </trkpt>
      <trkpt lat="46.69875" lon="5.66102">
        <ele>498.9</ele>
        <time>2020-03-03T09:52:25Z</time>
      </trkpt>
      <trkpt lat="46.69871" lon="5.66101">
        <ele>498.7</ele>
        <time>2020-03-03T09:52:30Z</time>
      </trkpt>
      <trkpt lat="46.69865" lon="5.661">
        <ele>498.3</ele>
        <time>2020-03-03T09:52:36Z</time>
      </trkpt>
      <trkpt lat="46.6986" lon="5.661">
        <ele>498.2</ele>
        <time>2020-03-03T09:52:40Z</time>
      </trkpt>
      <trkpt lat="46.69855" lon="5.66099">
        <ele>498.4</ele>
        <time>2020-03-03T09:52:45Z</time>
      </trkpt>
      <trkpt lat="46.69851" lon="5.661">
        <ele>498.7</ele>
        <time>2020-03-03T09:52:49Z</time>
      </trkpt>
      <trkpt lat="46.69846" lon="5.661">
        <ele>499.1</ele>
        <time>2020-03-03T09:52:54Z</time>
      </trkpt>
      <trkpt lat="46.69841" lon="5.66101">
        <ele>499.6</ele>
        <time>2020-03-03T09:52:59Z</time>
      </trkpt>
      <trkpt lat="46.69836" lon="5.66101">
        <ele>500</ele>
        <time>2020-03-03T09:53:04Z</time>
      </trkpt>
      <trkpt lat="46.69831" lon="5.66101">
        <ele>500.3</ele>
        <time>2020-03-03T09:53:09Z</time>
      </trkpt>
      <trkpt lat="46.69826" lon="5.661">
        <ele>500.5</ele>
        <time>2020-03-03T09:53:13Z</time>
      </trkpt>
      <trkpt lat="46.69822" lon="5.66098">
        <ele>500.6</ele>
        <time>2020-03-03T09:53:17Z</time>
      </trkpt>
      <trkpt lat="46.69817" lon="5.66096">
        <ele>500.6</ele>
        <time>2020-03-03T09:53:20Z</time>
      </trkpt>
      <trkpt lat="46.69811" lon="5.66094">
        <ele>500.4</ele>
        <time>2020-03-03T09:53:24Z</time>
      </trkpt>
      <trkpt lat="46.69806" lon="5.66094">
        <ele>500.1</ele>
        <time>2020-03-03T09:53:30Z</time>
      </trkpt>
      <trkpt lat="46.69802" lon="5.66093">
        <ele>500.1</ele>
        <time>2020-03-03T09:53:38Z</time>
      </trkpt>
      <trkpt lat="46.69797" lon="5.66096">
        <ele>500.5</ele>
        <time>2020-03-03T09:53:46Z</time>
      </trkpt>
      <trkpt lat="46.69791" lon="5.66097">
        <ele>500.8</ele>
        <time>2020-03-03T09:53:52Z</time>
      </trkpt>
      <trkpt lat="46.69787" lon="5.66099">
        <ele>501</ele>
        <time>2020-03-03T09:53:56Z</time>
      </trkpt>
      <trkpt lat="46.69782" lon="5.66101">
        <ele>501.2</ele>
        <time>2020-03-03T09:54:04Z</time>
      </trkpt>
      <trkpt lat="46.69778" lon="5.66104">
        <ele>500.8</ele>
        <time>2020-03-03T09:54:10Z</time>
      </trkpt>
      <trkpt lat="46.69773" lon="5.66106">
        <ele>500.3</ele>
        <time>2020-03-03T09:54:16Z</time>
      </trkpt>
      <trkpt lat="46.69769" lon="5.66105">
        <ele>500</ele>
        <time>2020-03-03T09:54:22Z</time>
      </trkpt>
      <trkpt lat="46.69764" lon="5.66106">
        <ele>499.9</ele>
        <time>2020-03-03T09:54:28Z</time>
      </trkpt>
      <trkpt lat="46.69759" lon="5.66108">
        <ele>500</ele>
        <time>2020-03-03T09:54:35Z</time>
      </trkpt>
      <trkpt lat="46.69755" lon="5.6611">
        <ele>500.1</ele>
        <time>2020-03-03T09:54:40Z</time>
      </trkpt>
      <trkpt lat="46.6975" lon="5.66111">
        <ele>500.3</ele>
        <time>2020-03-03T09:54:46Z</time>
      </trkpt>
      <trkpt lat="46.69744" lon="5.66112">
        <ele>500.3</ele>
        <time>2020-03-03T09:54:53Z</time>
      </trkpt>
      <trkpt lat="46.69739" lon="5.66113">
        <ele>500.2</ele>
        <time>2020-03-03T09:54:58Z</time>
      </trkpt>
      <trkpt lat="46.69734" lon="5.66113">
        <ele>500.5</ele>
        <time>2020-03-03T09:55:05Z</time>
      </trkpt>
      <trkpt lat="46.69729" lon="5.66111">
        <ele>501</ele>
        <time>2020-03-03T09:55:12Z</time>
      </trkpt>
      <trkpt lat="46.69725" lon="5.66107">
        <ele>501.6</ele>
        <time>2020-03-03T09:55:18Z</time>
      </trkpt>
      <trkpt lat="46.6972" lon="5.66104">
        <ele>502.6</ele>
        <time>2020-03-03T09:55:27Z</time>
      </trkpt>
      <trkpt lat="46.69717" lon="5.66099">
        <ele>503</ele>
        <time>2020-03-03T09:55:32Z</time>
      </trkpt>
      <trkpt lat="46.69712" lon="5.66094">
        <ele>503.2</ele>
        <time>2020-03-03T09:55:36Z</time>
      </trkpt>
      <trkpt lat="46.69708" lon="5.6609">
        <ele>503.4</ele>
        <time>2020-03-03T09:55:41Z</time>
      </trkpt>
      <trkpt lat="46.69703" lon="5.66087">
        <ele>503.7</ele>
        <time>2020-03-03T09:55:46Z</time>
      </trkpt>
      <trkpt lat="46.69699" lon="5.66084">
        <ele>503.8</ele>
        <time>2020-03-03T09:55:51Z</time>
      </trkpt>
      <trkpt lat="46.69695" lon="5.66081">
        <ele>503.8</ele>
        <time>2020-03-03T09:55:58Z</time>
      </trkpt>
      <trkpt lat="46.69691" lon="5.66076">
        <ele>503.7</ele>
        <time>2020-03-03T09:56:06Z</time>
      </trkpt>
      <trkpt lat="46.69688" lon="5.6607">
        <ele>503.2</ele>
        <time>2020-03-03T09:56:13Z</time>
      </trkpt>
      <trkpt lat="46.69685" lon="5.66058">
        <ele>503.1</ele>
        <time>2020-03-03T09:56:29Z</time>
      </trkpt>
      <trkpt lat="46.69682" lon="5.66053">
        <ele>502.9</ele>
        <time>2020-03-03T09:56:35Z</time>
      </trkpt>
      <trkpt lat="46.69678" lon="5.6605">
        <ele>502.8</ele>
        <time>2020-03-03T09:56:39Z</time>
      </trkpt>
      <trkpt lat="46.69673" lon="5.66047">
        <ele>502.9</ele>
        <time>2020-03-03T09:56:44Z</time>
      </trkpt>
      <trkpt lat="46.69668" lon="5.66045">
        <ele>503</ele>
        <time>2020-03-03T09:56:48Z</time>
      </trkpt>
      <trkpt lat="46.69664" lon="5.66042">
        <ele>503.2</ele>
        <time>2020-03-03T09:56:52Z</time>
      </trkpt>
      <trkpt lat="46.6966" lon="5.66038">
        <ele>503.4</ele>
        <time>2020-03-03T09:56:57Z</time>
      </trkpt>
      <trkpt lat="46.69656" lon="5.66035">
        <ele>503.6</ele>
        <time>2020-03-03T09:57:02Z</time>
      </trkpt>
      <trkpt lat="46.69651" lon="5.6603">
        <ele>503.8</ele>
        <time>2020-03-03T09:57:07Z</time>
      </trkpt>
      <trkpt lat="46.69648" lon="5.66026">
        <ele>503.9</ele>
        <time>2020-03-03T09:57:12Z</time>
      </trkpt>
      <trkpt lat="46.69645" lon="5.6602">
        <ele>503.9</ele>
        <time>2020-03-03T09:57:17Z</time>
      </trkpt>
      <trkpt lat="46.6964" lon="5.66017">
        <ele>503.2</ele>
        <time>2020-03-03T09:57:24Z</time>
      </trkpt>
      <trkpt lat="46.69629" lon="5.66005">
        <ele>505.3</ele>
        <time>2020-03-03T09:59:24Z</time>
      </trkpt>
      <trkpt lat="46.69629" lon="5.66004">
        <ele>510.6</ele>
        <time>2020-03-03T10:00:45Z</time>
      </trkpt>
      <trkpt lat="46.69624" lon="5.66005">
        <ele>510.5</ele>
        <time>2020-03-03T10:00:51Z</time>
      </trkpt>
      <trkpt lat="46.69619" lon="5.66006">
        <ele>510.2</ele>
        <time>2020-03-03T10:00:56Z</time>
      </trkpt>
      <trkpt lat="46.69609" lon="5.66015">
        <ele>508.2</ele>
        <time>2020-03-03T10:01:10Z</time>
      </trkpt>
      <trkpt lat="46.69603" lon="5.66016">
        <ele>507</ele>
        <time>2020-03-03T10:01:18Z</time>
      </trkpt>
      <trkpt lat="46.69599" lon="5.66013">
        <ele>506.4</ele>
        <time>2020-03-03T10:01:22Z</time>
      </trkpt>
      <trkpt lat="46.69598" lon="5.66007">
        <ele>505.8</ele>
        <time>2020-03-03T10:01:30Z</time>
      </trkpt>
      <trkpt lat="46.69596" lon="5.65999">
        <ele>505.7</ele>
        <time>2020-03-03T10:01:32Z</time>
      </trkpt>
      <trkpt lat="46.69594" lon="5.65992">
        <ele>505.7</ele>
        <time>2020-03-03T10:01:34Z</time>
      </trkpt>
      <trkpt lat="46.6959" lon="5.65986">
        <ele>505.6</ele>
        <time>2020-03-03T10:01:38Z</time>
      </trkpt>
      <trkpt lat="46.69586" lon="5.6598">
        <ele>505.5</ele>
        <time>2020-03-03T10:01:41Z</time>
      </trkpt>
      <trkpt lat="46.69581" lon="5.65974">
        <ele>505.5</ele>
        <time>2020-03-03T10:01:43Z</time>
      </trkpt>
      <trkpt lat="46.69577" lon="5.65968">
        <ele>505.6</ele>
        <time>2020-03-03T10:01:45Z</time>
      </trkpt>
      <trkpt lat="46.69573" lon="5.65962">
        <ele>505.8</ele>
        <time>2020-03-03T10:01:48Z</time>
      </trkpt>
      <trkpt lat="46.69568" lon="5.65952">
        <ele>506.8</ele>
        <time>2020-03-03T10:01:56Z</time>
      </trkpt>
      <trkpt lat="46.69566" lon="5.65946">
        <ele>507.2</ele>
        <time>2020-03-03T10:02:03Z</time>
      </trkpt>
      <trkpt lat="46.69565" lon="5.65938">
        <ele>508.2</ele>
        <time>2020-03-03T10:02:10Z</time>
      </trkpt>
      <trkpt lat="46.69564" lon="5.65931">
        <ele>509</ele>
        <time>2020-03-03T10:02:14Z</time>
      </trkpt>
      <trkpt lat="46.69561" lon="5.65924">
        <ele>509.5</ele>
        <time>2020-03-03T10:02:17Z</time>
      </trkpt>
      <trkpt lat="46.69557" lon="5.65916">
        <ele>509.9</ele>
        <time>2020-03-03T10:02:19Z</time>
      </trkpt>
      <trkpt lat="46.69555" lon="5.6591">
        <ele>510.6</ele>
        <time>2020-03-03T10:02:22Z</time>
      </trkpt>
      <trkpt lat="46.69554" lon="5.65903">
        <ele>511.9</ele>
        <time>2020-03-03T10:02:28Z</time>
      </trkpt>
      <trkpt lat="46.69552" lon="5.65896">
        <ele>512.8</ele>
        <time>2020-03-03T10:02:34Z</time>
      </trkpt>
      <trkpt lat="46.69551" lon="5.65889">
        <ele>513.6</ele>
        <time>2020-03-03T10:02:39Z</time>
      </trkpt>
      <trkpt lat="46.69549" lon="5.65883">
        <ele>514.1</ele>
        <time>2020-03-03T10:02:48Z</time>
      </trkpt>
      <trkpt lat="46.69547" lon="5.65875">
        <ele>513.9</ele>
        <time>2020-03-03T10:02:54Z</time>
      </trkpt>
      <trkpt lat="46.69546" lon="5.65868">
        <ele>513.5</ele>
        <time>2020-03-03T10:02:58Z</time>
      </trkpt>
      <trkpt lat="46.69544" lon="5.65862">
        <ele>513</ele>
        <time>2020-03-03T10:03:03Z</time>
      </trkpt>
      <trkpt lat="46.69546" lon="5.65854">
        <ele>512.3</ele>
        <time>2020-03-03T10:03:10Z</time>
      </trkpt>
      <trkpt lat="46.69547" lon="5.65847">
        <ele>512</ele>
        <time>2020-03-03T10:03:16Z</time>
      </trkpt>
      <trkpt lat="46.69545" lon="5.6584">
        <ele>511.7</ele>
        <time>2020-03-03T10:03:20Z</time>
      </trkpt>
      <trkpt lat="46.69545" lon="5.65833">
        <ele>511.2</ele>
        <time>2020-03-03T10:03:25Z</time>
      </trkpt>
      <trkpt lat="46.69544" lon="5.65825">
        <ele>510.7</ele>
        <time>2020-03-03T10:03:28Z</time>
      </trkpt>
      <trkpt lat="46.69548" lon="5.65752">
        <ele>501.7</ele>
        <time>2020-03-03T10:04:18Z</time>
      </trkpt>
      <trkpt lat="46.6955" lon="5.65745">
        <ele>501.7</ele>
        <time>2020-03-03T10:04:20Z</time>
      </trkpt>
      <trkpt lat="46.69553" lon="5.65737">
        <ele>501.8</ele>
        <time>2020-03-03T10:04:22Z</time>
      </trkpt>
      <trkpt lat="46.69553" lon="5.65729">
        <ele>501.8</ele>
        <time>2020-03-03T10:04:24Z</time>
      </trkpt>
      <trkpt lat="46.69553" lon="5.65721">
        <ele>502</ele>
        <time>2020-03-03T10:04:27Z</time>
      </trkpt>
      <trkpt lat="46.69552" lon="5.65714">
        <ele>502.5</ele>
        <time>2020-03-03T10:04:31Z</time>
      </trkpt>
      <trkpt lat="46.69552" lon="5.65706">
        <ele>503.5</ele>
        <time>2020-03-03T10:04:36Z</time>
      </trkpt>
      <trkpt lat="46.6955" lon="5.65699">
        <ele>504.6</ele>
        <time>2020-03-03T10:04:41Z</time>
      </trkpt>
      <trkpt lat="46.69547" lon="5.65692">
        <ele>505.5</ele>
        <time>2020-03-03T10:04:45Z</time>
      </trkpt>
      <trkpt lat="46.69546" lon="5.65685">
        <ele>506.3</ele>
        <time>2020-03-03T10:04:51Z</time>
      </trkpt>
      <trkpt lat="46.69543" lon="5.6568">
        <ele>506.6</ele>
        <time>2020-03-03T10:05:01Z</time>
      </trkpt>
      <trkpt lat="46.6954" lon="5.65674">
        <ele>506.4</ele>
        <time>2020-03-03T10:05:07Z</time>
      </trkpt>
      <trkpt lat="46.69547" lon="5.6563">
        <ele>501.6</ele>
        <time>2020-03-03T10:05:50Z</time>
      </trkpt>
      <trkpt lat="46.6955" lon="5.65625">
        <ele>500.8</ele>
        <time>2020-03-03T10:05:56Z</time>
      </trkpt>
      <trkpt lat="46.69553" lon="5.65617">
        <ele>500.8</ele>
        <time>2020-03-03T10:06:00Z</time>
      </trkpt>
      <trkpt lat="46.69555" lon="5.65608">
        <ele>501</ele>
        <time>2020-03-03T10:06:04Z</time>
      </trkpt>
      <trkpt lat="46.69555" lon="5.65599">
        <ele>501.2</ele>
        <time>2020-03-03T10:06:06Z</time>
      </trkpt>
      <trkpt lat="46.69556" lon="5.65592">
        <ele>501.5</ele>
        <time>2020-03-03T10:06:09Z</time>
      </trkpt>
      <trkpt lat="46.69558" lon="5.65585">
        <ele>502.1</ele>
        <time>2020-03-03T10:06:13Z</time>
      </trkpt>
      <trkpt lat="46.6956" lon="5.65578">
        <ele>502.7</ele>
        <time>2020-03-03T10:06:17Z</time>
      </trkpt>
      <trkpt lat="46.69563" lon="5.65574">
        <ele>503.8</ele>
        <time>2020-03-03T10:06:23Z</time>
      </trkpt>
      <trkpt lat="46.69564" lon="5.65567">
        <ele>504.7</ele>
        <time>2020-03-03T10:06:30Z</time>
      </trkpt>
      <trkpt lat="46.69564" lon="5.65559">
        <ele>505.5</ele>
        <time>2020-03-03T10:06:38Z</time>
      </trkpt>
      <trkpt lat="46.69565" lon="5.65553">
        <ele>505.5</ele>
        <time>2020-03-03T10:06:47Z</time>
      </trkpt>
      <trkpt lat="46.69566" lon="5.65546">
        <ele>504.9</ele>
        <time>2020-03-03T10:06:54Z</time>
      </trkpt>
      <trkpt lat="46.69565" lon="5.65538">
        <ele>504</ele>
        <time>2020-03-03T10:07:03Z</time>
      </trkpt>
      <trkpt lat="46.69564" lon="5.65532">
        <ele>503</ele>
        <time>2020-03-03T10:07:11Z</time>
      </trkpt>
      <trkpt lat="46.69565" lon="5.65525">
        <ele>502.2</ele>
        <time>2020-03-03T10:07:17Z</time>
      </trkpt>
      <trkpt lat="46.69566" lon="5.65517">
        <ele>501.4</ele>
        <time>2020-03-03T10:07:23Z</time>
      </trkpt>
      <trkpt lat="46.69566" lon="5.6551">
        <ele>500.5</ele>
        <time>2020-03-03T10:07:30Z</time>
      </trkpt>
      <trkpt lat="46.69566" lon="5.65503">
        <ele>500.1</ele>
        <time>2020-03-03T10:07:35Z</time>
      </trkpt>
      <trkpt lat="46.69563" lon="5.65498">
        <ele>498.9</ele>
        <time>2020-03-03T10:07:47Z</time>
      </trkpt>
      <trkpt lat="46.69561" lon="5.65491">
        <ele>498.5</ele>
        <time>2020-03-03T10:07:57Z</time>
      </trkpt>
      <trkpt lat="46.69559" lon="5.65481">
        <ele>498.6</ele>
        <time>2020-03-03T10:08:01Z</time>
      </trkpt>
      <trkpt lat="46.69558" lon="5.65472">
        <ele>498.9</ele>
        <time>2020-03-03T10:08:04Z</time>
      </trkpt>
      <trkpt lat="46.69558" lon="5.65465">
        <ele>499.9</ele>
        <time>2020-03-03T10:08:11Z</time>
      </trkpt>
      <trkpt lat="46.69557" lon="5.65455">
        <ele>501.7</ele>
        <time>2020-03-03T10:08:33Z</time>
      </trkpt>
      <trkpt lat="46.69555" lon="5.65442">
        <ele>507</ele>
        <time>2020-03-03T10:10:33Z</time>
      </trkpt>
      <trkpt lat="46.69557" lon="5.65435">
        <ele>507.5</ele>
        <time>2020-03-03T10:10:36Z</time>
      </trkpt>
      <trkpt lat="46.69558" lon="5.65428">
        <ele>508.1</ele>
        <time>2020-03-03T10:10:39Z</time>
      </trkpt>
      <trkpt lat="46.69558" lon="5.6542">
        <ele>508.7</ele>
        <time>2020-03-03T10:10:45Z</time>
      </trkpt>
      <trkpt lat="46.69558" lon="5.65413">
        <ele>508.9</ele>
        <time>2020-03-03T10:10:53Z</time>
      </trkpt>
      <trkpt lat="46.6956" lon="5.65406">
        <ele>508.8</ele>
        <time>2020-03-03T10:11:00Z</time>
      </trkpt>
      <trkpt lat="46.6956" lon="5.65398">
        <ele>508.8</ele>
        <time>2020-03-03T10:11:07Z</time>
      </trkpt>
      <trkpt lat="46.69561" lon="5.65392">
        <ele>508.8</ele>
        <time>2020-03-03T10:11:16Z</time>
      </trkpt>
      <trkpt lat="46.69563" lon="5.65384">
        <ele>508.9</ele>
        <time>2020-03-03T10:11:21Z</time>
      </trkpt>
      <trkpt lat="46.69564" lon="5.65378">
        <ele>509</ele>
        <time>2020-03-03T10:11:25Z</time>
      </trkpt>
      <trkpt lat="46.69564" lon="5.6537">
        <ele>509.1</ele>
        <time>2020-03-03T10:11:31Z</time>
      </trkpt>
      <trkpt lat="46.69563" lon="5.65363">
        <ele>509.2</ele>
        <time>2020-03-03T10:11:36Z</time>
      </trkpt>
      <trkpt lat="46.69564" lon="5.65356">
        <ele>509.3</ele>
        <time>2020-03-03T10:11:44Z</time>
      </trkpt>
      <trkpt lat="46.69565" lon="5.65349">
        <ele>509.5</ele>
        <time>2020-03-03T10:11:51Z</time>
      </trkpt>
      <trkpt lat="46.69566" lon="5.65341">
        <ele>509.4</ele>
        <time>2020-03-03T10:11:57Z</time>
      </trkpt>
      <trkpt lat="46.69566" lon="5.65334">
        <ele>509.2</ele>
        <time>2020-03-03T10:12:03Z</time>
      </trkpt>
      <trkpt lat="46.69567" lon="5.65327">
        <ele>508.4</ele>
        <time>2020-03-03T10:12:12Z</time>
      </trkpt>
      <trkpt lat="46.69569" lon="5.6532">
        <ele>507.4</ele>
        <time>2020-03-03T10:12:21Z</time>
      </trkpt>
      <trkpt lat="46.69566" lon="5.65314">
        <ele>507.1</ele>
        <time>2020-03-03T10:12:25Z</time>
      </trkpt>
      <trkpt lat="46.69562" lon="5.65308">
        <ele>506.6</ele>
        <time>2020-03-03T10:12:31Z</time>
      </trkpt>
      <trkpt lat="46.69559" lon="5.65302">
        <ele>505.8</ele>
        <time>2020-03-03T10:12:36Z</time>
      </trkpt>
      <trkpt lat="46.69558" lon="5.65296">
        <ele>504.9</ele>
        <time>2020-03-03T10:12:41Z</time>
      </trkpt>
      <trkpt lat="46.69556" lon="5.65288">
        <ele>503.7</ele>
        <time>2020-03-03T10:12:49Z</time>
      </trkpt>
      <trkpt lat="46.69554" lon="5.65281">
        <ele>503.1</ele>
        <time>2020-03-03T10:12:53Z</time>
      </trkpt>
      <trkpt lat="46.69551" lon="5.65275">
        <ele>502.6</ele>
        <time>2020-03-03T10:12:56Z</time>
      </trkpt>
      <trkpt lat="46.69547" lon="5.6527">
        <ele>502.1</ele>
        <time>2020-03-03T10:12:59Z</time>
      </trkpt>
      <trkpt lat="46.69544" lon="5.65263">
        <ele>501.6</ele>
        <time>2020-03-03T10:13:03Z</time>
      </trkpt>
      <trkpt lat="46.69543" lon="5.65255">
        <ele>501.3</ele>
        <time>2020-03-03T10:13:08Z</time>
      </trkpt>
      <trkpt lat="46.69544" lon="5.65249">
        <ele>500.9</ele>
        <time>2020-03-03T10:13:14Z</time>
      </trkpt>
      <trkpt lat="46.69543" lon="5.65241">
        <ele>500.7</ele>
        <time>2020-03-03T10:13:19Z</time>
      </trkpt>
      <trkpt lat="46.6954" lon="5.65236">
        <ele>500.6</ele>
        <time>2020-03-03T10:13:23Z</time>
      </trkpt>
      <trkpt lat="46.69539" lon="5.65229">
        <ele>500.5</ele>
        <time>2020-03-03T10:13:26Z</time>
      </trkpt>
      <trkpt lat="46.69538" lon="5.65222">
        <ele>500.6</ele>
        <time>2020-03-03T10:13:30Z</time>
      </trkpt>
      <trkpt lat="46.69534" lon="5.65216">
        <ele>500.6</ele>
        <time>2020-03-03T10:13:34Z</time>
      </trkpt>
      <trkpt lat="46.69531" lon="5.65211">
        <ele>500.7</ele>
        <time>2020-03-03T10:13:38Z</time>
      </trkpt>
      <trkpt lat="46.69528" lon="5.65205">
        <ele>500.7</ele>
        <time>2020-03-03T10:13:43Z</time>
      </trkpt>
      <trkpt lat="46.69525" lon="5.65199">
        <ele>500.8</ele>
        <time>2020-03-03T10:13:49Z</time>
      </trkpt>
      <trkpt lat="46.69523" lon="5.65193">
        <ele>500.4</ele>
        <time>2020-03-03T10:13:56Z</time>
      </trkpt>
      <trkpt lat="46.69522" lon="5.65187">
        <ele>500.2</ele>
        <time>2020-03-03T10:14:02Z</time>
      </trkpt>
      <trkpt lat="46.69519" lon="5.6518">
        <ele>500.2</ele>
        <time>2020-03-03T10:14:08Z</time>
      </trkpt>
      <trkpt lat="46.69517" lon="5.65173">
        <ele>500.4</ele>
        <time>2020-03-03T10:14:12Z</time>
      </trkpt>
      <trkpt lat="46.69515" lon="5.65166">
        <ele>500.7</ele>
        <time>2020-03-03T10:14:16Z</time>
      </trkpt>
      <trkpt lat="46.69512" lon="5.6516">
        <ele>501.2</ele>
        <time>2020-03-03T10:14:22Z</time>
      </trkpt>
      <trkpt lat="46.69508" lon="5.65156">
        <ele>501.9</ele>
        <time>2020-03-03T10:14:28Z</time>
      </trkpt>
      <trkpt lat="46.69504" lon="5.65152">
        <ele>502.5</ele>
        <time>2020-03-03T10:14:35Z</time>
      </trkpt>
      <trkpt lat="46.69501" lon="5.65146">
        <ele>502.8</ele>
        <time>2020-03-03T10:14:42Z</time>
      </trkpt>
      <trkpt lat="46.69497" lon="5.65142">
        <ele>503.1</ele>
        <time>2020-03-03T10:14:48Z</time>
      </trkpt>
      <trkpt lat="46.69492" lon="5.6514">
        <ele>503.3</ele>
        <time>2020-03-03T10:14:53Z</time>
      </trkpt>
      <trkpt lat="46.69488" lon="5.65138">
        <ele>503.5</ele>
        <time>2020-03-03T10:14:58Z</time>
      </trkpt>
      <trkpt lat="46.69485" lon="5.65132">
        <ele>503.7</ele>
        <time>2020-03-03T10:15:05Z</time>
      </trkpt>
      <trkpt lat="46.69481" lon="5.65125">
        <ele>503.6</ele>
        <time>2020-03-03T10:15:09Z</time>
      </trkpt>
      <trkpt lat="46.69479" lon="5.65119">
        <ele>503.6</ele>
        <time>2020-03-03T10:15:14Z</time>
      </trkpt>
      <trkpt lat="46.69479" lon="5.65111">
        <ele>503.4</ele>
        <time>2020-03-03T10:15:20Z</time>
      </trkpt>
      <trkpt lat="46.69478" lon="5.65105">
        <ele>503.5</ele>
        <time>2020-03-03T10:15:25Z</time>
      </trkpt>
      <trkpt lat="46.69476" lon="5.65098">
        <ele>503.8</ele>
        <time>2020-03-03T10:15:30Z</time>
      </trkpt>
      <trkpt lat="46.69475" lon="5.65091">
        <ele>504.3</ele>
        <time>2020-03-03T10:15:36Z</time>
      </trkpt>
      <trkpt lat="46.69472" lon="5.65085">
        <ele>504.4</ele>
        <time>2020-03-03T10:15:42Z</time>
      </trkpt>
      <trkpt lat="46.6947" lon="5.65079">
        <ele>504</ele>
        <time>2020-03-03T10:15:47Z</time>
      </trkpt>
      <trkpt lat="46.69467" lon="5.65072">
        <ele>503.9</ele>
        <time>2020-03-03T10:15:53Z</time>
      </trkpt>
      <trkpt lat="46.69465" lon="5.65066">
        <ele>503.8</ele>
        <time>2020-03-03T10:15:58Z</time>
      </trkpt>
      <trkpt lat="46.69463" lon="5.65059">
        <ele>503.7</ele>
        <time>2020-03-03T10:16:02Z</time>
      </trkpt>
      <trkpt lat="46.69462" lon="5.65051">
        <ele>503.5</ele>
        <time>2020-03-03T10:16:07Z</time>
      </trkpt>
      <trkpt lat="46.69459" lon="5.65045">
        <ele>503.5</ele>
        <time>2020-03-03T10:16:11Z</time>
      </trkpt>
      <trkpt lat="46.69455" lon="5.65039">
        <ele>503.6</ele>
        <time>2020-03-03T10:16:16Z</time>
      </trkpt>
      <trkpt lat="46.69451" lon="5.65036">
        <ele>503.8</ele>
        <time>2020-03-03T10:16:19Z</time>
      </trkpt>
      <trkpt lat="46.69447" lon="5.65033">
        <ele>504.2</ele>
        <time>2020-03-03T10:16:24Z</time>
      </trkpt>
      <trkpt lat="46.69442" lon="5.65031">
        <ele>504.7</ele>
        <time>2020-03-03T10:16:30Z</time>
      </trkpt>
      <trkpt lat="46.69438" lon="5.65027">
        <ele>505.2</ele>
        <time>2020-03-03T10:16:36Z</time>
      </trkpt>
      <trkpt lat="46.69434" lon="5.65023">
        <ele>506.2</ele>
        <time>2020-03-03T10:16:43Z</time>
      </trkpt>
      <trkpt lat="46.6943" lon="5.6502">
        <ele>507.5</ele>
        <time>2020-03-03T10:16:51Z</time>
      </trkpt>
      <trkpt lat="46.69425" lon="5.65016">
        <ele>507.9</ele>
        <time>2020-03-03T10:16:59Z</time>
      </trkpt>
      <trkpt lat="46.69421" lon="5.65011">
        <ele>507.7</ele>
        <time>2020-03-03T10:17:04Z</time>
      </trkpt>
      <trkpt lat="46.69418" lon="5.65006">
        <ele>507.4</ele>
        <time>2020-03-03T10:17:07Z</time>
      </trkpt>
      <trkpt lat="46.69408" lon="5.64999">
        <ele>505.7</ele>
        <time>2020-03-03T10:17:19Z</time>
      </trkpt>
      <trkpt lat="46.69403" lon="5.64996">
        <ele>505.2</ele>
        <time>2020-03-03T10:17:24Z</time>
      </trkpt>
      <trkpt lat="46.69398" lon="5.64995">
        <ele>504.5</ele>
        <time>2020-03-03T10:17:29Z</time>
      </trkpt>
      <trkpt lat="46.69393" lon="5.64992">
        <ele>503.5</ele>
        <time>2020-03-03T10:17:34Z</time>
      </trkpt>
      <trkpt lat="46.69389" lon="5.64985">
        <ele>502.1</ele>
        <time>2020-03-03T10:17:42Z</time>
      </trkpt>
      <trkpt lat="46.69385" lon="5.64981">
        <ele>501.6</ele>
        <time>2020-03-03T10:17:46Z</time>
      </trkpt>
      <trkpt lat="46.6938" lon="5.64975">
        <ele>501.3</ele>
        <time>2020-03-03T10:17:50Z</time>
      </trkpt>
      <trkpt lat="46.69376" lon="5.6497">
        <ele>501.1</ele>
        <time>2020-03-03T10:17:55Z</time>
      </trkpt>
      <trkpt lat="46.69371" lon="5.64965">
        <ele>501.3</ele>
        <time>2020-03-03T10:17:59Z</time>
      </trkpt>
      <trkpt lat="46.69367" lon="5.6496">
        <ele>501.7</ele>
        <time>2020-03-03T10:18:02Z</time>
      </trkpt>
      <trkpt lat="46.69363" lon="5.64954">
        <ele>502</ele>
        <time>2020-03-03T10:18:05Z</time>
      </trkpt>
      <trkpt lat="46.69358" lon="5.64949">
        <ele>502.4</ele>
        <time>2020-03-03T10:18:08Z</time>
      </trkpt>
      <trkpt lat="46.69354" lon="5.64944">
        <ele>502.7</ele>
        <time>2020-03-03T10:18:12Z</time>
      </trkpt>
      <trkpt lat="46.6935" lon="5.6494">
        <ele>502.7</ele>
        <time>2020-03-03T10:18:17Z</time>
      </trkpt>
      <trkpt lat="46.69346" lon="5.64937">
        <ele>502.6</ele>
        <time>2020-03-03T10:18:22Z</time>
      </trkpt>
      <trkpt lat="46.69341" lon="5.64933">
        <ele>502.6</ele>
        <time>2020-03-03T10:18:26Z</time>
      </trkpt>
      <trkpt lat="46.69337" lon="5.64929">
        <ele>502.6</ele>
        <time>2020-03-03T10:18:30Z</time>
      </trkpt>
      <trkpt lat="46.69332" lon="5.64926">
        <ele>502.8</ele>
        <time>2020-03-03T10:18:33Z</time>
      </trkpt>
      <trkpt lat="46.69328" lon="5.64923">
        <ele>502.9</ele>
        <time>2020-03-03T10:18:37Z</time>
      </trkpt>
      <trkpt lat="46.69323" lon="5.64919">
        <ele>503.2</ele>
        <time>2020-03-03T10:18:42Z</time>
      </trkpt>
      <trkpt lat="46.69319" lon="5.64915">
        <ele>503.4</ele>
        <time>2020-03-03T10:18:47Z</time>
      </trkpt>
      <trkpt lat="46.69315" lon="5.6491">
        <ele>503.8</ele>
        <time>2020-03-03T10:18:53Z</time>
      </trkpt>
      <trkpt lat="46.69312" lon="5.64904">
        <ele>503.9</ele>
        <time>2020-03-03T10:18:58Z</time>
      </trkpt>
      <trkpt lat="46.69308" lon="5.64898">
        <ele>503.9</ele>
        <time>2020-03-03T10:19:03Z</time>
      </trkpt>
      <trkpt lat="46.69305" lon="5.64893">
        <ele>503.9</ele>
        <time>2020-03-03T10:19:06Z</time>
      </trkpt>
      <trkpt lat="46.69302" lon="5.64888">
        <ele>503.8</ele>
        <time>2020-03-03T10:19:11Z</time>
      </trkpt>
      <trkpt lat="46.69297" lon="5.64883">
        <ele>503.5</ele>
        <time>2020-03-03T10:19:19Z</time>
      </trkpt>
      <trkpt lat="46.69293" lon="5.6488">
        <ele>503.5</ele>
        <time>2020-03-03T10:19:23Z</time>
      </trkpt>
      <trkpt lat="46.69289" lon="5.64875">
        <ele>503.6</ele>
        <time>2020-03-03T10:19:28Z</time>
      </trkpt>
      <trkpt lat="46.69285" lon="5.64874">
        <ele>504</ele>
        <time>2020-03-03T10:19:35Z</time>
      </trkpt>
      <trkpt lat="46.69279" lon="5.64874">
        <ele>504.1</ele>
        <time>2020-03-03T10:19:39Z</time>
      </trkpt>
      <trkpt lat="46.69274" lon="5.64875">
        <ele>504.3</ele>
        <time>2020-03-03T10:19:44Z</time>
      </trkpt>
      <trkpt lat="46.6927" lon="5.64876">
        <ele>504.4</ele>
        <time>2020-03-03T10:19:50Z</time>
      </trkpt>
      <trkpt lat="46.69265" lon="5.64873">
        <ele>505</ele>
        <time>2020-03-03T10:19:56Z</time>
      </trkpt>
      <trkpt lat="46.6926" lon="5.64871">
        <ele>505.4</ele>
        <time>2020-03-03T10:20:00Z</time>
      </trkpt>
      <trkpt lat="46.69255" lon="5.64869">
        <ele>505.8</ele>
        <time>2020-03-03T10:20:03Z</time>
      </trkpt>
      <trkpt lat="46.69251" lon="5.64865">
        <ele>506.5</ele>
        <time>2020-03-03T10:20:08Z</time>
      </trkpt>
      <trkpt lat="46.69247" lon="5.64861">
        <ele>507.6</ele>
        <time>2020-03-03T10:20:14Z</time>
      </trkpt>
      <trkpt lat="46.69244" lon="5.64855">
        <ele>508.6</ele>
        <time>2020-03-03T10:20:20Z</time>
      </trkpt>
      <trkpt lat="46.69241" lon="5.64849">
        <ele>509.5</ele>
        <time>2020-03-03T10:20:28Z</time>
      </trkpt>
      <trkpt lat="46.69236" lon="5.64847">
        <ele>510.1</ele>
        <time>2020-03-03T10:20:33Z</time>
      </trkpt>
      <trkpt lat="46.69231" lon="5.64844">
        <ele>510.7</ele>
        <time>2020-03-03T10:20:41Z</time>
      </trkpt>
      <trkpt lat="46.69227" lon="5.64839">
        <ele>511.1</ele>
        <time>2020-03-03T10:20:46Z</time>
      </trkpt>
      <trkpt lat="46.69224" lon="5.64833">
        <ele>511.4</ele>
        <time>2020-03-03T10:20:50Z</time>
      </trkpt>
      <trkpt lat="46.6922" lon="5.64829">
        <ele>511.6</ele>
        <time>2020-03-03T10:20:53Z</time>
      </trkpt>
      <trkpt lat="46.69216" lon="5.64823">
        <ele>511.8</ele>
        <time>2020-03-03T10:20:56Z</time>
      </trkpt>
      <trkpt lat="46.69211" lon="5.64819">
        <ele>512</ele>
        <time>2020-03-03T10:20:59Z</time>
      </trkpt>
      <trkpt lat="46.69207" lon="5.64817">
        <ele>512.2</ele>
        <time>2020-03-03T10:21:03Z</time>
      </trkpt>
      <trkpt lat="46.69202" lon="5.64813">
        <ele>512.2</ele>
        <time>2020-03-03T10:21:07Z</time>
      </trkpt>
      <trkpt lat="46.69198" lon="5.64809">
        <ele>512</ele>
        <time>2020-03-03T10:21:12Z</time>
      </trkpt>
      <trkpt lat="46.69193" lon="5.64806">
        <ele>511.7</ele>
        <time>2020-03-03T10:21:18Z</time>
      </trkpt>
      <trkpt lat="46.69187" lon="5.64804">
        <ele>511.5</ele>
        <time>2020-03-03T10:21:22Z</time>
      </trkpt>
      <trkpt lat="46.69183" lon="5.648">
        <ele>511.3</ele>
        <time>2020-03-03T10:21:28Z</time>
      </trkpt>
      <trkpt lat="46.69179" lon="5.64795">
        <ele>511.5</ele>
        <time>2020-03-03T10:21:34Z</time>
      </trkpt>
      <trkpt lat="46.69175" lon="5.6479">
        <ele>512.1</ele>
        <time>2020-03-03T10:21:43Z</time>
      </trkpt>
      <trkpt lat="46.69171" lon="5.64786">
        <ele>512.4</ele>
        <time>2020-03-03T10:21:46Z</time>
      </trkpt>
      <trkpt lat="46.69167" lon="5.64781">
        <ele>512.8</ele>
        <time>2020-03-03T10:21:50Z</time>
      </trkpt>
      <trkpt lat="46.69162" lon="5.64778">
        <ele>513.2</ele>
        <time>2020-03-03T10:21:55Z</time>
      </trkpt>
      <trkpt lat="46.69158" lon="5.64775">
        <ele>513.6</ele>
        <time>2020-03-03T10:22:00Z</time>
      </trkpt>
      <trkpt lat="46.69154" lon="5.64771">
        <ele>513.8</ele>
        <time>2020-03-03T10:22:04Z</time>
      </trkpt>
      <trkpt lat="46.6915" lon="5.64765">
        <ele>513.9</ele>
        <time>2020-03-03T10:22:08Z</time>
      </trkpt>
      <trkpt lat="46.69146" lon="5.6476">
        <ele>513.8</ele>
        <time>2020-03-03T10:22:13Z</time>
      </trkpt>
      <trkpt lat="46.69143" lon="5.64754">
        <ele>513.9</ele>
        <time>2020-03-03T10:22:19Z</time>
      </trkpt>
      <trkpt lat="46.6914" lon="5.6475">
        <ele>514.3</ele>
        <time>2020-03-03T10:22:25Z</time>
      </trkpt>
      <trkpt lat="46.69135" lon="5.64749">
        <ele>514.5</ele>
        <time>2020-03-03T10:22:29Z</time>
      </trkpt>
      <trkpt lat="46.6913" lon="5.64746">
        <ele>514.7</ele>
        <time>2020-03-03T10:22:32Z</time>
      </trkpt>
      <trkpt lat="46.69125" lon="5.64743">
        <ele>514.8</ele>
        <time>2020-03-03T10:22:36Z</time>
      </trkpt>
      <trkpt lat="46.69121" lon="5.64739">
        <ele>514.9</ele>
        <time>2020-03-03T10:22:39Z</time>
      </trkpt>
      <trkpt lat="46.69117" lon="5.64735">
        <ele>515</ele>
        <time>2020-03-03T10:22:44Z</time>
      </trkpt>
      <trkpt lat="46.69114" lon="5.64729">
        <ele>515.1</ele>
        <time>2020-03-03T10:22:48Z</time>
      </trkpt>
      <trkpt lat="46.69111" lon="5.64723">
        <ele>514.9</ele>
        <time>2020-03-03T10:22:54Z</time>
      </trkpt>
      <trkpt lat="46.69109" lon="5.64717">
        <ele>514.7</ele>
        <time>2020-03-03T10:22:57Z</time>
      </trkpt>
      <trkpt lat="46.69108" lon="5.6471">
        <ele>514.3</ele>
        <time>2020-03-03T10:23:04Z</time>
      </trkpt>
      <trkpt lat="46.6911" lon="5.64703">
        <ele>513.6</ele>
        <time>2020-03-03T10:23:10Z</time>
      </trkpt>
      <trkpt lat="46.69112" lon="5.64696">
        <ele>512.8</ele>
        <time>2020-03-03T10:23:15Z</time>
      </trkpt>
      <trkpt lat="46.69112" lon="5.64688">
        <ele>512.3</ele>
        <time>2020-03-03T10:23:20Z</time>
      </trkpt>
      <trkpt lat="46.69111" lon="5.64681">
        <ele>511.7</ele>
        <time>2020-03-03T10:23:25Z</time>
      </trkpt>
      <trkpt lat="46.69109" lon="5.6466">
        <ele>510.6</ele>
        <time>2020-03-03T10:23:38Z</time>
      </trkpt>
      <trkpt lat="46.69107" lon="5.64653">
        <ele>510.9</ele>
        <time>2020-03-03T10:23:41Z</time>
      </trkpt>
      <trkpt lat="46.69105" lon="5.64647">
        <ele>511.2</ele>
        <time>2020-03-03T10:23:44Z</time>
      </trkpt>
      <trkpt lat="46.69102" lon="5.64639">
        <ele>511.6</ele>
        <time>2020-03-03T10:23:46Z</time>
      </trkpt>
      <trkpt lat="46.691" lon="5.64632">
        <ele>512.1</ele>
        <time>2020-03-03T10:23:49Z</time>
      </trkpt>
      <trkpt lat="46.69097" lon="5.64626">
        <ele>513</ele>
        <time>2020-03-03T10:23:54Z</time>
      </trkpt>
      <trkpt lat="46.69094" lon="5.6462">
        <ele>513.7</ele>
        <time>2020-03-03T10:23:59Z</time>
      </trkpt>
      <trkpt lat="46.69091" lon="5.64614">
        <ele>514.8</ele>
        <time>2020-03-03T10:24:05Z</time>
      </trkpt>
      <trkpt lat="46.69088" lon="5.64608">
        <ele>515.8</ele>
        <time>2020-03-03T10:24:11Z</time>
      </trkpt>
      <trkpt lat="46.69087" lon="5.64601">
        <ele>516.5</ele>
        <time>2020-03-03T10:24:16Z</time>
      </trkpt>
      <trkpt lat="46.69084" lon="5.64594">
        <ele>516.9</ele>
        <time>2020-03-03T10:24:21Z</time>
      </trkpt>
      <trkpt lat="46.6908" lon="5.6459">
        <ele>517.1</ele>
        <time>2020-03-03T10:24:25Z</time>
      </trkpt>
      <trkpt lat="46.69076" lon="5.64585">
        <ele>517.1</ele>
        <time>2020-03-03T10:24:31Z</time>
      </trkpt>
      <trkpt lat="46.69072" lon="5.64582">
        <ele>517.1</ele>
        <time>2020-03-03T10:24:35Z</time>
      </trkpt>
      <trkpt lat="46.69067" lon="5.6458">
        <ele>517.2</ele>
        <time>2020-03-03T10:24:39Z</time>
      </trkpt>
      <trkpt lat="46.69062" lon="5.64578">
        <ele>517.5</ele>
        <time>2020-03-03T10:24:44Z</time>
      </trkpt>
      <trkpt lat="46.69058" lon="5.64573">
        <ele>518.2</ele>
        <time>2020-03-03T10:24:52Z</time>
      </trkpt>
      <trkpt lat="46.69053" lon="5.64569">
        <ele>518.8</ele>
        <time>2020-03-03T10:24:57Z</time>
      </trkpt>
      <trkpt lat="46.6905" lon="5.64565">
        <ele>519.5</ele>
        <time>2020-03-03T10:25:02Z</time>
      </trkpt>
      <trkpt lat="46.69046" lon="5.64561">
        <ele>519.8</ele>
        <time>2020-03-03T10:25:06Z</time>
      </trkpt>
      <trkpt lat="46.69043" lon="5.64556">
        <ele>520.2</ele>
        <time>2020-03-03T10:25:12Z</time>
      </trkpt>
      <trkpt lat="46.6904" lon="5.6455">
        <ele>520.4</ele>
        <time>2020-03-03T10:25:17Z</time>
      </trkpt>
      <trkpt lat="46.69039" lon="5.64542">
        <ele>520.7</ele>
        <time>2020-03-03T10:25:22Z</time>
      </trkpt>
      <trkpt lat="46.69037" lon="5.64535">
        <ele>520.7</ele>
        <time>2020-03-03T10:25:27Z</time>
      </trkpt>
      <trkpt lat="46.69036" lon="5.64528">
        <ele>520.6</ele>
        <time>2020-03-03T10:25:30Z</time>
      </trkpt>
      <trkpt lat="46.69033" lon="5.64521">
        <ele>520.4</ele>
        <time>2020-03-03T10:25:35Z</time>
      </trkpt>
      <trkpt lat="46.6903" lon="5.64516">
        <ele>520.2</ele>
        <time>2020-03-03T10:25:39Z</time>
      </trkpt>
      <trkpt lat="46.69027" lon="5.64511">
        <ele>520.1</ele>
        <time>2020-03-03T10:25:44Z</time>
      </trkpt>
      <trkpt lat="46.69025" lon="5.64504">
        <ele>520</ele>
        <time>2020-03-03T10:25:52Z</time>
      </trkpt>
      <trkpt lat="46.69022" lon="5.64498">
        <ele>520</ele>
        <time>2020-03-03T10:25:56Z</time>
      </trkpt>
      <trkpt lat="46.69018" lon="5.64492">
        <ele>519.9</ele>
        <time>2020-03-03T10:25:59Z</time>
      </trkpt>
      <trkpt lat="46.69015" lon="5.64487">
        <ele>519.7</ele>
        <time>2020-03-03T10:26:04Z</time>
      </trkpt>
      <trkpt lat="46.69015" lon="5.6448">
        <ele>519.6</ele>
        <time>2020-03-03T10:26:10Z</time>
      </trkpt>
      <trkpt lat="46.69015" lon="5.64473">
        <ele>519.3</ele>
        <time>2020-03-03T10:26:16Z</time>
      </trkpt>
      <trkpt lat="46.69013" lon="5.64466">
        <ele>518.7</ele>
        <time>2020-03-03T10:26:22Z</time>
      </trkpt>
      <trkpt lat="46.6901" lon="5.6446">
        <ele>518.3</ele>
        <time>2020-03-03T10:26:27Z</time>
      </trkpt>
      <trkpt lat="46.69006" lon="5.64455">
        <ele>518</ele>
        <time>2020-03-03T10:26:31Z</time>
      </trkpt>
      <trkpt lat="46.69003" lon="5.6445">
        <ele>517.7</ele>
        <time>2020-03-03T10:26:36Z</time>
      </trkpt>
      <trkpt lat="46.69001" lon="5.64443">
        <ele>517.6</ele>
        <time>2020-03-03T10:26:39Z</time>
      </trkpt>
      <trkpt lat="46.68996" lon="5.64438">
        <ele>517.3</ele>
        <time>2020-03-03T10:26:43Z</time>
      </trkpt>
      <trkpt lat="46.68991" lon="5.64433">
        <ele>517.2</ele>
        <time>2020-03-03T10:26:45Z</time>
      </trkpt>
      <trkpt lat="46.68986" lon="5.6443">
        <ele>517.1</ele>
        <time>2020-03-03T10:26:48Z</time>
      </trkpt>
      <trkpt lat="46.68981" lon="5.64428">
        <ele>517</ele>
        <time>2020-03-03T10:26:51Z</time>
      </trkpt>
      <trkpt lat="46.68977" lon="5.64427">
        <ele>516.9</ele>
        <time>2020-03-03T10:26:56Z</time>
      </trkpt>
      <trkpt lat="46.68972" lon="5.64428">
        <ele>516.8</ele>
        <time>2020-03-03T10:27:03Z</time>
      </trkpt>
      <trkpt lat="46.68967" lon="5.64425">
        <ele>516.6</ele>
        <time>2020-03-03T10:27:10Z</time>
      </trkpt>
      <trkpt lat="46.68962" lon="5.64423">
        <ele>516.4</ele>
        <time>2020-03-03T10:27:17Z</time>
      </trkpt>
      <trkpt lat="46.68957" lon="5.64422">
        <ele>516.1</ele>
        <time>2020-03-03T10:27:28Z</time>
      </trkpt>
      <trkpt lat="46.68952" lon="5.64422">
        <ele>516.3</ele>
        <time>2020-03-03T10:27:33Z</time>
      </trkpt>
      <trkpt lat="46.68945" lon="5.64422">
        <ele>516.3</ele>
        <time>2020-03-03T10:27:37Z</time>
      </trkpt>
      <trkpt lat="46.68938" lon="5.64419">
        <ele>516.4</ele>
        <time>2020-03-03T10:27:39Z</time>
      </trkpt>
      <trkpt lat="46.68933" lon="5.64416">
        <ele>516.4</ele>
        <time>2020-03-03T10:27:41Z</time>
      </trkpt>
      <trkpt lat="46.68928" lon="5.64413">
        <ele>516.5</ele>
        <time>2020-03-03T10:27:44Z</time>
      </trkpt>
      <trkpt lat="46.68924" lon="5.6441">
        <ele>516.7</ele>
        <time>2020-03-03T10:27:47Z</time>
      </trkpt>
      <trkpt lat="46.6892" lon="5.64406">
        <ele>517.3</ele>
        <time>2020-03-03T10:27:53Z</time>
      </trkpt>
      <trkpt lat="46.68914" lon="5.64403">
        <ele>517.8</ele>
        <time>2020-03-03T10:27:57Z</time>
      </trkpt>
      <trkpt lat="46.6891" lon="5.644">
        <ele>518.3</ele>
        <time>2020-03-03T10:28:01Z</time>
      </trkpt>
      <trkpt lat="46.68905" lon="5.64396">
        <ele>519</ele>
        <time>2020-03-03T10:28:07Z</time>
      </trkpt>
      <trkpt lat="46.68902" lon="5.6439">
        <ele>519.5</ele>
        <time>2020-03-03T10:28:11Z</time>
      </trkpt>
      <trkpt lat="46.689" lon="5.64383">
        <ele>520</ele>
        <time>2020-03-03T10:28:16Z</time>
      </trkpt>
      <trkpt lat="46.689" lon="5.64376">
        <ele>520.5</ele>
        <time>2020-03-03T10:28:22Z</time>
      </trkpt>
      <trkpt lat="46.68901" lon="5.64369">
        <ele>520.4</ele>
        <time>2020-03-03T10:28:27Z</time>
      </trkpt>
      <trkpt lat="46.68901" lon="5.64361">
        <ele>520.1</ele>
        <time>2020-03-03T10:28:31Z</time>
      </trkpt>
      <trkpt lat="46.68901" lon="5.64353">
        <ele>519.9</ele>
        <time>2020-03-03T10:28:34Z</time>
      </trkpt>
      <trkpt lat="46.689" lon="5.64347">
        <ele>519.7</ele>
        <time>2020-03-03T10:28:37Z</time>
      </trkpt>
      <trkpt lat="46.68899" lon="5.6434">
        <ele>519.4</ele>
        <time>2020-03-03T10:28:42Z</time>
      </trkpt>
      <trkpt lat="46.68898" lon="5.64331">
        <ele>519.2</ele>
        <time>2020-03-03T10:28:47Z</time>
      </trkpt>
      <trkpt lat="46.68896" lon="5.64324">
        <ele>518.9</ele>
        <time>2020-03-03T10:28:51Z</time>
      </trkpt>
      <trkpt lat="46.68895" lon="5.64317">
        <ele>518.5</ele>
        <time>2020-03-03T10:28:56Z</time>
      </trkpt>
      <trkpt lat="46.68893" lon="5.64311">
        <ele>518.1</ele>
        <time>2020-03-03T10:29:00Z</time>
      </trkpt>
      <trkpt lat="46.68891" lon="5.64304">
        <ele>517.6</ele>
        <time>2020-03-03T10:29:05Z</time>
      </trkpt>
      <trkpt lat="46.68889" lon="5.64298">
        <ele>517.3</ele>
        <time>2020-03-03T10:29:09Z</time>
      </trkpt>
      <trkpt lat="46.68888" lon="5.6429">
        <ele>517.1</ele>
        <time>2020-03-03T10:29:13Z</time>
      </trkpt>
      <trkpt lat="46.68887" lon="5.64284">
        <ele>516.8</ele>
        <time>2020-03-03T10:29:16Z</time>
      </trkpt>
      <trkpt lat="46.68885" lon="5.64277">
        <ele>516.5</ele>
        <time>2020-03-03T10:29:20Z</time>
      </trkpt>
      <trkpt lat="46.68883" lon="5.6427">
        <ele>516.3</ele>
        <time>2020-03-03T10:29:25Z</time>
      </trkpt>
      <trkpt lat="46.6888" lon="5.64264">
        <ele>516.3</ele>
        <time>2020-03-03T10:29:31Z</time>
      </trkpt>
      <trkpt lat="46.68875" lon="5.6426">
        <ele>516.3</ele>
        <time>2020-03-03T10:29:35Z</time>
      </trkpt>
      <trkpt lat="46.68871" lon="5.64257">
        <ele>516.2</ele>
        <time>2020-03-03T10:29:38Z</time>
      </trkpt>
      <trkpt lat="46.68867" lon="5.64253">
        <ele>516</ele>
        <time>2020-03-03T10:29:42Z</time>
      </trkpt>
      <trkpt lat="46.68862" lon="5.6425">
        <ele>515.8</ele>
        <time>2020-03-03T10:29:48Z</time>
      </trkpt>
      <trkpt lat="46.68857" lon="5.64248">
        <ele>515.6</ele>
        <time>2020-03-03T10:29:54Z</time>
      </trkpt>
      <trkpt lat="46.68853" lon="5.64249">
        <ele>515.2</ele>
        <time>2020-03-03T10:29:59Z</time>
      </trkpt>
      <trkpt lat="46.68847" lon="5.64249">
        <ele>514.8</ele>
        <time>2020-03-03T10:30:05Z</time>
      </trkpt>
      <trkpt lat="46.68843" lon="5.6425">
        <ele>514.5</ele>
        <time>2020-03-03T10:30:09Z</time>
      </trkpt>
      <trkpt lat="46.68838" lon="5.64248">
        <ele>514.3</ele>
        <time>2020-03-03T10:30:14Z</time>
      </trkpt>
      <trkpt lat="46.68835" lon="5.64242">
        <ele>514</ele>
        <time>2020-03-03T10:30:21Z</time>
      </trkpt>
      <trkpt lat="46.68836" lon="5.64235">
        <ele>513.5</ele>
        <time>2020-03-03T10:30:25Z</time>
      </trkpt>
      <trkpt lat="46.68836" lon="5.64227">
        <ele>513</ele>
        <time>2020-03-03T10:30:29Z</time>
      </trkpt>
      <trkpt lat="46.68836" lon="5.6422">
        <ele>512.4</ele>
        <time>2020-03-03T10:30:35Z</time>
      </trkpt>
      <trkpt lat="46.68837" lon="5.64213">
        <ele>512.1</ele>
        <time>2020-03-03T10:30:39Z</time>
      </trkpt>
      <trkpt lat="46.68841" lon="5.64206">
        <ele>511.7</ele>
        <time>2020-03-03T10:30:43Z</time>
      </trkpt>
      <trkpt lat="46.68842" lon="5.642">
        <ele>511.1</ele>
        <time>2020-03-03T10:30:48Z</time>
      </trkpt>
      <trkpt lat="46.68841" lon="5.64193">
        <ele>510.6</ele>
        <time>2020-03-03T10:30:52Z</time>
      </trkpt>
      <trkpt lat="46.6884" lon="5.64187">
        <ele>510.3</ele>
        <time>2020-03-03T10:30:56Z</time>
      </trkpt>
      <trkpt lat="46.68838" lon="5.64179">
        <ele>509.9</ele>
        <time>2020-03-03T10:31:02Z</time>
      </trkpt>
      <trkpt lat="46.68837" lon="5.64172">
        <ele>509.4</ele>
        <time>2020-03-03T10:31:08Z</time>
      </trkpt>
      <trkpt lat="46.68837" lon="5.64165">
        <ele>509.2</ele>
        <time>2020-03-03T10:31:12Z</time>
      </trkpt>
      <trkpt lat="46.68835" lon="5.64159">
        <ele>509.2</ele>
        <time>2020-03-03T10:31:15Z</time>
      </trkpt>
      <trkpt lat="46.68832" lon="5.64153">
        <ele>509.2</ele>
        <time>2020-03-03T10:31:18Z</time>
      </trkpt>
      <trkpt lat="46.68825" lon="5.6413">
        <ele>510</ele>
        <time>2020-03-03T10:31:30Z</time>
      </trkpt>
      <trkpt lat="46.68824" lon="5.64123">
        <ele>509.9</ele>
        <time>2020-03-03T10:31:35Z</time>
      </trkpt>
      <trkpt lat="46.68822" lon="5.64116">
        <ele>509.7</ele>
        <time>2020-03-03T10:31:40Z</time>
      </trkpt>
      <trkpt lat="46.6882" lon="5.6411">
        <ele>509.3</ele>
        <time>2020-03-03T10:31:44Z</time>
      </trkpt>
      <trkpt lat="46.68818" lon="5.64102">
        <ele>508.9</ele>
        <time>2020-03-03T10:31:50Z</time>
      </trkpt>
      <trkpt lat="46.68816" lon="5.64095">
        <ele>508.7</ele>
        <time>2020-03-03T10:31:56Z</time>
      </trkpt>
      <trkpt lat="46.68816" lon="5.64087">
        <ele>508.5</ele>
        <time>2020-03-03T10:32:02Z</time>
      </trkpt>
      <trkpt lat="46.68815" lon="5.64079">
        <ele>508.4</ele>
        <time>2020-03-03T10:32:06Z</time>
      </trkpt>
      <trkpt lat="46.68814" lon="5.64072">
        <ele>508.3</ele>
        <time>2020-03-03T10:32:10Z</time>
      </trkpt>
      <trkpt lat="46.68812" lon="5.64065">
        <ele>508.3</ele>
        <time>2020-03-03T10:32:15Z</time>
      </trkpt>
      <trkpt lat="46.68809" lon="5.64058">
        <ele>508.3</ele>
        <time>2020-03-03T10:32:19Z</time>
      </trkpt>
      <trkpt lat="46.68809" lon="5.64052">
        <ele>508.6</ele>
        <time>2020-03-03T10:32:23Z</time>
      </trkpt>
      <trkpt lat="46.68809" lon="5.64045">
        <ele>509</ele>
        <time>2020-03-03T10:32:28Z</time>
      </trkpt>
      <trkpt lat="46.68808" lon="5.64038">
        <ele>509.6</ele>
        <time>2020-03-03T10:32:34Z</time>
      </trkpt>
      <trkpt lat="46.68805" lon="5.64032">
        <ele>510.4</ele>
        <time>2020-03-03T10:32:50Z</time>
      </trkpt>
      <trkpt lat="46.68804" lon="5.64025">
        <ele>510</ele>
        <time>2020-03-03T10:32:55Z</time>
      </trkpt>
      <trkpt lat="46.68802" lon="5.64018">
        <ele>509.6</ele>
        <time>2020-03-03T10:32:59Z</time>
      </trkpt>
      <trkpt lat="46.688" lon="5.64009">
        <ele>509.4</ele>
        <time>2020-03-03T10:33:03Z</time>
      </trkpt>
      <trkpt lat="46.68798" lon="5.64002">
        <ele>509.2</ele>
        <time>2020-03-03T10:33:08Z</time>
      </trkpt>
      <trkpt lat="46.68799" lon="5.63995">
        <ele>509</ele>
        <time>2020-03-03T10:33:14Z</time>
      </trkpt>
      <trkpt lat="46.68798" lon="5.63989">
        <ele>508.6</ele>
        <time>2020-03-03T10:33:22Z</time>
      </trkpt>
      <trkpt lat="46.68798" lon="5.63982">
        <ele>508.3</ele>
        <time>2020-03-03T10:33:29Z</time>
      </trkpt>
      <trkpt lat="46.68803" lon="5.63982">
        <ele>508.6</ele>
        <time>2020-03-03T10:33:43Z</time>
      </trkpt>
      <trkpt lat="46.68809" lon="5.63983">
        <ele>508.6</ele>
        <time>2020-03-03T10:33:49Z</time>
      </trkpt>
      <trkpt lat="46.68815" lon="5.63985">
        <ele>508.4</ele>
        <time>2020-03-03T10:33:53Z</time>
      </trkpt>
      <trkpt lat="46.6882" lon="5.63987">
        <ele>508.1</ele>
        <time>2020-03-03T10:33:57Z</time>
      </trkpt>
      <trkpt lat="46.68825" lon="5.63988">
        <ele>507.5</ele>
        <time>2020-03-03T10:34:02Z</time>
      </trkpt>
      <trkpt lat="46.68829" lon="5.6399">
        <ele>506.6</ele>
        <time>2020-03-03T10:34:09Z</time>
      </trkpt>
      <trkpt lat="46.68832" lon="5.63985">
        <ele>505.2</ele>
        <time>2020-03-03T10:34:22Z</time>
      </trkpt>
      <trkpt lat="46.68837" lon="5.63982">
        <ele>505.2</ele>
        <time>2020-03-03T10:34:36Z</time>
      </trkpt>
      <trkpt lat="46.68841" lon="5.63982">
        <ele>505.4</ele>
        <time>2020-03-03T10:34:42Z</time>
      </trkpt>
      <trkpt lat="46.68844" lon="5.63987">
        <ele>507</ele>
        <time>2020-03-03T10:35:08Z</time>
      </trkpt>
      <trkpt lat="46.68844" lon="5.63998">
        <ele>507.8</ele>
        <time>2020-03-03T10:36:06Z</time>
      </trkpt>
      <trkpt lat="46.68847" lon="5.64003">
        <ele>508.2</ele>
        <time>2020-03-03T10:36:16Z</time>
      </trkpt>
      <trkpt lat="46.68844" lon="5.64006">
        <ele>505.4</ele>
        <time>2020-03-03T10:38:10Z</time>
      </trkpt>
      <trkpt lat="46.6884" lon="5.64008">
        <ele>505.3</ele>
        <time>2020-03-03T10:38:14Z</time>
      </trkpt>
      <trkpt lat="46.68836" lon="5.64004">
        <ele>506</ele>
        <time>2020-03-03T10:38:24Z</time>
      </trkpt>
      <trkpt lat="46.68833" lon="5.63997">
        <ele>506.3</ele>
        <time>2020-03-03T10:38:27Z</time>
      </trkpt>
      <trkpt lat="46.68831" lon="5.63992">
        <ele>507</ele>
        <time>2020-03-03T10:38:34Z</time>
      </trkpt>
      <trkpt lat="46.68826" lon="5.6399">
        <ele>507.5</ele>
        <time>2020-03-03T10:38:42Z</time>
      </trkpt>
      <trkpt lat="46.68821" lon="5.63989">
        <ele>507.5</ele>
        <time>2020-03-03T10:38:46Z</time>
      </trkpt>
      <trkpt lat="46.68816" lon="5.63989">
        <ele>507.5</ele>
        <time>2020-03-03T10:38:48Z</time>
      </trkpt>
      <trkpt lat="46.68811" lon="5.63987">
        <ele>507.5</ele>
        <time>2020-03-03T10:38:52Z</time>
      </trkpt>
      <trkpt lat="46.68805" lon="5.63985">
        <ele>507.6</ele>
        <time>2020-03-03T10:38:57Z</time>
      </trkpt>
      <trkpt lat="46.688" lon="5.63985">
        <ele>508.1</ele>
        <time>2020-03-03T10:39:03Z</time>
      </trkpt>
      <trkpt lat="46.68796" lon="5.63982">
        <ele>508.7</ele>
        <time>2020-03-03T10:39:09Z</time>
      </trkpt>
      <trkpt lat="46.68794" lon="5.63975">
        <ele>508.9</ele>
        <time>2020-03-03T10:39:14Z</time>
      </trkpt>
      <trkpt lat="46.68793" lon="5.63967">
        <ele>509</ele>
        <time>2020-03-03T10:39:18Z</time>
      </trkpt>
      <trkpt lat="46.68793" lon="5.63959">
        <ele>509.1</ele>
        <time>2020-03-03T10:39:22Z</time>
      </trkpt>
      <trkpt lat="46.68793" lon="5.63951">
        <ele>509</ele>
        <time>2020-03-03T10:39:27Z</time>
      </trkpt>
      <trkpt lat="46.68794" lon="5.63944">
        <ele>508.9</ele>
        <time>2020-03-03T10:39:32Z</time>
      </trkpt>
      <trkpt lat="46.68796" lon="5.63937">
        <ele>508.8</ele>
        <time>2020-03-03T10:39:37Z</time>
      </trkpt>
      <trkpt lat="46.68798" lon="5.63929">
        <ele>508.8</ele>
        <time>2020-03-03T10:39:43Z</time>
      </trkpt>
      <trkpt lat="46.68802" lon="5.63925">
        <ele>508.7</ele>
        <time>2020-03-03T10:39:49Z</time>
      </trkpt>
      <trkpt lat="46.68806" lon="5.63924">
        <ele>508.9</ele>
        <time>2020-03-03T10:40:13Z</time>
      </trkpt>
      <trkpt lat="46.68811" lon="5.63922">
        <ele>510</ele>
        <time>2020-03-03T10:41:31Z</time>
      </trkpt>
      <trkpt lat="46.68807" lon="5.63925">
        <ele>509.3</ele>
        <time>2020-03-03T10:43:14Z</time>
      </trkpt>
      <trkpt lat="46.68811" lon="5.63927">
        <ele>512.3</ele>
        <time>2020-03-03T10:44:33Z</time>
      </trkpt>
      <trkpt lat="46.68806" lon="5.63927">
        <ele>512.4</ele>
        <time>2020-03-03T10:45:25Z</time>
      </trkpt>
      <trkpt lat="46.6881" lon="5.63923">
        <ele>511.6</ele>
        <time>2020-03-03T10:49:24Z</time>
      </trkpt>
      <trkpt lat="46.68808" lon="5.63929">
        <ele>510.9</ele>
        <time>2020-03-03T10:51:27Z</time>
      </trkpt>
      <trkpt lat="46.68809" lon="5.63936">
        <ele>510.8</ele>
        <time>2020-03-03T10:51:36Z</time>
      </trkpt>
      <trkpt lat="46.6881" lon="5.63929">
        <ele>510.7</ele>
        <time>2020-03-03T10:52:02Z</time>
      </trkpt>
      <trkpt lat="46.68808" lon="5.63922">
        <ele>510.7</ele>
        <time>2020-03-03T10:52:10Z</time>
      </trkpt>
      <trkpt lat="46.68805" lon="5.63923">
        <ele>514.3</ele>
        <time>2020-03-03T11:14:54Z</time>
      </trkpt>
      <trkpt lat="46.68807" lon="5.63917">
        <ele>510.6</ele>
        <time>2020-03-03T11:17:48Z</time>
      </trkpt>
      <trkpt lat="46.68811" lon="5.63918">
        <ele>509.7</ele>
        <time>2020-03-03T11:17:57Z</time>
      </trkpt>
      <trkpt lat="46.68808" lon="5.63914">
        <ele>509.2</ele>
        <time>2020-03-03T11:18:06Z</time>
      </trkpt>
      <trkpt lat="46.68809" lon="5.63906">
        <ele>509.3</ele>
        <time>2020-03-03T11:18:11Z</time>
      </trkpt>
      <trkpt lat="46.6881" lon="5.639">
        <ele>509.6</ele>
        <time>2020-03-03T11:18:17Z</time>
      </trkpt>
      <trkpt lat="46.68812" lon="5.63894">
        <ele>509.8</ele>
        <time>2020-03-03T11:18:23Z</time>
      </trkpt>
      <trkpt lat="46.68814" lon="5.63888">
        <ele>509.8</ele>
        <time>2020-03-03T11:18:30Z</time>
      </trkpt>
      <trkpt lat="46.68812" lon="5.63881">
        <ele>509.8</ele>
        <time>2020-03-03T11:18:37Z</time>
      </trkpt>
      <trkpt lat="46.6881" lon="5.63875">
        <ele>509.5</ele>
        <time>2020-03-03T11:18:43Z</time>
      </trkpt>
      <trkpt lat="46.68811" lon="5.63868">
        <ele>509.1</ele>
        <time>2020-03-03T11:18:56Z</time>
      </trkpt>
      <trkpt lat="46.68811" lon="5.6386">
        <ele>508.9</ele>
        <time>2020-03-03T11:19:04Z</time>
      </trkpt>
      <trkpt lat="46.68811" lon="5.63852">
        <ele>508.7</ele>
        <time>2020-03-03T11:19:11Z</time>
      </trkpt>
      <trkpt lat="46.68813" lon="5.63846">
        <ele>507.8</ele>
        <time>2020-03-03T11:19:30Z</time>
      </trkpt>
      <trkpt lat="46.68812" lon="5.63838">
        <ele>508</ele>
        <time>2020-03-03T11:19:34Z</time>
      </trkpt>
      <trkpt lat="46.68812" lon="5.6383">
        <ele>508.3</ele>
        <time>2020-03-03T11:19:38Z</time>
      </trkpt>
      <trkpt lat="46.68813" lon="5.63823">
        <ele>508.5</ele>
        <time>2020-03-03T11:19:42Z</time>
      </trkpt>
      <trkpt lat="46.68812" lon="5.63815">
        <ele>508.7</ele>
        <time>2020-03-03T11:19:47Z</time>
      </trkpt>
      <trkpt lat="46.6881" lon="5.63809">
        <ele>508.7</ele>
        <time>2020-03-03T11:19:51Z</time>
      </trkpt>
      <trkpt lat="46.68809" lon="5.63802">
        <ele>508.4</ele>
        <time>2020-03-03T11:19:56Z</time>
      </trkpt>
      <trkpt lat="46.6881" lon="5.63794">
        <ele>508.2</ele>
        <time>2020-03-03T11:20:01Z</time>
      </trkpt>
      <trkpt lat="46.68811" lon="5.63788">
        <ele>508</ele>
        <time>2020-03-03T11:20:05Z</time>
      </trkpt>
      <trkpt lat="46.68811" lon="5.63779">
        <ele>507.9</ele>
        <time>2020-03-03T11:20:11Z</time>
      </trkpt>
      <trkpt lat="46.68813" lon="5.63773">
        <ele>507.9</ele>
        <time>2020-03-03T11:20:15Z</time>
      </trkpt>
      <trkpt lat="46.68815" lon="5.63766">
        <ele>507.9</ele>
        <time>2020-03-03T11:20:19Z</time>
      </trkpt>
      <trkpt lat="46.68818" lon="5.63761">
        <ele>507.7</ele>
        <time>2020-03-03T11:20:24Z</time>
      </trkpt>
      <trkpt lat="46.68821" lon="5.63754">
        <ele>507.3</ele>
        <time>2020-03-03T11:20:29Z</time>
      </trkpt>
      <trkpt lat="46.68825" lon="5.63749">
        <ele>506.9</ele>
        <time>2020-03-03T11:20:35Z</time>
      </trkpt>
      <trkpt lat="46.68829" lon="5.63746">
        <ele>506.5</ele>
        <time>2020-03-03T11:20:42Z</time>
      </trkpt>
      <trkpt lat="46.68838" lon="5.63735">
        <ele>505.7</ele>
        <time>2020-03-03T11:20:51Z</time>
      </trkpt>
      <trkpt lat="46.68842" lon="5.63731">
        <ele>505.6</ele>
        <time>2020-03-03T11:20:54Z</time>
      </trkpt>
      <trkpt lat="46.68847" lon="5.63728">
        <ele>505.3</ele>
        <time>2020-03-03T11:20:58Z</time>
      </trkpt>
      <trkpt lat="46.68851" lon="5.63724">
        <ele>505</ele>
        <time>2020-03-03T11:21:04Z</time>
      </trkpt>
      <trkpt lat="46.68857" lon="5.63722">
        <ele>505.1</ele>
        <time>2020-03-03T11:21:09Z</time>
      </trkpt>
      <trkpt lat="46.68862" lon="5.63719">
        <ele>505</ele>
        <time>2020-03-03T11:21:14Z</time>
      </trkpt>
      <trkpt lat="46.68866" lon="5.63718">
        <ele>504.9</ele>
        <time>2020-03-03T11:21:18Z</time>
      </trkpt>
      <trkpt lat="46.68871" lon="5.63717">
        <ele>505</ele>
        <time>2020-03-03T11:21:23Z</time>
      </trkpt>
      <trkpt lat="46.68875" lon="5.63716">
        <ele>505</ele>
        <time>2020-03-03T11:21:30Z</time>
      </trkpt>
      <trkpt lat="46.6888" lon="5.63714">
        <ele>505.3</ele>
        <time>2020-03-03T11:21:43Z</time>
      </trkpt>
      <trkpt lat="46.68885" lon="5.63713">
        <ele>505.5</ele>
        <time>2020-03-03T11:21:50Z</time>
      </trkpt>
      <trkpt lat="46.6889" lon="5.63711">
        <ele>505.8</ele>
        <time>2020-03-03T11:21:56Z</time>
      </trkpt>
      <trkpt lat="46.68894" lon="5.63709">
        <ele>506</ele>
        <time>2020-03-03T11:22:03Z</time>
      </trkpt>
      <trkpt lat="46.68899" lon="5.63708">
        <ele>506.2</ele>
        <time>2020-03-03T11:22:09Z</time>
      </trkpt>
      <trkpt lat="46.68904" lon="5.63708">
        <ele>506.3</ele>
        <time>2020-03-03T11:22:14Z</time>
      </trkpt>
      <trkpt lat="46.68909" lon="5.63707">
        <ele>506.7</ele>
        <time>2020-03-03T11:22:20Z</time>
      </trkpt>
      <trkpt lat="46.68914" lon="5.63705">
        <ele>506.9</ele>
        <time>2020-03-03T11:22:24Z</time>
      </trkpt>
      <trkpt lat="46.68919" lon="5.63704">
        <ele>507.1</ele>
        <time>2020-03-03T11:22:28Z</time>
      </trkpt>
      <trkpt lat="46.68924" lon="5.63701">
        <ele>507.3</ele>
        <time>2020-03-03T11:22:33Z</time>
      </trkpt>
      <trkpt lat="46.68928" lon="5.63698">
        <ele>507.4</ele>
        <time>2020-03-03T11:22:38Z</time>
      </trkpt>
      <trkpt lat="46.68932" lon="5.63696">
        <ele>507.7</ele>
        <time>2020-03-03T11:22:43Z</time>
      </trkpt>
      <trkpt lat="46.68937" lon="5.63693">
        <ele>508.1</ele>
        <time>2020-03-03T11:22:47Z</time>
      </trkpt>
      <trkpt lat="46.68942" lon="5.63692">
        <ele>508.5</ele>
        <time>2020-03-03T11:22:52Z</time>
      </trkpt>
      <trkpt lat="46.68947" lon="5.6369">
        <ele>508.9</ele>
        <time>2020-03-03T11:22:58Z</time>
      </trkpt>
      <trkpt lat="46.68951" lon="5.63688">
        <ele>509.5</ele>
        <time>2020-03-03T11:23:07Z</time>
      </trkpt>
      <trkpt lat="46.68956" lon="5.63685">
        <ele>509.6</ele>
        <time>2020-03-03T11:23:12Z</time>
      </trkpt>
      <trkpt lat="46.68961" lon="5.6368">
        <ele>509.3</ele>
        <time>2020-03-03T11:23:19Z</time>
      </trkpt>
      <trkpt lat="46.68965" lon="5.63676">
        <ele>509.3</ele>
        <time>2020-03-03T11:23:23Z</time>
      </trkpt>
      <trkpt lat="46.68969" lon="5.63671">
        <ele>509.4</ele>
        <time>2020-03-03T11:23:26Z</time>
      </trkpt>
      <trkpt lat="46.68973" lon="5.63666">
        <ele>509.7</ele>
        <time>2020-03-03T11:23:30Z</time>
      </trkpt>
      <trkpt lat="46.68977" lon="5.63661">
        <ele>510</ele>
        <time>2020-03-03T11:23:35Z</time>
      </trkpt>
      <trkpt lat="46.6898" lon="5.63657">
        <ele>510.5</ele>
        <time>2020-03-03T11:23:40Z</time>
      </trkpt>
      <trkpt lat="46.68984" lon="5.63653">
        <ele>510.9</ele>
        <time>2020-03-03T11:23:46Z</time>
      </trkpt>
      <trkpt lat="46.68989" lon="5.63651">
        <ele>511.1</ele>
        <time>2020-03-03T11:23:51Z</time>
      </trkpt>
      <trkpt lat="46.68993" lon="5.63648">
        <ele>511.2</ele>
        <time>2020-03-03T11:23:55Z</time>
      </trkpt>
      <trkpt lat="46.68998" lon="5.63644">
        <ele>511.5</ele>
        <time>2020-03-03T11:24:00Z</time>
      </trkpt>
      <trkpt lat="46.69002" lon="5.63641">
        <ele>511.6</ele>
        <time>2020-03-03T11:24:05Z</time>
      </trkpt>
      <trkpt lat="46.69006" lon="5.63636">
        <ele>511.4</ele>
        <time>2020-03-03T11:24:10Z</time>
      </trkpt>
      <trkpt lat="46.69008" lon="5.6363">
        <ele>511.4</ele>
        <time>2020-03-03T11:24:16Z</time>
      </trkpt>
      <trkpt lat="46.69011" lon="5.63624">
        <ele>511.4</ele>
        <time>2020-03-03T11:24:22Z</time>
      </trkpt>
      <trkpt lat="46.69013" lon="5.63618">
        <ele>511.4</ele>
        <time>2020-03-03T11:24:27Z</time>
      </trkpt>
      <trkpt lat="46.69017" lon="5.63614">
        <ele>511.6</ele>
        <time>2020-03-03T11:24:34Z</time>
      </trkpt>
      <trkpt lat="46.69022" lon="5.6361">
        <ele>511.9</ele>
        <time>2020-03-03T11:24:40Z</time>
      </trkpt>
      <trkpt lat="46.69025" lon="5.63604">
        <ele>512.2</ele>
        <time>2020-03-03T11:24:45Z</time>
      </trkpt>
      <trkpt lat="46.69028" lon="5.63598">
        <ele>512.6</ele>
        <time>2020-03-03T11:24:51Z</time>
      </trkpt>
      <trkpt lat="46.69032" lon="5.63594">
        <ele>513.1</ele>
        <time>2020-03-03T11:24:57Z</time>
      </trkpt>
      <trkpt lat="46.69035" lon="5.63588">
        <ele>513.8</ele>
        <time>2020-03-03T11:25:03Z</time>
      </trkpt>
      <trkpt lat="46.69037" lon="5.63581">
        <ele>514.4</ele>
        <time>2020-03-03T11:25:07Z</time>
      </trkpt>
      <trkpt lat="46.69038" lon="5.63574">
        <ele>514.6</ele>
        <time>2020-03-03T11:25:10Z</time>
      </trkpt>
      <trkpt lat="46.6904" lon="5.63567">
        <ele>515</ele>
        <time>2020-03-03T11:25:15Z</time>
      </trkpt>
      <trkpt lat="46.69044" lon="5.63562">
        <ele>515</ele>
        <time>2020-03-03T11:25:20Z</time>
      </trkpt>
      <trkpt lat="46.69048" lon="5.63558">
        <ele>514.8</ele>
        <time>2020-03-03T11:25:25Z</time>
      </trkpt>
      <trkpt lat="46.69052" lon="5.63551">
        <ele>514.4</ele>
        <time>2020-03-03T11:25:30Z</time>
      </trkpt>
      <trkpt lat="46.69055" lon="5.63546">
        <ele>514.2</ele>
        <time>2020-03-03T11:25:34Z</time>
      </trkpt>
      <trkpt lat="46.6906" lon="5.63542">
        <ele>514</ele>
        <time>2020-03-03T11:25:39Z</time>
      </trkpt>
      <trkpt lat="46.69064" lon="5.63539">
        <ele>514.2</ele>
        <time>2020-03-03T11:25:44Z</time>
      </trkpt>
      <trkpt lat="46.69068" lon="5.63534">
        <ele>514.3</ele>
        <time>2020-03-03T11:25:49Z</time>
      </trkpt>
      <trkpt lat="46.69071" lon="5.63527">
        <ele>514.2</ele>
        <time>2020-03-03T11:25:54Z</time>
      </trkpt>
      <trkpt lat="46.69075" lon="5.63523">
        <ele>514.1</ele>
        <time>2020-03-03T11:26:01Z</time>
      </trkpt>
      <trkpt lat="46.69079" lon="5.63519">
        <ele>514.1</ele>
        <time>2020-03-03T11:26:07Z</time>
      </trkpt>
      <trkpt lat="46.69084" lon="5.63517">
        <ele>514.1</ele>
        <time>2020-03-03T11:26:12Z</time>
      </trkpt>
      <trkpt lat="46.69088" lon="5.63515">
        <ele>514.3</ele>
        <time>2020-03-03T11:26:16Z</time>
      </trkpt>
      <trkpt lat="46.69093" lon="5.63513">
        <ele>514.6</ele>
        <time>2020-03-03T11:26:19Z</time>
      </trkpt>
      <trkpt lat="46.69097" lon="5.6351">
        <ele>515</ele>
        <time>2020-03-03T11:26:22Z</time>
      </trkpt>
      <trkpt lat="46.69102" lon="5.63506">
        <ele>515.6</ele>
        <time>2020-03-03T11:26:27Z</time>
      </trkpt>
      <trkpt lat="46.69106" lon="5.63503">
        <ele>515.9</ele>
        <time>2020-03-03T11:26:32Z</time>
      </trkpt>
      <trkpt lat="46.69111" lon="5.63501">
        <ele>516.1</ele>
        <time>2020-03-03T11:26:38Z</time>
      </trkpt>
      <trkpt lat="46.69116" lon="5.63499">
        <ele>516.1</ele>
        <time>2020-03-03T11:26:43Z</time>
      </trkpt>
      <trkpt lat="46.69121" lon="5.63499">
        <ele>516.1</ele>
        <time>2020-03-03T11:26:50Z</time>
      </trkpt>
      <trkpt lat="46.69126" lon="5.63499">
        <ele>516.1</ele>
        <time>2020-03-03T11:26:53Z</time>
      </trkpt>
      <trkpt lat="46.69131" lon="5.63499">
        <ele>516.1</ele>
        <time>2020-03-03T11:26:57Z</time>
      </trkpt>
      <trkpt lat="46.69136" lon="5.63498">
        <ele>516.2</ele>
        <time>2020-03-03T11:27:01Z</time>
      </trkpt>
      <trkpt lat="46.6914" lon="5.63495">
        <ele>516.7</ele>
        <time>2020-03-03T11:27:09Z</time>
      </trkpt>
      <trkpt lat="46.69145" lon="5.63493">
        <ele>516.7</ele>
        <time>2020-03-03T11:27:13Z</time>
      </trkpt>
      <trkpt lat="46.69149" lon="5.63492">
        <ele>516.4</ele>
        <time>2020-03-03T11:27:18Z</time>
      </trkpt>
      <trkpt lat="46.69154" lon="5.63491">
        <ele>516</ele>
        <time>2020-03-03T11:27:24Z</time>
      </trkpt>
      <trkpt lat="46.69159" lon="5.6349">
        <ele>515.4</ele>
        <time>2020-03-03T11:27:30Z</time>
      </trkpt>
      <trkpt lat="46.69164" lon="5.63489">
        <ele>515.2</ele>
        <time>2020-03-03T11:27:35Z</time>
      </trkpt>
      <trkpt lat="46.69169" lon="5.63488">
        <ele>515.3</ele>
        <time>2020-03-03T11:27:40Z</time>
      </trkpt>
      <trkpt lat="46.69175" lon="5.63487">
        <ele>515.5</ele>
        <time>2020-03-03T11:27:45Z</time>
      </trkpt>
      <trkpt lat="46.69179" lon="5.63487">
        <ele>515.6</ele>
        <time>2020-03-03T11:27:50Z</time>
      </trkpt>
      <trkpt lat="46.69184" lon="5.63486">
        <ele>516</ele>
        <time>2020-03-03T11:27:56Z</time>
      </trkpt>
      <trkpt lat="46.69189" lon="5.63485">
        <ele>516.5</ele>
        <time>2020-03-03T11:28:03Z</time>
      </trkpt>
      <trkpt lat="46.69194" lon="5.63483">
        <ele>516.7</ele>
        <time>2020-03-03T11:28:08Z</time>
      </trkpt>
      <trkpt lat="46.69199" lon="5.63481">
        <ele>516.7</ele>
        <time>2020-03-03T11:28:13Z</time>
      </trkpt>
      <trkpt lat="46.69204" lon="5.63478">
        <ele>516.6</ele>
        <time>2020-03-03T11:28:17Z</time>
      </trkpt>
      <trkpt lat="46.69208" lon="5.63475">
        <ele>516.5</ele>
        <time>2020-03-03T11:28:20Z</time>
      </trkpt>
      <trkpt lat="46.69214" lon="5.63471">
        <ele>516.3</ele>
        <time>2020-03-03T11:28:23Z</time>
      </trkpt>
      <trkpt lat="46.69218" lon="5.63468">
        <ele>516.2</ele>
        <time>2020-03-03T11:28:26Z</time>
      </trkpt>
      <trkpt lat="46.69223" lon="5.63465">
        <ele>515.9</ele>
        <time>2020-03-03T11:28:31Z</time>
      </trkpt>
      <trkpt lat="46.69228" lon="5.63462">
        <ele>515.6</ele>
        <time>2020-03-03T11:28:35Z</time>
      </trkpt>
      <trkpt lat="46.69232" lon="5.63457">
        <ele>515.4</ele>
        <time>2020-03-03T11:28:40Z</time>
      </trkpt>
      <trkpt lat="46.69237" lon="5.63453">
        <ele>515.3</ele>
        <time>2020-03-03T11:28:44Z</time>
      </trkpt>
      <trkpt lat="46.6924" lon="5.63449">
        <ele>515.3</ele>
        <time>2020-03-03T11:28:48Z</time>
      </trkpt>
      <trkpt lat="46.69245" lon="5.63445">
        <ele>515.1</ele>
        <time>2020-03-03T11:28:52Z</time>
      </trkpt>
      <trkpt lat="46.6925" lon="5.63442">
        <ele>514.8</ele>
        <time>2020-03-03T11:28:56Z</time>
      </trkpt>
      <trkpt lat="46.69254" lon="5.63439">
        <ele>514.3</ele>
        <time>2020-03-03T11:29:02Z</time>
      </trkpt>
      <trkpt lat="46.6926" lon="5.63436">
        <ele>514</ele>
        <time>2020-03-03T11:29:07Z</time>
      </trkpt>
      <trkpt lat="46.69264" lon="5.63433">
        <ele>513.9</ele>
        <time>2020-03-03T11:29:11Z</time>
      </trkpt>
      <trkpt lat="46.69269" lon="5.63432">
        <ele>513.7</ele>
        <time>2020-03-03T11:29:16Z</time>
      </trkpt>
      <trkpt lat="46.69274" lon="5.63431">
        <ele>513.5</ele>
        <time>2020-03-03T11:29:22Z</time>
      </trkpt>
      <trkpt lat="46.6928" lon="5.63431">
        <ele>513.4</ele>
        <time>2020-03-03T11:29:28Z</time>
      </trkpt>
      <trkpt lat="46.69285" lon="5.63432">
        <ele>513.4</ele>
        <time>2020-03-03T11:29:31Z</time>
      </trkpt>
      <trkpt lat="46.6929" lon="5.63433">
        <ele>513.5</ele>
        <time>2020-03-03T11:29:35Z</time>
      </trkpt>
      <trkpt lat="46.69294" lon="5.63432">
        <ele>513.6</ele>
        <time>2020-03-03T11:29:40Z</time>
      </trkpt>
      <trkpt lat="46.69299" lon="5.63432">
        <ele>513.7</ele>
        <time>2020-03-03T11:29:45Z</time>
      </trkpt>
      <trkpt lat="46.69304" lon="5.63433">
        <ele>513.5</ele>
        <time>2020-03-03T11:29:50Z</time>
      </trkpt>
      <trkpt lat="46.69309" lon="5.63433">
        <ele>513.4</ele>
        <time>2020-03-03T11:29:54Z</time>
      </trkpt>
      <trkpt lat="46.69313" lon="5.63433">
        <ele>513.5</ele>
        <time>2020-03-03T11:29:59Z</time>
      </trkpt>
      <trkpt lat="46.69318" lon="5.6343">
        <ele>513.3</ele>
        <time>2020-03-03T11:30:07Z</time>
      </trkpt>
      <trkpt lat="46.69318" lon="5.63424">
        <ele>513.2</ele>
        <time>2020-03-03T11:30:13Z</time>
      </trkpt>
      <trkpt lat="46.69315" lon="5.63416">
        <ele>513.2</ele>
        <time>2020-03-03T11:30:17Z</time>
      </trkpt>
      <trkpt lat="46.69311" lon="5.63412">
        <ele>513.1</ele>
        <time>2020-03-03T11:30:21Z</time>
      </trkpt>
      <trkpt lat="46.69306" lon="5.63409">
        <ele>513.2</ele>
        <time>2020-03-03T11:30:26Z</time>
      </trkpt>
      <trkpt lat="46.69303" lon="5.63405">
        <ele>513.1</ele>
        <time>2020-03-03T11:30:31Z</time>
      </trkpt>
      <trkpt lat="46.69299" lon="5.63401">
        <ele>512.7</ele>
        <time>2020-03-03T11:30:39Z</time>
      </trkpt>
      <trkpt lat="46.69294" lon="5.63397">
        <ele>512.5</ele>
        <time>2020-03-03T11:30:44Z</time>
      </trkpt>
      <trkpt lat="46.6929" lon="5.63393">
        <ele>512.4</ele>
        <time>2020-03-03T11:30:48Z</time>
      </trkpt>
      <trkpt lat="46.69286" lon="5.63388">
        <ele>512.1</ele>
        <time>2020-03-03T11:30:54Z</time>
      </trkpt>
      <trkpt lat="46.69282" lon="5.63384">
        <ele>511.6</ele>
        <time>2020-03-03T11:31:00Z</time>
      </trkpt>
      <trkpt lat="46.69278" lon="5.63379">
        <ele>511</ele>
        <time>2020-03-03T11:31:06Z</time>
      </trkpt>
      <trkpt lat="46.69273" lon="5.63375">
        <ele>510.6</ele>
        <time>2020-03-03T11:31:11Z</time>
      </trkpt>
      <trkpt lat="46.6927" lon="5.63371">
        <ele>510.4</ele>
        <time>2020-03-03T11:31:16Z</time>
      </trkpt>
      <trkpt lat="46.69265" lon="5.63369">
        <ele>510.1</ele>
        <time>2020-03-03T11:31:21Z</time>
      </trkpt>
      <trkpt lat="46.69261" lon="5.63365">
        <ele>509.9</ele>
        <time>2020-03-03T11:31:26Z</time>
      </trkpt>
      <trkpt lat="46.69257" lon="5.6336">
        <ele>509.5</ele>
        <time>2020-03-03T11:31:32Z</time>
      </trkpt>
      <trkpt lat="46.69252" lon="5.63359">
        <ele>509.3</ele>
        <time>2020-03-03T11:31:37Z</time>
      </trkpt>
      <trkpt lat="46.69246" lon="5.63358">
        <ele>509.2</ele>
        <time>2020-03-03T11:31:41Z</time>
      </trkpt>
      <trkpt lat="46.69242" lon="5.63355">
        <ele>509.1</ele>
        <time>2020-03-03T11:31:45Z</time>
      </trkpt>
      <trkpt lat="46.69237" lon="5.63352">
        <ele>509.1</ele>
        <time>2020-03-03T11:31:48Z</time>
      </trkpt>
      <trkpt lat="46.69233" lon="5.63349">
        <ele>509.1</ele>
        <time>2020-03-03T11:31:52Z</time>
      </trkpt>
      <trkpt lat="46.69228" lon="5.63347">
        <ele>509</ele>
        <time>2020-03-03T11:31:56Z</time>
      </trkpt>
      <trkpt lat="46.69223" lon="5.63348">
        <ele>509.2</ele>
        <time>2020-03-03T11:32:00Z</time>
      </trkpt>
      <trkpt lat="46.69218" lon="5.63347">
        <ele>509.4</ele>
        <time>2020-03-03T11:32:04Z</time>
      </trkpt>
      <trkpt lat="46.69213" lon="5.63344">
        <ele>509.6</ele>
        <time>2020-03-03T11:32:09Z</time>
      </trkpt>
      <trkpt lat="46.69208" lon="5.63344">
        <ele>509.7</ele>
        <time>2020-03-03T11:32:13Z</time>
      </trkpt>
      <trkpt lat="46.69203" lon="5.63343">
        <ele>509.9</ele>
        <time>2020-03-03T11:32:17Z</time>
      </trkpt>
      <trkpt lat="46.69197" lon="5.63341">
        <ele>510.2</ele>
        <time>2020-03-03T11:32:23Z</time>
      </trkpt>
      <trkpt lat="46.69191" lon="5.63339">
        <ele>510.4</ele>
        <time>2020-03-03T11:32:26Z</time>
      </trkpt>
      <trkpt lat="46.69186" lon="5.63339">
        <ele>510.7</ele>
        <time>2020-03-03T11:32:31Z</time>
      </trkpt>
      <trkpt lat="46.69182" lon="5.63338">
        <ele>511.2</ele>
        <time>2020-03-03T11:32:36Z</time>
      </trkpt>
      <trkpt lat="46.69177" lon="5.63336">
        <ele>511.4</ele>
        <time>2020-03-03T11:32:45Z</time>
      </trkpt>
      <trkpt lat="46.69172" lon="5.63335">
        <ele>511.7</ele>
        <time>2020-03-03T11:32:51Z</time>
      </trkpt>
      <trkpt lat="46.69167" lon="5.63333">
        <ele>512.4</ele>
        <time>2020-03-03T11:32:57Z</time>
      </trkpt>
      <trkpt lat="46.69162" lon="5.63331">
        <ele>513.2</ele>
        <time>2020-03-03T11:33:02Z</time>
      </trkpt>
      <trkpt lat="46.69158" lon="5.6333">
        <ele>514.5</ele>
        <time>2020-03-03T11:33:08Z</time>
      </trkpt>
      <trkpt lat="46.69152" lon="5.6333">
        <ele>516.4</ele>
        <time>2020-03-03T11:33:14Z</time>
      </trkpt>
      <trkpt lat="46.69148" lon="5.63329">
        <ele>517.8</ele>
        <time>2020-03-03T11:33:18Z</time>
      </trkpt>
      <trkpt lat="46.69143" lon="5.63327">
        <ele>519.5</ele>
        <time>2020-03-03T11:33:23Z</time>
      </trkpt>
      <trkpt lat="46.69138" lon="5.63325">
        <ele>521.7</ele>
        <time>2020-03-03T11:33:29Z</time>
      </trkpt>
      <trkpt lat="46.69134" lon="5.63324">
        <ele>523.7</ele>
        <time>2020-03-03T11:33:35Z</time>
      </trkpt>
      <trkpt lat="46.69129" lon="5.63324">
        <ele>525.9</ele>
        <time>2020-03-03T11:33:42Z</time>
      </trkpt>
      <trkpt lat="46.69124" lon="5.63324">
        <ele>527.2</ele>
        <time>2020-03-03T11:33:50Z</time>
      </trkpt>
      <trkpt lat="46.69119" lon="5.63322">
        <ele>527.6</ele>
        <time>2020-03-03T11:33:55Z</time>
      </trkpt>
      <trkpt lat="46.69114" lon="5.6332">
        <ele>528</ele>
        <time>2020-03-03T11:34:00Z</time>
      </trkpt>
      <trkpt lat="46.69109" lon="5.63319">
        <ele>528.1</ele>
        <time>2020-03-03T11:34:04Z</time>
      </trkpt>
      <trkpt lat="46.69104" lon="5.63316">
        <ele>527.9</ele>
        <time>2020-03-03T11:34:07Z</time>
      </trkpt>
      <trkpt lat="46.69099" lon="5.63314">
        <ele>527.7</ele>
        <time>2020-03-03T11:34:10Z</time>
      </trkpt>
      <trkpt lat="46.69094" lon="5.63311">
        <ele>527.6</ele>
        <time>2020-03-03T11:34:13Z</time>
      </trkpt>
      <trkpt lat="46.69089" lon="5.63308">
        <ele>527.5</ele>
        <time>2020-03-03T11:34:15Z</time>
      </trkpt>
      <trkpt lat="46.69084" lon="5.63306">
        <ele>527.4</ele>
        <time>2020-03-03T11:34:17Z</time>
      </trkpt>
      <trkpt lat="46.69078" lon="5.63303">
        <ele>527.2</ele>
        <time>2020-03-03T11:34:20Z</time>
      </trkpt>
      <trkpt lat="46.69073" lon="5.63301">
        <ele>526.9</ele>
        <time>2020-03-03T11:34:24Z</time>
      </trkpt>
      <trkpt lat="46.69068" lon="5.63299">
        <ele>526.3</ele>
        <time>2020-03-03T11:34:28Z</time>
      </trkpt>
      <trkpt lat="46.69064" lon="5.63299">
        <ele>525.5</ele>
        <time>2020-03-03T11:34:33Z</time>
      </trkpt>
      <trkpt lat="46.69059" lon="5.63297">
        <ele>525</ele>
        <time>2020-03-03T11:34:38Z</time>
      </trkpt>
      <trkpt lat="46.69054" lon="5.63295">
        <ele>524.7</ele>
        <time>2020-03-03T11:34:42Z</time>
      </trkpt>
      <trkpt lat="46.6905" lon="5.63292">
        <ele>524.5</ele>
        <time>2020-03-03T11:34:47Z</time>
      </trkpt>
      <trkpt lat="46.69046" lon="5.63288">
        <ele>524.4</ele>
        <time>2020-03-03T11:34:51Z</time>
      </trkpt>
      <trkpt lat="46.69041" lon="5.63283">
        <ele>524.4</ele>
        <time>2020-03-03T11:34:56Z</time>
      </trkpt>
      <trkpt lat="46.69037" lon="5.63281">
        <ele>524.6</ele>
        <time>2020-03-03T11:35:00Z</time>
      </trkpt>
      <trkpt lat="46.69031" lon="5.63281">
        <ele>525</ele>
        <time>2020-03-03T11:35:05Z</time>
      </trkpt>
      <trkpt lat="46.69026" lon="5.6328">
        <ele>525.5</ele>
        <time>2020-03-03T11:35:11Z</time>
      </trkpt>
      <trkpt lat="46.69023" lon="5.63275">
        <ele>526.5</ele>
        <time>2020-03-03T11:35:17Z</time>
      </trkpt>
      <trkpt lat="46.69018" lon="5.63269">
        <ele>527.4</ele>
        <time>2020-03-03T11:35:22Z</time>
      </trkpt>
      <trkpt lat="46.69014" lon="5.63264">
        <ele>528.1</ele>
        <time>2020-03-03T11:35:27Z</time>
      </trkpt>
      <trkpt lat="46.69012" lon="5.63259">
        <ele>528.1</ele>
        <time>2020-03-03T11:35:31Z</time>
      </trkpt>
      <trkpt lat="46.69009" lon="5.63253">
        <ele>527.9</ele>
        <time>2020-03-03T11:35:35Z</time>
      </trkpt>
      <trkpt lat="46.69006" lon="5.63247">
        <ele>527</ele>
        <time>2020-03-03T11:35:43Z</time>
      </trkpt>
      <trkpt lat="46.69001" lon="5.63244">
        <ele>526.5</ele>
        <time>2020-03-03T11:35:47Z</time>
      </trkpt>
      <trkpt lat="46.68997" lon="5.6324">
        <ele>526.1</ele>
        <time>2020-03-03T11:35:51Z</time>
      </trkpt>
      <trkpt lat="46.68992" lon="5.63237">
        <ele>525.8</ele>
        <time>2020-03-03T11:35:54Z</time>
      </trkpt>
      <trkpt lat="46.68987" lon="5.63232">
        <ele>525.4</ele>
        <time>2020-03-03T11:35:58Z</time>
      </trkpt>
      <trkpt lat="46.68984" lon="5.63229">
        <ele>524.9</ele>
        <time>2020-03-03T11:36:03Z</time>
      </trkpt>
      <trkpt lat="46.68979" lon="5.63225">
        <ele>524.7</ele>
        <time>2020-03-03T11:36:09Z</time>
      </trkpt>
      <trkpt lat="46.68975" lon="5.63222">
        <ele>524.9</ele>
        <time>2020-03-03T11:36:14Z</time>
      </trkpt>
      <trkpt lat="46.6897" lon="5.6322">
        <ele>525.1</ele>
        <time>2020-03-03T11:36:19Z</time>
      </trkpt>
      <trkpt lat="46.68965" lon="5.63217">
        <ele>525.3</ele>
        <time>2020-03-03T11:36:23Z</time>
      </trkpt>
      <trkpt lat="46.68961" lon="5.63215">
        <ele>525.4</ele>
        <time>2020-03-03T11:36:27Z</time>
      </trkpt>
      <trkpt lat="46.68956" lon="5.63212">
        <ele>525.3</ele>
        <time>2020-03-03T11:36:31Z</time>
      </trkpt>
      <trkpt lat="46.68952" lon="5.6321">
        <ele>525.3</ele>
        <time>2020-03-03T11:36:36Z</time>
      </trkpt>
      <trkpt lat="46.68947" lon="5.63207">
        <ele>525.3</ele>
        <time>2020-03-03T11:36:40Z</time>
      </trkpt>
      <trkpt lat="46.68942" lon="5.63205">
        <ele>525.4</ele>
        <time>2020-03-03T11:36:44Z</time>
      </trkpt>
      <trkpt lat="46.68938" lon="5.63204">
        <ele>525.5</ele>
        <time>2020-03-03T11:36:48Z</time>
      </trkpt>
      <trkpt lat="46.68934" lon="5.63201">
        <ele>525.6</ele>
        <time>2020-03-03T11:36:52Z</time>
      </trkpt>
      <trkpt lat="46.68928" lon="5.63198">
        <ele>525.6</ele>
        <time>2020-03-03T11:36:56Z</time>
      </trkpt>
      <trkpt lat="46.68922" lon="5.63196">
        <ele>525.7</ele>
        <time>2020-03-03T11:37:00Z</time>
      </trkpt>
      <trkpt lat="46.68917" lon="5.63195">
        <ele>525.8</ele>
        <time>2020-03-03T11:37:04Z</time>
      </trkpt>
      <trkpt lat="46.68913" lon="5.63194">
        <ele>525.6</ele>
        <time>2020-03-03T11:37:09Z</time>
      </trkpt>
      <trkpt lat="46.68908" lon="5.63192">
        <ele>525.5</ele>
        <time>2020-03-03T11:37:15Z</time>
      </trkpt>
      <trkpt lat="46.68903" lon="5.63189">
        <ele>525.3</ele>
        <time>2020-03-03T11:37:21Z</time>
      </trkpt>
      <trkpt lat="46.68898" lon="5.63188">
        <ele>525.8</ele>
        <time>2020-03-03T11:37:28Z</time>
      </trkpt>
      <trkpt lat="46.68894" lon="5.63186">
        <ele>526.5</ele>
        <time>2020-03-03T11:37:33Z</time>
      </trkpt>
      <trkpt lat="46.68889" lon="5.63184">
        <ele>527</ele>
        <time>2020-03-03T11:37:37Z</time>
      </trkpt>
      <trkpt lat="46.68884" lon="5.63182">
        <ele>527.4</ele>
        <time>2020-03-03T11:37:40Z</time>
      </trkpt>
      <trkpt lat="46.68879" lon="5.6318">
        <ele>527.9</ele>
        <time>2020-03-03T11:37:44Z</time>
      </trkpt>
      <trkpt lat="46.68875" lon="5.63177">
        <ele>528.4</ele>
        <time>2020-03-03T11:37:49Z</time>
      </trkpt>
      <trkpt lat="46.6887" lon="5.63174">
        <ele>528.4</ele>
        <time>2020-03-03T11:37:54Z</time>
      </trkpt>
      <trkpt lat="46.68865" lon="5.63172">
        <ele>527.8</ele>
        <time>2020-03-03T11:38:00Z</time>
      </trkpt>
      <trkpt lat="46.6886" lon="5.63168">
        <ele>527.2</ele>
        <time>2020-03-03T11:38:05Z</time>
      </trkpt>
      <trkpt lat="46.68856" lon="5.63164">
        <ele>526.7</ele>
        <time>2020-03-03T11:38:10Z</time>
      </trkpt>
      <trkpt lat="46.68851" lon="5.6316">
        <ele>526.3</ele>
        <time>2020-03-03T11:38:15Z</time>
      </trkpt>
      <trkpt lat="46.68846" lon="5.63157">
        <ele>526</ele>
        <time>2020-03-03T11:38:19Z</time>
      </trkpt>
      <trkpt lat="46.68842" lon="5.63153">
        <ele>525.8</ele>
        <time>2020-03-03T11:38:22Z</time>
      </trkpt>
      <trkpt lat="46.68838" lon="5.63149">
        <ele>525.8</ele>
        <time>2020-03-03T11:38:27Z</time>
      </trkpt>
      <trkpt lat="46.68833" lon="5.63146">
        <ele>526.1</ele>
        <time>2020-03-03T11:38:32Z</time>
      </trkpt>
      <trkpt lat="46.68828" lon="5.63144">
        <ele>526.5</ele>
        <time>2020-03-03T11:38:37Z</time>
      </trkpt>
      <trkpt lat="46.68822" lon="5.63145">
        <ele>526.8</ele>
        <time>2020-03-03T11:38:43Z</time>
      </trkpt>
      <trkpt lat="46.68818" lon="5.63143">
        <ele>526.9</ele>
        <time>2020-03-03T11:38:47Z</time>
      </trkpt>
      <trkpt lat="46.68814" lon="5.6314">
        <ele>526.8</ele>
        <time>2020-03-03T11:38:49Z</time>
      </trkpt>
      <trkpt lat="46.6881" lon="5.63137">
        <ele>526.8</ele>
        <time>2020-03-03T11:38:51Z</time>
      </trkpt>
      <trkpt lat="46.68805" lon="5.63134">
        <ele>526.7</ele>
        <time>2020-03-03T11:38:54Z</time>
      </trkpt>
      <trkpt lat="46.688" lon="5.63134">
        <ele>526.9</ele>
        <time>2020-03-03T11:39:00Z</time>
      </trkpt>
      <trkpt lat="46.68795" lon="5.63132">
        <ele>527.1</ele>
        <time>2020-03-03T11:39:05Z</time>
      </trkpt>
      <trkpt lat="46.68791" lon="5.63129">
        <ele>527.2</ele>
        <time>2020-03-03T11:39:08Z</time>
      </trkpt>
      <trkpt lat="46.68786" lon="5.63128">
        <ele>527.2</ele>
        <time>2020-03-03T11:39:11Z</time>
      </trkpt>
      <trkpt lat="46.68781" lon="5.63128">
        <ele>527.1</ele>
        <time>2020-03-03T11:39:15Z</time>
      </trkpt>
      <trkpt lat="46.68777" lon="5.63126">
        <ele>526.9</ele>
        <time>2020-03-03T11:39:20Z</time>
      </trkpt>
      <trkpt lat="46.68771" lon="5.63126">
        <ele>526.8</ele>
        <time>2020-03-03T11:39:26Z</time>
      </trkpt>
      <trkpt lat="46.68767" lon="5.63126">
        <ele>526.8</ele>
        <time>2020-03-03T11:39:30Z</time>
      </trkpt>
      <trkpt lat="46.68762" lon="5.63126">
        <ele>526.8</ele>
        <time>2020-03-03T11:39:34Z</time>
      </trkpt>
      <trkpt lat="46.68757" lon="5.63125">
        <ele>526.8</ele>
        <time>2020-03-03T11:39:37Z</time>
      </trkpt>
      <trkpt lat="46.68752" lon="5.63125">
        <ele>526.6</ele>
        <time>2020-03-03T11:39:41Z</time>
      </trkpt>
      <trkpt lat="46.68747" lon="5.63124">
        <ele>526.4</ele>
        <time>2020-03-03T11:39:47Z</time>
      </trkpt>
      <trkpt lat="46.68742" lon="5.63124">
        <ele>526.8</ele>
        <time>2020-03-03T11:39:54Z</time>
      </trkpt>
      <trkpt lat="46.68737" lon="5.63124">
        <ele>527.2</ele>
        <time>2020-03-03T11:39:58Z</time>
      </trkpt>
      <trkpt lat="46.68732" lon="5.63123">
        <ele>527.8</ele>
        <time>2020-03-03T11:40:02Z</time>
      </trkpt>
      <trkpt lat="46.68728" lon="5.63121">
        <ele>528.2</ele>
        <time>2020-03-03T11:40:06Z</time>
      </trkpt>
      <trkpt lat="46.68723" lon="5.6312">
        <ele>528.5</ele>
        <time>2020-03-03T11:40:10Z</time>
      </trkpt>
      <trkpt lat="46.68718" lon="5.6312">
        <ele>528.4</ele>
        <time>2020-03-03T11:40:17Z</time>
      </trkpt>
      <trkpt lat="46.68713" lon="5.63117">
        <ele>528.1</ele>
        <time>2020-03-03T11:40:22Z</time>
      </trkpt>
      <trkpt lat="46.68709" lon="5.63115">
        <ele>527.8</ele>
        <time>2020-03-03T11:40:26Z</time>
      </trkpt>
      <trkpt lat="46.68704" lon="5.63112">
        <ele>527.7</ele>
        <time>2020-03-03T11:40:30Z</time>
      </trkpt>
      <trkpt lat="46.687" lon="5.63108">
        <ele>527.7</ele>
        <time>2020-03-03T11:40:34Z</time>
      </trkpt>
      <trkpt lat="46.68695" lon="5.63107">
        <ele>528</ele>
        <time>2020-03-03T11:40:40Z</time>
      </trkpt>
      <trkpt lat="46.68691" lon="5.63104">
        <ele>528.3</ele>
        <time>2020-03-03T11:40:45Z</time>
      </trkpt>
      <trkpt lat="46.68686" lon="5.631">
        <ele>528.8</ele>
        <time>2020-03-03T11:40:50Z</time>
      </trkpt>
      <trkpt lat="46.68682" lon="5.63096">
        <ele>529.3</ele>
        <time>2020-03-03T11:40:54Z</time>
      </trkpt>
      <trkpt lat="46.68678" lon="5.63092">
        <ele>529.8</ele>
        <time>2020-03-03T11:40:58Z</time>
      </trkpt>
      <trkpt lat="46.68674" lon="5.63087">
        <ele>530.2</ele>
        <time>2020-03-03T11:41:03Z</time>
      </trkpt>
      <trkpt lat="46.6867" lon="5.63082">
        <ele>530.6</ele>
        <time>2020-03-03T11:41:09Z</time>
      </trkpt>
      <trkpt lat="46.68666" lon="5.63077">
        <ele>530.8</ele>
        <time>2020-03-03T11:41:14Z</time>
      </trkpt>
      <trkpt lat="46.68662" lon="5.63072">
        <ele>530.9</ele>
        <time>2020-03-03T11:41:19Z</time>
      </trkpt>
      <trkpt lat="46.68658" lon="5.63067">
        <ele>531</ele>
        <time>2020-03-03T11:41:24Z</time>
      </trkpt>
      <trkpt lat="46.68655" lon="5.63062">
        <ele>531.2</ele>
        <time>2020-03-03T11:41:29Z</time>
      </trkpt>
      <trkpt lat="46.68651" lon="5.63057">
        <ele>531.4</ele>
        <time>2020-03-03T11:41:33Z</time>
      </trkpt>
      <trkpt lat="46.68647" lon="5.63051">
        <ele>531.6</ele>
        <time>2020-03-03T11:41:38Z</time>
      </trkpt>
      <trkpt lat="46.68643" lon="5.63047">
        <ele>531.9</ele>
        <time>2020-03-03T11:41:43Z</time>
      </trkpt>
      <trkpt lat="46.68639" lon="5.6304">
        <ele>532.3</ele>
        <time>2020-03-03T11:41:48Z</time>
      </trkpt>
      <trkpt lat="46.68636" lon="5.63035">
        <ele>532.7</ele>
        <time>2020-03-03T11:41:53Z</time>
      </trkpt>
      <trkpt lat="46.68634" lon="5.63028">
        <ele>533.1</ele>
        <time>2020-03-03T11:42:00Z</time>
      </trkpt>
      <trkpt lat="46.68631" lon="5.63022">
        <ele>533.2</ele>
        <time>2020-03-03T11:42:04Z</time>
      </trkpt>
      <trkpt lat="46.68629" lon="5.63015">
        <ele>533.3</ele>
        <time>2020-03-03T11:42:10Z</time>
      </trkpt>
      <trkpt lat="46.68627" lon="5.63009">
        <ele>533.5</ele>
        <time>2020-03-03T11:42:14Z</time>
      </trkpt>
      <trkpt lat="46.68626" lon="5.63002">
        <ele>533.8</ele>
        <time>2020-03-03T11:42:20Z</time>
      </trkpt>
      <trkpt lat="46.68626" lon="5.62995">
        <ele>534.2</ele>
        <time>2020-03-03T11:42:24Z</time>
      </trkpt>
      <trkpt lat="46.68623" lon="5.62988">
        <ele>534.7</ele>
        <time>2020-03-03T11:42:30Z</time>
      </trkpt>
      <trkpt lat="46.68621" lon="5.62981">
        <ele>534.8</ele>
        <time>2020-03-03T11:42:35Z</time>
      </trkpt>
      <trkpt lat="46.68619" lon="5.62973">
        <ele>534.7</ele>
        <time>2020-03-03T11:42:39Z</time>
      </trkpt>
      <trkpt lat="46.68616" lon="5.62968">
        <ele>534.5</ele>
        <time>2020-03-03T11:42:43Z</time>
      </trkpt>
      <trkpt lat="46.68613" lon="5.62962">
        <ele>534.5</ele>
        <time>2020-03-03T11:42:48Z</time>
      </trkpt>
      <trkpt lat="46.68611" lon="5.62956">
        <ele>534.8</ele>
        <time>2020-03-03T11:42:52Z</time>
      </trkpt>
      <trkpt lat="46.68609" lon="5.6295">
        <ele>535.2</ele>
        <time>2020-03-03T11:42:56Z</time>
      </trkpt>
      <trkpt lat="46.68607" lon="5.62942">
        <ele>535.6</ele>
        <time>2020-03-03T11:43:00Z</time>
      </trkpt>
      <trkpt lat="46.68605" lon="5.62935">
        <ele>536.1</ele>
        <time>2020-03-03T11:43:04Z</time>
      </trkpt>
      <trkpt lat="46.68603" lon="5.62928">
        <ele>536.5</ele>
        <time>2020-03-03T11:43:08Z</time>
      </trkpt>
      <trkpt lat="46.68602" lon="5.62921">
        <ele>537</ele>
        <time>2020-03-03T11:43:13Z</time>
      </trkpt>
      <trkpt lat="46.68599" lon="5.62916">
        <ele>537.2</ele>
        <time>2020-03-03T11:43:17Z</time>
      </trkpt>
      <trkpt lat="46.68596" lon="5.6291">
        <ele>537.4</ele>
        <time>2020-03-03T11:43:23Z</time>
      </trkpt>
      <trkpt lat="46.68593" lon="5.62905">
        <ele>537.6</ele>
        <time>2020-03-03T11:43:27Z</time>
      </trkpt>
      <trkpt lat="46.68591" lon="5.629">
        <ele>537.8</ele>
        <time>2020-03-03T11:43:31Z</time>
      </trkpt>
      <trkpt lat="46.68588" lon="5.62894">
        <ele>538</ele>
        <time>2020-03-03T11:43:35Z</time>
      </trkpt>
      <trkpt lat="46.68584" lon="5.62888">
        <ele>538.2</ele>
        <time>2020-03-03T11:43:40Z</time>
      </trkpt>
      <trkpt lat="46.6858" lon="5.62884">
        <ele>538.6</ele>
        <time>2020-03-03T11:43:44Z</time>
      </trkpt>
      <trkpt lat="46.68577" lon="5.62879">
        <ele>539</ele>
        <time>2020-03-03T11:43:47Z</time>
      </trkpt>
      <trkpt lat="46.68572" lon="5.62874">
        <ele>539.3</ele>
        <time>2020-03-03T11:43:51Z</time>
      </trkpt>
      <trkpt lat="46.68568" lon="5.6287">
        <ele>539.5</ele>
        <time>2020-03-03T11:43:56Z</time>
      </trkpt>
      <trkpt lat="46.68564" lon="5.62867">
        <ele>539.5</ele>
        <time>2020-03-03T11:44:01Z</time>
      </trkpt>
      <trkpt lat="46.68559" lon="5.62864">
        <ele>539.4</ele>
        <time>2020-03-03T11:44:07Z</time>
      </trkpt>
      <trkpt lat="46.68556" lon="5.62859">
        <ele>539.1</ele>
        <time>2020-03-03T11:44:12Z</time>
      </trkpt>
      <trkpt lat="46.68552" lon="5.62855">
        <ele>538.6</ele>
        <time>2020-03-03T11:44:17Z</time>
      </trkpt>
      <trkpt lat="46.68547" lon="5.62851">
        <ele>538.1</ele>
        <time>2020-03-03T11:44:21Z</time>
      </trkpt>
      <trkpt lat="46.68542" lon="5.62849">
        <ele>537.8</ele>
        <time>2020-03-03T11:44:26Z</time>
      </trkpt>
      <trkpt lat="46.68538" lon="5.62846">
        <ele>537.7</ele>
        <time>2020-03-03T11:44:31Z</time>
      </trkpt>
      <trkpt lat="46.68536" lon="5.62839">
        <ele>537.7</ele>
        <time>2020-03-03T11:44:36Z</time>
      </trkpt>
      <trkpt lat="46.68538" lon="5.62833">
        <ele>537.6</ele>
        <time>2020-03-03T11:44:43Z</time>
      </trkpt>
      <trkpt lat="46.68541" lon="5.62827">
        <ele>537.6</ele>
        <time>2020-03-03T11:44:50Z</time>
      </trkpt>
      <trkpt lat="46.68542" lon="5.6282">
        <ele>537.5</ele>
        <time>2020-03-03T11:44:55Z</time>
      </trkpt>
      <trkpt lat="46.68544" lon="5.62814">
        <ele>537.4</ele>
        <time>2020-03-03T11:44:59Z</time>
      </trkpt>
      <trkpt lat="46.68547" lon="5.62808">
        <ele>537.4</ele>
        <time>2020-03-03T11:45:05Z</time>
      </trkpt>
      <trkpt lat="46.68548" lon="5.628">
        <ele>537.5</ele>
        <time>2020-03-03T11:45:09Z</time>
      </trkpt>
      <trkpt lat="46.6855" lon="5.62793">
        <ele>537.6</ele>
        <time>2020-03-03T11:45:14Z</time>
      </trkpt>
      <trkpt lat="46.6855" lon="5.62786">
        <ele>537.9</ele>
        <time>2020-03-03T11:45:21Z</time>
      </trkpt>
      <trkpt lat="46.68551" lon="5.62779">
        <ele>538</ele>
        <time>2020-03-03T11:45:26Z</time>
      </trkpt>
      <trkpt lat="46.68553" lon="5.62772">
        <ele>537.9</ele>
        <time>2020-03-03T11:45:30Z</time>
      </trkpt>
      <trkpt lat="46.68554" lon="5.62765">
        <ele>537.8</ele>
        <time>2020-03-03T11:45:35Z</time>
      </trkpt>
      <trkpt lat="46.68556" lon="5.62758">
        <ele>537.7</ele>
        <time>2020-03-03T11:45:40Z</time>
      </trkpt>
      <trkpt lat="46.68558" lon="5.62752">
        <ele>537.8</ele>
        <time>2020-03-03T11:45:46Z</time>
      </trkpt>
      <trkpt lat="46.68558" lon="5.62744">
        <ele>537.8</ele>
        <time>2020-03-03T11:45:51Z</time>
      </trkpt>
      <trkpt lat="46.6856" lon="5.62737">
        <ele>538</ele>
        <time>2020-03-03T11:45:56Z</time>
      </trkpt>
      <trkpt lat="46.68561" lon="5.6273">
        <ele>538.1</ele>
        <time>2020-03-03T11:45:59Z</time>
      </trkpt>
      <trkpt lat="46.68561" lon="5.62723">
        <ele>538</ele>
        <time>2020-03-03T11:46:03Z</time>
      </trkpt>
      <trkpt lat="46.68562" lon="5.62716">
        <ele>537.8</ele>
        <time>2020-03-03T11:46:09Z</time>
      </trkpt>
      <trkpt lat="46.68561" lon="5.62709">
        <ele>538</ele>
        <time>2020-03-03T11:46:15Z</time>
      </trkpt>
      <trkpt lat="46.68557" lon="5.62704">
        <ele>538.4</ele>
        <time>2020-03-03T11:46:23Z</time>
      </trkpt>
      <trkpt lat="46.68553" lon="5.62702">
        <ele>538.5</ele>
        <time>2020-03-03T11:46:29Z</time>
      </trkpt>
      <trkpt lat="46.68548" lon="5.62702">
        <ele>538.7</ele>
        <time>2020-03-03T11:46:35Z</time>
      </trkpt>
      <trkpt lat="46.68543" lon="5.627">
        <ele>538.9</ele>
        <time>2020-03-03T11:46:40Z</time>
      </trkpt>
      <trkpt lat="46.68538" lon="5.62699">
        <ele>538.9</ele>
        <time>2020-03-03T11:46:44Z</time>
      </trkpt>
      <trkpt lat="46.68533" lon="5.62699">
        <ele>538.8</ele>
        <time>2020-03-03T11:46:48Z</time>
      </trkpt>
      <trkpt lat="46.68528" lon="5.62698">
        <ele>538.4</ele>
        <time>2020-03-03T11:46:54Z</time>
      </trkpt>
      <trkpt lat="46.68523" lon="5.62696">
        <ele>538.4</ele>
        <time>2020-03-03T11:47:00Z</time>
      </trkpt>
      <trkpt lat="46.68518" lon="5.62694">
        <ele>538.6</ele>
        <time>2020-03-03T11:47:04Z</time>
      </trkpt>
      <trkpt lat="46.68513" lon="5.62692">
        <ele>538.9</ele>
        <time>2020-03-03T11:47:08Z</time>
      </trkpt>
      <trkpt lat="46.68508" lon="5.62694">
        <ele>539.5</ele>
        <time>2020-03-03T11:47:12Z</time>
      </trkpt>
      <trkpt lat="46.68504" lon="5.62695">
        <ele>539.9</ele>
        <time>2020-03-03T11:47:15Z</time>
      </trkpt>
      <trkpt lat="46.68499" lon="5.62693">
        <ele>540.6</ele>
        <time>2020-03-03T11:47:19Z</time>
      </trkpt>
      <trkpt lat="46.68494" lon="5.62692">
        <ele>541.1</ele>
        <time>2020-03-03T11:47:23Z</time>
      </trkpt>
      <trkpt lat="46.6849" lon="5.62693">
        <ele>541.9</ele>
        <time>2020-03-03T11:47:28Z</time>
      </trkpt>
      <trkpt lat="46.68485" lon="5.62692">
        <ele>543.5</ele>
        <time>2020-03-03T11:47:41Z</time>
      </trkpt>
      <trkpt lat="46.68482" lon="5.62686">
        <ele>544.5</ele>
        <time>2020-03-03T11:47:58Z</time>
      </trkpt>
      <trkpt lat="46.68479" lon="5.62681">
        <ele>544</ele>
        <time>2020-03-03T11:48:07Z</time>
      </trkpt>
      <trkpt lat="46.6847" lon="5.62692">
        <ele>552.3</ele>
        <time>2020-03-03T11:52:27Z</time>
      </trkpt>
      <trkpt lat="46.68465" lon="5.62694">
        <ele>552.1</ele>
        <time>2020-03-03T11:52:32Z</time>
      </trkpt>
      <trkpt lat="46.68461" lon="5.62696">
        <ele>552.1</ele>
        <time>2020-03-03T11:52:38Z</time>
      </trkpt>
      <trkpt lat="46.68456" lon="5.62697">
        <ele>552.2</ele>
        <time>2020-03-03T11:52:44Z</time>
      </trkpt>
      <trkpt lat="46.6845" lon="5.62698">
        <ele>552.2</ele>
        <time>2020-03-03T11:52:49Z</time>
      </trkpt>
      <trkpt lat="46.68445" lon="5.627">
        <ele>552</ele>
        <time>2020-03-03T11:52:54Z</time>
      </trkpt>
      <trkpt lat="46.6844" lon="5.62702">
        <ele>551.5</ele>
        <time>2020-03-03T11:53:02Z</time>
      </trkpt>
      <trkpt lat="46.68435" lon="5.62702">
        <ele>550.9</ele>
        <time>2020-03-03T11:53:07Z</time>
      </trkpt>
      <trkpt lat="46.6843" lon="5.62704">
        <ele>550</ele>
        <time>2020-03-03T11:53:14Z</time>
      </trkpt>
      <trkpt lat="46.68425" lon="5.62704">
        <ele>549.4</ele>
        <time>2020-03-03T11:53:19Z</time>
      </trkpt>
      <trkpt lat="46.6842" lon="5.62703">
        <ele>548.8</ele>
        <time>2020-03-03T11:53:23Z</time>
      </trkpt>
      <trkpt lat="46.68415" lon="5.62704">
        <ele>548.2</ele>
        <time>2020-03-03T11:53:27Z</time>
      </trkpt>
      <trkpt lat="46.6841" lon="5.62705">
        <ele>546.8</ele>
        <time>2020-03-03T11:53:35Z</time>
      </trkpt>
      <trkpt lat="46.68405" lon="5.62706">
        <ele>546</ele>
        <time>2020-03-03T11:53:41Z</time>
      </trkpt>
      <trkpt lat="46.68401" lon="5.62708">
        <ele>545.6</ele>
        <time>2020-03-03T11:53:45Z</time>
      </trkpt>
      <trkpt lat="46.68395" lon="5.62708">
        <ele>545.2</ele>
        <time>2020-03-03T11:53:49Z</time>
      </trkpt>
      <trkpt lat="46.6839" lon="5.62709">
        <ele>545</ele>
        <time>2020-03-03T11:53:52Z</time>
      </trkpt>
      <trkpt lat="46.68385" lon="5.62709">
        <ele>544.9</ele>
        <time>2020-03-03T11:53:56Z</time>
      </trkpt>
      <trkpt lat="46.6838" lon="5.6271">
        <ele>544.8</ele>
        <time>2020-03-03T11:54:01Z</time>
      </trkpt>
      <trkpt lat="46.68375" lon="5.6271">
        <ele>544.8</ele>
        <time>2020-03-03T11:54:05Z</time>
      </trkpt>
      <trkpt lat="46.68371" lon="5.62711">
        <ele>544.6</ele>
        <time>2020-03-03T11:54:11Z</time>
      </trkpt>
      <trkpt lat="46.68366" lon="5.6271">
        <ele>544.4</ele>
        <time>2020-03-03T11:54:16Z</time>
      </trkpt>
      <trkpt lat="46.6836" lon="5.62709">
        <ele>544.3</ele>
        <time>2020-03-03T11:54:21Z</time>
      </trkpt>
      <trkpt lat="46.68355" lon="5.62707">
        <ele>544.1</ele>
        <time>2020-03-03T11:54:26Z</time>
      </trkpt>
      <trkpt lat="46.6835" lon="5.62706">
        <ele>544</ele>
        <time>2020-03-03T11:54:33Z</time>
      </trkpt>
      <trkpt lat="46.68345" lon="5.62705">
        <ele>543.9</ele>
        <time>2020-03-03T11:54:38Z</time>
      </trkpt>
      <trkpt lat="46.6834" lon="5.62703">
        <ele>543.7</ele>
        <time>2020-03-03T11:54:43Z</time>
      </trkpt>
      <trkpt lat="46.68335" lon="5.62701">
        <ele>543.4</ele>
        <time>2020-03-03T11:54:46Z</time>
      </trkpt>
      <trkpt lat="46.6833" lon="5.62698">
        <ele>543</ele>
        <time>2020-03-03T11:54:50Z</time>
      </trkpt>
      <trkpt lat="46.68326" lon="5.62695">
        <ele>542.6</ele>
        <time>2020-03-03T11:54:55Z</time>
      </trkpt>
      <trkpt lat="46.68322" lon="5.62691">
        <ele>541.9</ele>
        <time>2020-03-03T11:55:01Z</time>
      </trkpt>
      <trkpt lat="46.68316" lon="5.62687">
        <ele>541.1</ele>
        <time>2020-03-03T11:55:06Z</time>
      </trkpt>
      <trkpt lat="46.68311" lon="5.62686">
        <ele>540.3</ele>
        <time>2020-03-03T11:55:11Z</time>
      </trkpt>
      <trkpt lat="46.68306" lon="5.62685">
        <ele>539.5</ele>
        <time>2020-03-03T11:55:15Z</time>
      </trkpt>
      <trkpt lat="46.68302" lon="5.62682">
        <ele>539.2</ele>
        <time>2020-03-03T11:55:19Z</time>
      </trkpt>
      <trkpt lat="46.68297" lon="5.6268">
        <ele>539.1</ele>
        <time>2020-03-03T11:55:23Z</time>
      </trkpt>
      <trkpt lat="46.68292" lon="5.62678">
        <ele>539</ele>
        <time>2020-03-03T11:55:28Z</time>
      </trkpt>
      <trkpt lat="46.68287" lon="5.62675">
        <ele>539</ele>
        <time>2020-03-03T11:55:32Z</time>
      </trkpt>
      <trkpt lat="46.68283" lon="5.62672">
        <ele>538.9</ele>
        <time>2020-03-03T11:55:37Z</time>
      </trkpt>
      <trkpt lat="46.68278" lon="5.6267">
        <ele>538.8</ele>
        <time>2020-03-03T11:55:42Z</time>
      </trkpt>
      <trkpt lat="46.68274" lon="5.62667">
        <ele>538.7</ele>
        <time>2020-03-03T11:55:46Z</time>
      </trkpt>
      <trkpt lat="46.6827" lon="5.62663">
        <ele>538.4</ele>
        <time>2020-03-03T11:55:51Z</time>
      </trkpt>
      <trkpt lat="46.68266" lon="5.62659">
        <ele>537.8</ele>
        <time>2020-03-03T11:55:55Z</time>
      </trkpt>
      <trkpt lat="46.68262" lon="5.62656">
        <ele>537</ele>
        <time>2020-03-03T11:56:00Z</time>
      </trkpt>
      <trkpt lat="46.68257" lon="5.62654">
        <ele>536.2</ele>
        <time>2020-03-03T11:56:04Z</time>
      </trkpt>
      <trkpt lat="46.68252" lon="5.62651">
        <ele>535.4</ele>
        <time>2020-03-03T11:56:08Z</time>
      </trkpt>
      <trkpt lat="46.68247" lon="5.62648">
        <ele>534.5</ele>
        <time>2020-03-03T11:56:15Z</time>
      </trkpt>
      <trkpt lat="46.68242" lon="5.62646">
        <ele>534.2</ele>
        <time>2020-03-03T11:56:19Z</time>
      </trkpt>
      <trkpt lat="46.68237" lon="5.62644">
        <ele>533.8</ele>
        <time>2020-03-03T11:56:23Z</time>
      </trkpt>
      <trkpt lat="46.68232" lon="5.62642">
        <ele>533.2</ele>
        <time>2020-03-03T11:56:28Z</time>
      </trkpt>
      <trkpt lat="46.68227" lon="5.62639">
        <ele>532.6</ele>
        <time>2020-03-03T11:56:32Z</time>
      </trkpt>
      <trkpt lat="46.68223" lon="5.62636">
        <ele>531.9</ele>
        <time>2020-03-03T11:56:37Z</time>
      </trkpt>
      <trkpt lat="46.68218" lon="5.62634">
        <ele>531.3</ele>
        <time>2020-03-03T11:56:41Z</time>
      </trkpt>
      <trkpt lat="46.68214" lon="5.62631">
        <ele>530.6</ele>
        <time>2020-03-03T11:56:46Z</time>
      </trkpt>
      <trkpt lat="46.6821" lon="5.62627">
        <ele>530.1</ele>
        <time>2020-03-03T11:56:50Z</time>
      </trkpt>
      <trkpt lat="46.68205" lon="5.62624">
        <ele>529.6</ele>
        <time>2020-03-03T11:56:55Z</time>
      </trkpt>
      <trkpt lat="46.68199" lon="5.62621">
        <ele>529.1</ele>
        <time>2020-03-03T11:57:00Z</time>
      </trkpt>
      <trkpt lat="46.68195" lon="5.6262">
        <ele>528.8</ele>
        <time>2020-03-03T11:57:04Z</time>
      </trkpt>
      <trkpt lat="46.6819" lon="5.62617">
        <ele>528.6</ele>
        <time>2020-03-03T11:57:09Z</time>
      </trkpt>
      <trkpt lat="46.68185" lon="5.62615">
        <ele>528.7</ele>
        <time>2020-03-03T11:57:14Z</time>
      </trkpt>
      <trkpt lat="46.6818" lon="5.62613">
        <ele>528.8</ele>
        <time>2020-03-03T11:57:18Z</time>
      </trkpt>
      <trkpt lat="46.68176" lon="5.6261">
        <ele>529</ele>
        <time>2020-03-03T11:57:22Z</time>
      </trkpt>
      <trkpt lat="46.68173" lon="5.62604">
        <ele>529.1</ele>
        <time>2020-03-03T11:57:27Z</time>
      </trkpt>
      <trkpt lat="46.68169" lon="5.626">
        <ele>529</ele>
        <time>2020-03-03T11:57:31Z</time>
      </trkpt>
      <trkpt lat="46.68164" lon="5.62596">
        <ele>528.8</ele>
        <time>2020-03-03T11:57:35Z</time>
      </trkpt>
      <trkpt lat="46.6816" lon="5.62592">
        <ele>528.5</ele>
        <time>2020-03-03T11:57:39Z</time>
      </trkpt>
      <trkpt lat="46.68156" lon="5.62586">
        <ele>528.1</ele>
        <time>2020-03-03T11:57:43Z</time>
      </trkpt>
      <trkpt lat="46.68154" lon="5.6258">
        <ele>527.7</ele>
        <time>2020-03-03T11:57:47Z</time>
      </trkpt>
      <trkpt lat="46.68151" lon="5.62575">
        <ele>527.3</ele>
        <time>2020-03-03T11:57:51Z</time>
      </trkpt>
      <trkpt lat="46.68148" lon="5.6257">
        <ele>526.9</ele>
        <time>2020-03-03T11:57:55Z</time>
      </trkpt>
      <trkpt lat="46.68145" lon="5.62563">
        <ele>526.2</ele>
        <time>2020-03-03T11:58:00Z</time>
      </trkpt>
      <trkpt lat="46.68142" lon="5.62557">
        <ele>525.7</ele>
        <time>2020-03-03T11:58:04Z</time>
      </trkpt>
      <trkpt lat="46.68139" lon="5.62551">
        <ele>525.3</ele>
        <time>2020-03-03T11:58:08Z</time>
      </trkpt>
      <trkpt lat="46.68135" lon="5.62546">
        <ele>524.9</ele>
        <time>2020-03-03T11:58:12Z</time>
      </trkpt>
      <trkpt lat="46.68131" lon="5.62542">
        <ele>524.5</ele>
        <time>2020-03-03T11:58:18Z</time>
      </trkpt>
      <trkpt lat="46.68128" lon="5.62538">
        <ele>524.1</ele>
        <time>2020-03-03T11:58:23Z</time>
      </trkpt>
      <trkpt lat="46.6813" lon="5.62531">
        <ele>523.9</ele>
        <time>2020-03-03T11:58:27Z</time>
      </trkpt>
      <trkpt lat="46.68134" lon="5.62527">
        <ele>523.9</ele>
        <time>2020-03-03T11:58:31Z</time>
      </trkpt>
      <trkpt lat="46.68139" lon="5.62528">
        <ele>524.1</ele>
        <time>2020-03-03T11:58:37Z</time>
      </trkpt>
      <trkpt lat="46.68144" lon="5.62528">
        <ele>524</ele>
        <time>2020-03-03T11:58:48Z</time>
      </trkpt>
      <trkpt lat="46.68144" lon="5.62531">
        <ele>523.8</ele>
        <time>2020-03-03T11:59:21Z</time>
      </trkpt>
      <trkpt lat="46.6814" lon="5.62535">
        <ele>523.8</ele>
        <time>2020-03-03T11:59:24Z</time>
      </trkpt>
      <trkpt lat="46.68133" lon="5.62536">
        <ele>523.8</ele>
        <time>2020-03-03T11:59:27Z</time>
      </trkpt>
      <trkpt lat="46.68127" lon="5.62533">
        <ele>523.7</ele>
        <time>2020-03-03T11:59:29Z</time>
      </trkpt>
      <trkpt lat="46.68122" lon="5.6253">
        <ele>523.6</ele>
        <time>2020-03-03T11:59:31Z</time>
      </trkpt>
      <trkpt lat="46.68117" lon="5.62528">
        <ele>523.3</ele>
        <time>2020-03-03T11:59:34Z</time>
      </trkpt>
      <trkpt lat="46.68112" lon="5.62524">
        <ele>522.9</ele>
        <time>2020-03-03T11:59:37Z</time>
      </trkpt>
      <trkpt lat="46.68108" lon="5.62521">
        <ele>522.4</ele>
        <time>2020-03-03T11:59:40Z</time>
      </trkpt>
      <trkpt lat="46.68105" lon="5.62517">
        <ele>521.6</ele>
        <time>2020-03-03T11:59:44Z</time>
      </trkpt>
      <trkpt lat="46.68101" lon="5.62512">
        <ele>520.7</ele>
        <time>2020-03-03T11:59:48Z</time>
      </trkpt>
      <trkpt lat="46.68096" lon="5.62507">
        <ele>519.6</ele>
        <time>2020-03-03T11:59:52Z</time>
      </trkpt>
      <trkpt lat="46.68092" lon="5.62503">
        <ele>518.4</ele>
        <time>2020-03-03T11:59:56Z</time>
      </trkpt>
      <trkpt lat="46.68087" lon="5.62502">
        <ele>517.4</ele>
        <time>2020-03-03T12:00:00Z</time>
      </trkpt>
      <trkpt lat="46.68081" lon="5.62501">
        <ele>516.6</ele>
        <time>2020-03-03T12:00:04Z</time>
      </trkpt>
      <trkpt lat="46.68075" lon="5.62499">
        <ele>516.2</ele>
        <time>2020-03-03T12:00:07Z</time>
      </trkpt>
      <trkpt lat="46.6807" lon="5.625">
        <ele>515.9</ele>
        <time>2020-03-03T12:00:10Z</time>
      </trkpt>
      <trkpt lat="46.68064" lon="5.625">
        <ele>515.8</ele>
        <time>2020-03-03T12:00:14Z</time>
      </trkpt>
      <trkpt lat="46.68059" lon="5.62499">
        <ele>515.9</ele>
        <time>2020-03-03T12:00:18Z</time>
      </trkpt>
      <trkpt lat="46.68046" lon="5.62493">
        <ele>516.2</ele>
        <time>2020-03-03T12:00:29Z</time>
      </trkpt>
      <trkpt lat="46.68042" lon="5.62492">
        <ele>516.4</ele>
        <time>2020-03-03T12:00:33Z</time>
      </trkpt>
      <trkpt lat="46.68038" lon="5.6249">
        <ele>516.6</ele>
        <time>2020-03-03T12:00:36Z</time>
      </trkpt>
      <trkpt lat="46.68033" lon="5.62487">
        <ele>517</ele>
        <time>2020-03-03T12:00:40Z</time>
      </trkpt>
      <trkpt lat="46.68028" lon="5.62485">
        <ele>517.4</ele>
        <time>2020-03-03T12:00:44Z</time>
      </trkpt>
      <trkpt lat="46.68023" lon="5.62483">
        <ele>518</ele>
        <time>2020-03-03T12:00:48Z</time>
      </trkpt>
      <trkpt lat="46.68018" lon="5.62482">
        <ele>518.5</ele>
        <time>2020-03-03T12:00:52Z</time>
      </trkpt>
      <trkpt lat="46.68013" lon="5.62481">
        <ele>518.9</ele>
        <time>2020-03-03T12:00:55Z</time>
      </trkpt>
      <trkpt lat="46.68007" lon="5.62479">
        <ele>519.5</ele>
        <time>2020-03-03T12:00:58Z</time>
      </trkpt>
      <trkpt lat="46.68" lon="5.62476">
        <ele>520</ele>
        <time>2020-03-03T12:01:01Z</time>
      </trkpt>
      <trkpt lat="46.67996" lon="5.62473">
        <ele>520.4</ele>
        <time>2020-03-03T12:01:03Z</time>
      </trkpt>
      <trkpt lat="46.67991" lon="5.62469">
        <ele>521.1</ele>
        <time>2020-03-03T12:01:06Z</time>
      </trkpt>
      <trkpt lat="46.67986" lon="5.62467">
        <ele>521.9</ele>
        <time>2020-03-03T12:01:10Z</time>
      </trkpt>
      <trkpt lat="46.67981" lon="5.62464">
        <ele>522.6</ele>
        <time>2020-03-03T12:01:14Z</time>
      </trkpt>
      <trkpt lat="46.67977" lon="5.62461">
        <ele>523.2</ele>
        <time>2020-03-03T12:01:18Z</time>
      </trkpt>
      <trkpt lat="46.67971" lon="5.62459">
        <ele>523.8</ele>
        <time>2020-03-03T12:01:22Z</time>
      </trkpt>
      <trkpt lat="46.67967" lon="5.62455">
        <ele>524.2</ele>
        <time>2020-03-03T12:01:25Z</time>
      </trkpt>
      <trkpt lat="46.67962" lon="5.62453">
        <ele>524.9</ele>
        <time>2020-03-03T12:01:30Z</time>
      </trkpt>
      <trkpt lat="46.6796" lon="5.62458">
        <ele>525.8</ele>
        <time>2020-03-03T12:01:37Z</time>
      </trkpt>
      <trkpt lat="46.67957" lon="5.62465">
        <ele>526.4</ele>
        <time>2020-03-03T12:01:43Z</time>
      </trkpt>
      <trkpt lat="46.67952" lon="5.62471">
        <ele>526.6</ele>
        <time>2020-03-03T12:01:48Z</time>
      </trkpt>
      <trkpt lat="46.67948" lon="5.62476">
        <ele>526.8</ele>
        <time>2020-03-03T12:01:52Z</time>
      </trkpt>
      <trkpt lat="46.67945" lon="5.62481">
        <ele>526.9</ele>
        <time>2020-03-03T12:01:57Z</time>
      </trkpt>
      <trkpt lat="46.67944" lon="5.62487">
        <ele>526.8</ele>
        <time>2020-03-03T12:02:02Z</time>
      </trkpt>
      <trkpt lat="46.6794" lon="5.62494">
        <ele>526.5</ele>
        <time>2020-03-03T12:02:08Z</time>
      </trkpt>
      <trkpt lat="46.67938" lon="5.62499">
        <ele>526.1</ele>
        <time>2020-03-03T12:02:12Z</time>
      </trkpt>
      <trkpt lat="46.67936" lon="5.62505">
        <ele>525.7</ele>
        <time>2020-03-03T12:02:16Z</time>
      </trkpt>
      <trkpt lat="46.67933" lon="5.62511">
        <ele>525.2</ele>
        <time>2020-03-03T12:02:21Z</time>
      </trkpt>
      <trkpt lat="46.6793" lon="5.62516">
        <ele>524.8</ele>
        <time>2020-03-03T12:02:25Z</time>
      </trkpt>
      <trkpt lat="46.67925" lon="5.62521">
        <ele>524.5</ele>
        <time>2020-03-03T12:02:29Z</time>
      </trkpt>
      <trkpt lat="46.67922" lon="5.62526">
        <ele>524.3</ele>
        <time>2020-03-03T12:02:33Z</time>
      </trkpt>
      <trkpt lat="46.67919" lon="5.62532">
        <ele>524.3</ele>
        <time>2020-03-03T12:02:38Z</time>
      </trkpt>
      <trkpt lat="46.67917" lon="5.62538">
        <ele>524.2</ele>
        <time>2020-03-03T12:02:43Z</time>
      </trkpt>
      <trkpt lat="46.67914" lon="5.62544">
        <ele>524.2</ele>
        <time>2020-03-03T12:02:48Z</time>
      </trkpt>
      <trkpt lat="46.6791" lon="5.62549">
        <ele>524.3</ele>
        <time>2020-03-03T12:02:53Z</time>
      </trkpt>
      <trkpt lat="46.67907" lon="5.62555">
        <ele>524.5</ele>
        <time>2020-03-03T12:02:57Z</time>
      </trkpt>
      <trkpt lat="46.67905" lon="5.62562">
        <ele>524.8</ele>
        <time>2020-03-03T12:03:01Z</time>
      </trkpt>
      <trkpt lat="46.67902" lon="5.62567">
        <ele>525.3</ele>
        <time>2020-03-03T12:03:05Z</time>
      </trkpt>
      <trkpt lat="46.67899" lon="5.62573">
        <ele>525.8</ele>
        <time>2020-03-03T12:03:09Z</time>
      </trkpt>
      <trkpt lat="46.67896" lon="5.62579">
        <ele>526.3</ele>
        <time>2020-03-03T12:03:13Z</time>
      </trkpt>
      <trkpt lat="46.67893" lon="5.62586">
        <ele>526.7</ele>
        <time>2020-03-03T12:03:17Z</time>
      </trkpt>
      <trkpt lat="46.6789" lon="5.62592">
        <ele>527.1</ele>
        <time>2020-03-03T12:03:21Z</time>
      </trkpt>
      <trkpt lat="46.67887" lon="5.62597">
        <ele>527.5</ele>
        <time>2020-03-03T12:03:25Z</time>
      </trkpt>
      <trkpt lat="46.67884" lon="5.62603">
        <ele>527.8</ele>
        <time>2020-03-03T12:03:29Z</time>
      </trkpt>
      <trkpt lat="46.67881" lon="5.62608">
        <ele>528.2</ele>
        <time>2020-03-03T12:03:33Z</time>
      </trkpt>
      <trkpt lat="46.67877" lon="5.62613">
        <ele>528.5</ele>
        <time>2020-03-03T12:03:38Z</time>
      </trkpt>
      <trkpt lat="46.67873" lon="5.62618">
        <ele>528.5</ele>
        <time>2020-03-03T12:03:42Z</time>
      </trkpt>
      <trkpt lat="46.67871" lon="5.62624">
        <ele>528.5</ele>
        <time>2020-03-03T12:03:46Z</time>
      </trkpt>
      <trkpt lat="46.67868" lon="5.6263">
        <ele>528.7</ele>
        <time>2020-03-03T12:03:52Z</time>
      </trkpt>
      <trkpt lat="46.67865" lon="5.62636">
        <ele>528.4</ele>
        <time>2020-03-03T12:03:57Z</time>
      </trkpt>
      <trkpt lat="46.67862" lon="5.62642">
        <ele>528</ele>
        <time>2020-03-03T12:04:02Z</time>
      </trkpt>
      <trkpt lat="46.67859" lon="5.62648">
        <ele>527.6</ele>
        <time>2020-03-03T12:04:06Z</time>
      </trkpt>
      <trkpt lat="46.67855" lon="5.62653">
        <ele>527.3</ele>
        <time>2020-03-03T12:04:11Z</time>
      </trkpt>
      <trkpt lat="46.67852" lon="5.62658">
        <ele>527</ele>
        <time>2020-03-03T12:04:15Z</time>
      </trkpt>
      <trkpt lat="46.67846" lon="5.6266">
        <ele>526.6</ele>
        <time>2020-03-03T12:04:20Z</time>
      </trkpt>
      <trkpt lat="46.67842" lon="5.62662">
        <ele>526.4</ele>
        <time>2020-03-03T12:04:23Z</time>
      </trkpt>
      <trkpt lat="46.67837" lon="5.62665">
        <ele>525.9</ele>
        <time>2020-03-03T12:04:28Z</time>
      </trkpt>
      <trkpt lat="46.67835" lon="5.62672">
        <ele>524.8</ele>
        <time>2020-03-03T12:04:35Z</time>
      </trkpt>
      <trkpt lat="46.67833" lon="5.62679">
        <ele>524.2</ele>
        <time>2020-03-03T12:04:40Z</time>
      </trkpt>
      <trkpt lat="46.67831" lon="5.62686">
        <ele>523.8</ele>
        <time>2020-03-03T12:04:45Z</time>
      </trkpt>
      <trkpt lat="46.67827" lon="5.62691">
        <ele>523.5</ele>
        <time>2020-03-03T12:04:50Z</time>
      </trkpt>
      <trkpt lat="46.67823" lon="5.62694">
        <ele>523</ele>
        <time>2020-03-03T12:04:55Z</time>
      </trkpt>
      <trkpt lat="46.6782" lon="5.62701">
        <ele>522.5</ele>
        <time>2020-03-03T12:05:01Z</time>
      </trkpt>
      <trkpt lat="46.67817" lon="5.62707">
        <ele>522.4</ele>
        <time>2020-03-03T12:05:06Z</time>
      </trkpt>
      <trkpt lat="46.67814" lon="5.62713">
        <ele>522.5</ele>
        <time>2020-03-03T12:05:11Z</time>
      </trkpt>
      <trkpt lat="46.67811" lon="5.62718">
        <ele>522.9</ele>
        <time>2020-03-03T12:05:16Z</time>
      </trkpt>
      <trkpt lat="46.67808" lon="5.62724">
        <ele>523.6</ele>
        <time>2020-03-03T12:05:23Z</time>
      </trkpt>
      <trkpt lat="46.67805" lon="5.62729">
        <ele>523.6</ele>
        <time>2020-03-03T12:05:30Z</time>
      </trkpt>
      <trkpt lat="46.67801" lon="5.62735">
        <ele>523.1</ele>
        <time>2020-03-03T12:05:35Z</time>
      </trkpt>
      <trkpt lat="46.67798" lon="5.6274">
        <ele>522.4</ele>
        <time>2020-03-03T12:05:40Z</time>
      </trkpt>
      <trkpt lat="46.67796" lon="5.62746">
        <ele>521.9</ele>
        <time>2020-03-03T12:05:45Z</time>
      </trkpt>
      <trkpt lat="46.67793" lon="5.62752">
        <ele>521.6</ele>
        <time>2020-03-03T12:05:51Z</time>
      </trkpt>
      <trkpt lat="46.6779" lon="5.62758">
        <ele>520.4</ele>
        <time>2020-03-03T12:06:04Z</time>
      </trkpt>
      <trkpt lat="46.67787" lon="5.62763">
        <ele>520</ele>
        <time>2020-03-03T12:06:08Z</time>
      </trkpt>
      <trkpt lat="46.67783" lon="5.62769">
        <ele>519.4</ele>
        <time>2020-03-03T12:06:13Z</time>
      </trkpt>
      <trkpt lat="46.6778" lon="5.62774">
        <ele>518.7</ele>
        <time>2020-03-03T12:06:17Z</time>
      </trkpt>
      <trkpt lat="46.67777" lon="5.62779">
        <ele>518.1</ele>
        <time>2020-03-03T12:06:21Z</time>
      </trkpt>
      <trkpt lat="46.67774" lon="5.62786">
        <ele>517.5</ele>
        <time>2020-03-03T12:06:26Z</time>
      </trkpt>
      <trkpt lat="46.67771" lon="5.62792">
        <ele>517.2</ele>
        <time>2020-03-03T12:06:29Z</time>
      </trkpt>
      <trkpt lat="46.67768" lon="5.62798">
        <ele>516.7</ele>
        <time>2020-03-03T12:06:33Z</time>
      </trkpt>
      <trkpt lat="46.67765" lon="5.62804">
        <ele>516.4</ele>
        <time>2020-03-03T12:06:37Z</time>
      </trkpt>
      <trkpt lat="46.67762" lon="5.6281">
        <ele>516.1</ele>
        <time>2020-03-03T12:06:41Z</time>
      </trkpt>
      <trkpt lat="46.67759" lon="5.62816">
        <ele>515.5</ele>
        <time>2020-03-03T12:06:46Z</time>
      </trkpt>
      <trkpt lat="46.67757" lon="5.62822">
        <ele>514.7</ele>
        <time>2020-03-03T12:06:51Z</time>
      </trkpt>
      <trkpt lat="46.67754" lon="5.62828">
        <ele>513.9</ele>
        <time>2020-03-03T12:06:55Z</time>
      </trkpt>
      <trkpt lat="46.67752" lon="5.62834">
        <ele>513.1</ele>
        <time>2020-03-03T12:06:59Z</time>
      </trkpt>
      <trkpt lat="46.67751" lon="5.62842">
        <ele>512.3</ele>
        <time>2020-03-03T12:07:05Z</time>
      </trkpt>
      <trkpt lat="46.6775" lon="5.62849">
        <ele>512.2</ele>
        <time>2020-03-03T12:07:11Z</time>
      </trkpt>
      <trkpt lat="46.67748" lon="5.62857">
        <ele>512.6</ele>
        <time>2020-03-03T12:07:16Z</time>
      </trkpt>
      <trkpt lat="46.67747" lon="5.62864">
        <ele>513.3</ele>
        <time>2020-03-03T12:07:21Z</time>
      </trkpt>
      <trkpt lat="46.67747" lon="5.62871">
        <ele>513.7</ele>
        <time>2020-03-03T12:07:25Z</time>
      </trkpt>
      <trkpt lat="46.67746" lon="5.62878">
        <ele>514.3</ele>
        <time>2020-03-03T12:07:29Z</time>
      </trkpt>
      <trkpt lat="46.67746" lon="5.62885">
        <ele>515</ele>
        <time>2020-03-03T12:07:34Z</time>
      </trkpt>
      <trkpt lat="46.67746" lon="5.62892">
        <ele>515.4</ele>
        <time>2020-03-03T12:07:38Z</time>
      </trkpt>
      <trkpt lat="46.67746" lon="5.629">
        <ele>515.5</ele>
        <time>2020-03-03T12:07:42Z</time>
      </trkpt>
      <trkpt lat="46.67745" lon="5.62908">
        <ele>515.6</ele>
        <time>2020-03-03T12:07:46Z</time>
      </trkpt>
      <trkpt lat="46.67745" lon="5.62915">
        <ele>515.9</ele>
        <time>2020-03-03T12:07:50Z</time>
      </trkpt>
      <trkpt lat="46.67745" lon="5.62922">
        <ele>516.7</ele>
        <time>2020-03-03T12:07:55Z</time>
      </trkpt>
      <trkpt lat="46.67745" lon="5.62928">
        <ele>517.5</ele>
        <time>2020-03-03T12:07:59Z</time>
      </trkpt>
      <trkpt lat="46.67747" lon="5.62936">
        <ele>518.3</ele>
        <time>2020-03-03T12:08:03Z</time>
      </trkpt>
      <trkpt lat="46.67749" lon="5.62943">
        <ele>519</ele>
        <time>2020-03-03T12:08:07Z</time>
      </trkpt>
      <trkpt lat="46.6775" lon="5.62949">
        <ele>519.6</ele>
        <time>2020-03-03T12:08:11Z</time>
      </trkpt>
      <trkpt lat="46.67751" lon="5.62956">
        <ele>520.2</ele>
        <time>2020-03-03T12:08:16Z</time>
      </trkpt>
      <trkpt lat="46.67753" lon="5.62964">
        <ele>520.7</ele>
        <time>2020-03-03T12:08:22Z</time>
      </trkpt>
      <trkpt lat="46.67756" lon="5.62971">
        <ele>520.9</ele>
        <time>2020-03-03T12:08:26Z</time>
      </trkpt>
      <trkpt lat="46.67759" lon="5.62977">
        <ele>521.1</ele>
        <time>2020-03-03T12:08:30Z</time>
      </trkpt>
      <trkpt lat="46.67762" lon="5.62983">
        <ele>521.3</ele>
        <time>2020-03-03T12:08:35Z</time>
      </trkpt>
      <trkpt lat="46.67765" lon="5.62988">
        <ele>521.7</ele>
        <time>2020-03-03T12:08:39Z</time>
      </trkpt>
      <trkpt lat="46.67769" lon="5.62994">
        <ele>522</ele>
        <time>2020-03-03T12:08:43Z</time>
      </trkpt>
      <trkpt lat="46.67772" lon="5.63">
        <ele>522.3</ele>
        <time>2020-03-03T12:08:48Z</time>
      </trkpt>
      <trkpt lat="46.67775" lon="5.63005">
        <ele>522.2</ele>
        <time>2020-03-03T12:08:54Z</time>
      </trkpt>
      <trkpt lat="46.67778" lon="5.63011">
        <ele>521.9</ele>
        <time>2020-03-03T12:08:59Z</time>
      </trkpt>
      <trkpt lat="46.6778" lon="5.63017">
        <ele>521.6</ele>
        <time>2020-03-03T12:09:04Z</time>
      </trkpt>
      <trkpt lat="46.67784" lon="5.63023">
        <ele>521.5</ele>
        <time>2020-03-03T12:09:09Z</time>
      </trkpt>
      <trkpt lat="46.67787" lon="5.63029">
        <ele>521.4</ele>
        <time>2020-03-03T12:09:13Z</time>
      </trkpt>
      <trkpt lat="46.67791" lon="5.63034">
        <ele>521.1</ele>
        <time>2020-03-03T12:09:18Z</time>
      </trkpt>
      <trkpt lat="46.67795" lon="5.63038">
        <ele>521</ele>
        <time>2020-03-03T12:09:22Z</time>
      </trkpt>
      <trkpt lat="46.67799" lon="5.63042">
        <ele>520.9</ele>
        <time>2020-03-03T12:09:26Z</time>
      </trkpt>
      <trkpt lat="46.67803" lon="5.63046">
        <ele>520.9</ele>
        <time>2020-03-03T12:09:30Z</time>
      </trkpt>
      <trkpt lat="46.67808" lon="5.6305">
        <ele>521.1</ele>
        <time>2020-03-03T12:09:34Z</time>
      </trkpt>
      <trkpt lat="46.67813" lon="5.63054">
        <ele>521.2</ele>
        <time>2020-03-03T12:09:38Z</time>
      </trkpt>
      <trkpt lat="46.67817" lon="5.63058">
        <ele>521.2</ele>
        <time>2020-03-03T12:09:42Z</time>
      </trkpt>
      <trkpt lat="46.67821" lon="5.63062">
        <ele>521.3</ele>
        <time>2020-03-03T12:09:46Z</time>
      </trkpt>
      <trkpt lat="46.67825" lon="5.63066">
        <ele>521.6</ele>
        <time>2020-03-03T12:09:51Z</time>
      </trkpt>
      <trkpt lat="46.67829" lon="5.6307">
        <ele>522</ele>
        <time>2020-03-03T12:09:56Z</time>
      </trkpt>
      <trkpt lat="46.67833" lon="5.63073">
        <ele>522.4</ele>
        <time>2020-03-03T12:10:00Z</time>
      </trkpt>
      <trkpt lat="46.67837" lon="5.63077">
        <ele>522.5</ele>
        <time>2020-03-03T12:10:04Z</time>
      </trkpt>
      <trkpt lat="46.67842" lon="5.63081">
        <ele>522.6</ele>
        <time>2020-03-03T12:10:08Z</time>
      </trkpt>
      <trkpt lat="46.67848" lon="5.63084">
        <ele>522.4</ele>
        <time>2020-03-03T12:10:12Z</time>
      </trkpt>
      <trkpt lat="46.67853" lon="5.63087">
        <ele>522.3</ele>
        <time>2020-03-03T12:10:16Z</time>
      </trkpt>
      <trkpt lat="46.67857" lon="5.6309">
        <ele>522.4</ele>
        <time>2020-03-03T12:10:21Z</time>
      </trkpt>
      <trkpt lat="46.67861" lon="5.63094">
        <ele>522.5</ele>
        <time>2020-03-03T12:10:25Z</time>
      </trkpt>
      <trkpt lat="46.67865" lon="5.63099">
        <ele>522.6</ele>
        <time>2020-03-03T12:10:29Z</time>
      </trkpt>
      <trkpt lat="46.67869" lon="5.63104">
        <ele>523</ele>
        <time>2020-03-03T12:10:34Z</time>
      </trkpt>
      <trkpt lat="46.67873" lon="5.63109">
        <ele>523.3</ele>
        <time>2020-03-03T12:10:39Z</time>
      </trkpt>
      <trkpt lat="46.67877" lon="5.63114">
        <ele>523.5</ele>
        <time>2020-03-03T12:10:44Z</time>
      </trkpt>
      <trkpt lat="46.67881" lon="5.63118">
        <ele>523.7</ele>
        <time>2020-03-03T12:10:49Z</time>
      </trkpt>
      <trkpt lat="46.67885" lon="5.63123">
        <ele>524</ele>
        <time>2020-03-03T12:10:54Z</time>
      </trkpt>
      <trkpt lat="46.67889" lon="5.63128">
        <ele>524.1</ele>
        <time>2020-03-03T12:10:59Z</time>
      </trkpt>
      <trkpt lat="46.67893" lon="5.63132">
        <ele>524.2</ele>
        <time>2020-03-03T12:11:03Z</time>
      </trkpt>
      <trkpt lat="46.67897" lon="5.63138">
        <ele>524.2</ele>
        <time>2020-03-03T12:11:08Z</time>
      </trkpt>
      <trkpt lat="46.679" lon="5.63144">
        <ele>524</ele>
        <time>2020-03-03T12:11:14Z</time>
      </trkpt>
      <trkpt lat="46.67901" lon="5.6315">
        <ele>523.8</ele>
        <time>2020-03-03T12:11:19Z</time>
      </trkpt>
      <trkpt lat="46.67903" lon="5.63157">
        <ele>523.5</ele>
        <time>2020-03-03T12:11:23Z</time>
      </trkpt>
      <trkpt lat="46.67905" lon="5.63164">
        <ele>523.2</ele>
        <time>2020-03-03T12:11:27Z</time>
      </trkpt>
      <trkpt lat="46.67906" lon="5.6317">
        <ele>522.7</ele>
        <time>2020-03-03T12:11:32Z</time>
      </trkpt>
      <trkpt lat="46.67909" lon="5.63177">
        <ele>522</ele>
        <time>2020-03-03T12:11:37Z</time>
      </trkpt>
      <trkpt lat="46.67911" lon="5.63183">
        <ele>521.3</ele>
        <time>2020-03-03T12:11:41Z</time>
      </trkpt>
      <trkpt lat="46.67914" lon="5.63189">
        <ele>520.7</ele>
        <time>2020-03-03T12:11:45Z</time>
      </trkpt>
      <trkpt lat="46.67917" lon="5.63195">
        <ele>520.2</ele>
        <time>2020-03-03T12:11:48Z</time>
      </trkpt>
      <trkpt lat="46.67919" lon="5.63201">
        <ele>519.6</ele>
        <time>2020-03-03T12:11:55Z</time>
      </trkpt>
      <trkpt lat="46.67921" lon="5.63208">
        <ele>519.3</ele>
        <time>2020-03-03T12:12:00Z</time>
      </trkpt>
      <trkpt lat="46.67923" lon="5.63215">
        <ele>519.2</ele>
        <time>2020-03-03T12:12:05Z</time>
      </trkpt>
      <trkpt lat="46.67926" lon="5.63222">
        <ele>518.8</ele>
        <time>2020-03-03T12:12:10Z</time>
      </trkpt>
      <trkpt lat="46.67928" lon="5.63228">
        <ele>518.5</ele>
        <time>2020-03-03T12:12:15Z</time>
      </trkpt>
      <trkpt lat="46.67932" lon="5.63234">
        <ele>518</ele>
        <time>2020-03-03T12:12:19Z</time>
      </trkpt>
      <trkpt lat="46.67935" lon="5.63241">
        <ele>517.5</ele>
        <time>2020-03-03T12:12:23Z</time>
      </trkpt>
      <trkpt lat="46.67938" lon="5.63248">
        <ele>517</ele>
        <time>2020-03-03T12:12:27Z</time>
      </trkpt>
      <trkpt lat="46.67941" lon="5.63254">
        <ele>516.5</ele>
        <time>2020-03-03T12:12:31Z</time>
      </trkpt>
      <trkpt lat="46.67944" lon="5.6326">
        <ele>515.9</ele>
        <time>2020-03-03T12:12:36Z</time>
      </trkpt>
      <trkpt lat="46.67946" lon="5.63267">
        <ele>515.7</ele>
        <time>2020-03-03T12:12:41Z</time>
      </trkpt>
      <trkpt lat="46.67948" lon="5.63274">
        <ele>515.5</ele>
        <time>2020-03-03T12:12:47Z</time>
      </trkpt>
      <trkpt lat="46.6795" lon="5.63281">
        <ele>515.2</ele>
        <time>2020-03-03T12:12:53Z</time>
      </trkpt>
      <trkpt lat="46.67954" lon="5.63286">
        <ele>514.8</ele>
        <time>2020-03-03T12:12:57Z</time>
      </trkpt>
      <trkpt lat="46.67956" lon="5.63294">
        <ele>514.3</ele>
        <time>2020-03-03T12:13:01Z</time>
      </trkpt>
      <trkpt lat="46.67959" lon="5.633">
        <ele>513.8</ele>
        <time>2020-03-03T12:13:05Z</time>
      </trkpt>
      <trkpt lat="46.67961" lon="5.63306">
        <ele>513</ele>
        <time>2020-03-03T12:13:11Z</time>
      </trkpt>
      <trkpt lat="46.67962" lon="5.63314">
        <ele>512.2</ele>
        <time>2020-03-03T12:13:16Z</time>
      </trkpt>
      <trkpt lat="46.67963" lon="5.63321">
        <ele>511.3</ele>
        <time>2020-03-03T12:13:21Z</time>
      </trkpt>
      <trkpt lat="46.67965" lon="5.63328">
        <ele>510.5</ele>
        <time>2020-03-03T12:13:25Z</time>
      </trkpt>
      <trkpt lat="46.67966" lon="5.63335">
        <ele>509.9</ele>
        <time>2020-03-03T12:13:29Z</time>
      </trkpt>
      <trkpt lat="46.67966" lon="5.63342">
        <ele>508.9</ele>
        <time>2020-03-03T12:13:35Z</time>
      </trkpt>
      <trkpt lat="46.67966" lon="5.6335">
        <ele>508.3</ele>
        <time>2020-03-03T12:13:39Z</time>
      </trkpt>
      <trkpt lat="46.67966" lon="5.63357">
        <ele>507.7</ele>
        <time>2020-03-03T12:13:43Z</time>
      </trkpt>
      <trkpt lat="46.67966" lon="5.63363">
        <ele>507.2</ele>
        <time>2020-03-03T12:13:47Z</time>
      </trkpt>
      <trkpt lat="46.67968" lon="5.63371">
        <ele>506.6</ele>
        <time>2020-03-03T12:13:51Z</time>
      </trkpt>
      <trkpt lat="46.6797" lon="5.63378">
        <ele>506.1</ele>
        <time>2020-03-03T12:13:56Z</time>
      </trkpt>
      <trkpt lat="46.67972" lon="5.63384">
        <ele>505.7</ele>
        <time>2020-03-03T12:14:01Z</time>
      </trkpt>
      <trkpt lat="46.67973" lon="5.63392">
        <ele>505.6</ele>
        <time>2020-03-03T12:14:07Z</time>
      </trkpt>
      <trkpt lat="46.67973" lon="5.634">
        <ele>505.5</ele>
        <time>2020-03-03T12:14:11Z</time>
      </trkpt>
      <trkpt lat="46.67972" lon="5.63408">
        <ele>505.4</ele>
        <time>2020-03-03T12:14:15Z</time>
      </trkpt>
      <trkpt lat="46.67973" lon="5.63415">
        <ele>505.2</ele>
        <time>2020-03-03T12:14:20Z</time>
      </trkpt>
      <trkpt lat="46.67974" lon="5.63422">
        <ele>505</ele>
        <time>2020-03-03T12:14:25Z</time>
      </trkpt>
      <trkpt lat="46.67976" lon="5.6343">
        <ele>505</ele>
        <time>2020-03-03T12:14:30Z</time>
      </trkpt>
      <trkpt lat="46.67977" lon="5.63437">
        <ele>504.7</ele>
        <time>2020-03-03T12:14:36Z</time>
      </trkpt>
      <trkpt lat="46.67978" lon="5.63444">
        <ele>504.6</ele>
        <time>2020-03-03T12:14:41Z</time>
      </trkpt>
      <trkpt lat="46.67978" lon="5.63451">
        <ele>504.6</ele>
        <time>2020-03-03T12:14:46Z</time>
      </trkpt>
      <trkpt lat="46.67978" lon="5.63459">
        <ele>504.4</ele>
        <time>2020-03-03T12:14:51Z</time>
      </trkpt>
      <trkpt lat="46.6798" lon="5.63466">
        <ele>503.6</ele>
        <time>2020-03-03T12:14:57Z</time>
      </trkpt>
      <trkpt lat="46.67983" lon="5.63472">
        <ele>502.9</ele>
        <time>2020-03-03T12:15:02Z</time>
      </trkpt>
      <trkpt lat="46.67985" lon="5.63479">
        <ele>502.2</ele>
        <time>2020-03-03T12:15:07Z</time>
      </trkpt>
      <trkpt lat="46.67987" lon="5.63485">
        <ele>501.8</ele>
        <time>2020-03-03T12:15:11Z</time>
      </trkpt>
      <trkpt lat="46.67988" lon="5.63491">
        <ele>501.4</ele>
        <time>2020-03-03T12:15:16Z</time>
      </trkpt>
      <trkpt lat="46.67989" lon="5.63498">
        <ele>501.1</ele>
        <time>2020-03-03T12:15:20Z</time>
      </trkpt>
      <trkpt lat="46.6799" lon="5.63506">
        <ele>500.7</ele>
        <time>2020-03-03T12:15:25Z</time>
      </trkpt>
      <trkpt lat="46.67991" lon="5.63514">
        <ele>500.4</ele>
        <time>2020-03-03T12:15:29Z</time>
      </trkpt>
      <trkpt lat="46.67992" lon="5.63521">
        <ele>500.1</ele>
        <time>2020-03-03T12:15:34Z</time>
      </trkpt>
      <trkpt lat="46.67993" lon="5.63528">
        <ele>499.7</ele>
        <time>2020-03-03T12:15:40Z</time>
      </trkpt>
      <trkpt lat="46.67994" lon="5.63536">
        <ele>499</ele>
        <time>2020-03-03T12:15:46Z</time>
      </trkpt>
      <trkpt lat="46.67996" lon="5.63542">
        <ele>498.5</ele>
        <time>2020-03-03T12:15:51Z</time>
      </trkpt>
      <trkpt lat="46.67998" lon="5.63549">
        <ele>498</ele>
        <time>2020-03-03T12:15:56Z</time>
      </trkpt>
      <trkpt lat="46.68" lon="5.63556">
        <ele>497.4</ele>
        <time>2020-03-03T12:16:02Z</time>
      </trkpt>
      <trkpt lat="46.68001" lon="5.63563">
        <ele>496.6</ele>
        <time>2020-03-03T12:16:09Z</time>
      </trkpt>
      <trkpt lat="46.68002" lon="5.63571">
        <ele>495.9</ele>
        <time>2020-03-03T12:16:14Z</time>
      </trkpt>
      <trkpt lat="46.68003" lon="5.63577">
        <ele>495.3</ele>
        <time>2020-03-03T12:16:18Z</time>
      </trkpt>
      <trkpt lat="46.68006" lon="5.63584">
        <ele>494.5</ele>
        <time>2020-03-03T12:16:23Z</time>
      </trkpt>
      <trkpt lat="46.68008" lon="5.63591">
        <ele>493.6</ele>
        <time>2020-03-03T12:16:28Z</time>
      </trkpt>
      <trkpt lat="46.6801" lon="5.63598">
        <ele>492.8</ele>
        <time>2020-03-03T12:16:32Z</time>
      </trkpt>
      <trkpt lat="46.68012" lon="5.63605">
        <ele>492.2</ele>
        <time>2020-03-03T12:16:36Z</time>
      </trkpt>
      <trkpt lat="46.68015" lon="5.63612">
        <ele>491.6</ele>
        <time>2020-03-03T12:16:41Z</time>
      </trkpt>
      <trkpt lat="46.68017" lon="5.63619">
        <ele>491.3</ele>
        <time>2020-03-03T12:16:45Z</time>
      </trkpt>
      <trkpt lat="46.68019" lon="5.63626">
        <ele>491</ele>
        <time>2020-03-03T12:16:49Z</time>
      </trkpt>
      <trkpt lat="46.68021" lon="5.63633">
        <ele>490.8</ele>
        <time>2020-03-03T12:16:53Z</time>
      </trkpt>
      <trkpt lat="46.68023" lon="5.63639">
        <ele>490.7</ele>
        <time>2020-03-03T12:16:58Z</time>
      </trkpt>
      <trkpt lat="46.68026" lon="5.63646">
        <ele>490.5</ele>
        <time>2020-03-03T12:17:03Z</time>
      </trkpt>
      <trkpt lat="46.68028" lon="5.63653">
        <ele>490.2</ele>
        <time>2020-03-03T12:17:07Z</time>
      </trkpt>
      <trkpt lat="46.68029" lon="5.63659">
        <ele>489.9</ele>
        <time>2020-03-03T12:17:11Z</time>
      </trkpt>
      <trkpt lat="46.6803" lon="5.63667">
        <ele>489.7</ele>
        <time>2020-03-03T12:17:15Z</time>
      </trkpt>
      <trkpt lat="46.68031" lon="5.63674">
        <ele>489.5</ele>
        <time>2020-03-03T12:17:19Z</time>
      </trkpt>
      <trkpt lat="46.6803" lon="5.63681">
        <ele>489</ele>
        <time>2020-03-03T12:17:25Z</time>
      </trkpt>
      <trkpt lat="46.68031" lon="5.63689">
        <ele>488.7</ele>
        <time>2020-03-03T12:17:31Z</time>
      </trkpt>
      <trkpt lat="46.68031" lon="5.63696">
        <ele>488.6</ele>
        <time>2020-03-03T12:17:35Z</time>
      </trkpt>
      <trkpt lat="46.68032" lon="5.63704">
        <ele>488.3</ele>
        <time>2020-03-03T12:17:39Z</time>
      </trkpt>
      <trkpt lat="46.68032" lon="5.63711">
        <ele>487.9</ele>
        <time>2020-03-03T12:17:44Z</time>
      </trkpt>
      <trkpt lat="46.68032" lon="5.63718">
        <ele>487.6</ele>
        <time>2020-03-03T12:17:48Z</time>
      </trkpt>
      <trkpt lat="46.68031" lon="5.63725">
        <ele>487.1</ele>
        <time>2020-03-03T12:17:53Z</time>
      </trkpt>
      <trkpt lat="46.68031" lon="5.63733">
        <ele>486.7</ele>
        <time>2020-03-03T12:17:58Z</time>
      </trkpt>
      <trkpt lat="46.68031" lon="5.6374">
        <ele>486.3</ele>
        <time>2020-03-03T12:18:02Z</time>
      </trkpt>
      <trkpt lat="46.6803" lon="5.63747">
        <ele>485.8</ele>
        <time>2020-03-03T12:18:06Z</time>
      </trkpt>
      <trkpt lat="46.68028" lon="5.63754">
        <ele>485.2</ele>
        <time>2020-03-03T12:18:10Z</time>
      </trkpt>
      <trkpt lat="46.68028" lon="5.6376">
        <ele>484.7</ele>
        <time>2020-03-03T12:18:15Z</time>
      </trkpt>
      <trkpt lat="46.68026" lon="5.63768">
        <ele>484.3</ele>
        <time>2020-03-03T12:18:21Z</time>
      </trkpt>
      <trkpt lat="46.68025" lon="5.63775">
        <ele>484.1</ele>
        <time>2020-03-03T12:18:25Z</time>
      </trkpt>
      <trkpt lat="46.68024" lon="5.63783">
        <ele>483.9</ele>
        <time>2020-03-03T12:18:29Z</time>
      </trkpt>
      <trkpt lat="46.68024" lon="5.6379">
        <ele>483.7</ele>
        <time>2020-03-03T12:18:33Z</time>
      </trkpt>
      <trkpt lat="46.68023" lon="5.63798">
        <ele>483.4</ele>
        <time>2020-03-03T12:18:38Z</time>
      </trkpt>
      <trkpt lat="46.68021" lon="5.63805">
        <ele>483.1</ele>
        <time>2020-03-03T12:18:43Z</time>
      </trkpt>
      <trkpt lat="46.6802" lon="5.63812">
        <ele>482.9</ele>
        <time>2020-03-03T12:18:47Z</time>
      </trkpt>
      <trkpt lat="46.68019" lon="5.63819">
        <ele>482.7</ele>
        <time>2020-03-03T12:18:50Z</time>
      </trkpt>
      <trkpt lat="46.68018" lon="5.63827">
        <ele>482.6</ele>
        <time>2020-03-03T12:18:54Z</time>
      </trkpt>
      <trkpt lat="46.68017" lon="5.63835">
        <ele>482.6</ele>
        <time>2020-03-03T12:18:59Z</time>
      </trkpt>
      <trkpt lat="46.68017" lon="5.63843">
        <ele>482.8</ele>
        <time>2020-03-03T12:19:04Z</time>
      </trkpt>
      <trkpt lat="46.68018" lon="5.6385">
        <ele>482.9</ele>
        <time>2020-03-03T12:19:08Z</time>
      </trkpt>
      <trkpt lat="46.68021" lon="5.63857">
        <ele>482.8</ele>
        <time>2020-03-03T12:19:13Z</time>
      </trkpt>
      <trkpt lat="46.68024" lon="5.63864">
        <ele>482.7</ele>
        <time>2020-03-03T12:19:18Z</time>
      </trkpt>
      <trkpt lat="46.68027" lon="5.63869">
        <ele>482.8</ele>
        <time>2020-03-03T12:19:22Z</time>
      </trkpt>
      <trkpt lat="46.68031" lon="5.63873">
        <ele>482.9</ele>
        <time>2020-03-03T12:19:25Z</time>
      </trkpt>
      <trkpt lat="46.68035" lon="5.63878">
        <ele>483.2</ele>
        <time>2020-03-03T12:19:28Z</time>
      </trkpt>
      <trkpt lat="46.68038" lon="5.63882">
        <ele>483.6</ele>
        <time>2020-03-03T12:19:32Z</time>
      </trkpt>
      <trkpt lat="46.68042" lon="5.63888">
        <ele>484.1</ele>
        <time>2020-03-03T12:19:37Z</time>
      </trkpt>
      <trkpt lat="46.68044" lon="5.63895">
        <ele>484.4</ele>
        <time>2020-03-03T12:19:41Z</time>
      </trkpt>
      <trkpt lat="46.68046" lon="5.639">
        <ele>484.8</ele>
        <time>2020-03-03T12:19:45Z</time>
      </trkpt>
      <trkpt lat="46.68049" lon="5.63905">
        <ele>485.1</ele>
        <time>2020-03-03T12:19:48Z</time>
      </trkpt>
      <trkpt lat="46.68053" lon="5.6391">
        <ele>485.6</ele>
        <time>2020-03-03T12:19:52Z</time>
      </trkpt>
      <trkpt lat="46.68057" lon="5.63915">
        <ele>486.5</ele>
        <time>2020-03-03T12:19:57Z</time>
      </trkpt>
      <trkpt lat="46.6806" lon="5.63921">
        <ele>487.3</ele>
        <time>2020-03-03T12:20:01Z</time>
      </trkpt>
      <trkpt lat="46.68062" lon="5.63927">
        <ele>488.3</ele>
        <time>2020-03-03T12:20:05Z</time>
      </trkpt>
      <trkpt lat="46.68065" lon="5.63934">
        <ele>489.2</ele>
        <time>2020-03-03T12:20:09Z</time>
      </trkpt>
      <trkpt lat="46.68067" lon="5.63941">
        <ele>489.9</ele>
        <time>2020-03-03T12:20:13Z</time>
      </trkpt>
      <trkpt lat="46.68067" lon="5.63948">
        <ele>490.5</ele>
        <time>2020-03-03T12:20:17Z</time>
      </trkpt>
      <trkpt lat="46.68067" lon="5.63955">
        <ele>491.1</ele>
        <time>2020-03-03T12:20:22Z</time>
      </trkpt>
      <trkpt lat="46.68068" lon="5.63962">
        <ele>491.4</ele>
        <time>2020-03-03T12:20:27Z</time>
      </trkpt>
      <trkpt lat="46.68068" lon="5.63969">
        <ele>491.5</ele>
        <time>2020-03-03T12:20:31Z</time>
      </trkpt>
      <trkpt lat="46.68069" lon="5.63976">
        <ele>491.7</ele>
        <time>2020-03-03T12:20:35Z</time>
      </trkpt>
      <trkpt lat="46.6807" lon="5.63983">
        <ele>492.1</ele>
        <time>2020-03-03T12:20:40Z</time>
      </trkpt>
      <trkpt lat="46.6807" lon="5.6399">
        <ele>492.5</ele>
        <time>2020-03-03T12:20:45Z</time>
      </trkpt>
      <trkpt lat="46.68071" lon="5.63998">
        <ele>492.8</ele>
        <time>2020-03-03T12:20:50Z</time>
      </trkpt>
      <trkpt lat="46.68071" lon="5.64005">
        <ele>492.9</ele>
        <time>2020-03-03T12:20:54Z</time>
      </trkpt>
      <trkpt lat="46.68072" lon="5.64012">
        <ele>493.1</ele>
        <time>2020-03-03T12:20:59Z</time>
      </trkpt>
      <trkpt lat="46.68073" lon="5.64019">
        <ele>493.2</ele>
        <time>2020-03-03T12:21:03Z</time>
      </trkpt>
      <trkpt lat="46.68074" lon="5.64027">
        <ele>493.1</ele>
        <time>2020-03-03T12:21:08Z</time>
      </trkpt>
      <trkpt lat="46.68076" lon="5.64033">
        <ele>493</ele>
        <time>2020-03-03T12:21:12Z</time>
      </trkpt>
      <trkpt lat="46.68077" lon="5.6404">
        <ele>493</ele>
        <time>2020-03-03T12:21:16Z</time>
      </trkpt>
      <trkpt lat="46.68078" lon="5.64047">
        <ele>493</ele>
        <time>2020-03-03T12:21:21Z</time>
      </trkpt>
      <trkpt lat="46.68079" lon="5.64055">
        <ele>493</ele>
        <time>2020-03-03T12:21:25Z</time>
      </trkpt>
      <trkpt lat="46.68081" lon="5.64062">
        <ele>493</ele>
        <time>2020-03-03T12:21:30Z</time>
      </trkpt>
      <trkpt lat="46.68083" lon="5.64069">
        <ele>492.9</ele>
        <time>2020-03-03T12:21:34Z</time>
      </trkpt>
      <trkpt lat="46.68085" lon="5.64075">
        <ele>492.8</ele>
        <time>2020-03-03T12:21:38Z</time>
      </trkpt>
      <trkpt lat="46.68084" lon="5.64082">
        <ele>492.9</ele>
        <time>2020-03-03T12:21:43Z</time>
      </trkpt>
      <trkpt lat="46.68084" lon="5.64089">
        <ele>493</ele>
        <time>2020-03-03T12:21:47Z</time>
      </trkpt>
      <trkpt lat="46.68085" lon="5.64096">
        <ele>493.3</ele>
        <time>2020-03-03T12:21:51Z</time>
      </trkpt>
      <trkpt lat="46.68086" lon="5.64103">
        <ele>493.8</ele>
        <time>2020-03-03T12:21:55Z</time>
      </trkpt>
      <trkpt lat="46.68088" lon="5.64109">
        <ele>494.3</ele>
        <time>2020-03-03T12:21:59Z</time>
      </trkpt>
      <trkpt lat="46.6809" lon="5.64116">
        <ele>495</ele>
        <time>2020-03-03T12:22:04Z</time>
      </trkpt>
      <trkpt lat="46.68092" lon="5.64123">
        <ele>495.4</ele>
        <time>2020-03-03T12:22:08Z</time>
      </trkpt>
      <trkpt lat="46.68094" lon="5.6413">
        <ele>495.7</ele>
        <time>2020-03-03T12:22:12Z</time>
      </trkpt>
      <trkpt lat="46.68096" lon="5.64138">
        <ele>496.1</ele>
        <time>2020-03-03T12:22:16Z</time>
      </trkpt>
      <trkpt lat="46.68099" lon="5.64145">
        <ele>496.5</ele>
        <time>2020-03-03T12:22:20Z</time>
      </trkpt>
      <trkpt lat="46.68102" lon="5.64152">
        <ele>496.9</ele>
        <time>2020-03-03T12:22:25Z</time>
      </trkpt>
      <trkpt lat="46.68105" lon="5.64159">
        <ele>497.2</ele>
        <time>2020-03-03T12:22:29Z</time>
      </trkpt>
      <trkpt lat="46.68107" lon="5.64165">
        <ele>497.7</ele>
        <time>2020-03-03T12:22:33Z</time>
      </trkpt>
      <trkpt lat="46.6811" lon="5.64171">
        <ele>498.3</ele>
        <time>2020-03-03T12:22:37Z</time>
      </trkpt>
      <trkpt lat="46.68113" lon="5.64178">
        <ele>499.2</ele>
        <time>2020-03-03T12:22:42Z</time>
      </trkpt>
      <trkpt lat="46.68113" lon="5.64185">
        <ele>499.9</ele>
        <time>2020-03-03T12:22:48Z</time>
      </trkpt>
      <trkpt lat="46.68111" lon="5.64192">
        <ele>500</ele>
        <time>2020-03-03T12:22:54Z</time>
      </trkpt>
      <trkpt lat="46.68111" lon="5.642">
        <ele>499.9</ele>
        <time>2020-03-03T12:22:59Z</time>
      </trkpt>
      <trkpt lat="46.68111" lon="5.64207">
        <ele>499.6</ele>
        <time>2020-03-03T12:23:04Z</time>
      </trkpt>
      <trkpt lat="46.68112" lon="5.64214">
        <ele>499.2</ele>
        <time>2020-03-03T12:23:08Z</time>
      </trkpt>
      <trkpt lat="46.68116" lon="5.64221">
        <ele>498.5</ele>
        <time>2020-03-03T12:23:14Z</time>
      </trkpt>
      <trkpt lat="46.68118" lon="5.64227">
        <ele>498.1</ele>
        <time>2020-03-03T12:23:20Z</time>
      </trkpt>
      <trkpt lat="46.6812" lon="5.64234">
        <ele>497.7</ele>
        <time>2020-03-03T12:23:25Z</time>
      </trkpt>
      <trkpt lat="46.68122" lon="5.64241">
        <ele>497.3</ele>
        <time>2020-03-03T12:23:29Z</time>
      </trkpt>
      <trkpt lat="46.68125" lon="5.64247">
        <ele>496.9</ele>
        <time>2020-03-03T12:23:33Z</time>
      </trkpt>
      <trkpt lat="46.68128" lon="5.64253">
        <ele>496.7</ele>
        <time>2020-03-03T12:23:37Z</time>
      </trkpt>
      <trkpt lat="46.68132" lon="5.64258">
        <ele>496.4</ele>
        <time>2020-03-03T12:23:42Z</time>
      </trkpt>
      <trkpt lat="46.68135" lon="5.64263">
        <ele>496.2</ele>
        <time>2020-03-03T12:23:46Z</time>
      </trkpt>
      <trkpt lat="46.68139" lon="5.6427">
        <ele>495.8</ele>
        <time>2020-03-03T12:23:50Z</time>
      </trkpt>
      <trkpt lat="46.68142" lon="5.64276">
        <ele>495.3</ele>
        <time>2020-03-03T12:23:55Z</time>
      </trkpt>
      <trkpt lat="46.68145" lon="5.64283">
        <ele>495.1</ele>
        <time>2020-03-03T12:23:59Z</time>
      </trkpt>
      <trkpt lat="46.68147" lon="5.64289">
        <ele>495</ele>
        <time>2020-03-03T12:24:02Z</time>
      </trkpt>
      <trkpt lat="46.68149" lon="5.64297">
        <ele>495</ele>
        <time>2020-03-03T12:24:06Z</time>
      </trkpt>
      <trkpt lat="46.68152" lon="5.64303">
        <ele>494.7</ele>
        <time>2020-03-03T12:24:11Z</time>
      </trkpt>
      <trkpt lat="46.68155" lon="5.64308">
        <ele>494.3</ele>
        <time>2020-03-03T12:24:16Z</time>
      </trkpt>
      <trkpt lat="46.68159" lon="5.64314">
        <ele>494.1</ele>
        <time>2020-03-03T12:24:20Z</time>
      </trkpt>
      <trkpt lat="46.68161" lon="5.6432">
        <ele>493.8</ele>
        <time>2020-03-03T12:24:25Z</time>
      </trkpt>
      <trkpt lat="46.68166" lon="5.64324">
        <ele>493.6</ele>
        <time>2020-03-03T12:24:31Z</time>
      </trkpt>
      <trkpt lat="46.6817" lon="5.64329">
        <ele>493.7</ele>
        <time>2020-03-03T12:24:35Z</time>
      </trkpt>
      <trkpt lat="46.68174" lon="5.64333">
        <ele>493.8</ele>
        <time>2020-03-03T12:24:39Z</time>
      </trkpt>
      <trkpt lat="46.68179" lon="5.64337">
        <ele>494</ele>
        <time>2020-03-03T12:24:43Z</time>
      </trkpt>
      <trkpt lat="46.6818" lon="5.64344">
        <ele>494.3</ele>
        <time>2020-03-03T12:24:48Z</time>
      </trkpt>
      <trkpt lat="46.68182" lon="5.6435">
        <ele>494.5</ele>
        <time>2020-03-03T12:24:53Z</time>
      </trkpt>
      <trkpt lat="46.68186" lon="5.64356">
        <ele>494.4</ele>
        <time>2020-03-03T12:24:58Z</time>
      </trkpt>
      <trkpt lat="46.6819" lon="5.64361">
        <ele>494.4</ele>
        <time>2020-03-03T12:25:02Z</time>
      </trkpt>
      <trkpt lat="46.68194" lon="5.64365">
        <ele>494.3</ele>
        <time>2020-03-03T12:25:05Z</time>
      </trkpt>
      <trkpt lat="46.68198" lon="5.64371">
        <ele>494.2</ele>
        <time>2020-03-03T12:25:09Z</time>
      </trkpt>
      <trkpt lat="46.68201" lon="5.64376">
        <ele>494.2</ele>
        <time>2020-03-03T12:25:13Z</time>
      </trkpt>
      <trkpt lat="46.68204" lon="5.64382">
        <ele>494.4</ele>
        <time>2020-03-03T12:25:17Z</time>
      </trkpt>
      <trkpt lat="46.68207" lon="5.64388">
        <ele>494.6</ele>
        <time>2020-03-03T12:25:22Z</time>
      </trkpt>
      <trkpt lat="46.68211" lon="5.64393">
        <ele>494.8</ele>
        <time>2020-03-03T12:25:27Z</time>
      </trkpt>
      <trkpt lat="46.68215" lon="5.64399">
        <ele>495</ele>
        <time>2020-03-03T12:25:32Z</time>
      </trkpt>
      <trkpt lat="46.68218" lon="5.64404">
        <ele>495.2</ele>
        <time>2020-03-03T12:25:36Z</time>
      </trkpt>
      <trkpt lat="46.68221" lon="5.64409">
        <ele>495.3</ele>
        <time>2020-03-03T12:25:41Z</time>
      </trkpt>
      <trkpt lat="46.68224" lon="5.64413">
        <ele>495.2</ele>
        <time>2020-03-03T12:25:45Z</time>
      </trkpt>
      <trkpt lat="46.68228" lon="5.64418">
        <ele>494.9</ele>
        <time>2020-03-03T12:25:49Z</time>
      </trkpt>
      <trkpt lat="46.68232" lon="5.64422">
        <ele>494.5</ele>
        <time>2020-03-03T12:25:53Z</time>
      </trkpt>
      <trkpt lat="46.68236" lon="5.64426">
        <ele>494.2</ele>
        <time>2020-03-03T12:25:57Z</time>
      </trkpt>
      <trkpt lat="46.6824" lon="5.64431">
        <ele>494.1</ele>
        <time>2020-03-03T12:26:01Z</time>
      </trkpt>
      <trkpt lat="46.68244" lon="5.64435">
        <ele>494.3</ele>
        <time>2020-03-03T12:26:06Z</time>
      </trkpt>
      <trkpt lat="46.68248" lon="5.64439">
        <ele>494.4</ele>
        <time>2020-03-03T12:26:10Z</time>
      </trkpt>
      <trkpt lat="46.68252" lon="5.64444">
        <ele>494.4</ele>
        <time>2020-03-03T12:26:15Z</time>
      </trkpt>
      <trkpt lat="46.68256" lon="5.64449">
        <ele>494.5</ele>
        <time>2020-03-03T12:26:19Z</time>
      </trkpt>
      <trkpt lat="46.68259" lon="5.64454">
        <ele>494.7</ele>
        <time>2020-03-03T12:26:22Z</time>
      </trkpt>
      <trkpt lat="46.68264" lon="5.64458">
        <ele>495.1</ele>
        <time>2020-03-03T12:26:26Z</time>
      </trkpt>
      <trkpt lat="46.68268" lon="5.64461">
        <ele>495.4</ele>
        <time>2020-03-03T12:26:30Z</time>
      </trkpt>
      <trkpt lat="46.68273" lon="5.64465">
        <ele>495.9</ele>
        <time>2020-03-03T12:26:34Z</time>
      </trkpt>
      <trkpt lat="46.68278" lon="5.64469">
        <ele>496.6</ele>
        <time>2020-03-03T12:26:38Z</time>
      </trkpt>
      <trkpt lat="46.68282" lon="5.64475">
        <ele>497.3</ele>
        <time>2020-03-03T12:26:44Z</time>
      </trkpt>
      <trkpt lat="46.68284" lon="5.6448">
        <ele>497.7</ele>
        <time>2020-03-03T12:26:48Z</time>
      </trkpt>
      <trkpt lat="46.68288" lon="5.64484">
        <ele>498</ele>
        <time>2020-03-03T12:26:52Z</time>
      </trkpt>
      <trkpt lat="46.68291" lon="5.6449">
        <ele>498.3</ele>
        <time>2020-03-03T12:26:56Z</time>
      </trkpt>
      <trkpt lat="46.68293" lon="5.64497">
        <ele>498.5</ele>
        <time>2020-03-03T12:27:02Z</time>
      </trkpt>
      <trkpt lat="46.68297" lon="5.64503">
        <ele>498.3</ele>
        <time>2020-03-03T12:27:07Z</time>
      </trkpt>
      <trkpt lat="46.68301" lon="5.64507">
        <ele>498.1</ele>
        <time>2020-03-03T12:27:10Z</time>
      </trkpt>
      <trkpt lat="46.68306" lon="5.64512">
        <ele>497.7</ele>
        <time>2020-03-03T12:27:14Z</time>
      </trkpt>
      <trkpt lat="46.6831" lon="5.64516">
        <ele>497.3</ele>
        <time>2020-03-03T12:27:18Z</time>
      </trkpt>
      <trkpt lat="46.68313" lon="5.64521">
        <ele>496.9</ele>
        <time>2020-03-03T12:27:24Z</time>
      </trkpt>
      <trkpt lat="46.68316" lon="5.64527">
        <ele>496.8</ele>
        <time>2020-03-03T12:27:29Z</time>
      </trkpt>
      <trkpt lat="46.68319" lon="5.64533">
        <ele>496.8</ele>
        <time>2020-03-03T12:27:32Z</time>
      </trkpt>
      <trkpt lat="46.68321" lon="5.64539">
        <ele>496.8</ele>
        <time>2020-03-03T12:27:36Z</time>
      </trkpt>
      <trkpt lat="46.68324" lon="5.64546">
        <ele>496.7</ele>
        <time>2020-03-03T12:27:41Z</time>
      </trkpt>
      <trkpt lat="46.68327" lon="5.64552">
        <ele>496.5</ele>
        <time>2020-03-03T12:27:45Z</time>
      </trkpt>
      <trkpt lat="46.68329" lon="5.64558">
        <ele>496.4</ele>
        <time>2020-03-03T12:27:49Z</time>
      </trkpt>
      <trkpt lat="46.68332" lon="5.64564">
        <ele>496.5</ele>
        <time>2020-03-03T12:27:53Z</time>
      </trkpt>
      <trkpt lat="46.68336" lon="5.64569">
        <ele>496.4</ele>
        <time>2020-03-03T12:27:57Z</time>
      </trkpt>
      <trkpt lat="46.6834" lon="5.64574">
        <ele>496.4</ele>
        <time>2020-03-03T12:28:01Z</time>
      </trkpt>
      <trkpt lat="46.68345" lon="5.64577">
        <ele>496.4</ele>
        <time>2020-03-03T12:28:05Z</time>
      </trkpt>
      <trkpt lat="46.68349" lon="5.64581">
        <ele>496.6</ele>
        <time>2020-03-03T12:28:09Z</time>
      </trkpt>
      <trkpt lat="46.68353" lon="5.64584">
        <ele>497</ele>
        <time>2020-03-03T12:28:13Z</time>
      </trkpt>
      <trkpt lat="46.68357" lon="5.64589">
        <ele>497.6</ele>
        <time>2020-03-03T12:28:18Z</time>
      </trkpt>
      <trkpt lat="46.68361" lon="5.64594">
        <ele>498.2</ele>
        <time>2020-03-03T12:28:22Z</time>
      </trkpt>
      <trkpt lat="46.68364" lon="5.646">
        <ele>498.5</ele>
        <time>2020-03-03T12:28:26Z</time>
      </trkpt>
      <trkpt lat="46.68367" lon="5.64607">
        <ele>499</ele>
        <time>2020-03-03T12:28:31Z</time>
      </trkpt>
      <trkpt lat="46.6837" lon="5.64613">
        <ele>499.4</ele>
        <time>2020-03-03T12:28:35Z</time>
      </trkpt>
      <trkpt lat="46.68372" lon="5.64619">
        <ele>499.9</ele>
        <time>2020-03-03T12:28:39Z</time>
      </trkpt>
      <trkpt lat="46.68374" lon="5.64625">
        <ele>500.5</ele>
        <time>2020-03-03T12:28:43Z</time>
      </trkpt>
      <trkpt lat="46.68373" lon="5.64634">
        <ele>501.3</ele>
        <time>2020-03-03T12:28:49Z</time>
      </trkpt>
      <trkpt lat="46.68372" lon="5.64641">
        <ele>501.7</ele>
        <time>2020-03-03T12:28:53Z</time>
      </trkpt>
      <trkpt lat="46.68372" lon="5.64648">
        <ele>501.9</ele>
        <time>2020-03-03T12:28:57Z</time>
      </trkpt>
      <trkpt lat="46.68372" lon="5.64655">
        <ele>502.1</ele>
        <time>2020-03-03T12:29:01Z</time>
      </trkpt>
      <trkpt lat="46.68373" lon="5.64662">
        <ele>502.2</ele>
        <time>2020-03-03T12:29:05Z</time>
      </trkpt>
      <trkpt lat="46.68374" lon="5.64669">
        <ele>502.1</ele>
        <time>2020-03-03T12:29:09Z</time>
      </trkpt>
      <trkpt lat="46.68374" lon="5.64677">
        <ele>502.2</ele>
        <time>2020-03-03T12:29:14Z</time>
      </trkpt>
      <trkpt lat="46.68375" lon="5.64685">
        <ele>502.2</ele>
        <time>2020-03-03T12:29:18Z</time>
      </trkpt>
      <trkpt lat="46.68375" lon="5.64693">
        <ele>501.9</ele>
        <time>2020-03-03T12:29:23Z</time>
      </trkpt>
      <trkpt lat="46.68375" lon="5.647">
        <ele>501.7</ele>
        <time>2020-03-03T12:29:27Z</time>
      </trkpt>
      <trkpt lat="46.68375" lon="5.64708">
        <ele>501.3</ele>
        <time>2020-03-03T12:29:32Z</time>
      </trkpt>
      <trkpt lat="46.68374" lon="5.64715">
        <ele>501</ele>
        <time>2020-03-03T12:29:36Z</time>
      </trkpt>
      <trkpt lat="46.68373" lon="5.64721">
        <ele>500.7</ele>
        <time>2020-03-03T12:29:39Z</time>
      </trkpt>
      <trkpt lat="46.68372" lon="5.64728">
        <ele>500.3</ele>
        <time>2020-03-03T12:29:43Z</time>
      </trkpt>
      <trkpt lat="46.68372" lon="5.64735">
        <ele>500.1</ele>
        <time>2020-03-03T12:29:47Z</time>
      </trkpt>
      <trkpt lat="46.68371" lon="5.64742">
        <ele>500.1</ele>
        <time>2020-03-03T12:29:51Z</time>
      </trkpt>
      <trkpt lat="46.68371" lon="5.64748">
        <ele>500.2</ele>
        <time>2020-03-03T12:29:56Z</time>
      </trkpt>
      <trkpt lat="46.6837" lon="5.64755">
        <ele>500.3</ele>
        <time>2020-03-03T12:30:01Z</time>
      </trkpt>
      <trkpt lat="46.68369" lon="5.64762">
        <ele>500.5</ele>
        <time>2020-03-03T12:30:05Z</time>
      </trkpt>
      <trkpt lat="46.68369" lon="5.6477">
        <ele>500.5</ele>
        <time>2020-03-03T12:30:09Z</time>
      </trkpt>
      <trkpt lat="46.68369" lon="5.64778">
        <ele>500.6</ele>
        <time>2020-03-03T12:30:13Z</time>
      </trkpt>
      <trkpt lat="46.68369" lon="5.64785">
        <ele>500.8</ele>
        <time>2020-03-03T12:30:18Z</time>
      </trkpt>
      <trkpt lat="46.68369" lon="5.64791">
        <ele>501</ele>
        <time>2020-03-03T12:30:23Z</time>
      </trkpt>
      <trkpt lat="46.68368" lon="5.648">
        <ele>501.1</ele>
        <time>2020-03-03T12:30:27Z</time>
      </trkpt>
      <trkpt lat="46.68368" lon="5.64806">
        <ele>501.1</ele>
        <time>2020-03-03T12:30:31Z</time>
      </trkpt>
      <trkpt lat="46.68367" lon="5.64813">
        <ele>501</ele>
        <time>2020-03-03T12:30:35Z</time>
      </trkpt>
      <trkpt lat="46.68365" lon="5.64821">
        <ele>500.7</ele>
        <time>2020-03-03T12:30:39Z</time>
      </trkpt>
      <trkpt lat="46.68364" lon="5.64828">
        <ele>500.3</ele>
        <time>2020-03-03T12:30:43Z</time>
      </trkpt>
      <trkpt lat="46.68362" lon="5.64835">
        <ele>499.8</ele>
        <time>2020-03-03T12:30:48Z</time>
      </trkpt>
      <trkpt lat="46.6836" lon="5.64842">
        <ele>499.4</ele>
        <time>2020-03-03T12:30:52Z</time>
      </trkpt>
      <trkpt lat="46.68359" lon="5.64849">
        <ele>499</ele>
        <time>2020-03-03T12:30:57Z</time>
      </trkpt>
      <trkpt lat="46.68359" lon="5.64856">
        <ele>498.6</ele>
        <time>2020-03-03T12:31:03Z</time>
      </trkpt>
      <trkpt lat="46.68359" lon="5.64863">
        <ele>498.4</ele>
        <time>2020-03-03T12:31:07Z</time>
      </trkpt>
      <trkpt lat="46.68358" lon="5.6487">
        <ele>498.3</ele>
        <time>2020-03-03T12:31:10Z</time>
      </trkpt>
      <trkpt lat="46.68356" lon="5.64877">
        <ele>498.3</ele>
        <time>2020-03-03T12:31:14Z</time>
      </trkpt>
      <trkpt lat="46.68355" lon="5.64883">
        <ele>498.3</ele>
        <time>2020-03-03T12:31:19Z</time>
      </trkpt>
      <trkpt lat="46.68354" lon="5.64891">
        <ele>498.2</ele>
        <time>2020-03-03T12:31:24Z</time>
      </trkpt>
      <trkpt lat="46.68354" lon="5.64898">
        <ele>498.2</ele>
        <time>2020-03-03T12:31:28Z</time>
      </trkpt>
      <trkpt lat="46.68354" lon="5.64905">
        <ele>498</ele>
        <time>2020-03-03T12:31:33Z</time>
      </trkpt>
      <trkpt lat="46.68355" lon="5.64913">
        <ele>497.7</ele>
        <time>2020-03-03T12:31:38Z</time>
      </trkpt>
      <trkpt lat="46.68354" lon="5.64919">
        <ele>497.3</ele>
        <time>2020-03-03T12:31:44Z</time>
      </trkpt>
      <trkpt lat="46.68354" lon="5.64927">
        <ele>497.1</ele>
        <time>2020-03-03T12:31:50Z</time>
      </trkpt>
      <trkpt lat="46.68352" lon="5.64934">
        <ele>496.9</ele>
        <time>2020-03-03T12:31:55Z</time>
      </trkpt>
      <trkpt lat="46.68352" lon="5.64941">
        <ele>496.7</ele>
        <time>2020-03-03T12:31:59Z</time>
      </trkpt>
      <trkpt lat="46.68352" lon="5.64949">
        <ele>496.3</ele>
        <time>2020-03-03T12:32:05Z</time>
      </trkpt>
      <trkpt lat="46.68352" lon="5.64956">
        <ele>495.8</ele>
        <time>2020-03-03T12:32:11Z</time>
      </trkpt>
      <trkpt lat="46.68352" lon="5.64963">
        <ele>495.6</ele>
        <time>2020-03-03T12:32:16Z</time>
      </trkpt>
      <trkpt lat="46.68352" lon="5.6497">
        <ele>495.5</ele>
        <time>2020-03-03T12:32:20Z</time>
      </trkpt>
      <trkpt lat="46.68353" lon="5.64978">
        <ele>495.6</ele>
        <time>2020-03-03T12:32:25Z</time>
      </trkpt>
      <trkpt lat="46.68354" lon="5.64986">
        <ele>495.9</ele>
        <time>2020-03-03T12:32:30Z</time>
      </trkpt>
      <trkpt lat="46.68356" lon="5.64993">
        <ele>496.1</ele>
        <time>2020-03-03T12:32:34Z</time>
      </trkpt>
      <trkpt lat="46.68357" lon="5.65001">
        <ele>496.5</ele>
        <time>2020-03-03T12:32:38Z</time>
      </trkpt>
      <trkpt lat="46.68357" lon="5.65007">
        <ele>496.9</ele>
        <time>2020-03-03T12:32:42Z</time>
      </trkpt>
      <trkpt lat="46.68359" lon="5.65015">
        <ele>497.4</ele>
        <time>2020-03-03T12:32:46Z</time>
      </trkpt>
      <trkpt lat="46.6836" lon="5.65022">
        <ele>497.9</ele>
        <time>2020-03-03T12:32:50Z</time>
      </trkpt>
      <trkpt lat="46.68361" lon="5.65029">
        <ele>498.4</ele>
        <time>2020-03-03T12:32:54Z</time>
      </trkpt>
      <trkpt lat="46.68362" lon="5.65035">
        <ele>498.9</ele>
        <time>2020-03-03T12:32:59Z</time>
      </trkpt>
      <trkpt lat="46.68363" lon="5.65043">
        <ele>499.4</ele>
        <time>2020-03-03T12:33:05Z</time>
      </trkpt>
      <trkpt lat="46.68363" lon="5.6505">
        <ele>499.4</ele>
        <time>2020-03-03T12:33:11Z</time>
      </trkpt>
      <trkpt lat="46.68363" lon="5.65058">
        <ele>499.2</ele>
        <time>2020-03-03T12:33:17Z</time>
      </trkpt>
      <trkpt lat="46.68363" lon="5.65065">
        <ele>499.1</ele>
        <time>2020-03-03T12:33:21Z</time>
      </trkpt>
      <trkpt lat="46.68363" lon="5.65072">
        <ele>498.9</ele>
        <time>2020-03-03T12:33:25Z</time>
      </trkpt>
      <trkpt lat="46.68364" lon="5.65079">
        <ele>498.6</ele>
        <time>2020-03-03T12:33:29Z</time>
      </trkpt>
      <trkpt lat="46.68365" lon="5.65087">
        <ele>498.1</ele>
        <time>2020-03-03T12:33:34Z</time>
      </trkpt>
      <trkpt lat="46.68367" lon="5.65093">
        <ele>497.7</ele>
        <time>2020-03-03T12:33:38Z</time>
      </trkpt>
      <trkpt lat="46.68367" lon="5.651">
        <ele>497.4</ele>
        <time>2020-03-03T12:33:42Z</time>
      </trkpt>
      <trkpt lat="46.68368" lon="5.65108">
        <ele>497</ele>
        <time>2020-03-03T12:33:47Z</time>
      </trkpt>
      <trkpt lat="46.68369" lon="5.65115">
        <ele>496.7</ele>
        <time>2020-03-03T12:33:51Z</time>
      </trkpt>
      <trkpt lat="46.68371" lon="5.65122">
        <ele>496.5</ele>
        <time>2020-03-03T12:33:57Z</time>
      </trkpt>
      <trkpt lat="46.68373" lon="5.65129">
        <ele>496.3</ele>
        <time>2020-03-03T12:34:02Z</time>
      </trkpt>
      <trkpt lat="46.68374" lon="5.65135">
        <ele>496.3</ele>
        <time>2020-03-03T12:34:06Z</time>
      </trkpt>
      <trkpt lat="46.68376" lon="5.65142">
        <ele>496.3</ele>
        <time>2020-03-03T12:34:10Z</time>
      </trkpt>
      <trkpt lat="46.68378" lon="5.6515">
        <ele>496.4</ele>
        <time>2020-03-03T12:34:14Z</time>
      </trkpt>
      <trkpt lat="46.6838" lon="5.65158">
        <ele>496.4</ele>
        <time>2020-03-03T12:34:18Z</time>
      </trkpt>
      <trkpt lat="46.68381" lon="5.65165">
        <ele>496.4</ele>
        <time>2020-03-03T12:34:22Z</time>
      </trkpt>
      <trkpt lat="46.68382" lon="5.65172">
        <ele>496.4</ele>
        <time>2020-03-03T12:34:27Z</time>
      </trkpt>
      <trkpt lat="46.68384" lon="5.6518">
        <ele>496.4</ele>
        <time>2020-03-03T12:34:32Z</time>
      </trkpt>
      <trkpt lat="46.68384" lon="5.65188">
        <ele>496.5</ele>
        <time>2020-03-03T12:34:37Z</time>
      </trkpt>
      <trkpt lat="46.68386" lon="5.65195">
        <ele>496.6</ele>
        <time>2020-03-03T12:34:42Z</time>
      </trkpt>
      <trkpt lat="46.68386" lon="5.65202">
        <ele>496.6</ele>
        <time>2020-03-03T12:34:47Z</time>
      </trkpt>
      <trkpt lat="46.68386" lon="5.65209">
        <ele>496.3</ele>
        <time>2020-03-03T12:34:52Z</time>
      </trkpt>
      <trkpt lat="46.68387" lon="5.65216">
        <ele>496.2</ele>
        <time>2020-03-03T12:34:56Z</time>
      </trkpt>
      <trkpt lat="46.68387" lon="5.65223">
        <ele>496</ele>
        <time>2020-03-03T12:35:01Z</time>
      </trkpt>
      <trkpt lat="46.68388" lon="5.6523">
        <ele>495.7</ele>
        <time>2020-03-03T12:35:06Z</time>
      </trkpt>
      <trkpt lat="46.68388" lon="5.65238">
        <ele>495.4</ele>
        <time>2020-03-03T12:35:11Z</time>
      </trkpt>
      <trkpt lat="46.68388" lon="5.65245">
        <ele>495.1</ele>
        <time>2020-03-03T12:35:15Z</time>
      </trkpt>
      <trkpt lat="46.68388" lon="5.65252">
        <ele>494.9</ele>
        <time>2020-03-03T12:35:19Z</time>
      </trkpt>
      <trkpt lat="46.68388" lon="5.6526">
        <ele>494.7</ele>
        <time>2020-03-03T12:35:23Z</time>
      </trkpt>
      <trkpt lat="46.68389" lon="5.65266">
        <ele>494.5</ele>
        <time>2020-03-03T12:35:27Z</time>
      </trkpt>
      <trkpt lat="46.68389" lon="5.65274">
        <ele>494.3</ele>
        <time>2020-03-03T12:35:32Z</time>
      </trkpt>
      <trkpt lat="46.68389" lon="5.65282">
        <ele>494</ele>
        <time>2020-03-03T12:35:37Z</time>
      </trkpt>
      <trkpt lat="46.68389" lon="5.65289">
        <ele>493.8</ele>
        <time>2020-03-03T12:35:42Z</time>
      </trkpt>
      <trkpt lat="46.68389" lon="5.65296">
        <ele>493.6</ele>
        <time>2020-03-03T12:35:47Z</time>
      </trkpt>
      <trkpt lat="46.6839" lon="5.65304">
        <ele>493.6</ele>
        <time>2020-03-03T12:35:53Z</time>
      </trkpt>
      <trkpt lat="46.68391" lon="5.65311">
        <ele>493.5</ele>
        <time>2020-03-03T12:35:57Z</time>
      </trkpt>
      <trkpt lat="46.68391" lon="5.65318">
        <ele>493.3</ele>
        <time>2020-03-03T12:36:01Z</time>
      </trkpt>
      <trkpt lat="46.6839" lon="5.65325">
        <ele>492.9</ele>
        <time>2020-03-03T12:36:05Z</time>
      </trkpt>
      <trkpt lat="46.68389" lon="5.65332">
        <ele>492.4</ele>
        <time>2020-03-03T12:36:09Z</time>
      </trkpt>
      <trkpt lat="46.68387" lon="5.6534">
        <ele>491.8</ele>
        <time>2020-03-03T12:36:13Z</time>
      </trkpt>
      <trkpt lat="46.68386" lon="5.65348">
        <ele>491.2</ele>
        <time>2020-03-03T12:36:17Z</time>
      </trkpt>
      <trkpt lat="46.68385" lon="5.65356">
        <ele>490.7</ele>
        <time>2020-03-03T12:36:21Z</time>
      </trkpt>
      <trkpt lat="46.68384" lon="5.65362">
        <ele>490.3</ele>
        <time>2020-03-03T12:36:25Z</time>
      </trkpt>
      <trkpt lat="46.68382" lon="5.65369">
        <ele>489.8</ele>
        <time>2020-03-03T12:36:30Z</time>
      </trkpt>
      <trkpt lat="46.68381" lon="5.65376">
        <ele>489.6</ele>
        <time>2020-03-03T12:36:34Z</time>
      </trkpt>
      <trkpt lat="46.68379" lon="5.65383">
        <ele>489.2</ele>
        <time>2020-03-03T12:36:39Z</time>
      </trkpt>
      <trkpt lat="46.68378" lon="5.65391">
        <ele>489</ele>
        <time>2020-03-03T12:36:44Z</time>
      </trkpt>
      <trkpt lat="46.68377" lon="5.65398">
        <ele>488.6</ele>
        <time>2020-03-03T12:36:49Z</time>
      </trkpt>
      <trkpt lat="46.68377" lon="5.65406">
        <ele>488.2</ele>
        <time>2020-03-03T12:36:54Z</time>
      </trkpt>
      <trkpt lat="46.68377" lon="5.65413">
        <ele>487.7</ele>
        <time>2020-03-03T12:36:59Z</time>
      </trkpt>
      <trkpt lat="46.68377" lon="5.6542">
        <ele>487.3</ele>
        <time>2020-03-03T12:37:03Z</time>
      </trkpt>
      <trkpt lat="46.68377" lon="5.65427">
        <ele>487.1</ele>
        <time>2020-03-03T12:37:07Z</time>
      </trkpt>
      <trkpt lat="46.68377" lon="5.65435">
        <ele>487.1</ele>
        <time>2020-03-03T12:37:12Z</time>
      </trkpt>
      <trkpt lat="46.68378" lon="5.65442">
        <ele>487.2</ele>
        <time>2020-03-03T12:37:16Z</time>
      </trkpt>
      <trkpt lat="46.68379" lon="5.65449">
        <ele>487.4</ele>
        <time>2020-03-03T12:37:21Z</time>
      </trkpt>
      <trkpt lat="46.68381" lon="5.65457">
        <ele>487.7</ele>
        <time>2020-03-03T12:37:26Z</time>
      </trkpt>
      <trkpt lat="46.68383" lon="5.65465">
        <ele>487.8</ele>
        <time>2020-03-03T12:37:31Z</time>
      </trkpt>
      <trkpt lat="46.68384" lon="5.65471">
        <ele>487.8</ele>
        <time>2020-03-03T12:37:35Z</time>
      </trkpt>
      <trkpt lat="46.68387" lon="5.65479">
        <ele>487.8</ele>
        <time>2020-03-03T12:37:40Z</time>
      </trkpt>
      <trkpt lat="46.68388" lon="5.65485">
        <ele>487.7</ele>
        <time>2020-03-03T12:37:44Z</time>
      </trkpt>
      <trkpt lat="46.68389" lon="5.65492">
        <ele>487.7</ele>
        <time>2020-03-03T12:37:48Z</time>
      </trkpt>
      <trkpt lat="46.68391" lon="5.65498">
        <ele>487.9</ele>
        <time>2020-03-03T12:37:52Z</time>
      </trkpt>
      <trkpt lat="46.68393" lon="5.65505">
        <ele>488.1</ele>
        <time>2020-03-03T12:37:56Z</time>
      </trkpt>
      <trkpt lat="46.68396" lon="5.6551">
        <ele>488.4</ele>
        <time>2020-03-03T12:38:00Z</time>
      </trkpt>
      <trkpt lat="46.68398" lon="5.65516">
        <ele>488.6</ele>
        <time>2020-03-03T12:38:04Z</time>
      </trkpt>
      <trkpt lat="46.68402" lon="5.65522">
        <ele>488.8</ele>
        <time>2020-03-03T12:38:08Z</time>
      </trkpt>
      <trkpt lat="46.68405" lon="5.65528">
        <ele>489</ele>
        <time>2020-03-03T12:38:12Z</time>
      </trkpt>
      <trkpt lat="46.68408" lon="5.65535">
        <ele>489.1</ele>
        <time>2020-03-03T12:38:16Z</time>
      </trkpt>
      <trkpt lat="46.6841" lon="5.6554">
        <ele>489</ele>
        <time>2020-03-03T12:38:19Z</time>
      </trkpt>
      <trkpt lat="46.68413" lon="5.65546">
        <ele>488.9</ele>
        <time>2020-03-03T12:38:24Z</time>
      </trkpt>
      <trkpt lat="46.68415" lon="5.65553">
        <ele>488.9</ele>
        <time>2020-03-03T12:38:29Z</time>
      </trkpt>
      <trkpt lat="46.68418" lon="5.65559">
        <ele>488.9</ele>
        <time>2020-03-03T12:38:33Z</time>
      </trkpt>
      <trkpt lat="46.68421" lon="5.65565">
        <ele>488.8</ele>
        <time>2020-03-03T12:38:37Z</time>
      </trkpt>
      <trkpt lat="46.68423" lon="5.65571">
        <ele>488.6</ele>
        <time>2020-03-03T12:38:41Z</time>
      </trkpt>
      <trkpt lat="46.68425" lon="5.65578">
        <ele>488.4</ele>
        <time>2020-03-03T12:38:46Z</time>
      </trkpt>
      <trkpt lat="46.68427" lon="5.65585">
        <ele>488.4</ele>
        <time>2020-03-03T12:38:51Z</time>
      </trkpt>
      <trkpt lat="46.68429" lon="5.65591">
        <ele>488.4</ele>
        <time>2020-03-03T12:38:56Z</time>
      </trkpt>
      <trkpt lat="46.68431" lon="5.65598">
        <ele>488.3</ele>
        <time>2020-03-03T12:39:01Z</time>
      </trkpt>
      <trkpt lat="46.68433" lon="5.65605">
        <ele>488.4</ele>
        <time>2020-03-03T12:39:05Z</time>
      </trkpt>
      <trkpt lat="46.68435" lon="5.65612">
        <ele>488.6</ele>
        <time>2020-03-03T12:39:10Z</time>
      </trkpt>
      <trkpt lat="46.68437" lon="5.65619">
        <ele>488.8</ele>
        <time>2020-03-03T12:39:14Z</time>
      </trkpt>
      <trkpt lat="46.6844" lon="5.65624">
        <ele>489</ele>
        <time>2020-03-03T12:39:18Z</time>
      </trkpt>
      <trkpt lat="46.68443" lon="5.65629">
        <ele>489.2</ele>
        <time>2020-03-03T12:39:23Z</time>
      </trkpt>
      <trkpt lat="46.68446" lon="5.65634">
        <ele>489.1</ele>
        <time>2020-03-03T12:39:27Z</time>
      </trkpt>
      <trkpt lat="46.6845" lon="5.6564">
        <ele>489.1</ele>
        <time>2020-03-03T12:39:32Z</time>
      </trkpt>
      <trkpt lat="46.68454" lon="5.65645">
        <ele>489</ele>
        <time>2020-03-03T12:39:37Z</time>
      </trkpt>
      <trkpt lat="46.68455" lon="5.65652">
        <ele>489.8</ele>
        <time>2020-03-03T12:39:49Z</time>
      </trkpt>
      <trkpt lat="46.68456" lon="5.65659">
        <ele>490.2</ele>
        <time>2020-03-03T12:39:55Z</time>
      </trkpt>
      <trkpt lat="46.68453" lon="5.65664">
        <ele>490.9</ele>
        <time>2020-03-03T12:40:07Z</time>
      </trkpt>
      <trkpt lat="46.68449" lon="5.65669">
        <ele>491.9</ele>
        <time>2020-03-03T12:40:25Z</time>
      </trkpt>
      <trkpt lat="46.68452" lon="5.65675">
        <ele>494.5</ele>
        <time>2020-03-03T12:41:02Z</time>
      </trkpt>
      <trkpt lat="46.68457" lon="5.65677">
        <ele>495.4</ele>
        <time>2020-03-03T12:41:10Z</time>
      </trkpt>
      <trkpt lat="46.68461" lon="5.65678">
        <ele>495.4</ele>
        <time>2020-03-03T12:41:15Z</time>
      </trkpt>
      <trkpt lat="46.68466" lon="5.65682">
        <ele>495.4</ele>
        <time>2020-03-03T12:41:18Z</time>
      </trkpt>
      <trkpt lat="46.68471" lon="5.65684">
        <ele>495.5</ele>
        <time>2020-03-03T12:41:23Z</time>
      </trkpt>
      <trkpt lat="46.68476" lon="5.65688">
        <ele>495.8</ele>
        <time>2020-03-03T12:41:28Z</time>
      </trkpt>
      <trkpt lat="46.68481" lon="5.65692">
        <ele>496.4</ele>
        <time>2020-03-03T12:41:32Z</time>
      </trkpt>
      <trkpt lat="46.68486" lon="5.65694">
        <ele>497.1</ele>
        <time>2020-03-03T12:41:37Z</time>
      </trkpt>
      <trkpt lat="46.68491" lon="5.65697">
        <ele>497.7</ele>
        <time>2020-03-03T12:41:41Z</time>
      </trkpt>
      <trkpt lat="46.68496" lon="5.65699">
        <ele>498.5</ele>
        <time>2020-03-03T12:41:46Z</time>
      </trkpt>
      <trkpt lat="46.68501" lon="5.65701">
        <ele>499.4</ele>
        <time>2020-03-03T12:41:52Z</time>
      </trkpt>
      <trkpt lat="46.68506" lon="5.65704">
        <ele>500.4</ele>
        <time>2020-03-03T12:41:57Z</time>
      </trkpt>
      <trkpt lat="46.6851" lon="5.65707">
        <ele>501.3</ele>
        <time>2020-03-03T12:42:02Z</time>
      </trkpt>
      <trkpt lat="46.68513" lon="5.65713">
        <ele>502</ele>
        <time>2020-03-03T12:42:06Z</time>
      </trkpt>
      <trkpt lat="46.68515" lon="5.6572">
        <ele>503</ele>
        <time>2020-03-03T12:42:11Z</time>
      </trkpt>
      <trkpt lat="46.68516" lon="5.65726">
        <ele>504.1</ele>
        <time>2020-03-03T12:42:18Z</time>
      </trkpt>
      <trkpt lat="46.68517" lon="5.65733">
        <ele>504.3</ele>
        <time>2020-03-03T12:42:22Z</time>
      </trkpt>
      <trkpt lat="46.6852" lon="5.6574">
        <ele>504</ele>
        <time>2020-03-03T12:42:27Z</time>
      </trkpt>
      <trkpt lat="46.6852" lon="5.65746">
        <ele>503.3</ele>
        <time>2020-03-03T12:42:33Z</time>
      </trkpt>
      <trkpt lat="46.6852" lon="5.65753">
        <ele>502.8</ele>
        <time>2020-03-03T12:42:38Z</time>
      </trkpt>
      <trkpt lat="46.6852" lon="5.6576">
        <ele>502.6</ele>
        <time>2020-03-03T12:42:43Z</time>
      </trkpt>
      <trkpt lat="46.6852" lon="5.65768">
        <ele>502.7</ele>
        <time>2020-03-03T12:42:47Z</time>
      </trkpt>
      <trkpt lat="46.6852" lon="5.65776">
        <ele>502.8</ele>
        <time>2020-03-03T12:42:50Z</time>
      </trkpt>
      <trkpt lat="46.6852" lon="5.65783">
        <ele>503</ele>
        <time>2020-03-03T12:42:54Z</time>
      </trkpt>
      <trkpt lat="46.6852" lon="5.65791">
        <ele>503.1</ele>
        <time>2020-03-03T12:42:58Z</time>
      </trkpt>
      <trkpt lat="46.6852" lon="5.65797">
        <ele>503.2</ele>
        <time>2020-03-03T12:43:02Z</time>
      </trkpt>
      <trkpt lat="46.6852" lon="5.65804">
        <ele>502.9</ele>
        <time>2020-03-03T12:43:08Z</time>
      </trkpt>
      <trkpt lat="46.68521" lon="5.65811">
        <ele>502.3</ele>
        <time>2020-03-03T12:43:13Z</time>
      </trkpt>
      <trkpt lat="46.6852" lon="5.65818">
        <ele>501.4</ele>
        <time>2020-03-03T12:43:19Z</time>
      </trkpt>
      <trkpt lat="46.6852" lon="5.65824">
        <ele>500.9</ele>
        <time>2020-03-03T12:43:23Z</time>
      </trkpt>
      <trkpt lat="46.6852" lon="5.65832">
        <ele>500.5</ele>
        <time>2020-03-03T12:43:27Z</time>
      </trkpt>
      <trkpt lat="46.6852" lon="5.6584">
        <ele>500.6</ele>
        <time>2020-03-03T12:43:31Z</time>
      </trkpt>
      <trkpt lat="46.6852" lon="5.65847">
        <ele>500.6</ele>
        <time>2020-03-03T12:43:35Z</time>
      </trkpt>
      <trkpt lat="46.68521" lon="5.65853">
        <ele>500.5</ele>
        <time>2020-03-03T12:43:40Z</time>
      </trkpt>
      <trkpt lat="46.68523" lon="5.6586">
        <ele>500.2</ele>
        <time>2020-03-03T12:43:45Z</time>
      </trkpt>
      <trkpt lat="46.68523" lon="5.65866">
        <ele>499.8</ele>
        <time>2020-03-03T12:43:51Z</time>
      </trkpt>
      <trkpt lat="46.68524" lon="5.65873">
        <ele>499.6</ele>
        <time>2020-03-03T12:43:57Z</time>
      </trkpt>
      <trkpt lat="46.68527" lon="5.65879">
        <ele>499.4</ele>
        <time>2020-03-03T12:44:02Z</time>
      </trkpt>
      <trkpt lat="46.68529" lon="5.65885">
        <ele>499.5</ele>
        <time>2020-03-03T12:44:12Z</time>
      </trkpt>
      <trkpt lat="46.68532" lon="5.65892">
        <ele>499.6</ele>
        <time>2020-03-03T12:44:18Z</time>
      </trkpt>
      <trkpt lat="46.68537" lon="5.65906">
        <ele>498.8</ele>
        <time>2020-03-03T12:44:32Z</time>
      </trkpt>
      <trkpt lat="46.68539" lon="5.65914">
        <ele>498.5</ele>
        <time>2020-03-03T12:44:37Z</time>
      </trkpt>
      <trkpt lat="46.68541" lon="5.65923">
        <ele>498.6</ele>
        <time>2020-03-03T12:44:40Z</time>
      </trkpt>
      <trkpt lat="46.68542" lon="5.65929">
        <ele>498.9</ele>
        <time>2020-03-03T12:44:42Z</time>
      </trkpt>
      <trkpt lat="46.68544" lon="5.65935">
        <ele>499.4</ele>
        <time>2020-03-03T12:44:45Z</time>
      </trkpt>
      <trkpt lat="46.68548" lon="5.65941">
        <ele>500.4</ele>
        <time>2020-03-03T12:44:49Z</time>
      </trkpt>
      <trkpt lat="46.68551" lon="5.65946">
        <ele>501.3</ele>
        <time>2020-03-03T12:44:53Z</time>
      </trkpt>
      <trkpt lat="46.68551" lon="5.65954">
        <ele>502.7</ele>
        <time>2020-03-03T12:44:59Z</time>
      </trkpt>
      <trkpt lat="46.6855" lon="5.65962">
        <ele>503.3</ele>
        <time>2020-03-03T12:45:03Z</time>
      </trkpt>
      <trkpt lat="46.68552" lon="5.65968">
        <ele>503.6</ele>
        <time>2020-03-03T12:45:08Z</time>
      </trkpt>
      <trkpt lat="46.68554" lon="5.65975">
        <ele>503.6</ele>
        <time>2020-03-03T12:45:13Z</time>
      </trkpt>
      <trkpt lat="46.68557" lon="5.65982">
        <ele>503.4</ele>
        <time>2020-03-03T12:45:18Z</time>
      </trkpt>
      <trkpt lat="46.6856" lon="5.65988">
        <ele>503.5</ele>
        <time>2020-03-03T12:45:22Z</time>
      </trkpt>
      <trkpt lat="46.68561" lon="5.65996">
        <ele>503.7</ele>
        <time>2020-03-03T12:45:26Z</time>
      </trkpt>
      <trkpt lat="46.68561" lon="5.66003">
        <ele>503.7</ele>
        <time>2020-03-03T12:45:30Z</time>
      </trkpt>
      <trkpt lat="46.68563" lon="5.66011">
        <ele>503.7</ele>
        <time>2020-03-03T12:45:35Z</time>
      </trkpt>
      <trkpt lat="46.68562" lon="5.66017">
        <ele>504.3</ele>
        <time>2020-03-03T12:45:41Z</time>
      </trkpt>
      <trkpt lat="46.68562" lon="5.66024">
        <ele>505.2</ele>
        <time>2020-03-03T12:45:46Z</time>
      </trkpt>
      <trkpt lat="46.68563" lon="5.66031">
        <ele>506</ele>
        <time>2020-03-03T12:45:50Z</time>
      </trkpt>
      <trkpt lat="46.68565" lon="5.66037">
        <ele>506.8</ele>
        <time>2020-03-03T12:45:54Z</time>
      </trkpt>
      <trkpt lat="46.68566" lon="5.66044">
        <ele>507.2</ele>
        <time>2020-03-03T12:45:58Z</time>
      </trkpt>
      <trkpt lat="46.68568" lon="5.6605">
        <ele>507.3</ele>
        <time>2020-03-03T12:46:03Z</time>
      </trkpt>
      <trkpt lat="46.68569" lon="5.66057">
        <ele>507</ele>
        <time>2020-03-03T12:46:08Z</time>
      </trkpt>
      <trkpt lat="46.68569" lon="5.66064">
        <ele>506.6</ele>
        <time>2020-03-03T12:46:12Z</time>
      </trkpt>
      <trkpt lat="46.68569" lon="5.66071">
        <ele>506</ele>
        <time>2020-03-03T12:46:16Z</time>
      </trkpt>
      <trkpt lat="46.68569" lon="5.66079">
        <ele>505.5</ele>
        <time>2020-03-03T12:46:21Z</time>
      </trkpt>
      <trkpt lat="46.68571" lon="5.66086">
        <ele>505.2</ele>
        <time>2020-03-03T12:46:26Z</time>
      </trkpt>
      <trkpt lat="46.68571" lon="5.66094">
        <ele>505.3</ele>
        <time>2020-03-03T12:46:31Z</time>
      </trkpt>
      <trkpt lat="46.68571" lon="5.66101">
        <ele>505.4</ele>
        <time>2020-03-03T12:46:35Z</time>
      </trkpt>
      <trkpt lat="46.68571" lon="5.66108">
        <ele>505.7</ele>
        <time>2020-03-03T12:46:39Z</time>
      </trkpt>
      <trkpt lat="46.68569" lon="5.66115">
        <ele>506</ele>
        <time>2020-03-03T12:46:44Z</time>
      </trkpt>
      <trkpt lat="46.68568" lon="5.66122">
        <ele>506.5</ele>
        <time>2020-03-03T12:46:49Z</time>
      </trkpt>
      <trkpt lat="46.68568" lon="5.66131">
        <ele>506.8</ele>
        <time>2020-03-03T12:46:54Z</time>
      </trkpt>
      <trkpt lat="46.68567" lon="5.66149">
        <ele>506.1</ele>
        <time>2020-03-03T12:47:08Z</time>
      </trkpt>
      <trkpt lat="46.68566" lon="5.66156">
        <ele>505.7</ele>
        <time>2020-03-03T12:47:13Z</time>
      </trkpt>
      <trkpt lat="46.68565" lon="5.66163">
        <ele>505.3</ele>
        <time>2020-03-03T12:47:18Z</time>
      </trkpt>
      <trkpt lat="46.68564" lon="5.6617">
        <ele>505.1</ele>
        <time>2020-03-03T12:47:22Z</time>
      </trkpt>
      <trkpt lat="46.68562" lon="5.66177">
        <ele>504.8</ele>
        <time>2020-03-03T12:47:27Z</time>
      </trkpt>
      <trkpt lat="46.68561" lon="5.66183">
        <ele>504.4</ele>
        <time>2020-03-03T12:47:32Z</time>
      </trkpt>
      <trkpt lat="46.6856" lon="5.6619">
        <ele>504</ele>
        <time>2020-03-03T12:47:36Z</time>
      </trkpt>
      <trkpt lat="46.6856" lon="5.66198">
        <ele>503.3</ele>
        <time>2020-03-03T12:47:41Z</time>
      </trkpt>
      <trkpt lat="46.6856" lon="5.66205">
        <ele>502.3</ele>
        <time>2020-03-03T12:47:47Z</time>
      </trkpt>
      <trkpt lat="46.68561" lon="5.66213">
        <ele>501.6</ele>
        <time>2020-03-03T12:47:53Z</time>
      </trkpt>
      <trkpt lat="46.68559" lon="5.6622">
        <ele>501.6</ele>
        <time>2020-03-03T12:47:56Z</time>
      </trkpt>
      <trkpt lat="46.68558" lon="5.66228">
        <ele>501.7</ele>
        <time>2020-03-03T12:48:00Z</time>
      </trkpt>
      <trkpt lat="46.68557" lon="5.66235">
        <ele>501.9</ele>
        <time>2020-03-03T12:48:05Z</time>
      </trkpt>
      <trkpt lat="46.68558" lon="5.66242">
        <ele>501.6</ele>
        <time>2020-03-03T12:48:13Z</time>
      </trkpt>
      <trkpt lat="46.68558" lon="5.66249">
        <ele>500.8</ele>
        <time>2020-03-03T12:48:19Z</time>
      </trkpt>
      <trkpt lat="46.68559" lon="5.66256">
        <ele>500.1</ele>
        <time>2020-03-03T12:48:23Z</time>
      </trkpt>
      <trkpt lat="46.68558" lon="5.66263">
        <ele>499.7</ele>
        <time>2020-03-03T12:48:27Z</time>
      </trkpt>
      <trkpt lat="46.68557" lon="5.6627">
        <ele>499.5</ele>
        <time>2020-03-03T12:48:32Z</time>
      </trkpt>
      <trkpt lat="46.68555" lon="5.66288">
        <ele>499.9</ele>
        <time>2020-03-03T12:48:42Z</time>
      </trkpt>
      <trkpt lat="46.68554" lon="5.66295">
        <ele>500.2</ele>
        <time>2020-03-03T12:48:48Z</time>
      </trkpt>
      <trkpt lat="46.68555" lon="5.66303">
        <ele>500.3</ele>
        <time>2020-03-03T12:48:53Z</time>
      </trkpt>
      <trkpt lat="46.68555" lon="5.6631">
        <ele>500.4</ele>
        <time>2020-03-03T12:48:58Z</time>
      </trkpt>
      <trkpt lat="46.68555" lon="5.66317">
        <ele>500.5</ele>
        <time>2020-03-03T12:49:03Z</time>
      </trkpt>
      <trkpt lat="46.68556" lon="5.66325">
        <ele>500.5</ele>
        <time>2020-03-03T12:49:08Z</time>
      </trkpt>
      <trkpt lat="46.68557" lon="5.66331">
        <ele>500.4</ele>
        <time>2020-03-03T12:49:12Z</time>
      </trkpt>
      <trkpt lat="46.68558" lon="5.66339">
        <ele>500.2</ele>
        <time>2020-03-03T12:49:17Z</time>
      </trkpt>
      <trkpt lat="46.68558" lon="5.66345">
        <ele>500.1</ele>
        <time>2020-03-03T12:49:22Z</time>
      </trkpt>
      <trkpt lat="46.68558" lon="5.66353">
        <ele>500</ele>
        <time>2020-03-03T12:49:27Z</time>
      </trkpt>
      <trkpt lat="46.68557" lon="5.66361">
        <ele>500</ele>
        <time>2020-03-03T12:49:32Z</time>
      </trkpt>
      <trkpt lat="46.68555" lon="5.66368">
        <ele>500</ele>
        <time>2020-03-03T12:49:37Z</time>
      </trkpt>
      <trkpt lat="46.68555" lon="5.66376">
        <ele>500.1</ele>
        <time>2020-03-03T12:49:42Z</time>
      </trkpt>
      <trkpt lat="46.68556" lon="5.66384">
        <ele>500.1</ele>
        <time>2020-03-03T12:49:46Z</time>
      </trkpt>
      <trkpt lat="46.68557" lon="5.66392">
        <ele>500.1</ele>
        <time>2020-03-03T12:49:50Z</time>
      </trkpt>
      <trkpt lat="46.68558" lon="5.66399">
        <ele>500</ele>
        <time>2020-03-03T12:49:56Z</time>
      </trkpt>
      <trkpt lat="46.68559" lon="5.66407">
        <ele>499.9</ele>
        <time>2020-03-03T12:50:01Z</time>
      </trkpt>
      <trkpt lat="46.6856" lon="5.66425">
        <ele>500</ele>
        <time>2020-03-03T12:50:10Z</time>
      </trkpt>
      <trkpt lat="46.68562" lon="5.66434">
        <ele>500.1</ele>
        <time>2020-03-03T12:50:13Z</time>
      </trkpt>
      <trkpt lat="46.68565" lon="5.66462">
        <ele>500.7</ele>
        <time>2020-03-03T12:50:21Z</time>
      </trkpt>
      <trkpt lat="46.68566" lon="5.66469">
        <ele>500.8</ele>
        <time>2020-03-03T12:50:23Z</time>
      </trkpt>
      <trkpt lat="46.68565" lon="5.66476">
        <ele>501.2</ele>
        <time>2020-03-03T12:50:26Z</time>
      </trkpt>
      <trkpt lat="46.68564" lon="5.66484">
        <ele>501.8</ele>
        <time>2020-03-03T12:50:31Z</time>
      </trkpt>
      <trkpt lat="46.68563" lon="5.66491">
        <ele>502.4</ele>
        <time>2020-03-03T12:50:36Z</time>
      </trkpt>
      <trkpt lat="46.68563" lon="5.66498">
        <ele>502.9</ele>
        <time>2020-03-03T12:50:40Z</time>
      </trkpt>
      <trkpt lat="46.68565" lon="5.66505">
        <ele>503.5</ele>
        <time>2020-03-03T12:50:47Z</time>
      </trkpt>
      <trkpt lat="46.68567" lon="5.66512">
        <ele>503.8</ele>
        <time>2020-03-03T12:50:52Z</time>
      </trkpt>
      <trkpt lat="46.68569" lon="5.66519">
        <ele>503.9</ele>
        <time>2020-03-03T12:50:56Z</time>
      </trkpt>
      <trkpt lat="46.68571" lon="5.66527">
        <ele>504</ele>
        <time>2020-03-03T12:51:01Z</time>
      </trkpt>
      <trkpt lat="46.68573" lon="5.66533">
        <ele>504</ele>
        <time>2020-03-03T12:51:05Z</time>
      </trkpt>
      <trkpt lat="46.68575" lon="5.66539">
        <ele>504.2</ele>
        <time>2020-03-03T12:51:09Z</time>
      </trkpt>
      <trkpt lat="46.68576" lon="5.66546">
        <ele>504.4</ele>
        <time>2020-03-03T12:51:14Z</time>
      </trkpt>
      <trkpt lat="46.68578" lon="5.66553">
        <ele>504.7</ele>
        <time>2020-03-03T12:51:19Z</time>
      </trkpt>
      <trkpt lat="46.6858" lon="5.6656">
        <ele>504.8</ele>
        <time>2020-03-03T12:51:24Z</time>
      </trkpt>
      <trkpt lat="46.6858" lon="5.66567">
        <ele>504.8</ele>
        <time>2020-03-03T12:51:29Z</time>
      </trkpt>
      <trkpt lat="46.68581" lon="5.66574">
        <ele>504.8</ele>
        <time>2020-03-03T12:51:33Z</time>
      </trkpt>
      <trkpt lat="46.6858" lon="5.66581">
        <ele>504.6</ele>
        <time>2020-03-03T12:51:37Z</time>
      </trkpt>
      <trkpt lat="46.6858" lon="5.66589">
        <ele>504</ele>
        <time>2020-03-03T12:51:42Z</time>
      </trkpt>
      <trkpt lat="46.6858" lon="5.66596">
        <ele>503.5</ele>
        <time>2020-03-03T12:51:46Z</time>
      </trkpt>
      <trkpt lat="46.68581" lon="5.66603">
        <ele>502.9</ele>
        <time>2020-03-03T12:51:51Z</time>
      </trkpt>
      <trkpt lat="46.68582" lon="5.66611">
        <ele>502.7</ele>
        <time>2020-03-03T12:51:56Z</time>
      </trkpt>
      <trkpt lat="46.68582" lon="5.66617">
        <ele>502.6</ele>
        <time>2020-03-03T12:52:00Z</time>
      </trkpt>
      <trkpt lat="46.68583" lon="5.66624">
        <ele>502.3</ele>
        <time>2020-03-03T12:52:05Z</time>
      </trkpt>
      <trkpt lat="46.68583" lon="5.66633">
        <ele>502</ele>
        <time>2020-03-03T12:52:10Z</time>
      </trkpt>
      <trkpt lat="46.68583" lon="5.66641">
        <ele>501.8</ele>
        <time>2020-03-03T12:52:14Z</time>
      </trkpt>
      <trkpt lat="46.68584" lon="5.66649">
        <ele>501.5</ele>
        <time>2020-03-03T12:52:19Z</time>
      </trkpt>
      <trkpt lat="46.68585" lon="5.66656">
        <ele>501.4</ele>
        <time>2020-03-03T12:52:22Z</time>
      </trkpt>
      <trkpt lat="46.68585" lon="5.66663">
        <ele>501.6</ele>
        <time>2020-03-03T12:52:26Z</time>
      </trkpt>
      <trkpt lat="46.68587" lon="5.6667">
        <ele>501.9</ele>
        <time>2020-03-03T12:52:32Z</time>
      </trkpt>
      <trkpt lat="46.68588" lon="5.66678">
        <ele>502.1</ele>
        <time>2020-03-03T12:52:37Z</time>
      </trkpt>
      <trkpt lat="46.6859" lon="5.66685">
        <ele>502.1</ele>
        <time>2020-03-03T12:52:41Z</time>
      </trkpt>
      <trkpt lat="46.68591" lon="5.66692">
        <ele>502</ele>
        <time>2020-03-03T12:52:45Z</time>
      </trkpt>
      <trkpt lat="46.68594" lon="5.66698">
        <ele>502.1</ele>
        <time>2020-03-03T12:53:01Z</time>
      </trkpt>
      <trkpt lat="46.68596" lon="5.66705">
        <ele>502.3</ele>
        <time>2020-03-03T12:53:06Z</time>
      </trkpt>
      <trkpt lat="46.68597" lon="5.66713">
        <ele>502.4</ele>
        <time>2020-03-03T12:53:12Z</time>
      </trkpt>
      <trkpt lat="46.68598" lon="5.6672">
        <ele>502.3</ele>
        <time>2020-03-03T12:53:16Z</time>
      </trkpt>
      <trkpt lat="46.68598" lon="5.66726">
        <ele>502.2</ele>
        <time>2020-03-03T12:53:20Z</time>
      </trkpt>
      <trkpt lat="46.68598" lon="5.66735">
        <ele>502</ele>
        <time>2020-03-03T12:53:24Z</time>
      </trkpt>
      <trkpt lat="46.68598" lon="5.66743">
        <ele>501.9</ele>
        <time>2020-03-03T12:53:28Z</time>
      </trkpt>
      <trkpt lat="46.68599" lon="5.66751">
        <ele>501.9</ele>
        <time>2020-03-03T12:53:32Z</time>
      </trkpt>
      <trkpt lat="46.686" lon="5.66758">
        <ele>502</ele>
        <time>2020-03-03T12:53:38Z</time>
      </trkpt>
      <trkpt lat="46.68601" lon="5.66766">
        <ele>502.1</ele>
        <time>2020-03-03T12:53:42Z</time>
      </trkpt>
      <trkpt lat="46.68602" lon="5.66774">
        <ele>502</ele>
        <time>2020-03-03T12:53:46Z</time>
      </trkpt>
      <trkpt lat="46.68603" lon="5.6678">
        <ele>502.1</ele>
        <time>2020-03-03T12:53:50Z</time>
      </trkpt>
      <trkpt lat="46.68604" lon="5.66787">
        <ele>502.2</ele>
        <time>2020-03-03T12:53:55Z</time>
      </trkpt>
      <trkpt lat="46.68606" lon="5.66794">
        <ele>502.2</ele>
        <time>2020-03-03T12:53:59Z</time>
      </trkpt>
      <trkpt lat="46.68605" lon="5.66801">
        <ele>502.3</ele>
        <time>2020-03-03T12:54:04Z</time>
      </trkpt>
      <trkpt lat="46.68604" lon="5.66808">
        <ele>502.3</ele>
        <time>2020-03-03T12:54:08Z</time>
      </trkpt>
      <trkpt lat="46.68604" lon="5.66815">
        <ele>502.3</ele>
        <time>2020-03-03T12:54:12Z</time>
      </trkpt>
      <trkpt lat="46.68604" lon="5.66823">
        <ele>502.5</ele>
        <time>2020-03-03T12:54:17Z</time>
      </trkpt>
      <trkpt lat="46.68604" lon="5.6683">
        <ele>502.8</ele>
        <time>2020-03-03T12:54:21Z</time>
      </trkpt>
      <trkpt lat="46.68604" lon="5.66838">
        <ele>503.2</ele>
        <time>2020-03-03T12:54:26Z</time>
      </trkpt>
      <trkpt lat="46.68606" lon="5.66844">
        <ele>504.2</ele>
        <time>2020-03-03T12:54:34Z</time>
      </trkpt>
      <trkpt lat="46.68609" lon="5.6685">
        <ele>505.3</ele>
        <time>2020-03-03T12:54:42Z</time>
      </trkpt>
      <trkpt lat="46.68612" lon="5.66855">
        <ele>505.7</ele>
        <time>2020-03-03T12:54:47Z</time>
      </trkpt>
      <trkpt lat="46.68616" lon="5.6686">
        <ele>506</ele>
        <time>2020-03-03T12:54:51Z</time>
      </trkpt>
      <trkpt lat="46.6862" lon="5.66864">
        <ele>506.4</ele>
        <time>2020-03-03T12:54:55Z</time>
      </trkpt>
      <trkpt lat="46.68624" lon="5.66869">
        <ele>506.6</ele>
        <time>2020-03-03T12:54:59Z</time>
      </trkpt>
      <trkpt lat="46.68628" lon="5.66874">
        <ele>506.8</ele>
        <time>2020-03-03T12:55:03Z</time>
      </trkpt>
      <trkpt lat="46.68634" lon="5.66888">
        <ele>506.7</ele>
        <time>2020-03-03T12:55:15Z</time>
      </trkpt>
      <trkpt lat="46.68638" lon="5.66892">
        <ele>506.8</ele>
        <time>2020-03-03T12:55:20Z</time>
      </trkpt>
      <trkpt lat="46.68642" lon="5.66896">
        <ele>506.8</ele>
        <time>2020-03-03T12:55:25Z</time>
      </trkpt>
      <trkpt lat="46.68646" lon="5.66902">
        <ele>506.7</ele>
        <time>2020-03-03T12:55:30Z</time>
      </trkpt>
      <trkpt lat="46.6865" lon="5.66908">
        <ele>506.4</ele>
        <time>2020-03-03T12:55:35Z</time>
      </trkpt>
      <trkpt lat="46.68654" lon="5.66913">
        <ele>506.2</ele>
        <time>2020-03-03T12:55:40Z</time>
      </trkpt>
      <trkpt lat="46.68657" lon="5.66919">
        <ele>506</ele>
        <time>2020-03-03T12:55:45Z</time>
      </trkpt>
      <trkpt lat="46.68659" lon="5.66926">
        <ele>505.7</ele>
        <time>2020-03-03T12:55:51Z</time>
      </trkpt>
      <trkpt lat="46.68662" lon="5.66932">
        <ele>505.3</ele>
        <time>2020-03-03T12:55:56Z</time>
      </trkpt>
      <trkpt lat="46.68665" lon="5.66939">
        <ele>505.2</ele>
        <time>2020-03-03T12:56:00Z</time>
      </trkpt>
      <trkpt lat="46.68668" lon="5.66946">
        <ele>505.2</ele>
        <time>2020-03-03T12:56:05Z</time>
      </trkpt>
      <trkpt lat="46.6867" lon="5.66951">
        <ele>505.2</ele>
        <time>2020-03-03T12:56:09Z</time>
      </trkpt>
      <trkpt lat="46.68673" lon="5.66958">
        <ele>505.1</ele>
        <time>2020-03-03T12:56:14Z</time>
      </trkpt>
      <trkpt lat="46.68675" lon="5.66973">
        <ele>504.4</ele>
        <time>2020-03-03T12:56:25Z</time>
      </trkpt>
      <trkpt lat="46.68677" lon="5.66979">
        <ele>504.1</ele>
        <time>2020-03-03T12:56:30Z</time>
      </trkpt>
      <trkpt lat="46.68683" lon="5.67">
        <ele>503.3</ele>
        <time>2020-03-03T12:56:42Z</time>
      </trkpt>
      <trkpt lat="46.68684" lon="5.67008">
        <ele>503.2</ele>
        <time>2020-03-03T12:56:47Z</time>
      </trkpt>
      <trkpt lat="46.68686" lon="5.67016">
        <ele>503.4</ele>
        <time>2020-03-03T12:56:52Z</time>
      </trkpt>
      <trkpt lat="46.68687" lon="5.67023">
        <ele>503.4</ele>
        <time>2020-03-03T12:56:56Z</time>
      </trkpt>
      <trkpt lat="46.68689" lon="5.6703">
        <ele>503.6</ele>
        <time>2020-03-03T12:57:01Z</time>
      </trkpt>
      <trkpt lat="46.68691" lon="5.67037">
        <ele>503.9</ele>
        <time>2020-03-03T12:57:07Z</time>
      </trkpt>
      <trkpt lat="46.68694" lon="5.67043">
        <ele>504.1</ele>
        <time>2020-03-03T12:57:11Z</time>
      </trkpt>
      <trkpt lat="46.68696" lon="5.6705">
        <ele>504.3</ele>
        <time>2020-03-03T12:57:15Z</time>
      </trkpt>
      <trkpt lat="46.68698" lon="5.67056">
        <ele>504.3</ele>
        <time>2020-03-03T12:57:19Z</time>
      </trkpt>
      <trkpt lat="46.687" lon="5.67063">
        <ele>504.2</ele>
        <time>2020-03-03T12:57:24Z</time>
      </trkpt>
      <trkpt lat="46.68702" lon="5.67069">
        <ele>504.3</ele>
        <time>2020-03-03T12:57:29Z</time>
      </trkpt>
      <trkpt lat="46.68704" lon="5.67075">
        <ele>504.6</ele>
        <time>2020-03-03T12:57:33Z</time>
      </trkpt>
      <trkpt lat="46.68705" lon="5.67082">
        <ele>505</ele>
        <time>2020-03-03T12:57:37Z</time>
      </trkpt>
      <trkpt lat="46.68706" lon="5.67089">
        <ele>505.4</ele>
        <time>2020-03-03T12:57:41Z</time>
      </trkpt>
      <trkpt lat="46.68707" lon="5.67095">
        <ele>505.7</ele>
        <time>2020-03-03T12:57:45Z</time>
      </trkpt>
      <trkpt lat="46.68708" lon="5.67102">
        <ele>505.9</ele>
        <time>2020-03-03T12:57:50Z</time>
      </trkpt>
      <trkpt lat="46.68708" lon="5.6711">
        <ele>506</ele>
        <time>2020-03-03T12:57:55Z</time>
      </trkpt>
      <trkpt lat="46.68709" lon="5.67117">
        <ele>505.9</ele>
        <time>2020-03-03T12:57:59Z</time>
      </trkpt>
      <trkpt lat="46.68709" lon="5.67125">
        <ele>505.9</ele>
        <time>2020-03-03T12:58:03Z</time>
      </trkpt>
      <trkpt lat="46.68709" lon="5.67133">
        <ele>506.1</ele>
        <time>2020-03-03T12:58:08Z</time>
      </trkpt>
      <trkpt lat="46.68709" lon="5.6714">
        <ele>506.4</ele>
        <time>2020-03-03T12:58:13Z</time>
      </trkpt>
      <trkpt lat="46.6871" lon="5.67147">
        <ele>506.6</ele>
        <time>2020-03-03T12:58:17Z</time>
      </trkpt>
      <trkpt lat="46.68709" lon="5.67154">
        <ele>507.1</ele>
        <time>2020-03-03T12:58:22Z</time>
      </trkpt>
      <trkpt lat="46.6871" lon="5.67161">
        <ele>507.3</ele>
        <time>2020-03-03T12:58:27Z</time>
      </trkpt>
      <trkpt lat="46.68711" lon="5.67168">
        <ele>507.3</ele>
        <time>2020-03-03T12:58:33Z</time>
      </trkpt>
      <trkpt lat="46.68712" lon="5.67176">
        <ele>507</ele>
        <time>2020-03-03T12:58:38Z</time>
      </trkpt>
      <trkpt lat="46.68712" lon="5.67182">
        <ele>506.9</ele>
        <time>2020-03-03T12:58:42Z</time>
      </trkpt>
      <trkpt lat="46.68713" lon="5.6719">
        <ele>507</ele>
        <time>2020-03-03T12:58:47Z</time>
      </trkpt>
      <trkpt lat="46.68713" lon="5.67198">
        <ele>507.2</ele>
        <time>2020-03-03T12:58:51Z</time>
      </trkpt>
      <trkpt lat="46.68714" lon="5.67206">
        <ele>507.3</ele>
        <time>2020-03-03T12:58:56Z</time>
      </trkpt>
      <trkpt lat="46.68715" lon="5.67214">
        <ele>507.5</ele>
        <time>2020-03-03T12:59:00Z</time>
      </trkpt>
      <trkpt lat="46.68715" lon="5.67221">
        <ele>507.5</ele>
        <time>2020-03-03T12:59:04Z</time>
      </trkpt>
      <trkpt lat="46.68717" lon="5.67229">
        <ele>507.8</ele>
        <time>2020-03-03T12:59:10Z</time>
      </trkpt>
      <trkpt lat="46.68717" lon="5.67236">
        <ele>508.1</ele>
        <time>2020-03-03T12:59:14Z</time>
      </trkpt>
      <trkpt lat="46.68718" lon="5.67243">
        <ele>508.4</ele>
        <time>2020-03-03T12:59:18Z</time>
      </trkpt>
      <trkpt lat="46.68718" lon="5.6725">
        <ele>508.6</ele>
        <time>2020-03-03T12:59:24Z</time>
      </trkpt>
      <trkpt lat="46.68719" lon="5.67257">
        <ele>508.8</ele>
        <time>2020-03-03T12:59:30Z</time>
      </trkpt>
      <trkpt lat="46.6872" lon="5.67264">
        <ele>509</ele>
        <time>2020-03-03T12:59:35Z</time>
      </trkpt>
      <trkpt lat="46.68722" lon="5.67271">
        <ele>509.3</ele>
        <time>2020-03-03T12:59:39Z</time>
      </trkpt>
      <trkpt lat="46.68724" lon="5.67278">
        <ele>509.5</ele>
        <time>2020-03-03T12:59:43Z</time>
      </trkpt>
      <trkpt lat="46.68725" lon="5.67285">
        <ele>509.8</ele>
        <time>2020-03-03T12:59:48Z</time>
      </trkpt>
      <trkpt lat="46.68728" lon="5.67291">
        <ele>510.1</ele>
        <time>2020-03-03T12:59:53Z</time>
      </trkpt>
      <trkpt lat="46.68731" lon="5.67298">
        <ele>510.3</ele>
        <time>2020-03-03T12:59:57Z</time>
      </trkpt>
      <trkpt lat="46.68735" lon="5.67303">
        <ele>510.3</ele>
        <time>2020-03-03T13:00:01Z</time>
      </trkpt>
      <trkpt lat="46.68737" lon="5.67309">
        <ele>510.4</ele>
        <time>2020-03-03T13:00:05Z</time>
      </trkpt>
      <trkpt lat="46.6874" lon="5.67315">
        <ele>510.4</ele>
        <time>2020-03-03T13:00:09Z</time>
      </trkpt>
      <trkpt lat="46.68743" lon="5.67321">
        <ele>510.6</ele>
        <time>2020-03-03T13:00:14Z</time>
      </trkpt>
      <trkpt lat="46.68746" lon="5.67327">
        <ele>510.6</ele>
        <time>2020-03-03T13:00:20Z</time>
      </trkpt>
      <trkpt lat="46.68748" lon="5.67334">
        <ele>510.7</ele>
        <time>2020-03-03T13:00:26Z</time>
      </trkpt>
      <trkpt lat="46.6875" lon="5.6734">
        <ele>510.5</ele>
        <time>2020-03-03T13:00:31Z</time>
      </trkpt>
      <trkpt lat="46.68753" lon="5.67348">
        <ele>510.3</ele>
        <time>2020-03-03T13:00:36Z</time>
      </trkpt>
      <trkpt lat="46.68756" lon="5.67354">
        <ele>510</ele>
        <time>2020-03-03T13:00:40Z</time>
      </trkpt>
      <trkpt lat="46.68758" lon="5.6736">
        <ele>509.7</ele>
        <time>2020-03-03T13:00:45Z</time>
      </trkpt>
      <trkpt lat="46.6876" lon="5.67366">
        <ele>509.4</ele>
        <time>2020-03-03T13:00:50Z</time>
      </trkpt>
      <trkpt lat="46.68763" lon="5.67373">
        <ele>509.1</ele>
        <time>2020-03-03T13:00:56Z</time>
      </trkpt>
      <trkpt lat="46.68763" lon="5.6738">
        <ele>508.7</ele>
        <time>2020-03-03T13:01:03Z</time>
      </trkpt>
      <trkpt lat="46.68766" lon="5.67386">
        <ele>508.3</ele>
        <time>2020-03-03T13:01:07Z</time>
      </trkpt>
      <trkpt lat="46.68769" lon="5.67393">
        <ele>507.9</ele>
        <time>2020-03-03T13:01:11Z</time>
      </trkpt>
      <trkpt lat="46.68772" lon="5.67415">
        <ele>507.2</ele>
        <time>2020-03-03T13:01:21Z</time>
      </trkpt>
      <trkpt lat="46.68772" lon="5.67422">
        <ele>507.1</ele>
        <time>2020-03-03T13:01:25Z</time>
      </trkpt>
      <trkpt lat="46.68773" lon="5.6743">
        <ele>507.1</ele>
        <time>2020-03-03T13:01:29Z</time>
      </trkpt>
      <trkpt lat="46.68775" lon="5.67437">
        <ele>507.1</ele>
        <time>2020-03-03T13:01:33Z</time>
      </trkpt>
      <trkpt lat="46.68777" lon="5.67444">
        <ele>507</ele>
        <time>2020-03-03T13:01:37Z</time>
      </trkpt>
      <trkpt lat="46.68778" lon="5.67452">
        <ele>506.8</ele>
        <time>2020-03-03T13:01:41Z</time>
      </trkpt>
      <trkpt lat="46.68779" lon="5.67458">
        <ele>506.6</ele>
        <time>2020-03-03T13:01:45Z</time>
      </trkpt>
      <trkpt lat="46.6878" lon="5.67465">
        <ele>506.6</ele>
        <time>2020-03-03T13:01:49Z</time>
      </trkpt>
      <trkpt lat="46.68781" lon="5.67473">
        <ele>506.7</ele>
        <time>2020-03-03T13:01:54Z</time>
      </trkpt>
      <trkpt lat="46.68782" lon="5.67479">
        <ele>506.9</ele>
        <time>2020-03-03T13:01:59Z</time>
      </trkpt>
      <trkpt lat="46.68784" lon="5.67486">
        <ele>507</ele>
        <time>2020-03-03T13:02:03Z</time>
      </trkpt>
      <trkpt lat="46.68786" lon="5.67493">
        <ele>507.2</ele>
        <time>2020-03-03T13:02:08Z</time>
      </trkpt>
      <trkpt lat="46.68788" lon="5.675">
        <ele>507.5</ele>
        <time>2020-03-03T13:02:13Z</time>
      </trkpt>
      <trkpt lat="46.68791" lon="5.67506">
        <ele>507.6</ele>
        <time>2020-03-03T13:02:17Z</time>
      </trkpt>
      <trkpt lat="46.68794" lon="5.67512">
        <ele>507.7</ele>
        <time>2020-03-03T13:02:21Z</time>
      </trkpt>
      <trkpt lat="46.68797" lon="5.67518">
        <ele>507.7</ele>
        <time>2020-03-03T13:02:26Z</time>
      </trkpt>
      <trkpt lat="46.68801" lon="5.67524">
        <ele>507.5</ele>
        <time>2020-03-03T13:02:31Z</time>
      </trkpt>
      <trkpt lat="46.68805" lon="5.67528">
        <ele>507.1</ele>
        <time>2020-03-03T13:02:35Z</time>
      </trkpt>
      <trkpt lat="46.68808" lon="5.67532">
        <ele>506.8</ele>
        <time>2020-03-03T13:02:39Z</time>
      </trkpt>
      <trkpt lat="46.68811" lon="5.67539">
        <ele>506.7</ele>
        <time>2020-03-03T13:02:45Z</time>
      </trkpt>
      <trkpt lat="46.68813" lon="5.67545">
        <ele>506.8</ele>
        <time>2020-03-03T13:02:49Z</time>
      </trkpt>
      <trkpt lat="46.68815" lon="5.67553">
        <ele>506.9</ele>
        <time>2020-03-03T13:02:53Z</time>
      </trkpt>
      <trkpt lat="46.68816" lon="5.67559">
        <ele>507</ele>
        <time>2020-03-03T13:02:57Z</time>
      </trkpt>
      <trkpt lat="46.68819" lon="5.67566">
        <ele>507.1</ele>
        <time>2020-03-03T13:03:02Z</time>
      </trkpt>
      <trkpt lat="46.68823" lon="5.67571">
        <ele>507.5</ele>
        <time>2020-03-03T13:03:08Z</time>
      </trkpt>
      <trkpt lat="46.68827" lon="5.67575">
        <ele>508.3</ele>
        <time>2020-03-03T13:03:12Z</time>
      </trkpt>
      <trkpt lat="46.6883" lon="5.6758">
        <ele>509.2</ele>
        <time>2020-03-03T13:03:15Z</time>
      </trkpt>
      <trkpt lat="46.68832" lon="5.67588">
        <ele>510.2</ele>
        <time>2020-03-03T13:03:19Z</time>
      </trkpt>
      <trkpt lat="46.68835" lon="5.67596">
        <ele>511.1</ele>
        <time>2020-03-03T13:03:23Z</time>
      </trkpt>
      <trkpt lat="46.68836" lon="5.67602">
        <ele>511.6</ele>
        <time>2020-03-03T13:03:26Z</time>
      </trkpt>
      <trkpt lat="46.68837" lon="5.67609">
        <ele>512.2</ele>
        <time>2020-03-03T13:03:30Z</time>
      </trkpt>
      <trkpt lat="46.68839" lon="5.67616">
        <ele>512.9</ele>
        <time>2020-03-03T13:03:34Z</time>
      </trkpt>
      <trkpt lat="46.6884" lon="5.67623">
        <ele>513.8</ele>
        <time>2020-03-03T13:03:43Z</time>
      </trkpt>
      <trkpt lat="46.68844" lon="5.67628">
        <ele>513.9</ele>
        <time>2020-03-03T13:03:47Z</time>
      </trkpt>
      <trkpt lat="46.68846" lon="5.67634">
        <ele>513.9</ele>
        <time>2020-03-03T13:03:51Z</time>
      </trkpt>
      <trkpt lat="46.68849" lon="5.6764">
        <ele>513.9</ele>
        <time>2020-03-03T13:03:56Z</time>
      </trkpt>
      <trkpt lat="46.68854" lon="5.67644">
        <ele>513.8</ele>
        <time>2020-03-03T13:04:01Z</time>
      </trkpt>
      <trkpt lat="46.68859" lon="5.67648">
        <ele>513.6</ele>
        <time>2020-03-03T13:04:05Z</time>
      </trkpt>
      <trkpt lat="46.68863" lon="5.67651">
        <ele>513.3</ele>
        <time>2020-03-03T13:04:09Z</time>
      </trkpt>
      <trkpt lat="46.68868" lon="5.67655">
        <ele>513.1</ele>
        <time>2020-03-03T13:04:15Z</time>
      </trkpt>
      <trkpt lat="46.68872" lon="5.67658">
        <ele>513</ele>
        <time>2020-03-03T13:04:20Z</time>
      </trkpt>
      <trkpt lat="46.68877" lon="5.67661">
        <ele>512.9</ele>
        <time>2020-03-03T13:04:25Z</time>
      </trkpt>
      <trkpt lat="46.68882" lon="5.67662">
        <ele>512.7</ele>
        <time>2020-03-03T13:04:29Z</time>
      </trkpt>
      <trkpt lat="46.68887" lon="5.67664">
        <ele>512.3</ele>
        <time>2020-03-03T13:04:35Z</time>
      </trkpt>
      <trkpt lat="46.68892" lon="5.67667">
        <ele>512</ele>
        <time>2020-03-03T13:04:40Z</time>
      </trkpt>
      <trkpt lat="46.68896" lon="5.67671">
        <ele>511.8</ele>
        <time>2020-03-03T13:04:44Z</time>
      </trkpt>
      <trkpt lat="46.68899" lon="5.67678">
        <ele>511.4</ele>
        <time>2020-03-03T13:04:49Z</time>
      </trkpt>
      <trkpt lat="46.68901" lon="5.67684">
        <ele>511.2</ele>
        <time>2020-03-03T13:04:53Z</time>
      </trkpt>
      <trkpt lat="46.68903" lon="5.67691">
        <ele>510.8</ele>
        <time>2020-03-03T13:04:59Z</time>
      </trkpt>
      <trkpt lat="46.68904" lon="5.67697">
        <ele>510.6</ele>
        <time>2020-03-03T13:05:04Z</time>
      </trkpt>
      <trkpt lat="46.68905" lon="5.67705">
        <ele>510.2</ele>
        <time>2020-03-03T13:05:09Z</time>
      </trkpt>
      <trkpt lat="46.68906" lon="5.67712">
        <ele>509.9</ele>
        <time>2020-03-03T13:05:14Z</time>
      </trkpt>
      <trkpt lat="46.68905" lon="5.67721">
        <ele>509.5</ele>
        <time>2020-03-03T13:05:19Z</time>
      </trkpt>
      <trkpt lat="46.68904" lon="5.67727">
        <ele>509.1</ele>
        <time>2020-03-03T13:05:23Z</time>
      </trkpt>
      <trkpt lat="46.68902" lon="5.67735">
        <ele>508.7</ele>
        <time>2020-03-03T13:05:27Z</time>
      </trkpt>
      <trkpt lat="46.68901" lon="5.67741">
        <ele>508.2</ele>
        <time>2020-03-03T13:05:31Z</time>
      </trkpt>
      <trkpt lat="46.68899" lon="5.67749">
        <ele>507.7</ele>
        <time>2020-03-03T13:05:36Z</time>
      </trkpt>
      <trkpt lat="46.68898" lon="5.67756">
        <ele>507.3</ele>
        <time>2020-03-03T13:05:40Z</time>
      </trkpt>
      <trkpt lat="46.68898" lon="5.67763">
        <ele>506.8</ele>
        <time>2020-03-03T13:05:44Z</time>
      </trkpt>
      <trkpt lat="46.68897" lon="5.67769">
        <ele>506.4</ele>
        <time>2020-03-03T13:05:48Z</time>
      </trkpt>
      <trkpt lat="46.68897" lon="5.67777">
        <ele>506.1</ele>
        <time>2020-03-03T13:05:52Z</time>
      </trkpt>
      <trkpt lat="46.68897" lon="5.67783">
        <ele>505.9</ele>
        <time>2020-03-03T13:05:56Z</time>
      </trkpt>
      <trkpt lat="46.68898" lon="5.6779">
        <ele>505.9</ele>
        <time>2020-03-03T13:06:01Z</time>
      </trkpt>
      <trkpt lat="46.689" lon="5.67797">
        <ele>505.8</ele>
        <time>2020-03-03T13:06:05Z</time>
      </trkpt>
      <trkpt lat="46.68901" lon="5.67804">
        <ele>505.9</ele>
        <time>2020-03-03T13:06:09Z</time>
      </trkpt>
      <trkpt lat="46.68906" lon="5.6782">
        <ele>505.9</ele>
        <time>2020-03-03T13:06:21Z</time>
      </trkpt>
      <trkpt lat="46.68908" lon="5.67826">
        <ele>505.7</ele>
        <time>2020-03-03T13:06:25Z</time>
      </trkpt>
      <trkpt lat="46.6891" lon="5.67833">
        <ele>505.5</ele>
        <time>2020-03-03T13:06:30Z</time>
      </trkpt>
      <trkpt lat="46.68911" lon="5.67839">
        <ele>505.4</ele>
        <time>2020-03-03T13:06:34Z</time>
      </trkpt>
      <trkpt lat="46.68912" lon="5.67846">
        <ele>505.4</ele>
        <time>2020-03-03T13:06:38Z</time>
      </trkpt>
      <trkpt lat="46.68913" lon="5.67854">
        <ele>505.5</ele>
        <time>2020-03-03T13:06:42Z</time>
      </trkpt>
      <trkpt lat="46.68915" lon="5.67862">
        <ele>505.7</ele>
        <time>2020-03-03T13:06:46Z</time>
      </trkpt>
      <trkpt lat="46.68916" lon="5.67869">
        <ele>505.9</ele>
        <time>2020-03-03T13:06:50Z</time>
      </trkpt>
      <trkpt lat="46.68917" lon="5.67876">
        <ele>506.1</ele>
        <time>2020-03-03T13:06:56Z</time>
      </trkpt>
      <trkpt lat="46.68918" lon="5.67882">
        <ele>506.3</ele>
        <time>2020-03-03T13:07:02Z</time>
      </trkpt>
      <trkpt lat="46.6892" lon="5.67889">
        <ele>506.5</ele>
        <time>2020-03-03T13:07:07Z</time>
      </trkpt>
      <trkpt lat="46.6892" lon="5.67896">
        <ele>506.7</ele>
        <time>2020-03-03T13:07:12Z</time>
      </trkpt>
      <trkpt lat="46.68921" lon="5.67904">
        <ele>507</ele>
        <time>2020-03-03T13:07:17Z</time>
      </trkpt>
      <trkpt lat="46.68923" lon="5.67911">
        <ele>507.2</ele>
        <time>2020-03-03T13:07:21Z</time>
      </trkpt>
      <trkpt lat="46.68924" lon="5.67918">
        <ele>507.3</ele>
        <time>2020-03-03T13:07:26Z</time>
      </trkpt>
      <trkpt lat="46.68926" lon="5.67936">
        <ele>507.4</ele>
        <time>2020-03-03T13:07:38Z</time>
      </trkpt>
      <trkpt lat="46.68926" lon="5.67943">
        <ele>507.2</ele>
        <time>2020-03-03T13:07:42Z</time>
      </trkpt>
      <trkpt lat="46.68927" lon="5.6795">
        <ele>507.1</ele>
        <time>2020-03-03T13:07:47Z</time>
      </trkpt>
      <trkpt lat="46.68928" lon="5.67957">
        <ele>507.2</ele>
        <time>2020-03-03T13:07:51Z</time>
      </trkpt>
      <trkpt lat="46.6893" lon="5.67965">
        <ele>507.3</ele>
        <time>2020-03-03T13:07:55Z</time>
      </trkpt>
      <trkpt lat="46.68932" lon="5.6797">
        <ele>507.3</ele>
        <time>2020-03-03T13:07:59Z</time>
      </trkpt>
      <trkpt lat="46.68935" lon="5.67977">
        <ele>507.5</ele>
        <time>2020-03-03T13:08:04Z</time>
      </trkpt>
      <trkpt lat="46.68937" lon="5.67984">
        <ele>507.7</ele>
        <time>2020-03-03T13:08:08Z</time>
      </trkpt>
      <trkpt lat="46.68939" lon="5.6799">
        <ele>507.9</ele>
        <time>2020-03-03T13:08:13Z</time>
      </trkpt>
      <trkpt lat="46.6894" lon="5.67997">
        <ele>508.3</ele>
        <time>2020-03-03T13:08:18Z</time>
      </trkpt>
      <trkpt lat="46.68942" lon="5.68004">
        <ele>508.8</ele>
        <time>2020-03-03T13:08:23Z</time>
      </trkpt>
      <trkpt lat="46.68943" lon="5.68013">
        <ele>509.3</ele>
        <time>2020-03-03T13:08:28Z</time>
      </trkpt>
      <trkpt lat="46.68944" lon="5.68019">
        <ele>509.8</ele>
        <time>2020-03-03T13:08:33Z</time>
      </trkpt>
      <trkpt lat="46.68946" lon="5.68025">
        <ele>510.6</ele>
        <time>2020-03-03T13:08:45Z</time>
      </trkpt>
    </trkseg>
  </trk>
</gpx>